# Wetter Temperatur Luftdruck Luftfeuchtigkeit Sichtweite Windgeschwindigkeit Windrichtung Zeit
1 Clear 21 1017 73 10000 2.1 220 19:55 17.10.2019
2 Clouds 22 1017 68 10000 3.6 210 19:37 17.10.2019
3 Clouds 22 1017 68 10000 3.6 210 19:18 17.10.2019
4 Clear 23 1017 64 10000 5.7 210 18:39 17.10.2019
5 Clear 23 1017 64 10000 5.7 210 18:21 17.10.2019
6 Clear 24 1017 60 10000 5.1 210 17:55 17.10.2019
7 Clouds 24 1017 60 10000 6.7 210 17:37 17.10.2019
8 Clouds 24 1017 60 10000 6.7 210 17:19 17.10.2019
9 Clouds 25 1018 60 10000 6.2 210 16:42 17.10.2019
10 Clouds 25 1018 60 10000 6.2 210 16:42 17.10.2019
11 Clouds 24 1018 60 10000 6.2 210 16:19 17.10.2019
12 Clouds 24 1018 60 10000 7.2 220 15:59 17.10.2019
13 Clouds 24 1018 57 10000 6.2 210 15:41 17.10.2019
14 Clouds 24 1018 57 10000 6.2 210 15:21 17.10.2019
15 Clouds 24 1018 53 10000 6.2 210 14:58 17.10.2019
16 Clouds 24 1018 64 10000 6.2 200 14:39 17.10.2019
17 Clouds 24 1018 64 10000 6.2 200 14:21 17.10.2019
18 Clouds 24 1019 64 10000 5.7 210 13:42 17.10.2019
19 Clouds 24 1019 64 10000 5.7 210 13:21 17.10.2019
20 Clouds 23 1019 64 10000 5.1 200 12:59 17.10.2019
21 Clouds 23 1019 60 10000 5.1 200 12:40 17.10.2019
22 Clouds 23 1019 60 10000 3.6 200 12:20 17.10.2019
23 Clouds 23 1019 60 10000 3.6 200 11:58 17.10.2019
24 Clouds 23 1019 64 10000 2.1 200 11:40 17.10.2019
25 Clouds 22 1019 64 10000 1 0 11:19 17.10.2019
26 Clouds 22 1019 64 10000 1 0 10:54 17.10.2019
27 Clouds 22 1019 64 10000 1 0 10:54 17.10.2019
28 Clouds 22 1019 64 10000 1 0 10:54 17.10.2019
29 Clouds 20 1019 68 10000 1 0 10:36 17.10.2019
30 Clouds 20 1019 68 10000 1 0 10:18 17.10.2019
31 Clouds 20 1019 77 10000 1 360 10:18 17.10.2019
32 Clouds 20 1019 68 10000 1 0 10:18 17.10.2019
33 Clouds 17 1018 82 10000 1.5 350 09:41 17.10.2019
34 Clouds 16 1018 82 10000 1.5 350 09:22 17.10.2019
35 Clouds 15 1018 93 10000 1.5 360 08:58 17.10.2019
36 Clouds 14 1018 93 10000 2.1 350 08:39 17.10.2019
37 Clouds 14 1018 93 10000 2.1 350 08:21 17.10.2019
38 Clouds 14 1018 93 10000 2.1 350 08:21 17.10.2019
39 Clouds 14 1018 93 10000 1.5 360 07:55 17.10.2019
40 Clouds 14 1018 93 10000 1.5 360 07:55 17.10.2019
41 Clouds 15 1018 87 10000 2.1 340 07:36 17.10.2019
42 Clouds 15 1018 87 10000 2.1 340 07:18 17.10.2019
43 Clouds 15 1018 87 10000 2.1 10 06:40 17.10.2019
44 Clouds 15 1018 87 10000 2.1 10 06:21 17.10.2019
45 Clouds 14 1018 87 10000 1.5 340 05:52 17.10.2019
46 Clouds 15 1018 82 10000 1 350 05:32 17.10.2019
47 Clouds 15 1018 87 10000 2.1 350 04:53 17.10.2019
48 Clouds 16 1019 82 10000 1.5 350 03:55 17.10.2019
49 Clouds 16 1019 77 10000 1 350 02:36 17.10.2019
50 Clouds 16 1019 72 10000 1 40 01:27 17.10.2019
51 Clouds 16 1019 72 10000 1.5 340 00:38 17.10.2019
52 Clear 16 1019 72 10000 1.5 340 00:19 17.10.2019
53 Clear 17 1019 67 10000 2.1 360 23:42 16.10.2019
54 Clear 16 1019 67 10000 2.1 360 23:21 16.10.2019
55 Clear 17 1018 67 10000 1.5 340 22:56 16.10.2019
56 Clear 17 1018 67 10000 1.5 350 22:37 16.10.2019
57 Clear 18 1018 67 10000 1.5 350 22:18 16.10.2019
58 Clear 18 1018 63 10000 2.1 330 21:56 16.10.2019
59 Clear 18 1018 59 10000 2.1 320 21:37 16.10.2019
60 Clear 19 1018 59 10000 2.1 320 21:19 16.10.2019
61 Clear 19 1018 59 10000 2.1 320 21:19 16.10.2019
62 Clear 19 1018 49 10000 1.5 270 20:57 16.10.2019
63 Clear 20 1018 49 10000 1 240 20:38 16.10.2019
64 Clear 20 1018 49 10000 1 240 20:20 16.10.2019
65 Clear 20 1018 52 10000 3.1 240 19:58 16.10.2019
66 Clear 21 1018 49 10000 4.1 230 19:38 16.10.2019
67 Clear 21 1018 49 10000 4.1 230 19:20 16.10.2019
68 Clear 21 1018 49 10000 4.1 230 19:20 16.10.2019
69 Clear 22 1018 43 10000 5.1 230 18:39 16.10.2019
70 Clouds 23 1018 43 10000 5.1 230 18:20 16.10.2019
71 Clouds 23 1018 46 10000 6.2 220 17:58 16.10.2019
72 Clouds 23 1018 49 10000 6.2 220 17:39 16.10.2019
73 Clouds 23 1018 49 10000 6.2 220 17:21 16.10.2019
74 Clouds 24 1019 44 10000 7.2 220 17:00 16.10.2019
75 Clouds 24 1019 47 10000 7.7 220 16:41 16.10.2019
76 Clouds 24 1019 47 10000 7.7 220 16:21 16.10.2019
77 Clouds 23 1019 53 10000 6.7 200 15:57 16.10.2019
78 Clouds 24 1018 50 10000 5.7 220 15:38 16.10.2019
79 Clouds 23 1018 50 10000 5.7 220 15:18 16.10.2019
80 Clouds 23 1019 47 10000 5.1 210 14:56 16.10.2019
81 Clear 23 1020 46 10000 6.7 210 14:38 16.10.2019
82 Clear 23 1020 46 10000 6.7 210 14:18 16.10.2019
83 Clear 23 1020 43 10000 6.2 200 13:56 16.10.2019
84 Clear 23 1020 43 10000 6.2 200 13:56 16.10.2019
85 -273 0 0 0 0 0 13:56 16.10.2019
86 Clouds 23 1019 44 10000 5.1 210 13:37 16.10.2019
87 Clear 23 1021 40 10000 6.2 200 13:19 16.10.2019
88 Clear 22 1021 46 10000 3.6 190 12:41 16.10.2019
89 Clear 22 1021 46 10000 3.6 190 12:19 16.10.2019
90 Clear 22 1021 49 10000 2.1 190 11:44 16.10.2019
91 Clear 21 1021 49 10000 1 0 11:19 16.10.2019
92 Clear 21 1021 56 10000 0.5 0 10:41 16.10.2019
93 Clear 19 1021 67 10000 1 0 10:22 16.10.2019
94 Clear 19 1021 67 10000 1 0 10:22 16.10.2019
95 Clear 17 1021 72 10000 2.1 340 09:58 16.10.2019
96 Clear 17 1021 72 10000 2.1 340 09:58 16.10.2019
97 Clouds 16 1020 82 10000 4.654 207 09:39 16.10.2019
98 Clouds 15 1021 82 10000 1.5 360 09:39 16.10.2019
99 Clouds 14 1021 82 10000 1.5 360 09:20 16.10.2019
100 Fog 13 1020 87 10000 0.5 50 08:44 16.10.2019
101 Clouds 12 1021 81 10000 3.1 340 08:26 16.10.2019
102 Clouds 12 1021 81 10000 2.6 350 07:56 16.10.2019
103 Clouds 12 1021 81 10000 2.6 340 07:38 16.10.2019
104 Clouds 12 1021 81 10000 2.6 340 07:20 16.10.2019
105 Clouds 12 1021 81 10000 2.6 350 06:40 16.10.2019
106 Clear 12 1021 81 10000 2.6 350 06:19 16.10.2019
107 Clear 12 1021 81 10000 2.1 350 03:46 16.10.2019
108 Clear 13 1021 76 10000 1.5 360 02:50 16.10.2019
109 Clear 13 1021 76 10000 2.1 320 01:20 16.10.2019
110 Clear 13 1021 76 10000 1.5 350 00:57 16.10.2019
111 Clear 14 1021 71 10000 1.5 360 00:37 16.10.2019
112 Clear 14 1021 76 10000 2.1 10 23:42 15.10.2019
113 Clear 14 1021 71 10000 2.1 340 23:23 15.10.2019
114 Clear 15 1021 62 10000 1.5 330 22:59 15.10.2019
115 Clear 15 1021 62 10000 1.5 330 22:40 15.10.2019
116 Clear 15 1021 67 10000 2.6 340 22:21 15.10.2019
117 Clear 16 1021 67 10000 1.5 340 21:57 15.10.2019
118 Clear 17 1020 51 10000 2.1 260 21:38 15.10.2019
119 Clear 17 1020 51 10000 2.1 260 21:20 15.10.2019
120 Clear 17 1020 51 10000 1 0 20:58 15.10.2019
121 Clear 17 1020 51 10000 1 0 20:40 15.10.2019
122 Clear 17 1020 48 10000 2.1 290 20:22 15.10.2019
123 Clear 18 1020 48 10000 3.1 300 19:59 15.10.2019
124 Clouds 18 1019 48 10000 2.6 320 19:41 15.10.2019
125 Clear 19 1019 48 10000 3.1 310 19:20 15.10.2019
126 Clear 20 1019 42 10000 3.6 310 18:57 15.10.2019
127 Clear 20 1019 42 10000 3.6 310 18:57 15.10.2019
128 Clouds 21 1018 49 10000 4.1 310 18:39 15.10.2019
129 Clear 20 1019 45 10000 4.6 310 18:20 15.10.2019
130 Clear 20 1019 45 10000 4.6 320 17:42 15.10.2019
131 Clear 20 1019 42 10000 5.7 310 17:42 15.10.2019
132 Clear 20 1019 42 10000 5.7 310 17:21 15.10.2019
133 Clear 20 1019 45 10000 6.2 320 16:59 15.10.2019
134 Clear 21 1018 40 10000 6.2 320 16:41 15.10.2019
135 Clear 21 1018 40 10000 6.2 320 16:21 15.10.2019
136 Clear 21 1018 43 10000 6.2 330 15:55 15.10.2019
137 Clear 21 1018 46 10000 5.1 310 15:37 15.10.2019
138 Clouds 21 1018 46 10000 5.1 310 15:19 15.10.2019
139 Clouds 21 1018 43 10000 6.2 320 14:55 15.10.2019
140 Clouds 21 1017 49 10000 6.2 330 14:36 15.10.2019
141 Clear 21 1018 46 10000 5.7 330 14:18 15.10.2019
142 Clear 21 1018 43 10000 4.6 310 13:43 15.10.2019
143 Clear 21 1018 43 10000 4.6 310 13:20 15.10.2019
144 Clear 20 1018 49 10000 5.7 320 12:56 15.10.2019
145 Clear 20 1018 49 10000 5.7 330 12:37 15.10.2019
146 Clear 20 1018 49 10000 5.7 330 12:18 15.10.2019
147 Clear 20 1017 52 10000 6.2 320 11:42 15.10.2019
148 Clear 20 1017 52 10000 6.2 320 11:20 15.10.2019
149 Clear 20 1017 52 10000 6.2 320 11:20 15.10.2019
150 Clear 19 1017 52 10000 6.2 330 10:55 15.10.2019
151 Clouds 19 1016 60 10000 7.2 320 10:37 15.10.2019
152 Clouds 20 1016 60 10000 7.2 320 10:18 15.10.2019
153 Clouds 19 1015 63 10000 5.7 320 09:40 15.10.2019
154 Clouds 19 1015 63 10000 5.7 320 09:40 15.10.2019
155 Clouds 19 1015 63 10000 5.7 320 09:21 15.10.2019
156 Clouds 19 1014 68 10000 4.6 320 08:58 15.10.2019
157 Clouds 19 1014 68 10000 4.6 320 08:58 15.10.2019
158 Clouds 19 1014 72 10000 4.1 320 08:40 15.10.2019
159 Clouds 19 1014 72 10000 4.1 320 08:20 15.10.2019
160 Clouds 19 1013 82 10000 3.1 300 07:48 15.10.2019
161 Clouds 19 1013 77 10000 3.1 300 07:23 15.10.2019
162 Rain 20 1012 77 10000 4.6 290 06:58 15.10.2019
163 Rain 20 1012 77 10000 4.6 290 06:40 15.10.2019
164 Rain 20 1012 93 10000 1 40 05:58 15.10.2019
165 Rain 20 1011 93 10000 0.5 0 05:37 15.10.2019
166 Rain 19 1011 93 10000 0.5 0 04:54 15.10.2019
167 Rain 19 1012 93 10000 5 336.41 04:20 15.10.2019
168 Rain 20 1012 94 10000 1 280 03:35 15.10.2019
169 Rain 20 1012 94 10000 1 280 03:35 15.10.2019
170 Thunderstorm 21 1014 88 650 5.1 250 02:22 15.10.2019
171 Thunderstorm 21 1011 94 10000 2.1 40 01:47 15.10.2019
172 Rain 21 1013 88 10000 1 0 01:18 15.10.2019
173 Rain 21 1013 88 10000 1.5 50 00:46 15.10.2019
174 Clear 21 1014 88 10000 1.5 60 00:20 15.10.2019
175 Clouds 21 1013 94 10000 5.68 256.343 23:40 14.10.2019
176 Rain 21 1014 88 10000 1 50 23:19 14.10.2019
177 Rain 22 1014 83 10000 1.5 20 22:41 14.10.2019
178 Rain 22 1014 83 10000 1.5 20 22:21 14.10.2019
179 Clear 23 1013 83 10000 1 0 21:59 14.10.2019
180 Rain 23 1013 83 10000 1.5 0 21:40 14.10.2019
181 Rain 23 1013 83 10000 1.5 0 21:22 14.10.2019
182 Rain 23 1011 83 9000 3.6 110 20:59 14.10.2019
183 Rain 23 1011 83 9000 2.1 60 20:39 14.10.2019
184 Rain 23 1011 83 9000 2.1 60 20:21 14.10.2019
185 Rain 23 1012 78 10000 2.6 330 19:59 14.10.2019
186 Clouds 24 1011 78 10000 2.6 330 19:40 14.10.2019
187 Clouds 24 1013 73 10000 3.1 300 19:22 14.10.2019
188 Clear 25 1013 73 10000 4.1 320 18:58 14.10.2019
189 Clear 25 1013 73 10000 4.1 320 18:58 14.10.2019
190 Clear 25 1013 73 10000 4.1 320 18:58 14.10.2019
191 Clouds 25 1012 78 10000 2.6 260 18:38 14.10.2019
192 Clear 26 1013 73 10000 4.1 280 18:19 14.10.2019
193 Clear 27 1012 51 10000 4.1 230 17:44 14.10.2019
194 Clear 27 1012 51 10000 4.1 230 17:44 14.10.2019
195 Clear 27 1012 51 10000 4.1 230 17:26 14.10.2019
196 Clear 28 1012 51 10000 2.1 0 16:59 14.10.2019
197 Clear 29 1013 45 10000 3.1 220 16:40 14.10.2019
198 Clear 28 1013 45 10000 3.1 220 16:21 14.10.2019
199 Clear 28 1013 42 10000 7.2 190 15:42 14.10.2019
200 Clear 28 1013 42 10000 7.2 190 15:22 14.10.2019
201 Clear 29 1013 61 10000 6.2 220 14:56 14.10.2019
202 Clear 29 1013 61 10000 6.2 220 14:56 14.10.2019
203 Clear 30 1013 48 10000 5.7 200 14:38 14.10.2019
204 Clear 31 1013 48 10000 5.7 200 14:19 14.10.2019
205 Clear 30 1014 40 10000 2.6 110 13:44 14.10.2019
206 Clear 29 1014 45 10000 2.1 120 13:21 14.10.2019
207 Clear 28 1014 45 10000 2.1 120 12:55 14.10.2019
208 Clear 27 1015 54 10000 1.5 0 12:37 14.10.2019
209 Clear 26 1015 65 10000 2.1 70 12:18 14.10.2019
210 Clear 26 1015 65 10000 2.1 70 12:18 14.10.2019
211 Clear 26 1015 65 10000 2.1 70 12:18 14.10.2019
212 Clear 25 1016 69 10000 1.5 0 11:44 14.10.2019
213 Clear 24 1016 69 10000 1.5 0 11:26 14.10.2019
214 Clear 24 1016 73 10000 1 0 10:57 14.10.2019
215 Clear 24 1016 73 10000 1 0 10:57 14.10.2019
216 Clear 23 1016 78 10000 1.5 340 10:38 14.10.2019
217 Clear 21 1016 78 10000 1.5 340 10:19 14.10.2019
218 Clear 21 1016 88 10000 2.1 360 09:42 14.10.2019
219 Clear 19 1016 88 10000 2.1 360 09:21 14.10.2019
220 Clear 18 1015 88 10000 1.5 0 08:51 14.10.2019
221 Clear 19 1015 88 10000 3.1 280 08:23 14.10.2019
222 Clear 18 1015 88 10000 2.6 30 07:59 14.10.2019
223 Clear 18 1015 88 10000 3.1 10 07:39 14.10.2019
224 Clear 18 1015 88 10000 2.6 350 07:18 14.10.2019
225 Clear 19 1016 82 10000 2.6 10 06:37 14.10.2019
226 Clear 18 1016 82 10000 2.6 360 06:18 14.10.2019
227 Clear 19 1016 82 10000 2.1 320 05:42 14.10.2019
228 Clear 20 1016 82 10000 2.6 350 04:42 14.10.2019
229 Clear 20 1017 82 10000 2.6 360 03:27 14.10.2019
230 Clear 21 1017 82 10000 1.5 340 02:42 14.10.2019
231 Clear 22 1017 83 10000 1.5 360 01:23 14.10.2019
232 Clear 22 1017 83 10000 1.5 360 00:53 14.10.2019
233 Clear 22 1017 88 10000 1.5 20 00:19 14.10.2019
234 Clear 22 1017 83 10000 1.5 30 23:45 13.10.2019
235 Clear 22 1017 83 10000 1.5 30 23:20 13.10.2019
236 Clear 23 1017 83 10000 2.1 50 22:58 13.10.2019
237 Clear 23 1017 83 10000 2.1 50 22:58 13.10.2019
238 Clear 22 1017 83 10000 2.6 80 22:40 13.10.2019
239 Clear 23 1017 83 10000 2.6 80 22:21 13.10.2019
240 Clear 23 1017 78 10000 2.6 80 21:58 13.10.2019
241 Clear 23 1017 78 10000 2.6 80 21:37 13.10.2019
242 Clear 24 1017 73 10000 2.6 80 21:19 13.10.2019
243 Clear 24 1017 73 10000 2.6 80 20:57 13.10.2019
244 Clear 24 1017 73 10000 2.6 80 20:57 13.10.2019
245 Clear 24 1017 73 10000 4.1 100 20:39 13.10.2019
246 Clear 25 1017 73 10000 4.1 100 20:20 13.10.2019
247 Clear 25 1017 69 10000 3.1 100 19:58 13.10.2019
248 Clear 25 1016 65 10000 3.6 80 19:39 13.10.2019
249 Clear 25 1016 65 10000 3.6 80 19:39 13.10.2019
250 Clear 26 1016 65 10000 3.6 80 19:21 13.10.2019
251 Clear 26 1016 61 10000 4.1 100 18:57 13.10.2019
252 Clear 26 1016 61 10000 4.1 100 18:57 13.10.2019
253 Clear 27 1016 54 10000 4.1 110 18:37 13.10.2019
254 Clear 27 1016 54 10000 4.1 110 18:19 13.10.2019
255 Clear 27 1016 54 10000 4.1 110 18:19 13.10.2019
256 Clear 28 1016 51 10000 3.6 100 17:57 13.10.2019
257 Clear 28 1016 51 10000 4.1 120 17:38 13.10.2019
258 Clear 28 1016 51 10000 4.1 120 17:38 13.10.2019
259 Clear 28 1016 51 10000 4.1 120 17:20 13.10.2019
260 Clear 29 1016 51 10000 3.1 90 16:41 13.10.2019
261 Clear 29 1016 51 10000 3.1 90 16:19 13.10.2019
262 Clear 29 1016 48 10000 3.1 120 15:57 13.10.2019
263 Clear 29 1016 48 10000 3.1 130 15:38 13.10.2019
264 Clear 29 1016 48 10000 3.1 130 15:19 13.10.2019
265 Clear 29 1017 51 10000 3.6 130 14:57 13.10.2019
266 Clear 29 1017 51 10000 4.1 120 14:38 13.10.2019
267 Clear 28 1017 51 10000 4.1 120 14:19 13.10.2019
268 Clear 28 1018 58 10000 5.7 60 13:42 13.10.2019
269 Clear 28 1018 58 10000 5.7 60 13:42 13.10.2019
270 Clear 28 1018 58 10000 5.7 60 13:23 13.10.2019
271 Clear 27 1018 61 10000 4.6 60 12:59 13.10.2019
272 Clear 27 1018 61 10000 6.2 70 12:39 13.10.2019
273 Clear 26 1018 69 10000 6.2 60 12:21 13.10.2019
274 Clear 26 1018 69 10000 6.2 60 11:59 13.10.2019
275 Clear 25 1018 69 10000 5.1 80 11:39 13.10.2019
276 Clear 25 1018 69 10000 5.1 80 11:21 13.10.2019
277 Clear 24 1018 73 10000 5.1 80 10:59 13.10.2019
278 Clear 24 1018 78 10000 3.6 80 10:39 13.10.2019
279 Clear 24 1018 78 10000 3.6 80 10:39 13.10.2019
280 Clear 23 1018 78 10000 3.6 80 10:20 13.10.2019
281 Clear 21 1018 82 10000 2.1 360 09:39 13.10.2019
282 Clear 20 1018 82 10000 2.1 350 09:21 13.10.2019
283 Clear 20 1018 82 10000 2.1 350 09:21 13.10.2019
284 Clear 20 1018 82 10000 2.1 350 08:51 13.10.2019
285 Clear 20 1018 82 10000 1.5 340 08:27 13.10.2019
286 Clear 20 1018 82 10000 1.5 30 07:55 13.10.2019
287 Clear 20 1018 82 10000 2.6 20 07:35 13.10.2019
288 Clouds 20 1018 77 10000 2.1 10 06:54 13.10.2019
289 Clouds 21 1018 77 10000 2.1 10 06:54 13.10.2019
290 Clouds 21 1018 77 10000 3.1 10 06:26 13.10.2019
291 Clouds 21 1018 77 10000 3.1 10 05:27 13.10.2019
292 Clouds 21 1018 77 10000 2.6 30 04:35 13.10.2019
293 Clouds 21 1019 77 10000 3.6 30 03:35 13.10.2019
294 Clouds 21 1019 88 10000 1.5 10 02:32 13.10.2019
295 Clear 21 1019 83 10000 2.1 40 01:47 13.10.2019
296 Clear 21 1020 83 10000 2.1 60 01:21 13.10.2019
297 Clear 21 1020 83 10000 2.1 60 01:21 13.10.2019
298 Clear 22 1020 83 10000 1.5 70 00:43 13.10.2019
299 Clear 22 1020 83 10000 1.5 70 00:19 13.10.2019
300 Clear 21 1020 83 10000 2.1 60 23:54 12.10.2019
301 Clear 22 1020 83 10000 2.6 50 23:54 12.10.2019
302 Clear 22 1020 83 10000 2.1 60 23:36 12.10.2019
303 Clear 22 1020 83 10000 2.1 60 23:18 12.10.2019
304 Clear 22 1020 78 10000 2.6 60 22:54 12.10.2019
305 Clear 22 1020 78 10000 3.1 60 22:36 12.10.2019
306 Clear 22 1020 78 10000 3.1 60 22:18 12.10.2019
307 Clear 22 1020 78 10000 3.1 90 21:41 12.10.2019
308 Clear 23 1020 78 10000 3.1 90 21:23 12.10.2019
309 Clear 23 1019 73 10000 1.5 110 20:56 12.10.2019
310 Clear 23 1019 73 10000 2.6 120 20:38 12.10.2019
311 Clear 23 1019 73 10000 2.6 120 20:20 12.10.2019
312 Clear 24 1019 69 10000 3.6 140 19:37 12.10.2019
313 Clear 24 1019 65 10000 4.6 150 19:19 12.10.2019
314 Clear 25 1019 65 10000 4.6 150 18:46 12.10.2019
315 Clear 26 1019 57 10000 4.6 150 18:27 12.10.2019
316 Clear 26 1019 51 10000 4.1 150 17:58 12.10.2019
317 Clear 27 1019 51 10000 4.1 170 17:40 12.10.2019
318 Clear 27 1019 51 10000 4.1 170 17:18 12.10.2019
319 Clear 28 1019 48 10000 4.1 150 16:41 12.10.2019
320 Clear 28 1019 48 10000 4.1 150 16:41 12.10.2019
321 Clear 28 1019 48 10000 4.1 150 16:21 12.10.2019
322 Clear 28 1019 48 10000 4.1 150 15:59 12.10.2019
323 Clear 28 1019 51 10000 4.6 160 15:39 12.10.2019
324 Clear 28 1019 51 10000 4.6 160 15:21 12.10.2019
325 Clouds 28 1020 51 10000 2.6 110 14:41 12.10.2019
326 Clouds 28 1020 51 10000 2.6 110 14:21 12.10.2019
327 Clouds 28 1020 51 10000 2.6 110 14:21 12.10.2019
328 Clouds 27 1020 54 10000 2.1 130 13:53 12.10.2019
329 Clouds 27 1020 54 10000 2.1 130 13:53 12.10.2019
330 Clouds 26 1021 57 10000 3.1 130 13:33 12.10.2019
331 Clear 26 1021 57 10000 4.1 90 12:59 12.10.2019
332 Clear 25 1021 61 10000 4.1 80 12:38 12.10.2019
333 Clear 25 1021 61 10000 4.1 80 12:20 12.10.2019
334 Clear 24 1021 64 10000 3.6 100 11:56 12.10.2019
335 Clouds 24 1021 69 10000 4.1 60 11:38 12.10.2019
336 Clouds 23 1021 69 10000 4.1 60 11:19 12.10.2019
337 Clear 22 1021 73 10000 4.1 60 10:41 12.10.2019
338 Clear 22 1021 73 10000 4.1 60 10:23 12.10.2019
339 Clear 21 1021 77 10000 3.1 50 09:57 12.10.2019
340 -273 0 0 0 0 0 09:57 12.10.2019
341 Clear 21 1021 77 10000 3.1 50 09:57 12.10.2019
342 Clear 20 1021 82 10000 2.6 40 09:38 12.10.2019
343 Clear 20 1021 82 10000 2.6 40 09:19 12.10.2019
344 Clear 19 1020 82 10000 2.6 50 08:44 12.10.2019
345 Clear 19 1020 82 10000 2.6 50 08:44 12.10.2019
346 Clear 19 1020 82 10000 2.6 50 08:25 12.10.2019
347 Clouds 19 1021 82 10000 2.6 50 07:57 12.10.2019
348 Clear 19 1021 82 10000 2.1 50 07:31 12.10.2019
349 Clear 19 1020 77 10000 3.1 40 06:37 12.10.2019
350 Clear 19 1021 82 10000 1.5 30 05:44 12.10.2019
351 Clear 20 1021 82 10000 1.5 10 04:43 12.10.2019
352 Clear 20 1021 82 10000 2.6 30 03:56 12.10.2019
353 Clouds 20 1021 82 10000 3.6 40 02:50 12.10.2019
354 Clouds 20 1022 82 10000 2.6 40 01:35 12.10.2019
355 Clouds 20 1022 82 10000 2.6 50 00:57 12.10.2019
356 Clouds 20 1022 82 10000 3.1 40 00:38 12.10.2019
357 Clear 21 1022 77 10000 2.6 40 23:55 11.10.2019
358 Clear 21 1022 77 10000 2.1 40 23:37 11.10.2019
359 Clear 21 1022 77 10000 2.1 40 23:19 11.10.2019
360 Clear 22 1022 77 10000 2.1 30 22:39 11.10.2019
361 Clear 22 1022 77 10000 2.1 30 22:20 11.10.2019
362 Clear 22 1022 77 10000 1.5 60 21:55 11.10.2019
363 Clear 22 1022 77 10000 1 0 21:36 11.10.2019
364 Clear 22 1022 77 10000 1 0 21:18 11.10.2019
365 Clear 22 1021 73 10000 2.6 150 20:43 11.10.2019
366 Clear 22 1021 73 10000 2.6 150 20:25 11.10.2019
367 Clear 23 1021 64 10000 3.1 150 19:56 11.10.2019
368 Clear 24 1021 64 10000 3.1 150 19:38 11.10.2019
369 Clear 24 1021 64 10000 3.1 160 19:18 11.10.2019
370 Clear 24 1021 64 10000 3.1 160 18:57 11.10.2019
371 Clear 25 1021 65 10000 4.6 220 18:37 11.10.2019
372 Clear 25 1021 65 10000 4.6 220 18:19 11.10.2019
373 Clear 25 1021 65 10000 5.7 210 17:58 11.10.2019
374 Clear 26 1021 65 10000 6.7 220 17:37 11.10.2019
375 Clear 26 1021 65 10000 5.7 220 17:18 11.10.2019
376 Clear 25 1021 65 10000 5.7 220 16:54 11.10.2019
377 -273 0 0 0 0 0 16:54 11.10.2019
378 Clear 25 1022 65 10000 6.7 220 16:36 11.10.2019
379 Clear 25 1022 65 10000 6.7 220 16:18 11.10.2019
380 Clear 26 1022 61 10000 5.1 220 15:39 11.10.2019
381 Clear 27 1022 61 10000 5.1 220 15:19 11.10.2019
382 Clear 26 1022 65 10000 4.6 230 14:49 11.10.2019
383 Clear 26 1023 65 10000 3.1 230 14:30 11.10.2019
384 Clear 25 1023 61 10000 4.1 230 13:58 11.10.2019
385 Clear 25 1024 61 10000 4.1 210 13:40 11.10.2019
386 Clear 25 1024 64 10000 2.1 240 13:22 11.10.2019
387 Clear 25 1024 64 10000 2.1 240 12:56 11.10.2019
388 Clear 26 1024 64 10000 2.1 220 12:38 11.10.2019
389 Clear 24 1024 64 10000 2.1 220 12:20 11.10.2019
390 Clear 24 1024 64 10000 1.5 130 11:55 11.10.2019
391 Clear 23 1024 64 10000 1.5 130 11:36 11.10.2019
392 Clear 23 1024 64 10000 1.5 130 11:18 11.10.2019
393 Clear 22 1024 68 10000 1 0 10:41 11.10.2019
394 Clear 22 1024 68 10000 1 0 10:23 11.10.2019
395 Clear 20 1024 77 10000 1.5 20 09:57 11.10.2019
396 Clear 20 1023 82 10000 2.1 10 09:38 11.10.2019
397 Clear 19 1023 82 10000 2.1 10 09:20 11.10.2019
398 Clear 19 1023 82 10000 2.1 10 09:20 11.10.2019
399 Clear 18 1023 88 10000 2.1 10 08:55 11.10.2019
400 Clear 17 1023 87 10000 1.5 350 08:37 11.10.2019
401 Clear 17 1023 93 10000 1 0 08:19 11.10.2019
402 Clear 17 1023 87 10000 1 0 07:45 11.10.2019
403 Clear 17 1023 87 10000 1 0 07:27 11.10.2019
404 Clear 17 1023 87 10000 2.1 350 06:49 11.10.2019
405 Clouds 17 1023 87 10000 1.5 340 06:24 11.10.2019
406 Clouds 17 1023 82 10000 2.1 350 05:41 11.10.2019
407 Clouds 17 1023 82 10000 2.1 350 05:23 11.10.2019
408 Clear 17 1023 82 10000 1 0 04:38 11.10.2019
409 Clear 17 1023 82 10000 1.5 360 02:47 11.10.2019
410 Clear 19 1024 77 10000 2.1 20 00:52 11.10.2019
411 Clear 19 1024 77 10000 2.1 30 00:30 11.10.2019
412 Clouds 19 1024 77 10000 1.5 40 23:50 10.10.2019
413 Clouds 19 1024 77 10000 1.5 70 23:24 10.10.2019
414 Clouds 20 1024 72 10000 1.5 80 22:59 10.10.2019
415 Clouds 20 1024 72 10000 1.5 110 22:40 10.10.2019
416 Clouds 20 1024 72 10000 1.5 110 22:21 10.10.2019
417 Clouds 20 1024 72 10000 1.5 110 22:21 10.10.2019
418 Clouds 20 1024 72 10000 1.5 110 22:21 10.10.2019
419 Clouds 20 1024 72 10000 1.5 110 22:21 10.10.2019
420 Clouds 21 1023 68 10000 2.1 90 21:59 10.10.2019
421 Clouds 21 1023 68 10000 1.5 120 21:40 10.10.2019
422 Clouds 21 1023 68 10000 1.5 120 21:40 10.10.2019
423 Clouds 21 1023 68 10000 1.5 120 21:22 10.10.2019
424 Clouds 21 1023 68 10000 2.1 80 20:57 10.10.2019
425 Clouds 21 1022 68 10000 2.6 70 20:39 10.10.2019
426 Clouds 22 1022 68 10000 2.6 70 20:18 10.10.2019
427 Clouds 22 1022 68 10000 2.6 70 20:18 10.10.2019
428 Clouds 22 1022 64 10000 3.6 70 19:54 10.10.2019
429 Clouds 22 1022 64 10000 4.6 70 19:36 10.10.2019
430 Clouds 22 1022 64 10000 3.6 60 19:18 10.10.2019
431 Clouds 23 1022 60 10000 4.1 50 18:41 10.10.2019
432 Clouds 23 1022 60 10000 4.1 50 18:20 10.10.2019
433 Clouds 23 1022 60 10000 4.1 50 17:56 10.10.2019
434 Clouds 23 1022 56 10000 4.6 70 17:37 10.10.2019
435 Clouds 24 1022 57 10000 5.1 70 17:18 10.10.2019
436 Clouds 24 1022 57 10000 5.1 70 16:48 10.10.2019
437 Clouds 24 1022 57 10000 5.7 80 16:26 10.10.2019
438 Clouds 24 1022 60 10000 4.6 70 15:59 10.10.2019
439 Clouds 24 1022 60 10000 3.1 80 15:39 10.10.2019
440 Clouds 24 1022 60 10000 3.1 80 15:39 10.10.2019
441 Clouds 24 1022 60 10000 3.1 80 15:20 10.10.2019
442 Clouds 24 1022 57 10000 3.6 90 14:56 10.10.2019
443 Clouds 24 1022 60 10000 5.1 80 14:37 10.10.2019
444 Clouds 24 1022 60 10000 5.1 80 14:18 10.10.2019
445 Clouds 23 1023 60 10000 4.1 60 13:55 10.10.2019
446 Clouds 23 1023 60 10000 2.6 60 13:37 10.10.2019
447 Clouds 24 1023 64 10000 3.1 40 13:18 10.10.2019
448 Clouds 24 1023 60 10000 3.6 70 12:41 10.10.2019
449 Clear 24 1023 60 10000 3.6 70 12:20 10.10.2019
450 Clear 23 1023 64 10000 4.6 80 11:58 10.10.2019
451 Clear 23 1023 64 10000 4.6 80 11:58 10.10.2019
452 Clear 23 1023 69 10000 2.6 0 11:39 10.10.2019
453 Clear 22 1023 73 10000 3.6 70 11:19 10.10.2019
454 Clear 22 1023 69 10000 2.6 0 11:19 10.10.2019
455 Clear 21 1023 77 10000 1.5 50 10:45 10.10.2019
456 Clear 21 1023 77 10000 1.5 50 10:27 10.10.2019
457 Clear 21 1022 77 10000 1.5 350 09:58 10.10.2019
458 Clear 19 1022 82 10000 2.1 340 09:40 10.10.2019
459 Clear 19 1022 82 10000 2.1 340 09:22 10.10.2019
460 Clear 18 1021 88 10000 1.5 340 08:58 10.10.2019
461 Clear 18 1021 88 10000 1.5 340 08:38 10.10.2019
462 Clear 18 1021 88 10000 1.5 340 08:38 10.10.2019
463 Clear 18 1021 88 10000 1.5 340 08:19 10.10.2019
464 Clear 18 1021 82 10000 2.1 350 07:46 10.10.2019
465 Clear 18 1021 82 10000 2.1 350 07:23 10.10.2019
466 Clear 18 1021 88 10000 2.1 340 06:49 10.10.2019
467 Clear 18 1021 88 10000 1.5 320 06:29 10.10.2019
468 Clear 18 1020 82 10000 2.1 360 05:39 10.10.2019
469 Clear 18 1020 82 10000 2.1 360 05:18 10.10.2019
470 Clear 18 1021 88 10000 1.5 360 04:34 10.10.2019
471 Clear 20 1021 77 10000 2.1 70 02:19 10.10.2019
472 Clear 20 1021 73 10000 2.6 60 01:36 10.10.2019
473 Clear 20 1021 73 10000 2.6 60 01:18 10.10.2019
474 Clear 21 1020 73 10000 2.6 60 00:25 10.10.2019
475 Clear 21 1020 73 10000 3.1 70 23:42 09.10.2019
476 Clear 21 1020 73 10000 3.1 70 23:23 09.10.2019
477 Clear 21 1020 73 10000 3.6 70 22:59 09.10.2019
478 Clear 22 1020 68 10000 2.1 70 22:41 09.10.2019
479 Clear 22 1020 68 10000 2.1 70 22:22 09.10.2019
480 Clear 22 1020 68 10000 2.1 70 22:22 09.10.2019
481 Clear 22 1019 68 10000 1.5 90 21:56 09.10.2019
482 Clear 22 1019 68 10000 1 90 21:38 09.10.2019
483 Clear 22 1019 68 10000 2.1 130 21:18 09.10.2019
484 Clear 22 1019 68 10000 2.1 130 20:54 09.10.2019
485 Clear 23 1019 64 10000 2.1 170 20:36 09.10.2019
486 Clear 23 1019 69 10000 2.1 190 20:18 09.10.2019
487 Clear 23 1019 64 10000 2.1 170 20:18 09.10.2019
488 Clear 23 1018 64 10000 2.6 200 19:43 09.10.2019
489 Clear 23 1018 64 10000 2.6 200 19:22 09.10.2019
490 Clear 24 1018 60 10000 3.6 210 18:39 09.10.2019
491 Clear 24 1018 60 10000 3.6 210 18:21 09.10.2019
492 Clear 24 1018 57 10000 4.1 210 17:58 09.10.2019
493 Clear 24 1017 57 10000 4.1 220 17:40 09.10.2019
494 Clear 25 1018 57 10000 3.6 220 17:22 09.10.2019
495 Clear 25 1018 57 10000 3.6 220 16:57 09.10.2019
496 Clear 25 1018 57 10000 4.1 220 16:39 09.10.2019
497 Clear 26 1018 57 10000 4.1 220 16:21 09.10.2019
498 Clear 26 1018 57 10000 4.1 220 16:21 09.10.2019
499 Clear 25 1018 57 10000 3.6 200 15:57 09.10.2019
500 Clear 25 1018 50 10000 4.6 210 15:38 09.10.2019
501 Clear 25 1018 50 10000 4.6 210 15:19 09.10.2019
502 Clear 25 1018 53 10000 2.6 230 14:55 09.10.2019
503 Clear 25 1018 57 10000 3.1 230 14:36 09.10.2019
504 Clear 25 1018 57 10000 3.1 230 14:18 09.10.2019
505 Clear 25 1019 57 10000 3.6 220 13:38 09.10.2019
506 Clouds 26 1019 60 10000 3.1 220 13:20 09.10.2019
507 Clouds 25 1019 60 10000 3.1 220 12:57 09.10.2019
508 Clouds 24 1019 60 10000 3.1 230 12:37 09.10.2019
509 Clear 24 1019 57 10000 2.1 0 12:19 09.10.2019
510 Clear 24 1019 57 10000 2.1 0 11:54 09.10.2019
511 Clear 24 1019 60 10000 2.1 180 11:36 09.10.2019
512 Clear 24 1019 60 10000 2.1 180 11:36 09.10.2019
513 Clear 23 1019 60 10000 1 0 11:18 09.10.2019
514 Clear 23 1019 64 10000 0.5 350 10:42 09.10.2019
515 Clear 22 1019 64 10000 0.5 350 10:20 09.10.2019
516 Clear 20 1019 72 10000 1.5 330 09:56 09.10.2019
517 Clear 19 1019 72 10000 2.1 340 09:38 09.10.2019
518 Clear 18 1019 72 10000 2.1 340 09:18 09.10.2019
519 Clear 16 1018 82 10000 2.1 340 08:39 09.10.2019
520 Clear 16 1018 82 10000 2.1 340 08:20 09.10.2019
521 Clear 16 1019 82 10000 2.1 340 07:47 09.10.2019
522 Clear 16 1019 82 10000 2.1 340 07:47 09.10.2019
523 Clear 16 1019 82 10000 2.1 340 07:25 09.10.2019
524 Clear 16 1019 82 10000 2.1 340 07:25 09.10.2019
525 Clear 16 1019 82 10000 2.6 340 06:59 09.10.2019
526 Clear 16 1019 82 10000 1.5 330 06:41 09.10.2019
527 Clear 16 1019 82 10000 1.5 350 05:53 09.10.2019
528 Clear 16 1019 82 10000 1.5 340 05:18 09.10.2019
529 Clear 17 1019 82 10000 2.1 340 03:49 09.10.2019
530 Clear 17 1020 77 10000 2.1 340 02:35 09.10.2019
531 Clear 17 1020 77 10000 1.5 350 01:39 09.10.2019
532 Clear 17 1020 77 10000 1.5 350 01:39 09.10.2019
533 Clear 18 1020 77 10000 1.5 350 01:19 09.10.2019
534 Clear 18 1020 77 10000 1.5 350 00:55 09.10.2019
535 Clear 18 1020 72 10000 1.5 360 00:37 09.10.2019
536 Clear 18 1020 72 10000 1.5 360 00:19 09.10.2019
537 Clear 19 1020 68 10000 1.5 350 23:39 08.10.2019
538 Clear 19 1020 68 10000 1.5 350 23:39 08.10.2019
539 Clear 19 1020 68 10000 1.5 350 23:18 08.10.2019
540 Clear 19 1020 68 10000 1.5 350 22:55 08.10.2019
541 Clear 20 1020 64 10000 1.5 60 22:37 08.10.2019
542 Clear 20 1020 64 10000 1.5 60 22:18 08.10.2019
543 Clear 21 1020 64 10000 0.5 0 21:56 08.10.2019
544 Clear 21 1020 60 10000 1.5 210 21:37 08.10.2019
545 Clear 22 1020 60 10000 1.5 210 21:18 08.10.2019
546 Clear 21 1019 60 10000 2.1 210 20:55 08.10.2019
547 Clear 22 1019 60 10000 2.6 210 20:37 08.10.2019
548 Clear 22 1019 60 10000 2.6 210 20:18 08.10.2019
549 Clear 22 1019 56 10000 3.6 210 19:56 08.10.2019
550 Clear 22 1019 60 10000 5.1 210 19:36 08.10.2019
551 Clear 23 1019 60 10000 5.1 210 19:18 08.10.2019
552 Clear 23 1019 56 10000 5.7 210 18:45 08.10.2019
553 Clear 24 1019 56 10000 5.7 210 18:25 08.10.2019
554 Clear 24 1019 53 10000 6.2 220 17:58 08.10.2019
555 Clear 24 1019 53 10000 6.2 210 17:39 08.10.2019
556 Clear 24 1019 53 10000 6.2 210 17:20 08.10.2019
557 Clear 24 1019 53 10000 5.7 210 16:56 08.10.2019
558 Clear 24 1019 53 10000 5.7 210 16:56 08.10.2019
559 Clear 24 1019 53 10000 5.7 210 16:56 08.10.2019
560 Clear 24 1020 50 10000 6.7 210 16:37 08.10.2019
561 Clear 24 1020 50 10000 6.7 210 16:18 08.10.2019
562 Clear 24 1020 50 10000 6.2 210 15:39 08.10.2019
563 Clear 24 1020 50 10000 6.2 210 15:39 08.10.2019
564 Clear 24 1020 50 10000 6.2 210 15:20 08.10.2019
565 Clear 24 1020 50 10000 5.7 210 14:56 08.10.2019
566 Clear 24 1021 50 10000 5.1 210 14:38 08.10.2019
567 Clear 24 1021 44 10000 4.1 220 14:19 08.10.2019
568 Clear 24 1021 50 10000 5.1 210 14:19 08.10.2019
569 Clear 24 1022 41 10000 3.6 230 13:55 08.10.2019
570 Clear 25 1021 44 10000 4.1 220 13:55 08.10.2019
571 Clear 24 1022 41 10000 3.6 230 13:37 08.10.2019
572 Clear 24 1022 41 10000 3.6 230 13:37 08.10.2019
573 Clear 24 1022 41 10000 3.1 190 13:18 08.10.2019
574 Clear 24 1022 43 10000 2.1 150 12:41 08.10.2019
575 Clear 23 1022 43 10000 2.1 150 12:20 08.10.2019
576 Clear 23 1022 43 10000 2.1 150 12:20 08.10.2019
577 Clear 23 1022 46 10000 2.1 150 11:58 08.10.2019
578 Clear 23 1022 46 10000 1 0 11:39 08.10.2019
579 Clear 23 1022 46 10000 1 0 11:21 08.10.2019
580 Clear 22 1022 43 10000 1 0 10:54 08.10.2019
581 Clear 22 1022 43 10000 1 0 10:54 08.10.2019
582 Clear 22 1022 45 10000 0.5 0 10:36 08.10.2019
583 Clear 21 1022 52 10000 1 0 10:18 08.10.2019
584 Clear 18 1021 59 10000 1 0 09:40 08.10.2019
585 Clear 17 1021 59 10000 1 0 09:22 08.10.2019
586 Clear 14 1021 66 10000 1.5 350 08:54 08.10.2019
587 Clear 14 1021 66 10000 1.5 350 08:36 08.10.2019
588 Clear 14 1021 62 10000 1.5 350 08:18 08.10.2019
589 Clear 14 1020 67 10000 1.5 20 07:41 08.10.2019
590 Clear 14 1020 67 10000 1.5 20 07:19 08.10.2019
591 Clear 15 1020 67 10000 2.1 10 06:46 08.10.2019
592 Clear 15 1020 67 10000 2.1 10 06:23 08.10.2019
593 Clear 15 1020 71 10000 2.1 330 05:44 08.10.2019
594 Clear 15 1020 71 10000 2.1 330 05:21 08.10.2019
595 Clear 15 1020 71 10000 2.1 330 05:21 08.10.2019
596 Clear 17 1020 72 10000 2.1 320 03:32 08.10.2019
597 Clear 16 1020 77 10000 2.1 320 02:46 08.10.2019
598 Clear 16 1020 77 10000 2.1 340 02:26 08.10.2019
599 Clear 16 1020 77 10000 2.1 340 01:42 08.10.2019
600 Clear 17 1020 77 10000 2.1 340 01:19 08.10.2019
601 Clear 18 1020 72 10000 2.1 360 00:38 08.10.2019
602 Clear 18 1020 72 10000 2.1 360 00:19 08.10.2019
603 Clear 18 1020 72 10000 1 0 23:39 07.10.2019
604 Clear 19 1020 72 10000 1 0 23:19 07.10.2019
605 Clear 19 1020 72 10000 0.5 0 22:55 07.10.2019
606 Clear 19 1019 72 10000 1 0 22:37 07.10.2019
607 Clear 19 1019 72 10000 1 0 22:19 07.10.2019
608 Clear 19 1019 68 10000 1 0 21:55 07.10.2019
609 Clear 20 1018 64 10000 2.1 90 21:37 07.10.2019
610 Clear 20 1018 64 10000 2.1 90 21:18 07.10.2019
611 Clear 21 1018 60 10000 2.6 90 20:56 07.10.2019
612 Clear 21 1018 60 10000 2.6 70 20:38 07.10.2019
613 Clear 22 1017 56 10000 3.1 60 20:19 07.10.2019
614 Clear 22 1017 56 10000 3.1 60 19:54 07.10.2019
615 Clear 22 1017 49 10000 4.6 70 19:36 07.10.2019
616 Clear 23 1016 41 10000 2.1 0 19:18 07.10.2019
617 Clouds 24 1016 47 10000 5.7 310 18:43 07.10.2019
618 Clouds 24 1016 47 10000 6.2 290 18:20 07.10.2019
619 Clouds 24 1016 47 10000 6.2 290 17:59 07.10.2019
620 Clouds 24 1016 50 10000 5.7 290 17:41 07.10.2019
621 Clouds 24 1016 50 10000 5.7 290 17:19 07.10.2019
622 Clear 25 1016 44 10000 4.6 300 16:55 07.10.2019
623 Clear 25 1016 44 10000 4.6 300 16:55 07.10.2019
624 Clouds 24 1016 47 10000 4.6 320 16:37 07.10.2019
625 Clouds 24 1016 50 10000 5.1 230 16:18 07.10.2019
626 Clouds 25 1016 50 10000 3.1 210 15:41 07.10.2019
627 Clouds 25 1016 50 10000 3.1 210 15:41 07.10.2019
628 Clouds 25 1016 50 10000 3.1 210 15:41 07.10.2019
629 Clouds 24 1016 50 10000 3.1 210 15:22 07.10.2019
630 Clouds 24 1016 53 10000 2.1 40 14:42 07.10.2019
631 Clouds 24 1016 53 10000 2.1 40 14:23 07.10.2019
632 Clouds 24 1016 50 10000 2.1 0 13:59 07.10.2019
633 Clouds 24 1016 47 10000 2.1 0 13:40 07.10.2019
634 Clouds 24 1016 47 10000 2.1 0 13:18 07.10.2019
635 -273 0 0 0 0 0 12:54 07.10.2019
636 Clouds 23 1017 49 10000 5.7 70 12:36 07.10.2019
637 Clouds 23 1017 49 10000 5.7 70 12:36 07.10.2019
638 Clouds 22 1017 53 10000 6.2 70 12:18 07.10.2019
639 Clouds 23 1017 53 10000 6.2 70 11:56 07.10.2019
640 Clear 22 1017 56 10000 5.7 50 11:36 07.10.2019
641 Clouds 21 1016 60 10000 6.2 60 11:18 07.10.2019
642 Clouds 21 1016 68 10000 6.2 50 10:40 07.10.2019
643 Clouds 20 1016 68 10000 6.2 50 10:20 07.10.2019
644 Clouds 20 1015 60 10000 2.6 0 09:42 07.10.2019
645 Clouds 20 1015 60 10000 2.6 0 09:23 07.10.2019
646 Clear 20 1015 60 10000 2.1 60 08:56 07.10.2019
647 Clear 20 1014 60 10000 6.7 330 08:37 07.10.2019
648 Clear 20 1014 60 10000 6.7 330 08:18 07.10.2019
649 Clouds 21 1014 52 10000 7.7 330 07:41 07.10.2019
650 Clouds 21 1014 52 10000 7.7 330 07:21 07.10.2019
651 Clear 22 1014 49 10000 7.2 330 06:48 07.10.2019
652 Clouds 22 1014 46 10000 8.2 320 06:27 07.10.2019
653 Clear 23 1014 49 10000 6.7 330 05:42 07.10.2019
654 Clear 22 1014 49 10000 6.7 330 05:21 07.10.2019
655 Clear 21 1015 68 10000 4.6 320 04:23 07.10.2019
656 Clear 20 1016 77 10000 1 0 03:44 07.10.2019
657 Clear 20 1016 77 10000 1 0 03:19 07.10.2019
658 Clear 20 1017 77 10000 1.5 290 02:20 07.10.2019
659 Clear 20 1017 77 10000 1.5 360 01:50 07.10.2019
660 Clear 20 1017 77 10000 1.5 360 01:21 07.10.2019
661 Clear 20 1017 77 10000 2.1 360 00:39 07.10.2019
662 Clear 20 1017 77 10000 2.1 360 00:20 07.10.2019
663 Clear 20 1017 72 10000 1.5 350 23:42 06.10.2019
664 Clear 20 1017 72 10000 1.5 350 23:42 06.10.2019
665 Clear 20 1017 72 10000 1.5 350 23:21 06.10.2019
666 Clear 21 1017 68 10000 2.1 10 22:59 06.10.2019
667 Clear 21 1017 73 10000 2.1 10 22:41 06.10.2019
668 Clear 21 1017 73 10000 2.1 10 22:22 06.10.2019
669 Clear 22 1017 68 10000 2.6 350 21:58 06.10.2019
670 Clear 22 1017 68 10000 3.6 330 21:38 06.10.2019
671 Clear 22 1017 68 10000 3.6 330 21:38 06.10.2019
672 Clear 22 1017 68 10000 3.6 330 21:38 06.10.2019
673 Clear 22 1017 68 10000 2.1 310 21:19 06.10.2019
674 Clear 22 1017 68 10000 2.1 310 20:58 06.10.2019
675 Clear 23 1017 64 10000 1.5 320 20:40 06.10.2019
676 Clear 23 1017 64 10000 1.5 320 20:20 06.10.2019
677 Clear 24 1016 60 10000 2.6 320 19:57 06.10.2019
678 Clouds 24 1016 57 10000 3.1 310 19:37 06.10.2019
679 Clouds 24 1016 57 10000 3.1 310 19:19 06.10.2019
680 Clouds 24 1017 57 10000 3.6 320 18:56 06.10.2019
681 Clouds 25 1017 47 10000 3.6 220 18:38 06.10.2019
682 Clouds 25 1017 47 10000 3.6 220 18:19 06.10.2019
683 Clear 26 1016 47 10000 5.1 220 17:57 06.10.2019
684 Clear 27 1016 47 10000 5.7 220 17:38 06.10.2019
685 Clear 27 1016 47 10000 5.7 220 17:18 06.10.2019
686 Clear 27 1017 51 10000 4.1 250 16:42 06.10.2019
687 Clear 26 1017 54 10000 4.1 230 16:23 06.10.2019
688 Clear 26 1017 54 10000 4.1 230 15:54 06.10.2019
689 Clear 26 1018 57 10000 4.1 230 15:36 06.10.2019
690 Clear 26 1018 57 10000 4.1 230 15:18 06.10.2019
691 Clear 26 1018 61 10000 5.1 220 14:42 06.10.2019
692 Clear 26 1018 61 10000 5.1 220 14:42 06.10.2019
693 Clear 26 1018 61 10000 5.1 220 14:42 06.10.2019
694 Clear 26 1018 61 10000 5.1 220 14:24 06.10.2019
695 Clear 26 1019 61 10000 5.1 220 13:56 06.10.2019
696 Clear 26 1019 57 10000 2.6 220 13:38 06.10.2019
697 Clouds 26 1019 54 10000 3.1 320 13:19 06.10.2019
698 Clouds 26 1019 54 10000 3.1 320 12:56 06.10.2019
699 Clouds 26 1019 54 10000 1 340 12:38 06.10.2019
700 Clear 26 1019 54 10000 1 340 12:20 06.10.2019
701 Clear 25 1019 61 10000 1.5 260 11:55 06.10.2019
702 Clear 25 1019 61 10000 1 0 11:37 06.10.2019
703 Clear 24 1019 61 10000 1 0 11:18 06.10.2019
704 Clear 23 1018 73 10000 1.5 10 10:42 06.10.2019
705 Clear 22 1018 73 10000 1.5 10 10:24 06.10.2019
706 Clear 20 1018 82 10000 2.1 350 09:56 06.10.2019
707 Clear 21 1018 88 10000 2.6 340 09:38 06.10.2019
708 Clear 19 1018 88 10000 2.6 340 09:18 06.10.2019
709 Clear 18 1018 88 10000 2.6 330 08:43 06.10.2019
710 Clear 17 1017 93 10000 1.5 340 08:20 06.10.2019
711 Clear 18 1017 93 10000 2.1 350 07:44 06.10.2019
712 Clear 19 1017 88 10000 2.1 10 07:19 06.10.2019
713 Clear 19 1017 88 10000 2.1 360 06:20 06.10.2019
714 Clear 19 1017 93 10000 2.1 360 05:34 06.10.2019
715 Clear 18 1017 88 10000 2.6 340 03:42 06.10.2019
716 Clear 20 1017 88 10000 1.5 350 02:42 06.10.2019
717 Clear 20 1017 88 10000 1.5 350 02:21 06.10.2019
718 Clear 20 1017 88 10000 1.5 340 01:44 06.10.2019
719 Clouds 20 1017 88 10000 1.5 340 01:26 06.10.2019
720 Clouds 21 1018 83 10000 1 0 00:52 06.10.2019
721 Clouds 21 1017 83 10000 1.5 20 00:26 06.10.2019
722 Clouds 21 1017 83 10000 1.5 330 23:45 05.10.2019
723 Clouds 21 1017 83 10000 1.5 330 23:22 05.10.2019
724 Clouds 21 1017 78 10000 1 0 22:58 05.10.2019
725 Clouds 21 1017 78 10000 1 0 22:40 05.10.2019
726 Clouds 22 1017 78 10000 1 0 22:20 05.10.2019
727 Clouds 22 1017 78 10000 1.5 120 21:57 05.10.2019
728 Clouds 22 1017 73 10000 1.5 130 21:38 05.10.2019
729 Clouds 23 1017 73 10000 1.5 130 21:18 05.10.2019
730 Clouds 23 1016 73 10000 2.1 110 20:56 05.10.2019
731 Clouds 23 1016 73 10000 1 0 20:37 05.10.2019
732 Clouds 23 1016 73 10000 1 0 20:18 05.10.2019
733 Clouds 24 1016 73 10000 3.6 230 19:38 05.10.2019
734 Clouds 24 1016 73 10000 3.6 230 19:19 05.10.2019
735 Clouds 25 1016 69 10000 3.6 230 18:55 05.10.2019
736 Clouds 26 1016 65 10000 4.1 210 18:37 05.10.2019
737 Clouds 26 1016 61 10000 3.6 200 18:19 05.10.2019
738 Clouds 26 1016 65 10000 3.1 130 17:43 05.10.2019
739 Clouds 25 1016 65 10000 3.1 130 17:25 05.10.2019
740 Clouds 25 1016 61 10000 2.6 0 16:59 05.10.2019
741 Clouds 25 1016 61 10000 4.1 220 16:41 05.10.2019
742 Clouds 26 1016 61 10000 4.1 220 16:21 05.10.2019
743 Clouds 26 1016 61 10000 4.1 200 15:57 05.10.2019
744 Clouds 26 1016 61 10000 3.1 210 15:39 05.10.2019
745 Clear 26 1016 61 10000 3.1 210 15:21 05.10.2019
746 Clear 26 1016 57 10000 3.1 120 14:56 05.10.2019
747 Clear 26 1016 57 10000 2.1 180 14:38 05.10.2019
748 Clear 26 1016 57 10000 2.1 180 14:19 05.10.2019
749 Clear 26 1016 54 10000 1 0 13:41 05.10.2019
750 Clouds 26 1016 54 10000 1 0 13:21 05.10.2019
751 Clouds 25 1016 61 10000 2.1 150 12:46 05.10.2019
752 Clouds 26 1016 61 10000 2.1 150 12:46 05.10.2019
753 Clear 26 1016 61 10000 2.1 150 12:21 05.10.2019
754 Clear 25 1016 65 10000 1 0 11:58 05.10.2019
755 Clear 25 1016 69 10000 1.5 0 11:37 05.10.2019
756 Clear 24 1016 69 10000 1.5 110 11:18 05.10.2019
757 Clear 23 1016 73 10000 1 0 10:44 05.10.2019
758 Clear 23 1016 73 10000 1 0 10:25 05.10.2019
759 Clear 21 1016 77 10000 1.5 10 09:58 05.10.2019
760 Clear 20 1016 77 10000 1.5 350 09:39 05.10.2019
761 Clear 19 1016 77 10000 1.5 350 09:20 05.10.2019
762 Clear 17 1015 77 10000 1.5 330 08:40 05.10.2019
763 Clear 18 1015 77 10000 1.5 330 08:19 05.10.2019
764 Clear 17 1015 77 10000 3.1 350 07:57 05.10.2019
765 Clear 18 1015 72 10000 2.6 330 07:34 05.10.2019
766 Clear 17 1015 72 10000 1.5 340 06:58 05.10.2019
767 Clear 18 1015 82 10000 2.1 330 06:27 05.10.2019
768 Clear 18 1015 77 10000 2.1 10 05:40 05.10.2019
769 Clear 19 1015 77 10000 1.5 350 03:57 05.10.2019
770 Clear 18 1016 82 10000 2.1 350 03:28 05.10.2019
771 Clear 19 1016 82 10000 2.1 330 01:41 05.10.2019
772 Clear 19 1016 82 10000 2.1 330 01:20 05.10.2019
773 Clear 19 1016 82 10000 2.1 340 00:43 05.10.2019
774 Clear 19 1016 82 10000 2.1 340 00:23 05.10.2019
775 Clear 20 1016 82 10000 2.1 340 23:44 04.10.2019
776 Clear 20 1016 82 10000 2.1 340 23:26 04.10.2019
777 Clear 20 1016 77 10000 1.5 330 22:59 04.10.2019
778 Clear 20 1016 77 10000 2.1 360 22:39 04.10.2019
779 Clear 20 1016 77 10000 2.1 360 22:20 04.10.2019
780 Clear 22 1016 73 10000 1.5 310 21:57 04.10.2019
781 Clear 22 1016 73 10000 1.5 270 21:38 04.10.2019
782 Clear 22 1016 73 10000 1.5 270 21:19 04.10.2019
783 Clear 22 1016 68 10000 2.6 220 20:55 04.10.2019
784 Clear 22 1016 68 10000 2.1 210 20:36 04.10.2019
785 Clear 22 1016 68 10000 3.6 200 20:18 04.10.2019
786 Clear 23 1016 64 10000 4.6 200 19:45 04.10.2019
787 Clear 23 1016 64 10000 4.6 200 19:27 04.10.2019
788 Clear 24 1016 60 10000 5.1 200 18:58 04.10.2019
789 Clear 24 1016 60 10000 5.1 200 18:38 04.10.2019
790 Clear 25 1016 60 10000 5.1 200 18:19 04.10.2019
791 Clear 25 1016 60 10000 5.7 210 17:55 04.10.2019
792 Clear 24 1016 60 10000 5.7 200 17:36 04.10.2019
793 Clear 24 1016 60 10000 5.7 200 17:18 04.10.2019
794 Clear 25 1017 57 10000 5.1 200 16:41 04.10.2019
795 Clear 25 1017 57 10000 5.1 200 16:19 04.10.2019
796 Clear 25 1017 60 10000 5.7 200 15:59 04.10.2019
797 Clear 25 1017 53 10000 5.1 210 15:40 04.10.2019
798 Clear 25 1017 53 10000 5.1 210 15:21 04.10.2019
799 Clear 25 1017 57 10000 4.6 210 14:59 04.10.2019
800 Clear 24 1018 60 10000 4.6 200 14:41 04.10.2019
801 Clear 25 1018 57 10000 4.1 220 14:22 04.10.2019
802 Clear 25 1018 57 10000 4.1 220 13:58 04.10.2019
803 Clear 24 1019 53 10000 4.6 220 13:40 04.10.2019
804 Clear 24 1019 53 10000 4.6 220 13:19 04.10.2019
805 Clear 25 1019 56 10000 3.91 191.577 12:45 04.10.2019
806 Clear 24 1019 56 10000 3.91 191.577 12:27 04.10.2019
807 Clear 23 1019 64 10000 1.5 120 11:44 04.10.2019
808 Clear 24 1019 64 10000 1.5 120 11:43 04.10.2019
809 Clear 24 1019 64 10000 1.5 120 11:43 04.10.2019
810 Clear 24 1019 64 10000 1.5 120 11:43 04.10.2019
811 Clear 23 1019 64 10000 1.5 120 11:22 04.10.2019
812 Clear 23 1019 68 10000 1 0 10:58 04.10.2019
813 Clear 21 1019 77 10000 1 340 10:38 04.10.2019
814 Clear 21 1019 77 10000 1 340 10:19 04.10.2019
815 Clear 19 1018 82 10000 2.1 340 09:44 04.10.2019
816 Clear 17 1018 82 10000 2.1 340 09:25 04.10.2019
817 Clear 17 1018 87 10000 2.1 350 08:48 04.10.2019
818 Clear 16 1018 87 10000 2.6 350 08:29 04.10.2019
819 Clear 16 1018 87 10000 2.1 350 07:56 04.10.2019
820 Clear 16 1018 87 10000 2.1 340 07:38 04.10.2019
821 Clear 16 1018 87 10000 2.1 340 07:19 04.10.2019
822 Clear 16 1017 87 10000 2.1 340 06:41 04.10.2019
823 Clear 16 1017 87 10000 2.1 340 06:22 04.10.2019
824 Clear 16 1017 87 10000 2.1 340 06:22 04.10.2019
825 Clear 16 1018 93 10000 2.6 330 05:23 04.10.2019
826 Clear 16 1018 87 10000 2.1 340 04:54 04.10.2019
827 Clear 16 1018 87 10000 2.6 350 03:42 04.10.2019
828 Clear 17 1018 87 10000 2.6 340 02:53 04.10.2019
829 Clear 17 1018 87 10000 2.6 340 02:53 04.10.2019
830 Clear 16 1018 88 10000 2.6 340 01:55 04.10.2019
831 Clear 16 1018 88 10000 2.6 340 01:55 04.10.2019
832 Clear 17 1018 88 10000 2.1 10 01:29 04.10.2019
833 Clear 17 1018 82 10000 2.1 340 00:50 04.10.2019
834 Clear 18 1018 77 10000 2.1 340 23:54 03.10.2019
835 Clear 18 1018 72 10000 1.5 310 23:36 03.10.2019
836 Clear 18 1018 72 10000 1.5 310 23:18 03.10.2019
837 Clear 19 1018 77 10000 1 0 22:55 03.10.2019
838 Clear 19 1018 72 10000 2.1 40 22:36 03.10.2019
839 Clear 19 1018 72 10000 2.1 40 22:18 03.10.2019
840 Clear 19 1018 68 10000 1.5 60 21:54 03.10.2019
841 Clear 20 1017 64 10000 1 0 21:36 03.10.2019
842 Clear 20 1017 64 10000 1 0 21:18 03.10.2019
843 Clear 21 1016 56 10000 2.1 290 20:41 03.10.2019
844 Clear 21 1016 56 10000 2.1 290 20:23 03.10.2019
845 Clear 22 1016 53 10000 3.6 300 19:59 03.10.2019
846 Clear 22 1016 49 10000 4.6 290 19:41 03.10.2019
847 Clear 23 1016 49 10000 4.6 290 19:22 03.10.2019
848 Clear 23 1016 43 10000 4.6 300 18:58 03.10.2019
849 Clear 24 1016 44 10000 5.7 300 18:39 03.10.2019
850 Clear 24 1016 44 10000 4.6 310 18:19 03.10.2019
851 Clear 25 1016 44 10000 4.6 310 17:56 03.10.2019
852 Clear 25 1016 47 10000 5.1 320 17:37 03.10.2019
853 Clear 25 1016 47 10000 5.1 320 17:19 03.10.2019
854 Clear 26 1016 47 10000 5.1 320 17:19 03.10.2019
855 Clear 26 1016 47 10000 5.1 320 16:43 03.10.2019
856 Clear 25 1016 47 10000 5.1 320 16:25 03.10.2019
857 Clear 26 1016 47 10000 6.2 320 15:56 03.10.2019
858 Clear 26 1016 50 10000 5.1 310 15:38 03.10.2019
859 Clear 25 1016 50 10000 5.1 310 15:20 03.10.2019
860 Clear 27 1016 41 10000 5.7 310 14:46 03.10.2019
861 Clear 26 1016 41 10000 5.7 310 14:27 03.10.2019
862 Clear 26 1017 39 10000 6.2 310 13:59 03.10.2019
863 Clouds 26 1017 39 10000 5.1 320 13:41 03.10.2019
864 Clouds 25 1017 39 10000 5.1 320 13:19 03.10.2019
865 Clouds 24 1017 57 10000 2.1 320 12:56 03.10.2019
866 Clouds 24 1017 64 10000 3.1 200 12:38 03.10.2019
867 Clouds 24 1017 64 10000 3.1 200 12:19 03.10.2019
868 Clouds 24 1017 64 10000 3.1 200 12:19 03.10.2019
869 Clear 23 1017 69 10000 2.1 190 11:41 03.10.2019
870 Clear 23 1017 69 10000 2.1 190 11:23 03.10.2019
871 Clear 22 1017 73 10000 1.5 170 10:59 03.10.2019
872 Clear 21 1017 73 10000 1 0 10:40 03.10.2019
873 Clear 20 1017 77 10000 1 0 10:19 03.10.2019
874 Clear 20 1017 77 10000 1 0 10:19 03.10.2019
875 Clear 20 1017 77 10000 1 0 09:58 03.10.2019
876 Clear 19 1016 77 10000 1 0 09:40 03.10.2019
877 Clear 18 1016 88 10000 1 0 09:20 03.10.2019
878 Clear 18 1016 88 10000 1 0 08:45 03.10.2019
879 Clear 18 1016 88 10000 1 0 08:27 03.10.2019
880 Clouds 18 1016 93 10000 1 0 07:57 03.10.2019
881 Clouds 18 1016 88 10000 1.5 360 07:39 03.10.2019
882 Clouds 18 1016 88 10000 1.5 360 07:19 03.10.2019
883 Clouds 18 1016 93 10000 1.5 350 06:49 03.10.2019
884 -273 0 0 0 0 0 06:24 03.10.2019
885 Clouds 18 1016 88 10000 2.1 10 05:46 03.10.2019
886 Clear 17 1016 93 10000 1.5 340 05:19 03.10.2019
887 Clear 17 1016 88 10000 1.5 340 04:31 03.10.2019
888 Clear 18 1017 88 10000 1.5 340 03:24 03.10.2019
889 Clear 18 1017 88 10000 2.6 10 02:39 03.10.2019
890 Clear 18 1017 88 10000 1.5 340 01:59 03.10.2019
891 Clear 18 1017 88 10000 1 0 01:35 03.10.2019
892 Clear 18 1017 88 10000 2.1 350 00:51 03.10.2019
893 Clear 18 1017 88 10000 2.6 350 00:23 03.10.2019
894 Clear 19 1017 82 10000 2.1 340 23:44 02.10.2019
895 Clear 19 1017 82 10000 2.1 340 23:22 02.10.2019
896 Clear 19 1016 82 10000 1 0 22:46 02.10.2019
897 Clear 19 1016 82 10000 1 0 22:23 02.10.2019
898 Clear 20 1016 82 10000 1.5 20 21:58 02.10.2019
899 Clear 20 1016 82 10000 1.5 20 21:58 02.10.2019
900 Clear 20 1015 77 10000 1.5 50 21:39 02.10.2019
901 Clear 20 1015 77 10000 1.5 50 21:20 02.10.2019
902 Clear 20 1015 82 10000 3.1 70 20:57 02.10.2019
903 Clear 21 1014 68 10000 2.6 30 20:39 02.10.2019
904 Clear 21 1014 68 10000 2.6 30 20:20 02.10.2019
905 Clear 21 1014 56 10000 2.1 340 19:57 02.10.2019
906 Clouds 22 1013 60 10000 2.6 330 19:39 02.10.2019
907 Clouds 22 1013 60 10000 2.6 330 19:20 02.10.2019
908 Clear 23 1014 47 10000 3.6 320 18:57 02.10.2019
909 Clear 23 1014 47 10000 3.6 320 18:38 02.10.2019
910 Clear 23 1014 53 10000 4.1 330 18:19 02.10.2019
911 Clear 23 1014 53 10000 4.1 330 17:56 02.10.2019
912 Clear 23 1014 53 10000 5.7 330 17:36 02.10.2019
913 Clear 23 1014 53 10000 5.7 330 17:36 02.10.2019
914 Clear 23 1014 53 10000 5.7 330 17:18 02.10.2019
915 Clouds 23 1013 61 10000 4.1 320 16:42 02.10.2019
916 Clouds 24 1013 61 10000 4.1 320 16:22 02.10.2019
917 Clear 23 1014 60 10000 2.6 330 15:57 02.10.2019
918 Clear 23 1014 64 10000 1.5 0 15:38 02.10.2019
919 Rain 23 1014 64 10000 1.5 0 15:19 02.10.2019
920 Rain 23 1014 64 10000 2.1 90 14:57 02.10.2019
921 Rain 22 1014 73 10000 2.6 10 14:39 02.10.2019
922 Clouds 22 1013 73 10000 1.5 40 14:20 02.10.2019
923 Clouds 22 1013 73 10000 1.5 40 14:20 02.10.2019
924 Clouds 22 1013 83 10000 2.1 20 13:43 02.10.2019
925 Rain 21 1014 73 10000 2.6 50 13:24 02.10.2019
926 Rain 20 1014 82 10000 2.1 60 12:57 02.10.2019
927 Rain 20 1013 82 10000 4.6 80 12:37 02.10.2019
928 Rain 21 1012 77 10000 8.7 360 12:18 02.10.2019
929 Rain 23 1012 77 10000 8.7 360 11:44 02.10.2019
930 Thunderstorm 24 1013 56 10000 5.7 80 11:23 02.10.2019
931 Clear 24 1013 57 10000 5.1 70 10:42 02.10.2019
932 Clear 24 1013 57 10000 5.1 70 10:20 02.10.2019
933 Clear 23 1013 60 10000 4.1 60 09:59 02.10.2019
934 Clear 23 1013 64 10000 4.1 50 09:37 02.10.2019
935 Clear 23 1013 64 10000 4.1 50 09:18 02.10.2019
936 Clear 23 1013 64 10000 4.1 50 09:18 02.10.2019
937 Clouds 22 1011 73 10000 3.1 60 08:44 02.10.2019
938 Clear 22 1012 73 10000 4.1 50 08:24 02.10.2019
939 Clear 22 1012 73 10000 4.6 50 07:58 02.10.2019
940 Clear 22 1011 68 10000 5.7 50 07:38 02.10.2019
941 Clear 22 1011 73 10000 5.7 50 07:20 02.10.2019
942 Clouds 22 1010 78 10000 4.1 60 07:20 02.10.2019
943 Clear 22 1011 73 10000 7.2 60 06:31 02.10.2019
944 Clear 22 1011 78 10000 7.2 60 05:55 02.10.2019
945 Rain 21 1011 88 10000 1.5 40 05:24 02.10.2019
946 Clear 20 1011 94 10000 0.5 0 04:50 02.10.2019
947 Clouds 21 1010 94 10000 1.5 50 03:52 02.10.2019
948 Clouds 21 1010 88 10000 2.6 80 02:41 02.10.2019
949 Clear 21 1011 88 10000 3.6 50 02:23 02.10.2019
950 Clear 21 1011 88 10000 3.6 50 02:23 02.10.2019
951 Clouds 21 1009 88 10000 1.5 230 01:24 02.10.2019
952 Clouds 22 1009 88 10000 2.6 230 00:49 02.10.2019
953 Clear 22 1011 88 10000 1.5 340 00:25 02.10.2019
954 Clouds 23 1010 83 10000 4.1 250 23:43 01.10.2019
955 Clear 23 1011 88 10000 2.1 240 23:25 01.10.2019
956 Clear 23 1011 83 10000 3.1 250 22:59 01.10.2019
957 Clear 23 1010 83 10000 2.1 260 22:39 01.10.2019
958 Clouds 23 1009 83 10000 2.6 240 22:19 01.10.2019
959 Clear 23 1010 83 10000 2.1 250 21:57 01.10.2019
960 Clear 23 1010 83 10000 2.6 220 21:37 01.10.2019
961 Clear 23 1010 83 10000 2.6 220 21:19 01.10.2019
962 Clear 24 1010 83 10000 3.1 220 20:55 01.10.2019
963 Clear 24 1010 83 10000 3.1 200 20:37 01.10.2019
964 Clouds 24 1009 83 10000 2.6 220 20:18 01.10.2019
965 Clear 24 1010 78 10000 4.1 200 19:55 01.10.2019
966 Clear 25 1010 78 10000 4.6 210 19:37 01.10.2019
967 Clear 25 1010 78 10000 4.6 210 19:37 01.10.2019
968 Clear 25 1010 78 10000 4.6 210 19:18 01.10.2019
969 Clouds 26 1009 78 10000 4.6 220 18:40 01.10.2019
970 Clouds 26 1009 74 10000 5.1 220 18:21 01.10.2019
971 Clear 26 1010 73 10000 5.7 200 17:58 01.10.2019
972 Clear 26 1010 69 10000 6.2 200 17:39 01.10.2019
973 Clear 26 1010 69 10000 6.2 200 17:19 01.10.2019
974 Clear 27 1011 69 10000 5.1 200 16:57 01.10.2019
975 Clear 28 1011 61 10000 5.7 200 16:39 01.10.2019
976 Clear 27 1011 61 10000 5.7 200 16:21 01.10.2019
977 Clouds 27 1010 69 10000 5.1 250 15:46 01.10.2019
978 Clear 27 1012 65 10000 5.7 210 15:23 01.10.2019
979 Clear 27 1012 69 10000 4.6 200 14:42 01.10.2019
980 Clear 28 1012 69 10000 4.6 200 14:21 01.10.2019
981 Clear 28 1012 69 10000 4.6 210 13:59 01.10.2019
982 Clear 28 1013 69 10000 4.6 200 13:40 01.10.2019
983 Clouds 27 1012 74 10000 3.6 240 13:21 01.10.2019
984 Clear 27 1013 69 10000 4.6 200 13:21 01.10.2019
985 Clear 26 1013 65 10000 5.1 190 12:58 01.10.2019
986 Clouds 27 1012 74 10000 3.6 220 12:39 01.10.2019
987 Clouds 26 1013 74 10000 3.6 220 12:19 01.10.2019
988 Clouds 26 1014 65 10000 4.6 210 11:58 01.10.2019
989 Clouds 25 1014 69 10000 3.6 200 11:38 01.10.2019
990 Clouds 25 1014 69 10000 3.6 200 11:19 01.10.2019
991 Clouds 25 1013 78 10000 1 220 10:49 01.10.2019
992 Clouds 24 1014 78 10000 1 0 10:29 01.10.2019
993 Clouds 22 1014 83 10000 1.5 340 09:57 01.10.2019
994 Clouds 21 1013 88 10000 2.1 340 09:39 01.10.2019
995 Clouds 20 1013 88 10000 2.1 340 09:21 01.10.2019
996 Clouds 20 1012 93 10000 0.5 0 08:42 01.10.2019
997 Clouds 20 1013 88 10000 2.1 350 08:24 01.10.2019
998 Clouds 20 1013 88 10000 1.5 360 07:48 01.10.2019
999 Clouds 20 1014 88 10000 1.5 330 07:25 01.10.2019
1000 Clouds 20 1013 93 10000 2.09 215.862 06:48 01.10.2019
1001 Clouds 20 1013 93 10000 2.96 229.669 06:20 01.10.2019
1002 Clouds 21 1013 93 10000 2.96 229.669 05:46 01.10.2019
1003 Clouds 20 1013 94 10000 2.96 229.669 05:18 01.10.2019
1004 Clouds 21 1015 88 10000 2.1 340 04:29 01.10.2019
1005 Clear 22 1016 88 10000 1.5 330 02:29 01.10.2019
1006 Clear 21 1016 88 10000 2.1 340 01:59 01.10.2019
1007 Clouds 21 1015 94 10000 0.5 0 00:59 01.10.2019
1008 Clear 21 1016 88 10000 2.1 340 00:37 01.10.2019
1009 Clear 21 1016 88 10000 2.1 340 00:37 01.10.2019
1010 Clear 21 1016 88 10000 2.1 340 00:19 01.10.2019
1011 Clouds 22 1015 94 10000 2.23 189.623 23:41 30.09.2019
1012 Clear 22 1016 88 10000 2.1 320 23:21 30.09.2019
1013 Clouds 22 1015 88 10000 2.1 170 22:45 30.09.2019
1014 Clear 22 1016 88 10000 1.5 220 22:26 30.09.2019
1015 Clear 23 1016 88 10000 2.1 210 21:58 30.09.2019
1016 Clear 23 1016 83 10000 2.1 200 21:39 30.09.2019
1017 Clear 23 1016 83 10000 2.1 200 21:39 30.09.2019
1018 Clear 23 1016 83 10000 2.1 200 21:20 30.09.2019
1019 Clear 23 1016 83 10000 2.1 200 21:20 30.09.2019
1020 Clear 23 1016 83 10000 2.1 200 20:58 30.09.2019
1021 Clear 23 1016 83 10000 3.1 200 20:39 30.09.2019
1022 Clear 24 1016 83 10000 3.1 200 20:20 30.09.2019
1023 Clear 24 1016 78 10000 3.1 200 19:58 30.09.2019
1024 Clear 25 1016 78 10000 4.1 200 19:40 30.09.2019
1025 Clouds 25 1015 78 10000 3.6 220 19:19 30.09.2019
1026 Clear 26 1016 73 10000 4.6 200 18:58 30.09.2019
1027 Clear 26 1016 73 10000 4.6 200 18:58 30.09.2019
1028 Clear 26 1016 73 10000 4.6 200 18:58 30.09.2019
1029 Clear 26 1016 65 10000 4.6 200 18:39 30.09.2019
1030 Clouds 27 1015 74 10000 4.1 230 18:20 30.09.2019
1031 Clouds 28 1015 69 10000 4.1 220 17:54 30.09.2019
1032 Clear 28 1016 61 10000 4.1 210 17:36 30.09.2019
1033 Clouds 28 1015 69 10000 4.6 240 17:18 30.09.2019
1034 Clouds 27 1016 69 10000 4.1 230 16:41 30.09.2019
1035 Clouds 27 1016 69 10000 4.1 230 16:41 30.09.2019
1036 Clouds 27 1016 69 10000 4.1 230 16:41 30.09.2019
1037 Clear 26 1017 61 10000 4.6 220 16:19 30.09.2019
1038 Clear 27 1017 61 10000 4.6 200 15:59 30.09.2019
1039 Clear 27 1017 61 10000 4.6 200 15:38 30.09.2019
1040 Clear 27 1017 61 10000 4.6 200 15:19 30.09.2019
1041 Clear 27 1018 61 10000 4.6 200 14:58 30.09.2019
1042 Clear 28 1018 61 10000 5.1 210 14:38 30.09.2019
1043 Clear 28 1018 61 10000 5.1 210 14:19 30.09.2019
1044 Clear 29 1018 61 10000 4.6 200 13:58 30.09.2019
1045 Clear 29 1018 61 10000 4.1 210 13:40 30.09.2019
1046 Clouds 28 1017 65 10000 4.6 220 13:21 30.09.2019
1047 Clouds 28 1017 65 10000 3.1 260 12:44 30.09.2019
1048 Clear 27 1019 57 10000 2.1 140 12:25 30.09.2019
1049 Clear 26 1019 69 10000 1.5 200 11:59 30.09.2019
1050 Clear 26 1019 69 10000 1.5 200 11:59 30.09.2019
1051 Clear 25 1019 69 10000 1.5 180 11:40 30.09.2019
1052 Clouds 25 1018 69 10000 1.5 70 11:20 30.09.2019
1053 Clear 24 1019 73 10000 1.5 180 10:56 30.09.2019
1054 Clear 23 1018 69 10000 1 0 10:37 30.09.2019
1055 Clear 23 1018 69 10000 1 0 10:18 30.09.2019
1056 Clouds 22 1017 88 10000 0.5 0 09:40 30.09.2019
1057 Clear 20 1018 77 10000 1.5 320 09:21 30.09.2019
1058 Clear 19 1018 82 10000 1.5 340 08:51 30.09.2019
1059 Clear 19 1018 88 10000 2.1 340 08:33 30.09.2019
1060 Clear 19 1017 82 10000 2.1 340 07:58 30.09.2019
1061 Clear 18 1017 82 10000 2.1 340 07:40 30.09.2019
1062 Clouds 18 1016 100 10000 1.69 113.185 07:18 30.09.2019
1063 Clear 19 1017 82 10000 2.1 350 06:42 30.09.2019
1064 Clear 19 1017 82 10000 2.1 350 06:23 30.09.2019
1065 Clear 19 1017 88 10000 2.1 350 05:38 30.09.2019
1066 Clear 21 1018 82 10000 1.5 330 02:51 30.09.2019
1067 Clear 21 1018 88 10000 2.1 340 02:20 30.09.2019
1068 Clear 21 1018 88 10000 2.1 320 01:24 30.09.2019
1069 Clear 21 1018 88 10000 2.1 320 01:24 30.09.2019
1070 -273 0 0 0 0 0 01:24 30.09.2019
1071 Clear 21 1018 88 10000 1.5 330 00:37 30.09.2019
1072 Clear 21 1018 88 10000 1.5 330 00:19 30.09.2019
1073 Clouds 22 1017 88 10000 1 0 23:42 29.09.2019
1074 Clouds 23 1017 83 10000 1.5 180 23:21 29.09.2019
1075 Clear 22 1018 83 10000 1.5 320 22:55 29.09.2019
1076 Clear 23 1018 83 10000 2.1 230 22:36 29.09.2019
1077 Clear 23 1018 83 10000 2.1 230 22:18 29.09.2019
1078 Clear 23 1018 83 10000 2.1 220 21:55 29.09.2019
1079 Clear 23 1017 83 10000 3.1 210 21:36 29.09.2019
1080 Clouds 23 1016 83 10000 2.1 220 21:18 29.09.2019
1081 Clouds 24 1016 83 10000 1.5 220 20:43 29.09.2019
1082 Clear 24 1017 83 10000 3.6 210 20:19 29.09.2019
1083 Clear 24 1017 78 10000 3.6 210 19:58 29.09.2019
1084 Clear 25 1017 78 10000 4.1 210 19:37 29.09.2019
1085 Clouds 25 1016 78 10000 3.1 230 19:19 29.09.2019
1086 Clouds 25 1016 78 10000 3.1 230 19:19 29.09.2019
1087 Clear 26 1017 73 10000 5.1 200 18:55 29.09.2019
1088 Clear 25 1017 73 10000 5.1 190 18:37 29.09.2019
1089 Clouds 26 1017 78 10000 4.1 230 18:19 29.09.2019
1090 -273 0 0 0 0 0 17:55 29.09.2019
1091 Clear 27 1018 69 10000 6.2 200 17:37 29.09.2019
1092 Clear 26 1018 69 10000 6.2 200 17:19 29.09.2019
1093 Clear 26 1018 69 10000 6.7 200 16:57 29.09.2019
1094 Clear 27 1018 69 10000 6.7 200 16:39 29.09.2019
1095 Clouds 27 1017 74 10000 6.2 230 16:18 29.09.2019
1096 Clouds 27 1017 69 10000 5.7 210 15:41 29.09.2019
1097 Clouds 27 1017 69 10000 5.7 210 15:41 29.09.2019
1098 Clear 27 1018 65 10000 6.7 210 15:19 29.09.2019
1099 Clear 27 1018 65 10000 6.7 210 14:59 29.09.2019
1100 Clear 27 1019 65 10000 6.2 200 14:39 29.09.2019
1101 Clear 27 1019 65 10000 6.2 200 14:20 29.09.2019
1102 Clear 27 1019 65 10000 5.1 200 13:57 29.09.2019
1103 Clear 28 1019 69 10000 4.1 200 13:39 29.09.2019
1104 Clear 28 1018 69 10000 3.6 210 13:19 29.09.2019
1105 Clear 27 1019 65 10000 3.6 200 12:57 29.09.2019
1106 Clear 28 1020 69 10000 2.6 180 12:39 29.09.2019
1107 Clear 26 1020 69 10000 2.6 180 12:21 29.09.2019
1108 Clear 26 1020 69 10000 3.1 220 11:57 29.09.2019
1109 Clear 25 1020 69 10000 2.6 210 11:37 29.09.2019
1110 Clouds 25 1019 78 10000 1 220 11:18 29.09.2019
1111 Clear 25 1020 73 10000 2.6 190 10:56 29.09.2019
1112 Clear 25 1020 73 10000 2.6 190 10:56 29.09.2019
1113 Clear 24 1019 78 10000 1.5 230 10:36 29.09.2019
1114 Clouds 23 1018 83 10000 2.7 190.637 10:18 29.09.2019
1115 Clouds 21 1018 88 10000 2.7 190.637 09:44 29.09.2019
1116 Clouds 20 1018 100 10000 1.56 188.312 09:20 29.09.2019
1117 Fog 19 1019 88 10000 1.5 340 08:58 29.09.2019
1118 Fog 19 1019 93 10000 2.6 340 08:37 29.09.2019
1119 Fog 19 1019 88 10000 2.1 350 08:18 29.09.2019
1120 Fog 19 1018 100 10000 0.5 360 07:41 29.09.2019
1121 Clouds 19 1018 100 10000 0.5 0 07:23 29.09.2019
1122 Clouds 19 1018 100 10000 0.5 0 07:23 29.09.2019
1123 Clouds 19 1018 93 10000 1 40 06:42 29.09.2019
1124 Clear 20 1019 88 10000 1.5 350 04:59 29.09.2019
1125 Clear 19 1019 88 10000 1 360 04:25 29.09.2019
1126 Clear 20 1020 93 10000 2.1 350 03:56 29.09.2019
1127 Clouds 20 1019 93 10000 1.54 140.465 02:45 29.09.2019
1128 Clouds 20 1019 94 10000 1.54 140.465 02:18 29.09.2019
1129 Clear 21 1020 94 10000 1.5 340 01:31 29.09.2019
1130 Clouds 21 1019 94 10000 0.5 0 00:48 29.09.2019
1131 Clear 22 1020 83 10000 0.5 50 00:20 29.09.2019
1132 Clouds 22 1019 94 10000 0.5 60 23:43 28.09.2019
1133 Clear 22 1021 83 10000 1 0 23:22 28.09.2019
1134 Clear 23 1021 78 10000 1 200 22:57 28.09.2019
1135 Clear 23 1021 83 10000 1.5 190 22:38 28.09.2019
1136 Clear 23 1021 83 10000 1.5 190 22:20 28.09.2019
1137 Clear 23 1021 83 10000 1.5 180 21:56 28.09.2019
1138 Clear 24 1021 83 10000 2.1 200 21:38 28.09.2019
1139 Clouds 23 1021 83 10000 2.1 200 21:20 28.09.2019
1140 Clouds 24 1020 83 10000 2.1 200 20:57 28.09.2019
1141 Clouds 24 1020 78 10000 3.6 200 20:38 28.09.2019
1142 Clouds 24 1020 78 10000 3.6 200 20:18 28.09.2019
1143 Clouds 25 1019 78 10000 3.6 220 19:55 28.09.2019
1144 Clouds 25 1020 73 10000 4.1 210 19:37 28.09.2019
1145 Clouds 25 1019 78 10000 3.6 220 19:18 28.09.2019
1146 Clear 26 1020 73 10000 5.1 200 18:42 28.09.2019
1147 Clear 26 1020 73 10000 5.1 200 18:22 28.09.2019
1148 Clear 27 1020 69 10000 5.1 200 17:59 28.09.2019
1149 Clear 27 1020 69 10000 5.1 200 17:59 28.09.2019
1150 Clear 27 1020 69 10000 6.2 210 17:41 28.09.2019
1151 Clear 27 1020 69 10000 6.2 210 17:22 28.09.2019
1152 Clear 28 1020 65 10000 5.1 220 16:57 28.09.2019
1153 Clear 27 1021 69 10000 5.7 220 16:38 28.09.2019
1154 Clear 27 1021 69 10000 5.7 220 16:20 28.09.2019
1155 Clear 28 1021 69 10000 6.7 210 15:40 28.09.2019
1156 Clear 28 1021 69 10000 6.7 210 15:22 28.09.2019
1157 Clear 29 1021 61 10000 5.7 210 14:56 28.09.2019
1158 Clear 28 1021 65 10000 5.7 220 14:37 28.09.2019
1159 Clear 28 1021 65 10000 5.7 220 14:19 28.09.2019
1160 Clear 28 1022 65 10000 5.1 210 13:56 28.09.2019
1161 Clouds 28 1022 61 10000 4.1 220 13:37 28.09.2019
1162 Clouds 28 1021 69 10000 4.1 230 13:19 28.09.2019
1163 Clear 28 1022 61 10000 2.1 180 12:39 28.09.2019
1164 Clouds 27 1021 61 10000 1 110 12:19 28.09.2019
1165 Clouds 27 1021 69 10000 1 10 11:43 28.09.2019
1166 Clear 26 1022 65 10000 1.5 0 11:22 28.09.2019
1167 Clear 25 1022 73 10000 0.5 230 10:59 28.09.2019
1168 Clear 24 1022 73 10000 1 310 10:39 28.09.2019
1169 Clouds 23 1020 78 10000 0.5 0 10:19 28.09.2019
1170 Clouds 22 1020 88 10000 1 0 09:42 28.09.2019
1171 Clear 21 1021 77 10000 1.5 340 09:23 28.09.2019
1172 Clear 20 1021 82 10000 1.5 340 08:58 28.09.2019
1173 Clear 19 1019 93 10000 1.5 70 08:40 28.09.2019
1174 Clear 20 1020 82 10000 1.5 20 08:22 28.09.2019
1175 Clear 20 1019 100 10000 1 0 07:44 28.09.2019
1176 Clouds 20 1019 93 10000 1 0 07:21 28.09.2019
1177 Clear 20 1020 88 10000 2.1 360 06:53 28.09.2019
1178 Clear 20 1020 88 10000 2.6 340 06:31 28.09.2019
1179 Clouds 21 1019 93 10000 1.5 50 05:47 28.09.2019
1180 Clear 21 1020 88 10000 2.1 350 05:20 28.09.2019
1181 Clear 20 1020 88 10000 1.5 360 04:39 28.09.2019
1182 Clear 21 1020 88 10000 1.5 350 03:56 28.09.2019
1183 Clear 21 1020 88 10000 2.1 350 03:22 28.09.2019
1184 Clear 21 1020 88 10000 1.5 360 02:48 28.09.2019
1185 Clear 21 1020 83 10000 1.5 340 02:30 28.09.2019
1186 Clear 21 1020 83 10000 1.5 360 01:48 28.09.2019
1187 Clear 22 1020 83 10000 1 360 01:26 28.09.2019
1188 Clear 22 1020 83 10000 1.5 360 00:55 28.09.2019
1189 Clear 22 1020 88 10000 2.1 340 00:36 28.09.2019
1190 Clouds 22 1019 94 10000 2.3 165.159 00:18 28.09.2019
1191 Clear 22 1020 83 10000 1.5 330 23:37 27.09.2019
1192 Clear 22 1020 83 10000 1.5 330 23:19 27.09.2019
1193 Clear 23 1020 83 10000 1 310 22:46 27.09.2019
1194 Clouds 23 1019 78 10000 1 140 22:19 27.09.2019
1195 Clear 24 1019 78 10000 1 210 21:57 27.09.2019
1196 Clear 24 1019 83 10000 1 210 21:37 27.09.2019
1197 Clouds 24 1018 78 10000 0.5 0 21:19 27.09.2019
1198 Clear 24 1019 83 10000 1.5 210 20:56 27.09.2019
1199 Clear 24 1019 78 10000 3.1 210 20:38 27.09.2019
1200 Clouds 24 1018 78 10000 2.6 220 20:19 27.09.2019
1201 Clear 25 1019 73 10000 3.1 200 19:57 27.09.2019
1202 Clear 25 1019 73 10000 4.1 210 19:37 27.09.2019
1203 Clouds 25 1018 78 10000 3.6 230 19:18 27.09.2019
1204 Clear 25 1019 73 10000 5.1 220 18:41 27.09.2019
1205 Clouds 27 1018 74 10000 5.1 230 18:22 27.09.2019
1206 Clouds 27 1018 74 10000 5.1 230 18:22 27.09.2019
1207 Clouds 27 1018 69 10000 5.1 230 17:56 27.09.2019
1208 Clear 26 1019 65 10000 4.6 210 17:37 27.09.2019
1209 Clear 26 1019 65 10000 4.6 210 17:18 27.09.2019
1210 Clear 27 1019 69 10000 5.1 210 16:57 27.09.2019
1211 Clear 27 1019 69 10000 5.1 210 16:56 27.09.2019
1212 Clear 28 1019 61 10000 5.7 220 16:37 27.09.2019
1213 Clouds 28 1018 69 10000 5.7 220 16:18 27.09.2019
1214 Clouds 28 1018 65 10000 5.7 230 15:45 27.09.2019
1215 Clouds 28 1018 69 10000 6.2 230 15:21 27.09.2019
1216 Clear 28 1019 61 10000 5.7 210 14:58 27.09.2019
1217 Clear 28 1019 61 10000 5.1 220 14:39 27.09.2019
1218 Clear 28 1019 61 10000 5.1 220 14:21 27.09.2019
1219 Clear 28 1020 61 10000 5.1 210 13:57 27.09.2019
1220 Clear 28 1020 65 10000 5.1 210 13:39 27.09.2019
1221 Clouds 28 1019 69 10000 5.1 230 13:20 27.09.2019
1222 Clouds 27 1019 69 10000 4.1 230 12:52 27.09.2019
1223 Clear 26 1020 61 10000 3.1 200 12:23 27.09.2019
1224 Clear 27 1020 69 10000 2.6 160 11:58 27.09.2019
1225 Clear 26 1020 69 10000 2.6 200 11:38 27.09.2019
1226 Clear 26 1020 69 10000 2.6 200 11:19 27.09.2019
1227 Clear 26 1020 69 10000 2.6 200 11:19 27.09.2019
1228 Clear 24 1020 69 10000 0.5 50 10:43 27.09.2019
1229 Clear 25 1020 69 10000 0.5 50 10:22 27.09.2019
1230 Clear 23 1020 68 10000 1 0 09:58 27.09.2019
1231 Clear 22 1020 73 10000 1.5 10 09:39 27.09.2019
1232 Clouds 20 1019 94 10000 1.75 167.674 09:19 27.09.2019
1233 Clear 20 1020 82 10000 1.5 360 08:41 27.09.2019
1234 Clear 20 1020 82 10000 1.5 360 08:21 27.09.2019
1235 Clear 20 1019 82 10000 2.1 360 07:55 27.09.2019
1236 Clear 20 1019 88 10000 1.5 360 07:37 27.09.2019
1237 Clear 20 1019 88 10000 1.5 360 07:18 27.09.2019
1238 Clear 20 1019 88 10000 2.1 360 06:40 27.09.2019
1239 Clouds 20 1018 93 10000 1 60 06:21 27.09.2019
1240 Clear 20 1019 88 10000 1.5 350 05:45 27.09.2019
1241 Clear 19 1019 88 10000 1.5 350 05:26 27.09.2019
1242 Clear 20 1020 82 10000 2.1 350 03:39 27.09.2019
1243 Clear 21 1020 82 10000 2.1 340 01:56 27.09.2019
1244 Clear 20 1020 82 10000 1.5 340 01:32 27.09.2019
1245 Clear 21 1021 83 10000 2.1 340 00:41 27.09.2019
1246 Clear 21 1020 83 10000 1.5 330 23:58 26.09.2019
1247 Clear 22 1020 83 10000 0.5 0 23:40 26.09.2019
1248 Clouds 22 1019 83 10000 2.37 153.705 23:20 26.09.2019
1249 Clear 22 1020 78 10000 1.5 100 22:58 26.09.2019
1250 Clear 22 1020 78 10000 1.5 190 22:40 26.09.2019
1251 Clear 23 1020 78 10000 1.5 190 22:19 26.09.2019
1252 Clear 23 1020 78 10000 1.5 180 21:59 26.09.2019
1253 Clear 23 1020 78 10000 2.1 210 21:38 26.09.2019
1254 Clear 23 1020 78 10000 2.1 210 21:20 26.09.2019
1255 Clear 24 1020 78 10000 2.6 200 20:59 26.09.2019
1256 Clouds 24 1019 73 10000 2.1 210 20:40 26.09.2019
1257 Clear 24 1019 78 10000 3.6 210 20:21 26.09.2019
1258 Clear 24 1019 73 10000 4.1 200 19:59 26.09.2019
1259 Clear 25 1019 73 10000 5.1 200 19:40 26.09.2019
1260 Clear 25 1019 65 10000 6.2 210 19:18 26.09.2019
1261 Clear 25 1019 65 10000 6.2 210 18:57 26.09.2019
1262 Clear 25 1019 65 10000 6.2 210 18:37 26.09.2019
1263 Clouds 26 1018 69 10000 5.1 220 18:19 26.09.2019
1264 Clear 26 1019 61 10000 6.2 210 17:38 26.09.2019
1265 Clear 26 1019 61 10000 6.2 210 17:38 26.09.2019
1266 Clear 27 1019 61 10000 6.2 210 17:19 26.09.2019
1267 Clear 27 1019 57 10000 6.7 210 16:59 26.09.2019
1268 Clear 27 1019 51 10000 6.7 210 16:39 26.09.2019
1269 Clear 27 1019 51 10000 6.7 210 16:20 26.09.2019
1270 Clear 27 1019 51 10000 6.7 210 16:20 26.09.2019
1271 Clear 27 1020 54 10000 6.7 210 15:57 26.09.2019
1272 Clear 27 1020 57 10000 6.2 220 15:37 26.09.2019
1273 Clouds 27 1019 61 10000 6.2 220 15:18 26.09.2019
1274 Clear 27 1020 57 10000 6.2 210 14:55 26.09.2019
1275 Clear 27 1020 54 10000 5.7 220 14:37 26.09.2019
1276 Clouds 27 1019 61 10000 4.6 230 14:18 26.09.2019
1277 Clouds 27 1019 65 10000 4.6 240 13:41 26.09.2019
1278 Clouds 27 1020 69 10000 4.6 240 13:20 26.09.2019
1279 Clouds 27 1020 69 10000 4.6 240 13:20 26.09.2019
1280 Clouds 27 1020 65 10000 4.6 240 12:57 26.09.2019
1281 Clear 27 1021 57 10000 4.1 210 12:39 26.09.2019
1282 Clouds 26 1020 61 10000 3.6 240 12:20 26.09.2019
1283 Clouds 26 1020 65 10000 1 310 11:42 26.09.2019
1284 Clouds 25 1020 65 10000 0.5 310 11:22 26.09.2019
1285 Clear 24 1020 69 10000 2.33 141.471 10:56 26.09.2019
1286 Clear 23 1021 69 10000 1 0 10:38 26.09.2019
1287 Clear 22 1019 78 10000 2.33 141.471 10:20 26.09.2019
1288 Clear 21 1019 83 10000 2.33 141.471 09:45 26.09.2019
1289 Clear 20 1020 82 10000 0.5 0 09:26 26.09.2019
1290 Clear 20 1020 82 10000 1 0 08:58 26.09.2019
1291 Clear 18 1019 82 10000 1 0 08:40 26.09.2019
1292 Clear 18 1019 82 10000 1 0 08:22 26.09.2019
1293 Clouds 19 1018 88 10000 0.5 0 07:44 26.09.2019
1294 Clouds 19 1018 88 10000 2.07 80.979 07:22 26.09.2019
1295 Clear 19 1019 88 10000 1.5 350 06:50 26.09.2019
1296 Clouds 19 1018 88 10000 1.5 30 06:27 26.09.2019
1297 Clouds 19 1018 93 10000 0.5 0 05:46 26.09.2019
1298 Clear 19 1019 88 10000 2.1 360 05:25 26.09.2019
1299 Clear 20 1018 88 10000 2.1 350 03:18 26.09.2019
1300 Clouds 20 1017 88 10000 2.33 85.832 01:55 26.09.2019
1301 Clear 20 1019 82 10000 1.5 330 01:32 26.09.2019
1302 Clear 20 1019 82 10000 1.5 320 00:58 26.09.2019
1303 Clear 21 1018 77 10000 1 0 00:38 26.09.2019
1304 Clear 21 1018 77 10000 1 0 00:20 26.09.2019
1305 Clear 21 1018 77 10000 2.1 60 23:42 25.09.2019
1306 Clear 21 1018 77 10000 2.1 60 23:19 25.09.2019
1307 Clear 21 1018 77 10000 2.1 70 22:54 25.09.2019
1308 Clear 22 1018 73 10000 2.1 70 22:36 25.09.2019
1309 Clear 22 1018 73 10000 2.1 70 22:18 25.09.2019
1310 Clear 22 1017 73 10000 3.6 70 21:55 25.09.2019
1311 Clear 22 1017 73 10000 4.1 70 21:36 25.09.2019
1312 Clouds 22 1016 73 10000 3.1 60 21:18 25.09.2019
1313 Clear 23 1017 78 10000 4.6 70 20:55 25.09.2019
1314 Clear 23 1016 69 10000 4.6 70 20:37 25.09.2019
1315 Clouds 23 1015 69 10000 4.1 60 20:18 25.09.2019
1316 Clear 24 1016 69 10000 5.7 70 19:38 25.09.2019
1317 Clouds 25 1015 69 10000 6.7 60 19:20 25.09.2019
1318 Clouds 25 1014 69 10000 7.2 60 18:56 25.09.2019
1319 Clear 25 1015 61 10000 6.7 70 18:37 25.09.2019
1320 Clear 25 1015 61 10000 6.7 70 18:37 25.09.2019
1321 Clouds 25 1014 65 10000 7.7 60 18:18 25.09.2019
1322 Clear 26 1015 57 10000 7.7 60 17:40 25.09.2019
1323 Clear 26 1015 57 10000 7.7 60 17:21 25.09.2019
1324 Clear 27 1015 54 10000 7.2 70 16:57 25.09.2019
1325 Clear 27 1015 54 10000 7.2 70 16:57 25.09.2019
1326 Clear 27 1015 57 10000 8.2 60 16:38 25.09.2019
1327 Clouds 27 1014 61 10000 8.2 60 16:19 25.09.2019
1328 Clear 27 1014 54 10000 7.7 70 15:55 25.09.2019
1329 Clear 27 1014 54 10000 7.7 70 15:36 25.09.2019
1330 Clear 28 1014 54 10000 7.7 70 15:18 25.09.2019
1331 Clear 28 1014 51 10000 4.6 80 14:41 25.09.2019
1332 Clouds 28 1013 55 10000 4.1 60 14:22 25.09.2019
1333 Clouds 28 1013 51 10000 4.6 60 13:57 25.09.2019
1334 Clear 28 1014 54 10000 4.6 50 13:39 25.09.2019
1335 Clouds 28 1014 54 10000 4.1 50 13:20 25.09.2019
1336 Clouds 28 1014 54 10000 3.6 60 12:44 25.09.2019
1337 Clear 28 1015 54 10000 3.1 60 12:44 25.09.2019
1338 Clear 28 1015 54 10000 3.1 60 12:25 25.09.2019
1339 Clear 27 1015 57 10000 2.1 0 11:59 25.09.2019
1340 Clouds 26 1014 65 10000 1.5 310 11:40 25.09.2019
1341 Clear 26 1015 65 10000 1.5 0 11:20 25.09.2019
1342 Clouds 26 1013 78 10000 1 360 10:46 25.09.2019
1343 Clouds 25 1013 83 10000 1 0 10:26 25.09.2019
1344 Clear 24 1014 78 10000 1 0 09:59 25.09.2019
1345 Clear 22 1014 78 10000 1.5 360 09:40 25.09.2019
1346 Clear 22 1014 78 10000 1.5 360 09:22 25.09.2019
1347 Clear 21 1014 83 10000 1.5 330 08:56 25.09.2019
1348 Clear 21 1014 83 10000 1.5 330 08:56 25.09.2019
1349 Clear 20 1014 82 10000 2.1 30 08:37 25.09.2019
1350 Clear 20 1014 82 10000 2.1 30 08:19 25.09.2019
1351 Clear 21 1013 82 10000 1 0 07:40 25.09.2019
1352 Clouds 20 1012 94 10000 2.1 350 07:22 25.09.2019
1353 Clouds 19 1012 93 10000 1 350 06:52 25.09.2019
1354 Clear 20 1013 82 10000 1 0 06:32 25.09.2019
1355 Clear 20 1014 82 10000 1.5 330 05:43 25.09.2019
1356 Clear 19 1014 82 10000 1.5 360 04:58 25.09.2019
1357 Clear 21 1015 88 10000 1.5 360 02:32 25.09.2019
1358 Clear 21 1015 82 10000 1.5 350 01:29 25.09.2019
1359 Clear 22 1016 88 10000 1.5 340 00:37 25.09.2019
1360 Clouds 22 1014 88 10000 2.6 260 00:19 25.09.2019
1361 Clear 23 1016 83 10000 2.1 270 23:41 24.09.2019
1362 Clear 23 1016 83 10000 2.1 270 23:22 24.09.2019
1363 Clear 24 1016 83 10000 2.6 250 22:56 24.09.2019
1364 Clear 23 1016 83 10000 3.1 230 22:38 24.09.2019
1365 Clouds 23 1015 83 10000 3.6 240 22:18 24.09.2019
1366 Clouds 24 1016 83 10000 3.1 230 21:55 24.09.2019
1367 Clouds 24 1016 78 10000 4.6 230 21:36 24.09.2019
1368 Clear 24 1016 78 10000 4.1 230 21:18 24.09.2019
1369 Clear 24 1016 78 10000 4.1 230 20:55 24.09.2019
1370 Clear 24 1015 73 10000 4.1 220 20:37 24.09.2019
1371 Clouds 25 1014 83 10000 3.1 230 20:18 24.09.2019
1372 Clouds 25 1014 83 10000 4.6 230 19:42 24.09.2019
1373 Clouds 26 1014 74 10000 5.1 230 19:20 24.09.2019
1374 Clouds 26 1014 74 10000 5.1 230 18:57 24.09.2019
1375 Clear 26 1015 69 10000 5.7 200 18:39 24.09.2019
1376 Clear 26 1016 69 10000 7.2 210 18:20 24.09.2019
1377 Clear 27 1016 69 10000 7.2 210 17:56 24.09.2019
1378 Clear 27 1016 69 10000 7.7 210 17:38 24.09.2019
1379 Clouds 27 1015 78 10000 5.7 220 17:19 24.09.2019
1380 Clear 28 1016 65 10000 7.7 210 16:42 24.09.2019
1381 Clear 28 1016 65 10000 7.7 210 16:21 24.09.2019
1382 Clear 27 1016 65 10000 7.7 210 15:59 24.09.2019
1383 Clear 28 1016 69 10000 8.2 210 15:41 24.09.2019
1384 Clear 28 1016 69 10000 8.2 210 15:22 24.09.2019
1385 Clouds 28 1016 69 10000 6.2 220 14:40 24.09.2019
1386 Clear 28 1017 65 10000 7.2 200 14:19 24.09.2019
1387 Clouds 28 1017 69 10000 6.7 230 13:45 24.09.2019
1388 Clear 28 1018 65 10000 7.7 210 13:24 24.09.2019
1389 Clear 27 1018 65 10000 6.7 210 12:59 24.09.2019
1390 Clear 26 1018 69 10000 6.7 210 12:39 24.09.2019
1391 Clouds 26 1017 78 10000 6.2 230 12:18 24.09.2019
1392 Clouds 26 1017 74 10000 4.1 230 11:43 24.09.2019
1393 Clear 26 1018 69 10000 5.1 210 11:22 24.09.2019
1394 Clear 25 1018 69 10000 3.6 230 10:57 24.09.2019
1395 Clear 24 1018 69 10000 1 250 10:37 24.09.2019
1396 Clear 24 1018 69 10000 1 250 10:19 24.09.2019
1397 Clouds 23 1017 83 10000 4.46 217.691 09:46 24.09.2019
1398 Clear 21 1018 68 10000 1.5 350 09:27 24.09.2019
1399 Clear 20 1018 68 10000 1.5 350 08:57 24.09.2019
1400 Clouds 19 1018 77 10000 1.5 350 08:39 24.09.2019
1401 Clouds 19 1018 77 10000 1.5 350 08:20 24.09.2019
1402 Clear 19 1018 72 10000 1.5 360 07:57 24.09.2019
1403 Clear 19 1018 72 10000 1 0 07:37 24.09.2019
1404 Clouds 19 1017 100 10000 0.5 0 07:18 24.09.2019
1405 Clear 19 1018 77 10000 1.5 10 06:37 24.09.2019
1406 Clouds 19 1017 93 10000 1.84 206.913 05:53 24.09.2019
1407 Clear 19 1018 72 10000 2.6 340 05:21 24.09.2019
1408 Clear 20 1019 72 10000 1.5 10 03:46 24.09.2019
1409 Clouds 20 1018 82 10000 0.5 330 03:22 24.09.2019
1410 Clouds 20 1018 82 10000 0.5 350 02:43 24.09.2019
1411 Clear 20 1020 72 10000 2.6 360 01:41 24.09.2019
1412 Clouds 21 1019 88 10000 1.22 222.709 00:41 24.09.2019
1413 Clouds 22 1019 88 10000 1.5 160 00:22 24.09.2019
1414 Clouds 22 1019 88 10000 1.5 170 23:42 23.09.2019
1415 Clear 22 1020 68 10000 2.6 50 23:23 23.09.2019
1416 Clouds 23 1019 69 10000 2.1 170 22:41 23.09.2019
1417 Clear 23 1020 69 10000 2.6 330 22:22 23.09.2019
1418 Clear 23 1020 64 10000 2.1 320 21:59 23.09.2019
1419 Clouds 23 1019 78 10000 2.6 230 21:41 23.09.2019
1420 Clouds 23 1019 78 10000 2.6 230 21:41 23.09.2019
1421 Clouds 23 1019 78 10000 2.6 230 21:41 23.09.2019
1422 Clouds 24 1018 73 10000 2.6 230 21:20 23.09.2019
1423 Clear 24 1019 60 10000 1 250 20:59 23.09.2019
1424 Clear 24 1019 69 10000 2.6 230 20:40 23.09.2019
1425 Clouds 24 1018 73 10000 3.1 220 20:19 23.09.2019
1426 Clear 25 1019 73 10000 4.6 200 19:40 23.09.2019
1427 Clear 25 1019 73 10000 4.6 200 19:40 23.09.2019
1428 Clouds 25 1018 69 10000 4.1 210 19:22 23.09.2019
1429 Clouds 25 1019 69 10000 5.7 200 18:59 23.09.2019
1430 Clouds 25 1019 69 10000 5.7 210 18:41 23.09.2019
1431 Clouds 26 1018 69 10000 5.1 210 18:19 23.09.2019
1432 Clouds 26 1018 69 10000 5.1 210 18:19 23.09.2019
1433 Clouds 26 1018 69 10000 5.7 230 17:57 23.09.2019
1434 Clear 26 1019 65 10000 6.7 220 17:39 23.09.2019
1435 Clear 26 1019 65 10000 6.7 220 17:39 23.09.2019
1436 Clear 26 1019 65 10000 6.7 220 17:20 23.09.2019
1437 Clear 27 1018 57 10000 6.2 210 16:57 23.09.2019
1438 Clouds 27 1018 57 10000 6.2 220 16:36 23.09.2019
1439 Clouds 28 1017 65 10000 5.7 240 16:18 23.09.2019
1440 Clouds 28 1018 51 10000 5.7 220 15:56 23.09.2019
1441 Clouds 28 1018 45 10000 2.1 130 15:38 23.09.2019
1442 Clouds 28 1018 45 10000 2.1 130 15:38 23.09.2019
1443 Clouds 28 1018 45 10000 2.1 130 15:18 23.09.2019
1444 Clouds 28 1018 45 10000 2.1 130 15:18 23.09.2019
1445 Clouds 28 1018 51 10000 1.5 120 14:40 23.09.2019
1446 Clouds 27 1019 51 10000 2.6 70 14:20 23.09.2019
1447 Clouds 27 1019 51 10000 2.6 70 13:59 23.09.2019
1448 Clouds 26 1019 54 10000 4.6 80 13:38 23.09.2019
1449 Clouds 26 1019 54 10000 6.2 60 13:18 23.09.2019
1450 Clouds 26 1018 54 10000 5.7 60 12:54 23.09.2019
1451 Clouds 25 1020 53 10000 6.2 70 12:36 23.09.2019
1452 Clouds 25 1019 57 10000 5.7 60 12:18 23.09.2019
1453 Clouds 25 1019 57 10000 5.7 70 11:43 23.09.2019
1454 Clouds 24 1020 60 10000 6.7 60 11:24 23.09.2019
1455 Clouds 24 1019 64 10000 5.1 60 10:49 23.09.2019
1456 Clouds 24 1019 60 10000 7.2 60 10:22 23.09.2019
1457 Clouds 23 1019 64 10000 6.2 70 09:59 23.09.2019
1458 Clear 23 1019 68 10000 6.7 60 09:38 23.09.2019
1459 Clear 23 1019 68 10000 6.7 60 09:20 23.09.2019
1460 Clear 22 1018 73 10000 6.7 60 08:50 23.09.2019
1461 Clear 22 1018 78 10000 6.7 60 08:30 23.09.2019
1462 Clear 22 1017 83 10000 5.7 60 07:58 23.09.2019
1463 Clear 22 1017 83 10000 5.7 60 07:58 23.09.2019
1464 Clear 22 1017 83 10000 6.7 60 07:31 23.09.2019
1465 Clouds 22 1016 94 10000 3.6 60 06:42 23.09.2019
1466 Clouds 21 1015 94 10000 3.6 60 05:56 23.09.2019
1467 Clear 21 1016 88 10000 1.5 50 05:22 23.09.2019
1468 Clear 22 1016 83 10000 1 0 04:54 23.09.2019
1469 Clear 22 1016 83 10000 1 0 03:34 23.09.2019
1470 Clear 22 1016 83 10000 2.1 360 01:22 23.09.2019
1471 Clouds 23 1015 83 10000 2.1 230 00:23 23.09.2019
1472 Clear 24 1016 83 10000 1 10 23:57 22.09.2019
1473 Clouds 24 1015 78 10000 1 0 23:33 22.09.2019
1474 Clouds 24 1015 83 10000 1 260 22:59 22.09.2019
1475 Clouds 24 1015 83 10000 2.6 260 22:41 22.09.2019
1476 Clouds 24 1014 88 10000 3.1 260 22:41 22.09.2019
1477 Clouds 24 1015 83 10000 2.6 260 22:23 22.09.2019
1478 Clouds 24 1014 88 10000 3.1 240 22:23 22.09.2019
1479 Clouds 24 1014 88 10000 3.1 230 21:59 22.09.2019
1480 Clouds 24 1014 83 10000 3.1 210 21:39 22.09.2019
1481 Clouds 24 1014 83 10000 3.1 210 21:19 22.09.2019
1482 Clouds 25 1013 83 10000 4.1 230 20:42 22.09.2019
1483 Clouds 25 1014 78 10000 3.1 210 20:24 22.09.2019
1484 Clear 25 1014 78 10000 4.6 230 19:56 22.09.2019
1485 Clear 25 1014 78 10000 6.2 220 19:38 22.09.2019
1486 Clouds 26 1013 78 10000 4.6 230 19:19 22.09.2019
1487 Clouds 26 1013 78 10000 5.1 220 18:57 22.09.2019
1488 Clouds 26 1013 74 10000 7.2 210 18:37 22.09.2019
1489 Clouds 27 1012 74 10000 5.7 220 18:18 22.09.2019
1490 Clouds 27 1013 74 10000 8.2 220 17:42 22.09.2019
1491 Clouds 27 1013 74 10000 8.2 220 17:24 22.09.2019
1492 Clouds 28 1013 74 10000 8.7 210 16:56 22.09.2019
1493 Clear 28 1013 69 10000 8.7 210 16:37 22.09.2019
1494 Clouds 28 1012 74 10000 7.2 220 16:18 22.09.2019
1495 Clouds 29 1012 74 10000 7.2 210 15:43 22.09.2019
1496 Clear 29 1013 65 10000 6.7 200 15:25 22.09.2019
1497 Clouds 28 1012 74 10000 5.1 220 14:55 22.09.2019
1498 Clear 29 1013 65 10000 5.7 210 14:36 22.09.2019
1499 Clear 29 1013 65 10000 5.7 210 14:36 22.09.2019
1500 Clouds 29 1012 69 10000 4.6 220 14:18 22.09.2019
1501 Clouds 29 1012 69 10000 5.7 230 13:41 22.09.2019
1502 Clouds 28 1014 65 10000 6.2 210 13:23 22.09.2019
1503 Clouds 27 1014 74 10000 6.2 210 12:57 22.09.2019
1504 Clouds 28 1014 74 10000 6.7 210 12:38 22.09.2019
1505 Clouds 28 1013 74 10000 5.7 220 12:18 22.09.2019
1506 Clouds 28 1013 74 10000 5.7 220 12:18 22.09.2019
1507 Clouds 27 1014 74 10000 4.6 210 11:55 22.09.2019
1508 Clouds 26 1014 83 10000 5.1 200 11:36 22.09.2019
1509 Clouds 26 1013 83 10000 5.7 230 11:18 22.09.2019
1510 Clouds 26 1013 83 10000 3.1 230 10:42 22.09.2019
1511 Clouds 25 1013 83 10000 3.6 240 10:20 22.09.2019
1512 Clouds 25 1013 83 10000 3.6 240 10:20 22.09.2019
1513 Clouds 24 1014 83 10000 0.5 0 09:43 22.09.2019
1514 Clouds 24 1014 83 10000 0.5 0 09:43 22.09.2019
1515 Clouds 24 1013 83 10000 2.1 240 09:22 22.09.2019
1516 Clear 24 1013 78 10000 1.5 360 08:58 22.09.2019
1517 Clear 24 1013 83 10000 0.5 0 08:40 22.09.2019
1518 Clouds 24 1012 83 10000 2.1 240 08:22 22.09.2019
1519 Clouds 23 1012 83 10000 2.6 250 07:44 22.09.2019
1520 Clouds 23 1012 88 10000 3.1 240 07:25 22.09.2019
1521 Clear 23 1013 78 10000 1 0 06:58 22.09.2019
1522 Clear 23 1013 78 10000 1 210 06:34 22.09.2019
1523 Clear 24 1013 78 10000 2.1 260 04:41 22.09.2019
1524 Clear 24 1012 88 10000 1 30 02:45 22.09.2019
1525 Clear 24 1012 88 10000 1 30 02:24 22.09.2019
1526 Clear 24 1013 83 10000 1 0 01:38 22.09.2019
1527 Clouds 24 1012 88 10000 0.95 273.374 00:46 22.09.2019
1528 Clear 24 1013 78 10000 1.5 30 00:27 22.09.2019
1529 Clouds 25 1011 78 10000 1.5 10 23:54 21.09.2019
1530 Clear 25 1013 78 10000 2.1 300 23:36 21.09.2019
1531 Clouds 25 1012 78 10000 3.6 290 22:46 21.09.2019
1532 Clear 25 1013 73 10000 3.1 300 22:25 21.09.2019
1533 Clear 25 1012 73 10000 3.1 290 21:59 21.09.2019
1534 Clear 25 1012 73 10000 3.1 290 21:59 21.09.2019
1535 Clear 25 1012 73 10000 3.1 290 21:41 21.09.2019
1536 Clear 25 1012 73 10000 3.1 290 21:19 21.09.2019
1537 Clear 25 1012 73 10000 3.6 310 20:56 21.09.2019
1538 Clear 26 1012 69 10000 4.1 300 20:36 21.09.2019
1539 Clear 26 1012 69 10000 4.1 300 20:18 21.09.2019
1540 Clear 27 1011 65 10000 5.1 320 19:45 21.09.2019
1541 Clouds 28 1010 65 10000 5.7 320 19:21 21.09.2019
1542 Clear 29 1011 54 10000 5.7 320 18:40 21.09.2019
1543 Clouds 29 1010 74 10000 4.6 240 18:22 21.09.2019
1544 Clouds 30 1010 66 10000 3.1 230 17:43 21.09.2019
1545 Clear 30 1011 51 10000 3.1 200 17:24 21.09.2019
1546 Clouds 30 1010 58 10000 3.6 220 16:58 21.09.2019
1547 Clear 31 1011 48 10000 5.1 230 16:39 21.09.2019
1548 Clouds 31 1010 55 10000 4.6 230 16:20 21.09.2019
1549 Clear 31 1011 51 10000 2.6 170 15:45 21.09.2019
1550 Clear 31 1011 51 10000 2.6 170 15:23 21.09.2019
1551 Clouds 30 1010 62 10000 2.6 190 14:49 21.09.2019
1552 Clear 29 1012 62 10000 1 0 14:31 21.09.2019
1553 Rain 28 1012 65 10000 3.6 110 13:55 21.09.2019
1554 Rain 28 1013 69 10000 2.6 120 13:36 21.09.2019
1555 Clouds 28 1012 70 10000 2.6 140 13:18 21.09.2019
1556 Clouds 28 1012 74 10000 3.6 130 12:55 21.09.2019
1557 Rain 28 1014 74 10000 3.1 90 12:36 21.09.2019
1558 Clouds 28 1013 69 10000 4.1 60 12:18 21.09.2019
1559 Clouds 27 1012 74 10000 2.6 40 11:42 21.09.2019
1560 Clouds 27 1014 69 10000 3.1 100 11:23 21.09.2019
1561 Clouds 26 1012 78 10000 4.1 70 10:45 21.09.2019
1562 Clouds 26 1013 78 10000 4.6 60 10:25 21.09.2019
1563 Rain 25 1013 83 10000 3.6 60 09:59 21.09.2019
1564 Clouds 25 1013 83 10000 3.6 60 09:39 21.09.2019
1565 Clouds 24 1012 88 10000 5.1 50 09:20 21.09.2019
1566 Clouds 24 1014 83 10000 2.6 90 08:52 21.09.2019
1567 Clear 24 1013 83 10000 3.6 30 08:28 21.09.2019
1568 Clouds 24 1013 88 10000 3.6 70 07:42 21.09.2019
1569 Rain 24 1013 88 10000 3.1 70 07:24 21.09.2019
1570 Rain 24 1015 83 8000 2.1 80 06:58 21.09.2019
1571 Clouds 25 1015 83 10000 3.1 70 06:33 21.09.2019
1572 Clouds 24 1014 83 10000 3.1 80 05:36 21.09.2019
1573 Clouds 24 1014 78 10000 3.6 50 04:36 21.09.2019
1574 Clear 24 1014 78 10000 4.6 50 03:22 21.09.2019
1575 Clouds 24 1014 83 10000 3.6 70 02:21 21.09.2019
1576 Clouds 24 1015 88 10000 3.1 60 01:46 21.09.2019
1577 Clouds 24 1017 78 10000 3.1 60 00:52 21.09.2019
1578 Clouds 24 1017 78 10000 2.6 60 00:20 21.09.2019
1579 Clouds 24 1017 73 10000 2.1 70 23:48 20.09.2019
1580 Clouds 24 1017 73 10000 2.1 70 23:29 20.09.2019
1581 Clear 24 1017 73 10000 2.6 70 22:43 20.09.2019
1582 Clear 24 1017 73 10000 2.6 70 22:24 20.09.2019
1583 Clear 24 1017 73 10000 3.6 60 21:57 20.09.2019
1584 Clear 24 1016 73 10000 5.1 60 21:39 20.09.2019
1585 Clouds 24 1015 73 10000 4.1 60 21:20 20.09.2019
1586 Clear 25 1017 69 10000 4.1 80 20:58 20.09.2019
1587 Clear 25 1017 65 10000 4.1 90 20:39 20.09.2019
1588 Clear 25 1017 65 10000 4.1 90 20:19 20.09.2019
1589 Clear 25 1017 65 10000 4.1 90 20:19 20.09.2019
1590 Clouds 26 1016 65 10000 3.1 90 19:55 20.09.2019
1591 Clouds 26 1018 61 10000 5.1 70 19:36 20.09.2019
1592 Clouds 26 1017 61 10000 4.1 110 19:18 20.09.2019
1593 Clear 27 1017 61 10000 6.2 70 18:38 20.09.2019
1594 Clouds 27 1016 61 10000 4.1 120 18:20 20.09.2019
1595 Clear 27 1017 54 10000 7.2 70 17:47 20.09.2019
1596 Clear 27 1017 54 10000 7.2 70 17:27 20.09.2019
1597 Clear 27 1017 54 10000 7.2 70 17:27 20.09.2019
1598 Clouds 28 1017 54 10000 6.7 60 16:59 20.09.2019
1599 Clear 28 1017 48 10000 6.2 70 16:37 20.09.2019
1600 Clear 29 1017 48 10000 6.2 70 16:19 20.09.2019
1601 Clouds 29 1017 51 10000 6.7 80 15:42 20.09.2019
1602 Clouds 28 1017 51 10000 6.7 80 15:23 20.09.2019
1603 Clouds 29 1016 51 10000 5.1 80 14:55 20.09.2019
1604 Clouds 29 1018 48 10000 4.6 60 14:36 20.09.2019
1605 Clouds 29 1017 51 10000 4.6 80 14:18 20.09.2019
1606 Clouds 28 1017 54 10000 4.1 90 13:44 20.09.2019
1607 Clouds 28 1019 57 10000 4.6 80 13:25 20.09.2019
1608 Clouds 28 1018 58 10000 3.6 90 12:42 20.09.2019
1609 Clouds 27 1018 65 10000 3.1 90 12:23 20.09.2019
1610 Clouds 27 1019 57 10000 4.6 70 11:57 20.09.2019
1611 Clouds 26 1019 65 10000 4.6 60 11:39 20.09.2019
1612 Clouds 26 1018 69 10000 4.6 80 11:19 20.09.2019
1613 Clouds 26 1018 69 10000 4.6 70 10:42 20.09.2019
1614 Clear 25 1019 73 10000 4.6 50 10:22 20.09.2019
1615 Clear 24 1019 83 10000 2.6 40 09:38 20.09.2019
1616 Clouds 22 1018 94 9000 1 0 09:19 20.09.2019
1617 Clear 21 1019 88 10000 2.1 40 08:59 20.09.2019
1618 Clear 21 1019 88 10000 2.1 40 08:59 20.09.2019
1619 Clear 21 1019 88 10000 1.5 50 08:40 20.09.2019
1620 Clouds 20 1017 94 9000 3.1 60 08:21 20.09.2019
1621 Clouds 21 1017 94 9000 3.1 60 07:45 20.09.2019
1622 Clouds 21 1017 94 10000 3.1 60 07:25 20.09.2019
1623 Clear 22 1018 88 10000 1.5 10 06:44 20.09.2019
1624 Clouds 22 1017 100 10000 2.1 50 06:20 20.09.2019
1625 Clouds 22 1017 100 10000 2.6 50 05:42 20.09.2019
1626 Clear 22 1018 83 10000 1.5 30 03:31 20.09.2019
1627 Clear 22 1018 83 10000 1.5 30 03:31 20.09.2019
1628 Clear 23 1019 83 10000 2.1 10 02:51 20.09.2019
1629 Clear 23 1019 83 10000 2.1 10 02:51 20.09.2019
1630 Clouds 23 1019 83 10000 1.5 30 01:44 20.09.2019
1631 Clouds 23 1018 88 10000 1.5 100 00:48 20.09.2019
1632 Clouds 24 1018 83 10000 1.5 80 00:21 20.09.2019
1633 Clouds 24 1019 83 10000 3.1 60 23:42 19.09.2019
1634 Clouds 24 1019 83 10000 3.1 60 23:19 19.09.2019
1635 Clouds 24 1019 78 10000 2.6 70 22:55 19.09.2019
1636 Clouds 24 1018 78 10000 4.1 60 22:36 19.09.2019
1637 Clouds 25 1018 78 10000 4.1 60 22:18 19.09.2019
1638 Clouds 25 1018 73 10000 2.6 40 21:55 19.09.2019
1639 Clouds 25 1018 73 10000 3.1 70 21:36 19.09.2019
1640 Clouds 25 1017 78 10000 3.6 60 21:18 19.09.2019
1641 Clouds 25 1016 78 10000 2.1 240 20:43 19.09.2019
1642 Clouds 25 1017 78 10000 2.1 200 20:21 19.09.2019
1643 Clouds 25 1017 73 10000 3.6 220 19:55 19.09.2019
1644 Clouds 25 1017 73 10000 3.6 210 19:37 19.09.2019
1645 Clouds 26 1017 73 10000 3.6 210 19:19 19.09.2019
1646 Clouds 26 1017 65 10000 3.6 220 18:42 19.09.2019
1647 Clouds 26 1016 74 10000 4.1 240 18:24 19.09.2019
1648 Clouds 26 1016 69 10000 3.6 230 17:54 19.09.2019
1649 Clouds 26 1017 69 10000 4.6 200 17:36 19.09.2019
1650 Thunderstorm 27 1016 74 10000 4.1 230 17:18 19.09.2019
1651 Clouds 27 1017 58 10000 5.1 200 16:43 19.09.2019
1652 Clouds 27 1017 58 10000 5.1 200 16:20 19.09.2019
1653 Clouds 28 1016 69 10000 4.6 240 15:56 19.09.2019
1654 Clouds 28 1017 58 10000 6.2 220 15:38 19.09.2019
1655 Clouds 28 1016 74 10000 4.6 230 15:18 19.09.2019
1656 Clouds 28 1016 65 10000 5.7 230 14:41 19.09.2019
1657 Clear 28 1017 58 10000 5.1 210 14:22 19.09.2019
1658 Clear 28 1017 58 10000 3.6 220 13:58 19.09.2019
1659 Clear 28 1018 58 10000 3.1 200 13:38 19.09.2019
1660 Clear 28 1018 58 10000 3.1 200 13:38 19.09.2019
1661 Clear 28 1018 54 10000 2.1 140 13:19 19.09.2019
1662 Clear 27 1018 57 10000 1 0 12:38 19.09.2019
1663 Clouds 27 1017 65 10000 1.5 360 12:19 19.09.2019
1664 Clear 27 1018 61 10000 1.5 160 11:56 19.09.2019
1665 Clear 27 1018 61 10000 2.1 60 11:38 19.09.2019
1666 Clouds 26 1017 65 10000 1 0 11:19 19.09.2019
1667 Clear 26 1017 69 10000 1.5 40 10:40 19.09.2019
1668 Clouds 25 1016 73 10000 1.5 40 10:21 19.09.2019
1669 Clear 24 1017 69 10000 1.5 20 09:58 19.09.2019
1670 Clear 22 1017 78 10000 2.1 10 09:40 19.09.2019
1671 Clear 22 1017 78 10000 2.1 10 09:20 19.09.2019
1672 Clear 20 1017 88 10000 1.5 340 08:51 19.09.2019
1673 Clear 20 1017 88 10000 2.1 350 08:27 19.09.2019
1674 Clear 21 1016 88 10000 2.1 340 07:46 19.09.2019
1675 Clouds 21 1015 83 10000 0.5 0 07:46 19.09.2019
1676 Clouds 21 1015 88 10000 1 360 07:25 19.09.2019
1677 Clear 21 1016 88 10000 2.1 340 06:59 19.09.2019
1678 Clear 21 1016 88 10000 2.1 340 06:40 19.09.2019
1679 Clouds 21 1015 94 10000 2.1 30 06:21 19.09.2019
1680 Clouds 21 1015 94 10000 2.1 50 05:50 19.09.2019
1681 Clear 21 1017 88 10000 1 0 04:24 19.09.2019
1682 Clouds 22 1016 83 10000 1.76 100.672 03:21 19.09.2019
1683 Clouds 22 1016 83 10000 1.5 20 01:45 19.09.2019
1684 Clouds 23 1016 88 10000 2.6 20 01:20 19.09.2019
1685 Clouds 23 1016 88 10000 1 20 00:45 19.09.2019
1686 Clear 23 1017 83 10000 1.5 50 00:24 19.09.2019
1687 Clear 23 1017 83 10000 1 100 23:39 18.09.2019
1688 Clear 23 1017 83 10000 1 100 23:20 18.09.2019
1689 Clear 23 1017 83 10000 1 100 23:20 18.09.2019
1690 Clear 24 1017 73 10000 1 0 22:43 18.09.2019
1691 Clear 24 1017 73 10000 1 0 22:20 18.09.2019
1692 Clear 24 1016 73 10000 2.1 90 21:58 18.09.2019
1693 Clear 24 1016 78 10000 0.5 0 21:40 18.09.2019
1694 Clear 24 1016 78 10000 0.5 0 21:40 18.09.2019
1695 Clear 24 1016 78 10000 0.5 0 21:19 18.09.2019
1696 Clear 24 1016 78 10000 0.5 0 20:58 18.09.2019
1697 Clear 25 1015 73 10000 1 0 20:40 18.09.2019
1698 Clouds 25 1014 73 10000 1.5 230 20:22 18.09.2019
1699 Clouds 25 1014 74 10000 2.1 230 19:57 18.09.2019
1700 Clear 26 1015 65 10000 3.1 180 19:38 18.09.2019
1701 Clouds 26 1014 78 10000 3.1 220 19:19 18.09.2019
1702 Clear 27 1015 61 10000 4.1 180 18:56 18.09.2019
1703 Clear 28 1015 61 10000 4.6 190 18:37 18.09.2019
1704 Clouds 28 1014 54 10000 4.1 220 18:19 18.09.2019
1705 Clear 29 1015 54 10000 2.6 230 17:57 18.09.2019
1706 Clear 29 1015 54 10000 2.6 230 17:57 18.09.2019
1707 Clear 28 1015 58 10000 3.1 220 17:39 18.09.2019
1708 Clouds 29 1014 65 10000 4.6 240 17:19 18.09.2019
1709 Clear 28 1015 58 10000 4.1 200 16:56 18.09.2019
1710 Clear 28 1015 58 10000 4.1 200 16:56 18.09.2019
1711 Clear 29 1015 54 10000 5.1 210 16:37 18.09.2019
1712 Clouds 29 1014 61 10000 2.6 200 16:18 18.09.2019
1713 Clear 29 1015 58 10000 3.1 210 15:55 18.09.2019
1714 Clear 29 1016 58 10000 2.1 210 15:37 18.09.2019
1715 Clear 29 1016 58 10000 2.1 210 15:37 18.09.2019
1716 Clear 29 1016 58 10000 2.1 210 15:18 18.09.2019
1717 Clear 28 1016 58 10000 4.1 220 14:57 18.09.2019
1718 Clear 28 1016 61 10000 3.1 230 14:38 18.09.2019
1719 Clear 27 1016 61 10000 3.1 230 14:20 18.09.2019
1720 Clouds 28 1016 78 10000 4.6 230 13:43 18.09.2019
1721 Clear 27 1017 74 10000 5.7 210 13:19 18.09.2019
1722 Clear 27 1017 74 10000 5.7 210 13:19 18.09.2019
1723 Clouds 26 1016 78 10000 4.6 230 12:55 18.09.2019
1724 Clear 26 1017 74 10000 5.1 220 12:37 18.09.2019
1725 Clear 27 1017 69 10000 2.6 170 12:18 18.09.2019
1726 Clear 26 1016 65 10000 2.6 140 11:39 18.09.2019
1727 Clear 26 1016 65 10000 2.6 140 11:19 18.09.2019
1728 Clouds 25 1015 83 10000 1.5 60 10:41 18.09.2019
1729 Clouds 25 1015 83 10000 2.6 50 10:22 18.09.2019
1730 Clear 24 1015 78 10000 0.5 310 09:59 18.09.2019
1731 Clear 22 1015 83 10000 1.5 340 09:41 18.09.2019
1732 Clear 22 1015 83 10000 1.5 340 09:22 18.09.2019
1733 Clear 21 1015 88 10000 2.6 350 08:55 18.09.2019
1734 Clear 20 1015 88 10000 1.5 320 08:37 18.09.2019
1735 Clouds 20 1014 88 10000 1 70 08:18 18.09.2019
1736 Clouds 20 1014 88 10000 1 70 08:18 18.09.2019
1737 Clear 20 1014 82 10000 2.1 360 07:43 18.09.2019
1738 Clear 19 1013 93 10000 1 0 07:23 18.09.2019
1739 Clear 20 1013 94 10000 1 0 06:42 18.09.2019
1740 Clear 20 1014 82 10000 2.6 20 06:21 18.09.2019
1741 Clear 20 1014 88 10000 1.5 360 05:26 18.09.2019
1742 Clear 22 1015 83 10000 1.5 290 03:38 18.09.2019
1743 Clear 23 1016 83 10000 1.5 330 02:40 18.09.2019
1744 Clouds 23 1015 83 10000 3.1 250 01:41 18.09.2019
1745 Clear 23 1016 83 10000 1 300 00:55 18.09.2019
1746 Clear 23 1016 88 10000 3.1 240 00:31 18.09.2019
1747 Clouds 24 1015 88 10000 1.5 220 23:47 17.09.2019
1748 Clouds 24 1015 88 10000 1.5 220 23:47 17.09.2019
1749 Clear 24 1016 83 10000 2.6 190 23:24 17.09.2019
1750 Clouds 24 1016 83 10000 2.1 170 22:56 17.09.2019
1751 Clouds 24 1016 83 10000 2.1 170 22:56 17.09.2019
1752 Clouds 25 1016 83 10000 2.6 180 22:37 17.09.2019
1753 Clouds 25 1015 83 10000 2.1 170 22:19 17.09.2019
1754 Clouds 25 1016 78 10000 3.1 170 21:54 17.09.2019
1755 Clouds 25 1016 78 10000 3.1 170 21:54 17.09.2019
1756 Clouds 25 1015 78 10000 2.6 160 21:36 17.09.2019
1757 Clouds 25 1014 83 10000 2.6 190 21:18 17.09.2019
1758 Clouds 25 1015 73 10000 2.6 170 20:55 17.09.2019
1759 Clouds 25 1015 73 10000 2.6 170 20:55 17.09.2019
1760 Clouds 25 1015 73 10000 2.6 190 20:37 17.09.2019
1761 Clouds 25 1015 73 10000 2.6 190 20:37 17.09.2019
1762 Clouds 26 1014 83 10000 2.6 210 20:19 17.09.2019
1763 Clouds 26 1014 83 10000 2.6 210 20:19 17.09.2019
1764 Clear 27 1014 65 10000 3.6 180 19:40 17.09.2019
1765 Clouds 27 1013 74 10000 2.6 200 19:20 17.09.2019
1766 Clouds 27 1014 69 10000 3.6 220 18:59 17.09.2019
1767 Clouds 28 1015 61 10000 4.6 200 18:41 17.09.2019
1768 Clouds 28 1015 61 10000 4.6 200 18:22 17.09.2019
1769 Clouds 29 1014 69 10000 4.6 240 17:55 17.09.2019
1770 Clouds 28 1015 54 10000 5.7 220 17:37 17.09.2019
1771 Clouds 29 1014 69 10000 5.1 240 17:18 17.09.2019
1772 Clouds 29 1016 54 10000 5.7 220 16:42 17.09.2019
1773 Clouds 29 1016 54 10000 5.7 220 16:22 17.09.2019
1774 Clouds 28 1016 61 10000 6.7 220 15:58 17.09.2019
1775 Clear 29 1016 61 10000 6.2 220 15:38 17.09.2019
1776 Clouds 29 1015 74 10000 6.2 230 15:19 17.09.2019
1777 Clear 29 1016 61 10000 6.2 220 14:56 17.09.2019
1778 Clear 28 1017 61 10000 5.1 220 14:37 17.09.2019
1779 Clouds 28 1015 74 10000 5.7 230 14:19 17.09.2019
1780 Clouds 29 1016 74 10000 4.1 230 13:42 17.09.2019
1781 Clear 30 1017 65 10000 2.6 190 13:23 17.09.2019
1782 Clear 28 1017 61 10000 3.6 210 12:56 17.09.2019
1783 Clear 28 1017 61 10000 3.6 210 12:56 17.09.2019
1784 Clear 28 1017 69 10000 2.6 200 12:37 17.09.2019
1785 Clouds 28 1016 78 9000 1.5 220 12:18 17.09.2019
1786 Clouds 27 1017 74 9000 0.5 240 11:42 17.09.2019
1787 Clear 26 1018 74 10000 1 0 11:24 17.09.2019
1788 Clear 26 1018 73 10000 1 0 10:56 17.09.2019
1789 Clear 25 1018 73 10000 1 0 10:37 17.09.2019
1790 Clouds 24 1017 88 6000 0.5 0 10:19 17.09.2019
1791 Mist 24 1017 83 10000 0.5 0 09:41 17.09.2019
1792 Mist 23 1017 94 10000 1 40 09:21 17.09.2019
1793 Mist 21 1016 94 3000 2.94 313.61 08:51 17.09.2019
1794 Fog 21 1017 88 10000 1 0 08:33 17.09.2019
1795 Mist 21 1017 88 10000 2.1 20 07:59 17.09.2019
1796 Fog 21 1015 100 900 0.5 0 07:39 17.09.2019
1797 Fog 21 1015 100 900 0.5 0 07:21 17.09.2019
1798 Fog 21 1015 100 5000 3.06 311.32 06:47 17.09.2019
1799 Fog 21 1017 88 10000 1.5 360 06:23 17.09.2019
1800 Fog 22 1017 88 10000 2.1 360 05:49 17.09.2019
1801 Fog 23 1017 88 10000 1.5 10 04:32 17.09.2019
1802 Fog 22 1017 94 10000 1 0 02:59 17.09.2019
1803 Fog 23 1017 88 10000 1 360 02:39 17.09.2019
1804 Fog 23 1018 88 10000 1.5 350 01:29 17.09.2019
1805 Clear 24 1018 88 10000 1.5 320 00:40 17.09.2019
1806 Clouds 24 1018 88 10000 1.5 70 23:40 16.09.2019
1807 Clouds 25 1017 94 10000 3.1 50 23:19 16.09.2019
1808 Clouds 25 1018 88 10000 3.1 70 22:56 16.09.2019
1809 Clouds 25 1018 88 10000 3.1 70 22:56 16.09.2019
1810 Clouds 25 1017 88 10000 3.6 60 22:38 16.09.2019
1811 Clouds 25 1016 83 10000 2.6 30 22:20 16.09.2019
1812 Clouds 25 1017 83 10000 3.6 50 21:55 16.09.2019
1813 Clouds 25 1017 83 10000 4.1 60 21:37 16.09.2019
1814 Clouds 25 1016 83 10000 3.1 40 21:18 16.09.2019
1815 Clouds 26 1016 78 10000 2.6 70 20:40 16.09.2019
1816 Clouds 26 1016 83 10000 3.6 60 20:22 16.09.2019
1817 Clouds 26 1017 78 10000 4.1 60 19:57 16.09.2019
1818 Clouds 26 1017 78 10000 3.1 70 19:39 16.09.2019
1819 Clouds 26 1016 83 10000 3.1 70 19:19 16.09.2019
1820 Clouds 26 1016 83 10000 4.1 80 18:48 16.09.2019
1821 Clouds 27 1016 78 10000 4.1 70 18:30 16.09.2019
1822 Clear 26 1017 74 10000 4.1 90 17:59 16.09.2019
1823 Clear 26 1017 74 10000 4.6 80 17:41 16.09.2019
1824 Clouds 27 1016 78 10000 3.6 80 17:22 16.09.2019
1825 Clear 27 1017 69 10000 4.6 100 16:55 16.09.2019
1826 Clear 27 1017 69 10000 4.1 80 16:37 16.09.2019
1827 Clouds 27 1016 74 10000 4.1 80 16:18 16.09.2019
1828 Clear 27 1018 69 10000 4.1 100 15:55 16.09.2019
1829 Clear 27 1018 69 10000 4.1 100 15:55 16.09.2019
1830 Clear 27 1018 69 10000 4.6 110 15:37 16.09.2019
1831 Clear 27 1018 69 10000 4.6 110 15:37 16.09.2019
1832 Clear 27 1018 69 10000 4.6 110 15:18 16.09.2019
1833 Clouds 28 1017 65 10000 3.6 80 14:43 16.09.2019
1834 Clear 27 1018 65 10000 4.6 100 14:23 16.09.2019
1835 Clear 28 1019 61 10000 5.1 100 13:57 16.09.2019
1836 Clear 28 1019 61 10000 4.6 90 13:38 16.09.2019
1837 Clouds 28 1018 65 10000 4.1 90 13:20 16.09.2019
1838 Clouds 28 1018 65 10000 4.1 90 13:20 16.09.2019
1839 Clouds 28 1018 65 10000 5.1 90 12:43 16.09.2019
1840 Clouds 28 1018 65 10000 5.1 100 12:24 16.09.2019
1841 Clear 27 1019 54 10000 6.2 80 11:55 16.09.2019
1842 Clear 28 1019 61 10000 5.7 80 11:37 16.09.2019
1843 Clouds 27 1018 61 10000 5.1 90 11:19 16.09.2019
1844 Clear 26 1019 65 10000 6.2 60 10:38 16.09.2019
1845 Clouds 26 1018 74 10000 5.1 70 10:20 16.09.2019
1846 Clear 25 1018 73 10000 5.7 60 09:58 16.09.2019
1847 Clear 25 1018 78 10000 4.6 70 09:38 16.09.2019
1848 Clear 24 1018 78 10000 4.6 70 09:19 16.09.2019
1849 Clear 23 1018 83 10000 4.6 60 08:46 16.09.2019
1850 Clear 23 1018 83 10000 4.6 60 08:25 16.09.2019
1851 Clear 24 1018 83 10000 4.6 60 07:56 16.09.2019
1852 Clear 24 1018 83 10000 4.1 50 07:37 16.09.2019
1853 Clear 24 1017 88 10000 5.1 60 07:19 16.09.2019
1854 Clear 24 1017 83 10000 4.6 60 06:45 16.09.2019
1855 Clear 24 1017 88 10000 4.6 70 06:26 16.09.2019
1856 Clear 24 1017 88 10000 4.6 60 05:49 16.09.2019
1857 Clear 24 1018 83 10000 4.1 60 05:29 16.09.2019
1858 Clear 24 1018 73 10000 4.1 60 04:33 16.09.2019
1859 Clear 24 1019 53 10000 2.6 60 02:33 16.09.2019
1860 Clear 24 1020 65 10000 4.1 50 00:44 16.09.2019
1861 Clear 25 1020 65 10000 4.1 50 00:25 16.09.2019
1862 Clear 24 1018 83 10000 3.6 60 23:44 15.09.2019
1863 Clear 25 1018 78 10000 4.1 70 23:21 15.09.2019
1864 Clear 25 1019 73 10000 5.1 50 22:58 15.09.2019
1865 Clear 25 1019 73 10000 6.2 60 22:37 15.09.2019
1866 Clear 25 1018 83 10000 6.2 60 22:18 15.09.2019
1867 Clear 25 1019 73 10000 5.7 50 21:55 15.09.2019
1868 Clear 26 1019 69 10000 5.1 60 21:37 15.09.2019
1869 Clear 26 1019 69 10000 5.1 60 21:37 15.09.2019
1870 Clear 26 1018 78 10000 4.1 60 21:18 15.09.2019
1871 Clear 26 1018 74 10000 6.2 70 20:44 15.09.2019
1872 Clear 26 1019 69 10000 5.7 80 20:25 15.09.2019
1873 Clouds 27 1018 65 10000 6.7 80 19:47 15.09.2019
1874 Clear 27 1019 61 10000 6.7 80 19:27 15.09.2019
1875 Clouds 28 1018 62 10000 7.2 80 18:55 15.09.2019
1876 Clear 29 1019 55 10000 5.1 80 18:36 15.09.2019
1877 Clouds 29 1018 58 10000 6.7 80 18:18 15.09.2019
1878 Clouds 29 1018 51 10000 6.7 90 17:43 15.09.2019
1879 Clouds 30 1018 55 10000 6.7 80 17:22 15.09.2019
1880 Clear 30 1020 51 10000 6.2 110 16:57 15.09.2019
1881 Clear 30 1020 52 10000 5.7 110 16:38 15.09.2019
1882 Clouds 31 1019 52 10000 5.7 90 16:20 15.09.2019
1883 Clear 31 1020 48 10000 6.2 100 15:56 15.09.2019
1884 Clear 31 1020 48 10000 6.2 130 15:36 15.09.2019
1885 Clouds 31 1019 49 10000 5.7 90 15:18 15.09.2019
1886 Clear 31 1020 52 10000 6.2 100 14:42 15.09.2019
1887 Clear 30 1020 52 10000 6.2 100 14:23 15.09.2019
1888 Clouds 30 1020 55 10000 7.2 80 13:55 15.09.2019
1889 Clear 30 1021 48 10000 6.7 90 13:37 15.09.2019
1890 Clouds 30 1019 55 10000 6.7 80 13:19 15.09.2019
1891 Clouds 29 1020 45 10000 6.2 90 12:42 15.09.2019
1892 Clouds 29 1020 62 10000 6.7 110 12:23 15.09.2019
1893 Clear 29 1021 61 10000 7.7 80 11:56 15.09.2019
1894 Clear 28 1021 69 10000 7.2 70 11:38 15.09.2019
1895 Clouds 28 1020 69 10000 6.2 80 11:19 15.09.2019
1896 Clear 27 1021 74 10000 6.7 60 10:42 15.09.2019
1897 Clouds 27 1020 74 10000 5.7 60 10:22 15.09.2019
1898 Clear 26 1021 83 10000 5.7 60 09:57 15.09.2019
1899 Clear 26 1021 78 10000 5.1 70 09:37 15.09.2019
1900 Clouds 24 1020 88 10000 5.7 50 09:18 15.09.2019
1901 Clouds 24 1020 88 10000 5.7 60 08:44 15.09.2019
1902 Clear 24 1021 83 10000 5.1 60 08:25 15.09.2019
1903 Clouds 24 1019 88 10000 7.2 50 07:48 15.09.2019
1904 Clouds 24 1020 83 10000 5.1 60 07:25 15.09.2019
1905 Clear 24 1020 83 10000 6.2 60 06:39 15.09.2019
1906 Clear 24 1021 83 10000 4.1 50 03:25 15.09.2019
1907 Clear 25 1022 78 10000 1.5 80 02:32 15.09.2019
1908 Clear 24 1021 78 10000 8.7 50 01:39 15.09.2019
1909 Clear 24 1021 78 10000 8.7 50 01:39 15.09.2019
1910 Clouds 24 1020 83 10000 8.7 50 01:19 15.09.2019
1911 Clear 24 1022 78 10000 6.7 80 00:41 15.09.2019
1912 Clouds 24 1021 83 10000 7.2 70 00:21 15.09.2019
1913 Clouds 25 1021 83 10000 7.2 70 23:58 14.09.2019
1914 Clear 25 1023 78 10000 5.7 70 23:39 14.09.2019
1915 Clear 24 1023 78 10000 5.7 70 23:21 14.09.2019
1916 Clear 24 1022 78 10000 6.2 60 22:59 14.09.2019
1917 Clear 24 1022 78 10000 5.7 70 22:40 14.09.2019
1918 Clear 24 1022 78 10000 5.7 70 22:40 14.09.2019
1919 Clouds 25 1021 73 10000 6.2 60 22:19 14.09.2019
1920 Clouds 25 1021 73 10000 6.2 60 22:19 14.09.2019
1921 Clear 25 1021 73 10000 6.2 60 21:41 14.09.2019
1922 Clear 25 1021 73 10000 6.2 60 21:22 14.09.2019
1923 Clear 25 1021 73 10000 7.2 60 20:59 14.09.2019
1924 Clouds 25 1020 78 10000 5.7 60 20:40 14.09.2019
1925 Clear 25 1021 78 10000 7.2 60 20:40 14.09.2019
1926 Clouds 26 1020 69 10000 7.2 70 20:22 14.09.2019
1927 Clouds 26 1020 69 10000 7.2 70 20:22 14.09.2019
1928 Rain 26 1022 74 10000 5.7 70 19:52 14.09.2019
1929 Clouds 27 1021 65 10000 4.1 110 19:23 14.09.2019
1930 Clouds 28 1020 65 10000 5.7 90 18:59 14.09.2019
1931 Clear 28 1021 65 10000 7.2 60 18:40 14.09.2019
1932 Clear 29 1020 51 10000 7.7 70 18:21 14.09.2019
1933 Clear 29 1019 55 10000 7.2 80 17:58 14.09.2019
1934 Clear 29 1021 54 10000 6.7 70 17:39 14.09.2019
1935 Clear 29 1021 54 10000 6.7 70 17:21 14.09.2019
1936 Clear 30 1022 48 10000 6.2 90 16:43 14.09.2019
1937 Clear 30 1021 55 10000 6.2 80 16:21 14.09.2019
1938 Clear 30 1022 37 10000 7.2 100 15:43 14.09.2019
1939 Clear 30 1021 45 10000 6.2 70 15:24 14.09.2019
1940 Clear 30 1023 31 10000 6.7 90 14:59 14.09.2019
1941 Clear 30 1023 40 10000 6.7 70 14:40 14.09.2019
1942 Clear 29 1023 51 10000 6.2 60 14:19 14.09.2019
1943 Clear 29 1023 51 10000 6.2 60 14:19 14.09.2019
1944 Clear 29 1023 51 10000 6.2 60 14:19 14.09.2019
1945 Clear 29 1022 42 10000 6.7 80 13:47 14.09.2019
1946 Clear 29 1023 51 10000 5.7 80 13:22 14.09.2019
1947 Clear 28 1023 51 10000 4.6 70 12:48 14.09.2019
1948 Clear 28 1024 54 10000 6.7 60 12:26 14.09.2019
1949 Clouds 27 1023 65 10000 6.2 60 11:43 14.09.2019
1950 Clouds 26 1023 65 10000 7.7 70 11:21 14.09.2019
1951 Clear 27 1024 54 10000 6.7 70 10:58 14.09.2019
1952 Clear 26 1024 54 10000 6.7 70 10:58 14.09.2019
1953 Clear 27 1023 47 10000 5.7 80 10:37 14.09.2019
1954 Clouds 26 1022 61 10000 6.2 70 10:18 14.09.2019
1955 Clear 25 1023 50 10000 3.6 40 09:56 14.09.2019
1956 Clear 23 1023 60 10000 2.6 60 09:38 14.09.2019
1957 Clouds 23 1022 83 10000 3.1 80 09:18 14.09.2019
1958 Clouds 23 1022 83 10000 2.1 80 08:44 14.09.2019
1959 Clear 24 1023 60 10000 4.6 80 08:23 14.09.2019
1960 Clear 24 1023 60 10000 4.6 80 08:23 14.09.2019
1961 Clouds 23 1021 73 10000 5.1 70 07:46 14.09.2019
1962 Clouds 23 1021 78 10000 4.1 70 07:28 14.09.2019
1963 Clear 23 1022 53 10000 7.2 50 06:40 14.09.2019
1964 Clouds 23 1021 78 10000 3.1 80 06:21 14.09.2019
1965 Clear 23 1022 60 10000 6.7 50 05:21 14.09.2019
1966 Clouds 24 1021 69 10000 7.2 50 03:43 14.09.2019
1967 Thunderstorm 23 1024 53 10000 7.2 50 02:52 14.09.2019
1968 Rain 23 1024 50 10000 2.1 50 01:50 14.09.2019
1969 Rain 23 1025 49 10000 3.6 30 01:22 14.09.2019
1970 Rain 23 1026 41 10000 3.1 40 00:57 14.09.2019
1971 Thunderstorm 23 1025 41 10000 4.1 80 00:38 14.09.2019
1972 Thunderstorm 24 1024 47 10000 6.2 60 00:20 14.09.2019
1973 Rain 24 1026 39 10000 4.6 340 23:38 13.09.2019
1974 Clouds 25 1024 50 10000 5.1 360 23:19 13.09.2019
1975 Clear 24 1024 60 10000 3.1 50 22:57 13.09.2019
1976 Clear 24 1024 64 10000 5.1 60 22:38 13.09.2019
1977 Thunderstorm 23 1023 78 10000 5.1 60 22:20 13.09.2019
1978 Clear 24 1024 78 10000 6.7 60 21:42 13.09.2019
1979 Clear 24 1024 78 10000 6.7 60 21:20 13.09.2019
1980 Clear 24 1024 78 10000 4.6 50 20:59 13.09.2019
1981 Rain 24 1024 83 10000 4.6 50 20:40 13.09.2019
1982 Clouds 24 1023 88 10000 4.6 60 20:21 13.09.2019
1983 Clear 24 1023 83 10000 5.7 60 19:56 13.09.2019
1984 Rain 25 1023 83 10000 5.7 70 19:38 13.09.2019
1985 Clouds 25 1022 83 10000 7.2 60 19:19 13.09.2019
1986 -273 0 0 0 0 0 18:56 13.09.2019
1987 Rain 25 1023 83 10000 6.7 60 18:37 13.09.2019
1988 Clouds 25 1022 83 10000 7.7 60 18:18 13.09.2019
1989 Clear 25 1024 78 10000 7.2 50 17:39 13.09.2019
1990 Thunderstorm 25 1023 78 10000 8.2 60 17:19 13.09.2019
1991 Clear 25 1025 78 10000 6.7 60 16:42 13.09.2019
1992 Clouds 24 1024 83 10000 6.2 50 16:21 13.09.2019
1993 Clear 24 1025 78 10000 8.2 60 15:58 13.09.2019
1994 Rain 24 1024 83 10000 9.3 60 15:39 13.09.2019
1995 Rain 24 1024 83 10000 8.7 60 15:20 13.09.2019
1996 Rain 24 1024 83 8000 7.2 70 14:44 13.09.2019
1997 Clouds 24 1025 78 10000 5.7 60 14:22 13.09.2019
1998 Rain 24 1026 64 10000 5.7 50 13:56 13.09.2019
1999 Rain 22 1026 73 10000 4.1 40 13:37 13.09.2019
2000 Rain 22 1025 83 10000 4.6 60 13:19 13.09.2019
2001 Rain 22 1027 83 10000 7.2 60 12:41 13.09.2019
2002 Thunderstorm 22 1026 88 7000 6.2 60 12:23 13.09.2019
2003 Thunderstorm 22 1027 88 9000 7.7 60 11:56 13.09.2019
2004 Rain 21 1027 88 10000 8.2 70 11:20 13.09.2019
2005 Rain 21 1028 88 7000 2.6 320 10:41 13.09.2019
2006 Rain 21 1028 88 7000 2.6 320 10:41 13.09.2019
2007 Rain 21 1028 88 7000 2.6 320 10:20 13.09.2019
2008 Thunderstorm 23 1024 73 10000 8.2 50 09:47 13.09.2019
2009 Clouds 23 1023 83 10000 6.2 60 09:26 13.09.2019
2010 Clear 23 1024 73 10000 4.1 60 08:59 13.09.2019
2011 Clouds 23 1023 83 10000 5.1 50 08:41 13.09.2019
2012 Clear 23 1024 73 10000 6.2 50 08:41 13.09.2019
2013 Clear 24 1024 73 10000 6.2 50 08:21 13.09.2019
2014 Clear 23 1023 69 10000 3.6 80 07:57 13.09.2019
2015 Rain 23 1023 73 10000 7.2 50 07:39 13.09.2019
2016 Rain 24 1021 83 10000 9.3 60 06:49 13.09.2019
2017 Thunderstorm 22 1021 88 8000 10.3 50 05:50 13.09.2019
2018 Thunderstorm 23 1024 88 9000 9.3 60 05:26 13.09.2019
2019 Clouds 23 1025 88 10000 5.7 60 03:42 13.09.2019
2020 Clouds 23 1024 83 10000 5.1 60 02:54 13.09.2019
2021 Clear 23 1027 83 10000 3.1 90 02:19 13.09.2019
2022 Clear 23 1026 73 10000 3.6 100 01:35 13.09.2019
2023 Clear 24 1026 64 10000 5.7 60 00:59 13.09.2019
2024 Clear 23 1026 56 10000 3.1 50 00:33 13.09.2019
2025 Clear 23 1025 73 10000 4.6 50 23:47 12.09.2019
2026 Clear 23 1026 64 10000 4.6 50 23:23 12.09.2019
2027 Clear 23 1026 69 10000 4.1 60 22:56 12.09.2019
2028 Clear 23 1026 64 10000 2.6 60 22:38 12.09.2019
2029 Clear 23 1025 73 10000 3.6 60 22:20 12.09.2019
2030 Clear 23 1026 64 10000 4.1 50 21:55 12.09.2019
2031 Clear 23 1026 64 10000 4.1 50 21:36 12.09.2019
2032 Clear 23 1024 73 10000 4.1 40 21:18 12.09.2019
2033 Clear 24 1024 73 10000 6.2 40 20:43 12.09.2019
2034 Clear 24 1025 60 10000 5.1 40 20:22 12.09.2019
2035 Clear 24 1026 60 10000 5.1 50 19:57 12.09.2019
2036 Clear 25 1026 53 10000 5.1 50 19:38 12.09.2019
2037 Clear 25 1026 53 10000 5.1 50 19:38 12.09.2019
2038 Clear 25 1025 61 10000 6.7 50 19:19 12.09.2019
2039 Clear 25 1025 61 10000 6.7 50 19:19 12.09.2019
2040 Clear 25 1025 61 10000 6.7 50 19:19 12.09.2019
2041 Clear 26 1026 44 10000 8.2 60 18:41 12.09.2019
2042 Clear 26 1025 44 10000 9.3 60 18:23 12.09.2019
2043 Clear 26 1025 41 10000 9.8 50 18:00 12.09.2019
2044 Clear 26 1025 44 10000 8.7 50 17:40 12.09.2019
2045 Clear 26 1025 44 10000 8.7 50 17:40 12.09.2019
2046 Clear 27 1024 44 10000 9.8 70 17:20 12.09.2019
2047 Clear 27 1025 47 10000 9.8 50 16:55 12.09.2019
2048 Clear 27 1025 47 10000 9.3 50 16:36 12.09.2019
2049 Clear 27 1025 47 10000 9.3 50 16:18 12.09.2019
2050 Clear 27 1025 44 10000 10.3 70 15:41 12.09.2019
2051 Clear 28 1025 44 10000 10.3 70 15:23 12.09.2019
2052 Clear 28 1024 32 10000 10.3 60 14:45 12.09.2019
2053 Clear 28 1025 45 10000 10.3 60 14:22 12.09.2019
2054 Clear 28 1026 42 10000 10.3 70 13:58 12.09.2019
2055 Clear 28 1026 44 10000 8.7 60 13:37 12.09.2019
2056 Clear 27 1025 51 10000 10.3 60 13:18 12.09.2019
2057 Clear 27 1026 42 10000 11.8 70 12:44 12.09.2019
2058 Clear 27 1025 44 10000 11.8 60 12:19 12.09.2019
2059 Clear 26 1026 47 10000 12.3 60 11:56 12.09.2019
2060 Clear 26 1025 47 10000 10.8 60 11:38 12.09.2019
2061 Clear 26 1024 54 10000 11.8 60 11:19 12.09.2019
2062 Clouds 25 1024 57 10000 10.8 60 10:44 12.09.2019
2063 Clear 25 1024 57 10000 10.8 60 10:25 12.09.2019
2064 Rain 23 1024 64 10000 6.7 50 09:44 12.09.2019
2065 Rain 23 1024 64 10000 6.7 50 09:23 12.09.2019
2066 Drizzle 23 1025 73 10000 8.2 70 08:58 12.09.2019
2067 Clear 23 1025 73 10000 8.7 60 08:40 12.09.2019
2068 Clear 23 1025 73 10000 8.7 60 08:21 12.09.2019
2069 Clear 23 1025 73 10000 8.7 60 08:21 12.09.2019
2070 Clouds 23 1023 73 10000 7.7 70 07:39 12.09.2019
2071 Clouds 23 1022 73 10000 7.7 70 07:19 12.09.2019
2072 Thunderstorm 23 1022 73 10000 7.7 60 06:50 12.09.2019
2073 Thunderstorm 23 1022 73 10000 8.7 60 06:19 12.09.2019
2074 Clouds 23 1022 73 10000 8.7 60 05:49 12.09.2019
2075 Clear 23 1023 64 10000 9.8 60 05:30 12.09.2019
2076 Clouds 23 1021 73 10000 8.7 70 04:40 12.09.2019
2077 Clouds 23 1021 73 10000 10.3 70 02:28 12.09.2019
2078 Clouds 23 1021 73 10000 10.8 60 01:37 12.09.2019
2079 Clouds 23 1020 78 10000 10.3 60 01:18 12.09.2019
2080 Thunderstorm 23 1021 78 10000 10.8 50 00:42 12.09.2019
2081 Rain 23 1020 78 10000 10.8 60 00:24 12.09.2019
2082 Rain 24 1021 78 10000 10.3 50 23:42 11.09.2019
2083 Rain 24 1021 78 10000 10.3 50 23:22 11.09.2019
2084 Rain 24 1020 73 10000 10.3 50 22:57 11.09.2019
2085 Rain 23 1020 73 10000 10.3 50 22:37 11.09.2019
2086 Clouds 23 1019 78 10000 8.2 60 22:19 11.09.2019
2087 Clouds 23 1019 73 10000 6.2 60 21:43 11.09.2019
2088 Clouds 23 1019 73 10000 6.2 60 21:25 11.09.2019
2089 Clouds 23 1020 64 10000 7.7 50 20:58 11.09.2019
2090 Clouds 23 1020 64 10000 7.7 50 20:40 11.09.2019
2091 Clouds 23 1019 64 10000 7.7 60 20:20 11.09.2019
2092 Clouds 24 1019 64 10000 7.2 60 19:58 11.09.2019
2093 Clear 24 1020 60 10000 6.2 60 19:40 11.09.2019
2094 Clouds 24 1019 64 10000 8.2 60 19:21 11.09.2019
2095 Clouds 24 1020 57 10000 5.1 60 18:58 11.09.2019
2096 Clear 24 1020 57 10000 6.7 70 18:40 11.09.2019
2097 Clouds 24 1019 57 10000 7.7 60 18:22 11.09.2019
2098 Clear 24 1020 53 10000 7.2 70 17:56 11.09.2019
2099 Clear 25 1019 41 10000 8.2 70 17:38 11.09.2019
2100 Clear 25 1019 41 10000 8.2 70 17:38 11.09.2019
2101 Clear 25 1019 41 10000 8.2 70 17:20 11.09.2019
2102 Clouds 26 1018 47 10000 7.2 70 16:48 11.09.2019
2103 Clouds 26 1018 44 10000 5.7 60 16:26 11.09.2019
2104 Clouds 26 1019 47 10000 6.2 80 15:59 11.09.2019
2105 Clouds 26 1019 47 10000 6.2 80 15:41 11.09.2019
2106 Clouds 25 1018 54 10000 6.7 60 15:20 11.09.2019
2107 Clouds 25 1019 53 10000 6.2 60 14:56 11.09.2019
2108 Clouds 25 1019 53 10000 6.2 60 14:56 11.09.2019
2109 Clouds 26 1019 47 10000 5.7 60 14:37 11.09.2019
2110 Clouds 25 1018 36 10000 3.6 110 14:18 11.09.2019
2111 Clouds 25 1018 41 10000 3.1 90 13:39 11.09.2019
2112 Clouds 24 1017 44 10000 3.1 60 13:21 11.09.2019
2113 Clouds 24 1017 44 10000 3.1 100 12:59 11.09.2019
2114 Clouds 24 1018 53 10000 4.1 80 12:38 11.09.2019
2115 Clouds 23 1017 53 10000 3.6 80 12:20 11.09.2019
2116 Clear 22 1017 56 10000 4.1 70 11:40 11.09.2019
2117 Clear 22 1017 56 10000 4.1 70 11:21 11.09.2019
2118 Clear 22 1017 64 10000 2.1 110 10:57 11.09.2019
2119 Clear 20 1016 72 10000 1.5 100 10:39 11.09.2019
2120 Clouds 20 1015 72 10000 1.5 80 10:20 11.09.2019
2121 Clear 19 1014 77 10000 2.6 360 09:40 11.09.2019
2122 Clouds 17 1013 82 10000 1.5 360 09:20 11.09.2019
2123 Clear 17 1014 93 10000 1 0 08:57 11.09.2019
2124 Clear 17 1014 93 10000 1 0 08:57 11.09.2019
2125 Clear 15 1013 87 10000 2.1 40 08:38 11.09.2019
2126 Clear 16 1013 87 10000 2.1 40 08:20 11.09.2019
2127 Clear 15 1012 93 10000 1.5 140 07:41 11.09.2019
2128 Clouds 15 1011 87 10000 1 0 07:22 11.09.2019
2129 Clouds 16 1010 82 10000 1.5 160 06:48 11.09.2019
2130 Clear 16 1010 87 10000 2.1 30 06:30 11.09.2019
2131 Clouds 16 1009 82 10000 2.1 360 05:42 11.09.2019
2132 Rain 16 1010 77 10000 1.5 280 05:23 11.09.2019
2133 Rain 16 1010 87 10000 1.5 330 04:39 11.09.2019
2134 Rain 18 1010 82 10000 4.1 300 03:32 11.09.2019
2135 Clear 17 1010 77 10000 2.1 140 02:42 11.09.2019
2136 Clouds 17 1009 72 10000 3.1 180 02:18 11.09.2019
2137 Clouds 17 1009 87 10000 0.5 80 00:52 11.09.2019
2138 Clouds 18 1009 87 10000 1.5 60 00:23 11.09.2019
2139 Clouds 17 1008 77 10000 1 50 23:55 10.09.2019
2140 Clear 18 1009 72 10000 2.1 0 23:37 10.09.2019
2141 Clouds 19 1008 77 10000 1 0 23:19 10.09.2019
2142 Clear 18 1009 63 10000 4.1 350 22:41 10.09.2019
2143 Clouds 19 1008 63 10000 2.1 180 22:19 10.09.2019
2144 Clear 18 1009 68 10000 6.2 320 21:55 10.09.2019
2145 Rain 18 1008 63 10000 7.7 360 21:37 10.09.2019
2146 Rain 18 1008 72 10000 6.2 320 21:19 10.09.2019
2147 Rain 18 1008 72 10000 6.2 320 20:58 10.09.2019
2148 Rain 17 1008 67 10000 8.2 340 20:38 10.09.2019
2149 Rain 17 1008 67 10000 8.2 340 20:20 10.09.2019
2150 Rain 18 1009 72 10000 9.3 340 19:56 10.09.2019
2151 Rain 18 1009 72 10000 9.3 340 19:56 10.09.2019
2152 Rain 17 1009 77 10000 8.7 340 19:37 10.09.2019
2153 Rain 17 1008 82 7000 7.2 10 19:19 10.09.2019
2154 Rain 17 1009 77 10000 6.2 350 18:55 10.09.2019
2155 Rain 18 1009 72 10000 4.1 360 18:37 10.09.2019
2156 Rain 18 1008 77 8000 3.6 350 18:18 10.09.2019
2157 Rain 19 1006 88 7000 7.2 10 17:43 10.09.2019
2158 Rain 19 1006 88 7000 7.2 10 17:23 10.09.2019
2159 Rain 20 1007 88 2000 5.7 340 16:58 10.09.2019
2160 Rain 21 1007 88 2000 5.7 340 16:39 10.09.2019
2161 Thunderstorm 23 1004 64 10000 9.8 50 16:21 10.09.2019
2162 Thunderstorm 24 1006 64 10000 9.3 50 15:59 10.09.2019
2163 Rain 24 1007 57 10000 9.8 70 15:40 10.09.2019
2164 Clouds 25 1007 61 10000 9.3 80 15:20 10.09.2019
2165 Clouds 26 1006 61 10000 6.7 80 14:42 10.09.2019
2166 Clear 25 1007 35 10000 2.1 0 14:24 10.09.2019
2167 Clear 25 1007 44 10000 3.6 360 13:56 10.09.2019
2168 Clear 26 1007 51 10000 5.1 330 13:37 10.09.2019
2169 Clear 27 1007 51 10000 5.1 330 13:19 10.09.2019
2170 Clear 28 1008 51 10000 6.2 310 12:43 10.09.2019
2171 Thunderstorm 27 1007 51 10000 5.7 330 12:24 10.09.2019
2172 Thunderstorm 27 1008 57 10000 5.1 310 11:57 10.09.2019
2173 Thunderstorm 27 1008 57 10000 5.1 310 11:57 10.09.2019
2174 Clear 26 1008 65 10000 4.6 310 11:39 10.09.2019
2175 Thunderstorm 26 1007 57 10000 5.7 320 11:20 10.09.2019
2176 Thunderstorm 27 1008 74 10000 8.2 230 10:42 10.09.2019
2177 Thunderstorm 26 1007 78 10000 8.2 230 10:19 10.09.2019
2178 Thunderstorm 26 1008 83 10000 7.7 230 09:56 10.09.2019
2179 Rain 25 1008 78 10000 8.2 240 09:38 10.09.2019
2180 Clouds 25 1007 83 10000 8.2 230 09:19 10.09.2019
2181 Thunderstorm 25 1009 83 10000 6.2 230 08:45 10.09.2019
2182 Thunderstorm 25 1009 83 10000 6.2 230 08:26 10.09.2019
2183 Thunderstorm 25 1009 83 10000 6.2 230 08:26 10.09.2019
2184 Clouds 25 1008 83 10000 6.7 210 07:46 10.09.2019
2185 Rain 25 1009 83 10000 6.2 210 07:26 10.09.2019
2186 Clouds 25 1008 78 10000 5.1 200 06:53 10.09.2019
2187 Rain 24 1010 83 10000 6.2 200 06:35 10.09.2019
2188 Clouds 24 1010 78 10000 7.2 200 05:27 10.09.2019
2189 Clouds 24 1011 73 10000 5.1 200 03:57 10.09.2019
2190 Clouds 24 1011 73 10000 5.1 200 03:57 10.09.2019
2191 Clouds 24 1012 73 10000 4.6 210 02:23 10.09.2019
2192 Clouds 24 1012 73 10000 4.6 210 02:23 10.09.2019
2193 Clear 24 1013 73 10000 5.7 200 01:58 10.09.2019
2194 Clear 24 1013 73 10000 5.7 200 01:58 10.09.2019
2195 Clouds 24 1013 73 10000 5.1 210 01:58 10.09.2019
2196 Clear 24 1014 73 10000 5.7 200 01:40 10.09.2019
2197 Clouds 24 1013 73 10000 3.6 200 01:20 10.09.2019
2198 Clouds 23 1014 73 10000 1.5 120 00:25 10.09.2019
2199 Clouds 23 1014 73 10000 2.1 80 23:48 09.09.2019
2200 Clouds 23 1014 69 10000 0.5 0 23:20 09.09.2019
2201 Clouds 23 1014 69 10000 0.5 0 23:20 09.09.2019
2202 Clear 24 1015 64 10000 2.1 170 22:57 09.09.2019
2203 Clear 24 1015 64 10000 3.6 190 22:39 09.09.2019
2204 Clouds 24 1014 65 10000 1.5 150 22:20 09.09.2019
2205 Clear 24 1015 60 10000 3.6 180 21:58 09.09.2019
2206 Clear 24 1015 64 10000 2.6 190 21:39 09.09.2019
2207 Clouds 24 1014 65 10000 2.6 190 21:20 09.09.2019
2208 Clear 24 1015 64 10000 3.6 200 20:57 09.09.2019
2209 Clear 24 1015 64 10000 4.1 200 20:37 09.09.2019
2210 Clouds 25 1014 65 10000 3.6 210 20:19 09.09.2019
2211 Clear 25 1015 57 10000 4.6 200 19:58 09.09.2019
2212 Clear 25 1015 61 10000 5.7 190 19:39 09.09.2019
2213 Clear 25 1015 61 10000 5.7 190 19:20 09.09.2019
2214 Clear 25 1015 61 10000 5.7 190 19:20 09.09.2019
2215 Clouds 26 1014 57 10000 5.1 210 18:58 09.09.2019
2216 Clear 26 1015 57 10000 5.7 190 18:40 09.09.2019
2217 Clouds 26 1014 57 10000 4.6 210 18:21 09.09.2019
2218 Clear 27 1015 57 10000 6.2 190 17:58 09.09.2019
2219 Clear 27 1015 57 10000 6.2 220 17:40 09.09.2019
2220 Clouds 27 1014 61 10000 5.7 210 17:21 09.09.2019
2221 Clouds 27 1014 61 10000 5.7 210 17:21 09.09.2019
2222 Clear 26 1016 57 10000 7.2 200 16:57 09.09.2019
2223 Clear 27 1016 57 10000 7.2 210 16:38 09.09.2019
2224 Clouds 27 1015 61 10000 6.7 220 16:20 09.09.2019
2225 Clear 27 1016 57 10000 7.7 200 15:56 09.09.2019
2226 Clear 27 1017 57 10000 7.2 200 15:37 09.09.2019
2227 Clouds 27 1016 58 10000 7.2 220 15:18 09.09.2019
2228 Clouds 26 1017 61 10000 7.2 220 14:55 09.09.2019
2229 Clouds 26 1017 57 10000 7.7 210 14:37 09.09.2019
2230 Clouds 26 1017 57 10000 7.7 210 14:37 09.09.2019
2231 Clouds 26 1016 61 10000 5.7 220 14:19 09.09.2019
2232 Clouds 26 1018 57 10000 6.2 210 13:44 09.09.2019
2233 Clear 26 1018 57 10000 5.1 220 13:21 09.09.2019
2234 Clouds 27 1017 57 10000 5.1 220 12:58 09.09.2019
2235 Clouds 27 1017 57 10000 5.1 220 12:58 09.09.2019
2236 Clear 26 1018 57 10000 5.1 220 12:40 09.09.2019
2237 Clear 26 1018 61 10000 4.1 210 12:20 09.09.2019
2238 Clouds 26 1017 61 10000 5.7 230 11:48 09.09.2019
2239 Clear 26 1018 57 10000 4.1 220 11:24 09.09.2019
2240 Clear 25 1018 60 10000 2.1 240 10:59 09.09.2019
2241 Clear 25 1018 64 10000 1 0 10:41 09.09.2019
2242 Clouds 25 1017 61 10000 0.5 320 10:21 09.09.2019
2243 Clear 23 1018 68 10000 1.5 330 09:57 09.09.2019
2244 Clear 22 1018 77 10000 1 320 09:38 09.09.2019
2245 Clouds 21 1017 77 10000 1 0 09:19 09.09.2019
2246 Clear 19 1018 82 10000 2.1 340 08:39 09.09.2019
2247 Clouds 18 1017 88 10000 2.1 80 08:20 09.09.2019
2248 Clouds 18 1017 82 10000 2.1 40 07:48 09.09.2019
2249 Clouds 18 1017 88 10000 0.5 0 07:23 09.09.2019
2250 Clouds 19 1017 77 10000 3.08 79.57 06:59 09.09.2019
2251 Clear 18 1018 82 10000 3.1 350 06:40 09.09.2019
2252 Clear 19 1018 77 10000 2.1 350 05:34 09.09.2019
2253 Clear 19 1019 77 10000 2.1 10 02:59 09.09.2019
2254 Clear 19 1019 72 10000 2.1 330 02:39 09.09.2019
2255 Clouds 20 1018 68 10000 1.5 20 00:54 09.09.2019
2256 Clouds 21 1018 68 10000 2.1 30 00:23 09.09.2019
2257 Clear 21 1019 68 10000 1.5 350 23:46 08.09.2019
2258 Clear 21 1019 68 10000 1.5 350 23:27 08.09.2019
2259 Clear 22 1019 64 10000 1.5 30 22:57 08.09.2019
2260 Clear 23 1019 64 10000 1.5 90 22:38 08.09.2019
2261 Clouds 23 1018 60 10000 1.5 130 22:20 08.09.2019
2262 Clear 23 1018 60 10000 1 180 21:55 08.09.2019
2263 Clear 23 1018 60 10000 2.1 190 21:36 08.09.2019
2264 Clouds 24 1017 60 10000 1.5 190 21:18 08.09.2019
2265 Clear 24 1017 53 10000 2.6 200 20:40 08.09.2019
2266 Clouds 24 1016 53 10000 2.6 210 20:22 08.09.2019
2267 Clouds 25 1016 53 10000 3.1 210 19:59 08.09.2019
2268 Clear 25 1017 47 10000 4.6 220 19:39 08.09.2019
2269 Clouds 25 1016 50 10000 4.1 240 19:21 08.09.2019
2270 Clouds 26 1016 50 10000 4.6 230 18:58 08.09.2019
2271 Clear 26 1017 47 10000 4.6 220 18:39 08.09.2019
2272 Clouds 26 1016 50 10000 4.1 230 18:19 08.09.2019
2273 Clouds 26 1016 50 10000 4.1 230 18:19 08.09.2019
2274 Clouds 26 1016 47 10000 4.1 240 17:57 08.09.2019
2275 Clear 26 1018 44 10000 4.6 200 17:37 08.09.2019
2276 Clouds 26 1016 47 10000 4.1 240 17:18 08.09.2019
2277 Clouds 26 1017 44 10000 5.1 240 16:45 08.09.2019
2278 Clouds 26 1017 47 10000 5.7 230 16:23 08.09.2019
2279 Clouds 27 1018 34 10000 4.1 230 15:59 08.09.2019
2280 Clear 26 1018 34 10000 4.6 240 15:41 08.09.2019
2281 Clear 26 1018 34 10000 4.6 240 15:41 08.09.2019
2282 Clouds 27 1017 36 10000 5.7 240 15:22 08.09.2019
2283 Clouds 27 1017 36 10000 5.7 240 15:22 08.09.2019
2284 Clouds 27 1017 39 10000 5.1 240 14:59 08.09.2019
2285 Clear 26 1019 36 10000 4.1 270 14:39 08.09.2019
2286 Clouds 26 1017 34 10000 5.7 240 14:20 08.09.2019
2287 Clouds 26 1019 44 10000 1 220 13:57 08.09.2019
2288 Clouds 26 1019 44 10000 1 220 13:38 08.09.2019
2289 Clouds 25 1019 47 10000 3.6 250 13:20 08.09.2019
2290 Clouds 25 1019 53 10000 3.1 230 12:43 08.09.2019
2291 Clouds 26 1018 50 10000 1.5 150 12:24 08.09.2019
2292 Clouds 26 1018 50 10000 1.5 150 12:24 08.09.2019
2293 Clouds 25 1018 44 10000 2.1 190 11:59 08.09.2019
2294 Clear 25 1019 57 10000 2.6 140 11:40 08.09.2019
2295 Clouds 25 1018 57 10000 0.5 10 11:20 08.09.2019
2296 Clear 23 1019 60 10000 1 0 10:59 08.09.2019
2297 Clear 23 1019 64 10000 0.5 0 10:40 08.09.2019
2298 Clouds 23 1018 64 10000 1 0 10:22 08.09.2019
2299 Clear 22 1018 68 10000 2.1 360 09:55 08.09.2019
2300 Clear 21 1019 72 10000 1.5 360 09:37 08.09.2019
2301 Clear 21 1018 68 10000 0.5 0 09:18 08.09.2019
2302 Clear 18 1019 82 10000 2.1 330 08:39 08.09.2019
2303 Clouds 18 1018 82 10000 0.5 0 08:18 08.09.2019
2304 Clear 17 1018 82 10000 2.1 20 07:41 08.09.2019
2305 Clouds 17 1018 77 10000 2.1 20 07:21 08.09.2019
2306 Clouds 17 1017 82 10000 0.5 0 06:54 08.09.2019
2307 Clear 17 1018 77 10000 1 0 06:34 08.09.2019
2308 Clear 18 1018 77 10000 1 0 05:39 08.09.2019
2309 Clouds 18 1018 82 10000 1.5 50 04:27 08.09.2019
2310 Clear 19 1020 72 10000 2.1 350 03:23 08.09.2019
2311 Clear 20 1020 72 10000 2.1 350 02:36 08.09.2019
2312 Clouds 20 1019 55 10000 2.6 50 01:53 08.09.2019
2313 Clear 20 1020 68 10000 1.5 10 01:26 08.09.2019
2314 Clear 21 1020 64 10000 1.5 10 00:47 08.09.2019
2315 Clear 21 1020 64 10000 1.5 10 00:28 08.09.2019
2316 Clouds 21 1019 68 10000 1 0 23:55 07.09.2019
2317 Clear 21 1021 64 10000 1.5 80 23:36 07.09.2019
2318 Clear 21 1021 64 10000 1.5 80 23:36 07.09.2019
2319 Clouds 21 1019 60 10000 1.5 110 23:18 07.09.2019
2320 Clear 22 1021 56 10000 3.1 140 22:42 07.09.2019
2321 Clouds 22 1020 57 10000 1.5 160 22:23 07.09.2019
2322 Clouds 22 1019 57 10000 2.6 160 21:55 07.09.2019
2323 Clear 22 1020 57 10000 3.1 210 21:37 07.09.2019
2324 Clouds 23 1019 57 10000 2.6 180 21:19 07.09.2019
2325 Clouds 23 1020 57 10000 4.6 220 20:39 07.09.2019
2326 Clouds 24 1019 60 10000 2.6 200 20:21 07.09.2019
2327 Clouds 24 1019 57 10000 4.1 200 19:56 07.09.2019
2328 Clouds 24 1019 57 10000 4.6 220 19:38 07.09.2019
2329 Clouds 25 1019 53 10000 4.1 220 19:19 07.09.2019
2330 Clouds 25 1018 57 10000 4.1 240 18:58 07.09.2019
2331 Clouds 25 1019 53 10000 4.1 220 18:38 07.09.2019
2332 Rain 25 1019 50 10000 4.6 220 18:20 07.09.2019
2333 Clouds 25 1018 57 10000 5.7 240 18:20 07.09.2019
2334 Clouds 25 1018 57 10000 5.7 240 18:20 07.09.2019
2335 Clouds 25 1018 54 10000 5.1 230 17:58 07.09.2019
2336 Rain 25 1019 53 10000 4.6 220 17:38 07.09.2019
2337 Clear 26 1019 50 10000 4.6 220 17:18 07.09.2019
2338 Clouds 25 1018 54 10000 6.2 240 16:54 07.09.2019
2339 Rain 26 1020 50 10000 5.7 200 16:36 07.09.2019
2340 Clear 26 1020 47 10000 6.7 210 16:18 07.09.2019
2341 Rain 26 1020 44 10000 5.7 210 15:43 07.09.2019
2342 Clouds 27 1019 47 10000 6.2 240 15:24 07.09.2019
2343 Clouds 27 1020 42 10000 4.6 230 14:56 07.09.2019
2344 Clouds 26 1020 39 10000 2.1 0 14:36 07.09.2019
2345 Clouds 27 1019 47 10000 3.6 230 14:18 07.09.2019
2346 Clouds 26 1021 41 10000 2.1 130 13:44 07.09.2019
2347 Clouds 26 1021 41 10000 2.1 130 13:25 07.09.2019
2348 Clouds 26 1020 44 10000 1.5 190 12:55 07.09.2019
2349 Clouds 25 1021 47 10000 3.1 170 12:37 07.09.2019
2350 Clouds 24 1020 50 10000 3.1 150 12:19 07.09.2019
2351 Clear 23 1022 56 10000 2.6 130 11:41 07.09.2019
2352 Clear 23 1022 56 10000 2.6 130 11:41 07.09.2019
2353 Clear 23 1022 56 10000 2.1 110 11:22 07.09.2019
2354 Clear 23 1022 64 10000 2.1 40 10:42 07.09.2019
2355 Clear 23 1022 64 10000 2.1 40 10:42 07.09.2019
2356 Clouds 22 1020 64 10000 3.1 50 10:23 07.09.2019
2357 Clear 22 1021 68 10000 2.1 360 09:59 07.09.2019
2358 Clear 21 1021 72 10000 2.1 350 09:41 07.09.2019
2359 Clouds 21 1020 82 10000 2.1 10 09:22 07.09.2019
2360 Clouds 19 1020 88 10000 1.5 60 08:55 07.09.2019
2361 Clear 19 1021 82 10000 2.1 20 08:36 07.09.2019
2362 Clouds 18 1020 93 10000 1.5 30 08:18 07.09.2019
2363 Clear 17 1021 82 10000 2.1 360 07:43 07.09.2019
2364 Clouds 17 1019 88 10000 1 0 07:22 07.09.2019
2365 Clear 17 1020 82 10000 1.5 320 06:42 07.09.2019
2366 Clear 17 1020 82 10000 2.6 340 05:40 07.09.2019
2367 Clear 18 1021 82 10000 2.1 350 04:26 07.09.2019
2368 Clear 18 1021 82 10000 2.6 350 03:41 07.09.2019
2369 Clouds 20 1020 82 10000 2.1 80 02:22 07.09.2019
2370 Clouds 21 1021 64 10000 2.6 40 01:29 07.09.2019
2371 Clouds 21 1020 73 10000 2.6 70 00:55 07.09.2019
2372 Clouds 21 1021 68 10000 3.1 60 00:36 07.09.2019
2373 Clouds 21 1020 77 10000 3.1 60 00:18 07.09.2019
2374 Clouds 21 1021 64 10000 3.1 60 23:38 06.09.2019
2375 Clouds 21 1020 73 10000 2.6 50 23:19 06.09.2019
2376 Clouds 21 1021 64 10000 3.1 60 22:57 06.09.2019
2377 Clouds 21 1021 64 10000 2.6 70 22:37 06.09.2019
2378 Clouds 22 1020 64 10000 2.6 100 22:18 06.09.2019
2379 Clouds 22 1019 69 10000 1.5 110 21:55 06.09.2019
2380 Clouds 22 1020 60 10000 2.1 70 21:36 06.09.2019
2381 Clouds 22 1019 64 10000 1.5 120 21:18 06.09.2019
2382 Clouds 22 1020 60 10000 2.6 80 20:42 06.09.2019
2383 Clouds 22 1020 60 10000 2.6 80 20:42 06.09.2019
2384 Clouds 23 1019 60 10000 1.5 110 20:24 06.09.2019
2385 Clouds 23 1019 60 10000 1 0 19:59 06.09.2019
2386 Clouds 24 1020 53 10000 1 0 19:41 06.09.2019
2387 Clouds 24 1020 53 10000 1 0 19:41 06.09.2019
2388 Clouds 24 1019 57 10000 1.5 140 19:21 06.09.2019
2389 Clouds 24 1019 57 10000 1 0 18:56 06.09.2019
2390 Clouds 24 1020 57 10000 2.1 180 18:37 06.09.2019
2391 Clouds 24 1019 57 10000 2.1 140 18:19 06.09.2019
2392 Clouds 24 1020 57 10000 3.1 70 17:40 06.09.2019
2393 Clouds 24 1019 57 10000 2.6 150 17:20 06.09.2019
2394 Clouds 24 1020 57 10000 3.6 100 16:56 06.09.2019
2395 Clouds 24 1020 53 10000 4.1 90 16:38 06.09.2019
2396 Clouds 24 1020 53 10000 5.7 210 16:18 06.09.2019
2397 Clouds 25 1020 53 10000 4.1 220 15:41 06.09.2019
2398 Clouds 25 1020 53 10000 4.1 220 15:41 06.09.2019
2399 Clouds 25 1019 47 10000 4.1 170 15:22 06.09.2019
2400 Clouds 25 1019 57 10000 5.1 260 14:48 06.09.2019
2401 Clouds 25 1019 54 10000 3.6 230 14:20 06.09.2019
2402 Clouds 25 1021 53 10000 2.1 80 13:45 06.09.2019
2403 Clouds 25 1020 50 10000 1.5 200 13:25 06.09.2019
2404 Clouds 25 1020 54 10000 2.1 120 12:59 06.09.2019
2405 Clouds 24 1021 57 10000 3.1 110 12:37 06.09.2019
2406 Clouds 24 1020 57 10000 2.6 70 12:18 06.09.2019
2407 Clouds 24 1021 53 10000 3.6 110 11:42 06.09.2019
2408 Clouds 23 1020 53 10000 3.6 100 11:24 06.09.2019
2409 Clear 23 1021 60 10000 4.1 80 10:58 06.09.2019
2410 Clear 22 1021 64 10000 3.6 80 10:40 06.09.2019
2411 Clouds 22 1020 64 10000 3.6 80 10:21 06.09.2019
2412 Clouds 21 1021 64 10000 1.5 40 09:40 06.09.2019
2413 Clouds 21 1020 64 10000 2.1 70 09:21 06.09.2019
2414 Clouds 20 1021 68 10000 1 0 08:58 06.09.2019
2415 Clouds 20 1021 68 10000 1.5 10 08:39 06.09.2019
2416 Clouds 20 1019 72 10000 2.6 20 08:21 06.09.2019
2417 Clouds 20 1020 64 10000 0.5 0 07:45 06.09.2019
2418 Clouds 20 1020 64 10000 0.5 0 07:27 06.09.2019
2419 Clouds 20 1019 72 10000 2.6 40 06:56 06.09.2019
2420 Clouds 20 1019 64 10000 1 0 06:19 06.09.2019
2421 Clouds 20 1019 60 10000 1.5 70 05:41 06.09.2019
2422 Clouds 21 1018 68 10000 3.1 80 04:48 06.09.2019
2423 Clouds 21 1018 72 10000 2.1 50 03:52 06.09.2019
2424 Clouds 21 1020 68 10000 1 0 02:23 06.09.2019
2425 Clouds 21 1020 88 10000 1.5 20 00:44 06.09.2019
2426 Clouds 21 1019 88 10000 2.6 350 23:55 05.09.2019
2427 Clouds 21 1020 83 10000 2.1 330 23:37 05.09.2019
2428 Clouds 21 1019 83 10000 2.1 20 23:18 05.09.2019
2429 Clouds 21 1020 77 10000 0.5 0 22:42 05.09.2019
2430 Clouds 21 1019 83 10000 3.6 360 22:24 05.09.2019
2431 Clouds 21 1019 83 10000 2.1 360 21:56 05.09.2019
2432 Clouds 21 1019 88 10000 1.5 80 21:37 05.09.2019
2433 Clouds 21 1018 83 10000 2.6 90 21:19 05.09.2019
2434 Clouds 21 1018 83 10000 3.6 90 20:57 05.09.2019
2435 Rain 21 1019 83 10000 3.1 90 20:37 05.09.2019
2436 Clouds 21 1018 88 10000 2.6 90 20:19 05.09.2019
2437 Clouds 21 1018 88 10000 2.6 90 20:19 05.09.2019
2438 Rain 21 1018 88 10000 2.6 70 19:55 05.09.2019
2439 Rain 21 1018 88 8000 2.1 20 19:37 05.09.2019
2440 Rain 21 1019 88 7000 1 0 19:18 05.09.2019
2441 Rain 21 1018 88 8000 2.1 20 19:18 05.09.2019
2442 Rain 22 1017 69 10000 5.1 80 18:40 05.09.2019
2443 Rain 24 1018 61 10000 6.7 80 18:21 05.09.2019
2444 Rain 25 1017 69 10000 5.7 90 17:57 05.09.2019
2445 Clouds 26 1018 65 10000 6.2 80 17:38 05.09.2019
2446 Clear 27 1018 58 10000 4.6 220 17:20 05.09.2019
2447 Clouds 27 1018 58 10000 5.7 200 16:42 05.09.2019
2448 Clouds 26 1017 54 10000 4.6 220 16:21 05.09.2019
2449 Clear 27 1018 57 10000 6.7 210 15:58 05.09.2019
2450 Clear 27 1018 54 10000 6.2 210 15:39 05.09.2019
2451 Clouds 27 1017 61 10000 5.7 240 15:19 05.09.2019
2452 Clear 27 1018 48 10000 5.7 210 14:55 05.09.2019
2453 Clear 27 1018 51 10000 5.7 210 14:37 05.09.2019
2454 Clouds 27 1017 58 10000 6.2 230 14:18 05.09.2019
2455 Clear 27 1018 48 10000 5.7 220 13:41 05.09.2019
2456 Clouds 27 1017 48 10000 5.7 220 13:19 05.09.2019
2457 Clear 28 1018 51 10000 2.6 150 12:42 05.09.2019
2458 Clouds 27 1017 54 10000 4.1 240 12:24 05.09.2019
2459 Clouds 27 1017 54 10000 0.5 200 11:56 05.09.2019
2460 Clear 27 1018 54 10000 2.1 0 11:37 05.09.2019
2461 Clouds 27 1017 54 10000 1 350 11:18 05.09.2019
2462 Clear 26 1018 57 10000 1 150 10:40 05.09.2019
2463 Clouds 26 1017 65 10000 1 0 10:20 05.09.2019
2464 Clear 26 1018 61 10000 0.5 0 09:57 05.09.2019
2465 Clear 24 1018 64 10000 1 0 09:38 05.09.2019
2466 Clear 22 1018 73 10000 1.5 60 09:18 05.09.2019
2467 Clear 21 1018 77 10000 0.5 0 08:43 05.09.2019
2468 Clouds 20 1017 88 10000 2.6 40 08:25 05.09.2019
2469 Clear 20 1017 77 10000 1.5 350 07:44 05.09.2019
2470 Clouds 20 1016 88 10000 2.1 80 07:26 05.09.2019
2471 Clear 20 1016 88 10000 1.5 40 06:52 05.09.2019
2472 Clear 20 1017 77 10000 2.1 350 06:29 05.09.2019
2473 Clear 21 1016 88 10000 1.29 358.315 05:49 05.09.2019
2474 Clear 21 1017 73 10000 1 0 05:30 05.09.2019
2475 Clear 20 1016 88 10000 1 70 04:47 05.09.2019
2476 Clear 21 1017 73 10000 1 0 04:19 05.09.2019
2477 Clear 21 1017 77 10000 2.6 350 03:34 05.09.2019
2478 Clear 21 1018 77 10000 2.1 350 02:44 05.09.2019
2479 Clear 22 1018 73 10000 1.5 350 02:18 05.09.2019
2480 Clear 23 1018 73 10000 1.5 350 01:26 05.09.2019
2481 Clear 24 1018 73 10000 1.5 40 00:42 05.09.2019
2482 Clear 24 1018 69 10000 2.6 60 00:20 05.09.2019
2483 Clear 24 1018 69 10000 3.1 60 23:46 04.09.2019
2484 Clear 25 1017 69 10000 4.1 50 23:26 04.09.2019
2485 Clear 25 1017 69 10000 3.6 60 22:59 04.09.2019
2486 Clear 25 1018 65 10000 3.1 70 22:38 04.09.2019
2487 Clear 25 1017 64 10000 2.6 70 22:18 04.09.2019
2488 Clear 26 1017 65 10000 3.1 80 21:39 04.09.2019
2489 Clear 26 1016 65 10000 2.1 110 21:20 04.09.2019
2490 Clear 26 1017 61 10000 2.6 100 20:56 04.09.2019
2491 Clear 27 1017 51 10000 1.5 170 20:38 04.09.2019
2492 Clear 27 1017 45 10000 2.6 180 20:18 04.09.2019
2493 Clouds 28 1016 54 10000 2.6 210 19:56 04.09.2019
2494 Clear 28 1017 48 10000 3.1 210 19:37 04.09.2019
2495 Clear 28 1017 48 10000 3.1 210 19:19 04.09.2019
2496 Clear 29 1017 48 10000 5.7 190 18:38 04.09.2019
2497 Clear 29 1017 45 10000 5.7 200 18:19 04.09.2019
2498 Clear 28 1017 51 10000 6.2 190 17:42 04.09.2019
2499 Clouds 29 1017 54 10000 4.6 230 17:24 04.09.2019
2500 Clear 29 1018 48 10000 6.2 210 16:58 04.09.2019
2501 Clear 29 1018 51 10000 7.2 200 16:40 04.09.2019
2502 Clear 29 1018 51 10000 7.2 200 16:40 04.09.2019
2503 Clouds 29 1017 54 10000 6.2 230 16:22 04.09.2019
2504 Clear 29 1018 45 10000 7.2 200 15:56 04.09.2019
2505 Clear 29 1018 48 10000 7.2 220 15:38 04.09.2019
2506 Clouds 29 1018 58 10000 6.7 230 15:20 04.09.2019
2507 Clouds 29 1018 54 10000 7.2 230 14:55 04.09.2019
2508 Clear 29 1019 48 10000 6.2 210 14:36 04.09.2019
2509 Clouds 29 1018 51 10000 6.2 240 14:18 04.09.2019
2510 Clear 29 1019 42 10000 4.1 220 13:40 04.09.2019
2511 Clouds 29 1018 51 10000 4.1 230 13:21 04.09.2019
2512 Clouds 29 1019 48 10000 3.6 240 12:57 04.09.2019
2513 Clear 28 1020 45 10000 3.1 210 12:38 04.09.2019
2514 Clear 29 1020 45 10000 3.1 210 12:38 04.09.2019
2515 Clear 28 1020 47 10000 3.1 210 12:19 04.09.2019
2516 Clouds 28 1019 51 10000 2.1 240 11:55 04.09.2019
2517 Clear 28 1020 47 10000 2.1 0 11:36 04.09.2019
2518 Clouds 27 1019 51 10000 0.5 320 11:18 04.09.2019
2519 Clear 26 1020 57 10000 1 160 10:42 04.09.2019
2520 Clouds 26 1019 65 10000 0.5 0 10:23 04.09.2019
2521 Clear 22 1020 78 10000 1 0 09:47 04.09.2019
2522 Clouds 22 1019 88 10000 1.5 80 09:27 04.09.2019
2523 Clear 21 1020 77 10000 1.5 350 08:59 04.09.2019
2524 Clear 20 1020 82 10000 1 0 08:40 04.09.2019
2525 Clouds 19 1019 93 10000 2.1 80 08:21 04.09.2019
2526 Clouds 19 1019 93 10000 1.5 60 07:49 04.09.2019
2527 Clouds 20 1018 100 10000 1.5 30 07:29 04.09.2019
2528 Clear 20 1020 88 10000 1 0 06:40 04.09.2019
2529 Clouds 20 1019 100 10000 1.5 50 05:51 04.09.2019
2530 Clouds 20 1019 93 10000 0.5 0 04:52 04.09.2019
2531 Clear 21 1021 83 10000 1.5 10 03:52 04.09.2019
2532 Clear 22 1021 83 10000 2.6 360 01:39 04.09.2019
2533 Clouds 23 1020 83 10000 1 0 00:54 04.09.2019
2534 Clear 23 1021 73 10000 2.1 30 00:32 04.09.2019
2535 Clouds 24 1020 83 10000 2.1 70 23:54 03.09.2019
2536 Clear 24 1021 73 10000 2.1 70 23:28 03.09.2019
2537 Clear 24 1021 73 10000 0.5 0 22:59 03.09.2019
2538 Clear 24 1021 73 10000 1 0 22:40 03.09.2019
2539 Clouds 25 1020 74 10000 2.1 90 22:21 03.09.2019
2540 Clouds 25 1020 74 10000 1.5 200 21:56 03.09.2019
2541 Clear 25 1021 73 10000 2.1 180 21:56 03.09.2019
2542 Clear 25 1021 73 10000 2.1 180 21:37 03.09.2019
2543 Clear 25 1021 73 10000 2.1 180 21:37 03.09.2019
2544 Clouds 25 1020 74 10000 1 0 21:19 03.09.2019
2545 Clear 26 1020 73 10000 3.6 210 20:42 03.09.2019
2546 Clouds 26 1019 65 10000 3.1 230 20:24 03.09.2019
2547 Clear 26 1020 69 10000 4.1 200 19:56 03.09.2019
2548 Clear 26 1020 69 10000 4.1 200 19:38 03.09.2019
2549 Clear 26 1020 69 10000 4.1 200 19:38 03.09.2019
2550 Clear 26 1020 69 10000 4.1 200 19:38 03.09.2019
2551 Clear 26 1020 65 10000 5.1 200 19:19 03.09.2019
2552 Clouds 27 1019 65 10000 3.6 220 18:56 03.09.2019
2553 Clear 27 1020 61 10000 5.1 200 18:38 03.09.2019
2554 Clear 27 1020 61 10000 5.1 200 18:18 03.09.2019
2555 Clear 28 1021 61 10000 5.1 170 17:41 03.09.2019
2556 Clear 28 1021 58 10000 8.2 200 17:20 03.09.2019
2557 Clear 28 1021 58 10000 8.2 200 16:59 03.09.2019
2558 Clear 28 1021 58 10000 7.2 210 16:39 03.09.2019
2559 Clouds 28 1020 61 10000 6.2 220 16:20 03.09.2019
2560 Clear 28 1021 54 10000 5.7 210 15:41 03.09.2019
2561 Clouds 28 1020 54 10000 5.7 240 15:22 03.09.2019
2562 Clear 28 1021 54 10000 6.2 210 14:58 03.09.2019
2563 Clear 28 1021 54 10000 5.7 210 14:40 03.09.2019
2564 Clear 28 1021 54 10000 5.7 220 14:20 03.09.2019
2565 Clear 28 1021 54 10000 5.7 220 13:57 03.09.2019
2566 Clear 28 1021 54 10000 5.7 220 13:57 03.09.2019
2567 Clear 28 1022 54 10000 4.6 200 13:37 03.09.2019
2568 Clouds 28 1021 54 10000 4.1 230 13:19 03.09.2019
2569 Clouds 28 1021 54 10000 4.1 230 13:19 03.09.2019
2570 Clouds 27 1021 58 10000 3.1 240 12:56 03.09.2019
2571 Clear 28 1022 51 10000 2.1 170 12:38 03.09.2019
2572 Clouds 28 1021 58 10000 2.1 200 12:20 03.09.2019
2573 Clear 27 1022 50 10000 1.5 280 11:42 03.09.2019
2574 Clear 26 1022 57 10000 1.5 70 11:22 03.09.2019
2575 Clear 26 1022 57 10000 1.5 70 10:57 03.09.2019
2576 Clear 25 1022 61 10000 1 0 10:39 03.09.2019
2577 Clouds 24 1021 73 10000 1 350 10:20 03.09.2019
2578 Clear 24 1022 78 10000 2.1 350 09:44 03.09.2019
2579 Clear 23 1022 78 10000 2.1 350 09:25 03.09.2019
2580 Clear 23 1022 78 10000 2.1 10 08:56 03.09.2019
2581 Clear 21 1022 88 10000 1.5 350 08:37 03.09.2019
2582 Clear 21 1021 83 10000 1.5 340 08:18 03.09.2019
2583 Clear 21 1021 83 10000 2.1 10 07:41 03.09.2019
2584 Clouds 21 1020 88 10000 2.1 60 07:23 03.09.2019
2585 Clear 22 1021 83 10000 2.1 350 06:45 03.09.2019
2586 Clouds 22 1020 94 10000 1.5 50 05:53 03.09.2019
2587 Clear 22 1021 83 10000 1 0 03:42 03.09.2019
2588 Clouds 23 1021 78 10000 1.5 100 02:46 03.09.2019
2589 Clouds 23 1020 88 10000 2.1 70 02:24 03.09.2019
2590 Clouds 23 1020 83 10000 2.1 80 01:51 03.09.2019
2591 Clouds 23 1021 73 10000 2.6 40 01:32 03.09.2019
2592 Clouds 24 1021 73 10000 2.6 50 00:44 03.09.2019
2593 Clouds 24 1020 78 10000 3.1 70 00:25 03.09.2019
2594 Clouds 24 1021 73 10000 2.1 70 23:40 02.09.2019
2595 Clouds 24 1020 78 10000 2.6 80 23:20 02.09.2019
2596 Clouds 24 1020 69 10000 2.6 70 22:56 02.09.2019
2597 Clouds 24 1020 69 10000 2.6 80 22:38 02.09.2019
2598 Clouds 25 1019 78 10000 3.1 70 22:20 02.09.2019
2599 Clouds 25 1020 65 10000 2.6 100 21:57 02.09.2019
2600 Clouds 25 1020 65 10000 3.1 150 21:39 02.09.2019
2601 Clouds 26 1018 65 10000 3.1 90 21:20 02.09.2019
2602 Clouds 26 1018 65 10000 3.1 90 21:20 02.09.2019
2603 Clouds 26 1018 61 10000 1.5 180 20:59 02.09.2019
2604 Clouds 26 1019 61 10000 4.1 220 20:40 02.09.2019
2605 Clouds 26 1019 61 10000 4.6 220 20:18 02.09.2019
2606 Clouds 26 1019 61 10000 4.6 220 19:56 02.09.2019
2607 Clouds 26 1019 61 10000 4.6 220 19:38 02.09.2019
2608 Clouds 26 1019 65 10000 5.7 230 19:19 02.09.2019
2609 Clouds 27 1017 65 10000 4.6 240 18:40 02.09.2019
2610 Clouds 27 1017 65 10000 4.6 240 18:40 02.09.2019
2611 Clouds 27 1017 65 10000 4.6 240 18:22 02.09.2019
2612 Clouds 27 1018 61 10000 5.7 230 17:58 02.09.2019
2613 Rain 27 1019 51 10000 4.1 50 17:39 02.09.2019
2614 Clouds 27 1018 65 10000 3.1 240 17:20 02.09.2019
2615 Rain 27 1019 54 10000 4.1 70 16:54 02.09.2019
2616 -273 0 0 0 0 0 16:36 02.09.2019
2617 Rain 28 1019 48 10000 5.1 70 16:18 02.09.2019
2618 Rain 28 1019 48 10000 4.6 50 15:44 02.09.2019
2619 Clouds 29 1018 51 10000 4.6 70 15:22 02.09.2019
2620 Clouds 29 1018 51 10000 4.6 70 15:22 02.09.2019
2621 Clouds 28 1018 51 10000 4.6 60 14:56 02.09.2019
2622 Rain 28 1019 54 10000 6.2 70 14:37 02.09.2019
2623 Clouds 28 1018 58 10000 4.1 60 14:19 02.09.2019
2624 Clear 27 1020 57 10000 6.2 80 13:46 02.09.2019
2625 Clouds 27 1019 65 10000 4.6 80 13:25 02.09.2019
2626 Rain 26 1019 69 10000 4.1 70 12:59 02.09.2019
2627 Rain 25 1020 69 10000 3.1 90 12:41 02.09.2019
2628 Rain 25 1019 78 10000 3.1 50 12:23 02.09.2019
2629 Clouds 24 1019 83 10000 2.1 70 11:56 02.09.2019
2630 Clear 23 1020 83 10000 1.5 100 11:38 02.09.2019
2631 Clouds 23 1019 83 10000 0.5 0 11:19 02.09.2019
2632 Rain 22 1019 83 10000 2.1 40 10:42 02.09.2019
2633 Rain 22 1018 94 10000 2.6 60 10:22 02.09.2019
2634 Rain 22 1020 83 10000 3.1 50 09:59 02.09.2019
2635 Rain 22 1019 83 9000 4.1 40 09:40 02.09.2019
2636 Rain 22 1018 88 7000 3.6 50 09:20 02.09.2019
2637 Rain 22 1018 88 7000 3.6 50 09:20 02.09.2019
2638 Rain 23 1019 78 10000 3.1 40 08:43 02.09.2019
2639 Rain 24 1018 78 7000 4.1 40 08:22 02.09.2019
2640 Rain 24 1018 78 7000 4.1 40 08:22 02.09.2019
2641 Rain 24 1018 69 10000 4.1 50 07:57 02.09.2019
2642 Clear 25 1018 65 10000 4.6 60 07:38 02.09.2019
2643 Clear 25 1017 73 10000 5.1 70 07:20 02.09.2019
2644 Clear 25 1017 69 10000 5.1 70 06:43 02.09.2019
2645 Clouds 25 1015 78 10000 4.6 60 05:54 02.09.2019
2646 Clouds 25 1015 78 10000 4.6 60 05:54 02.09.2019
2647 Clear 25 1016 73 10000 3.1 70 05:26 02.09.2019
2648 Clouds 25 1015 74 10000 4.1 70 04:50 02.09.2019
2649 Clouds 25 1015 83 10000 4.6 60 02:30 02.09.2019
2650 Clear 25 1016 78 10000 3.6 80 01:41 02.09.2019
2651 Clear 25 1016 78 10000 3.6 80 01:41 02.09.2019
2652 Thunderstorm 25 1016 78 10000 3.6 50 00:42 02.09.2019
2653 Clouds 25 1015 78 10000 4.6 70 00:20 02.09.2019
2654 Clear 26 1016 78 10000 3.6 60 23:39 01.09.2019
2655 Clear 26 1016 78 10000 2.1 60 23:19 01.09.2019
2656 Clouds 26 1015 83 10000 3.6 40 23:19 01.09.2019
2657 Clear 26 1016 78 10000 2.1 60 22:57 01.09.2019
2658 Clear 26 1015 78 10000 2.1 100 22:38 01.09.2019
2659 Clouds 26 1014 83 10000 1 0 22:18 01.09.2019
2660 Clouds 26 1014 83 10000 1 0 22:18 01.09.2019
2661 Clouds 27 1014 74 10000 2.1 200 21:54 01.09.2019
2662 Clear 27 1015 78 10000 2.6 160 21:36 01.09.2019
2663 Clear 27 1015 78 10000 2.6 160 21:36 01.09.2019
2664 Clear 28 1014 74 10000 3.1 130 21:18 01.09.2019
2665 Clear 28 1014 69 10000 3.1 170 20:55 01.09.2019
2666 Clouds 28 1013 74 10000 3.1 200 20:36 01.09.2019
2667 Clear 28 1014 58 10000 3.6 170 20:18 01.09.2019
2668 Clear 29 1014 58 10000 3.6 170 19:41 01.09.2019
2669 Clear 29 1014 48 10000 3.6 170 19:21 01.09.2019
2670 Clear 30 1014 45 10000 4.1 170 18:55 01.09.2019
2671 Clear 31 1014 38 10000 4.1 190 18:37 01.09.2019
2672 Clear 31 1014 38 10000 4.1 190 18:18 01.09.2019
2673 Clear 32 1014 43 10000 5.1 180 17:40 01.09.2019
2674 Clear 32 1014 43 10000 5.1 180 17:40 01.09.2019
2675 Clouds 32 1013 55 10000 4.6 200 17:22 01.09.2019
2676 Clear 32 1014 40 10000 4.6 170 16:58 01.09.2019
2677 Clear 32 1014 40 10000 4.6 160 16:38 01.09.2019
2678 Clouds 32 1013 43 10000 4.1 220 16:18 01.09.2019
2679 Clear 33 1013 38 10000 4.1 210 15:43 01.09.2019
2680 Clouds 33 1013 41 10000 4.1 220 15:24 01.09.2019
2681 Clouds 33 1013 43 10000 4.1 230 14:55 01.09.2019
2682 Clear 33 1014 41 10000 3.6 210 14:37 01.09.2019
2683 Clouds 32 1013 46 10000 4.1 230 14:18 01.09.2019
2684 Clear 32 1014 43 10000 3.1 210 13:41 01.09.2019
2685 Clouds 32 1013 43 10000 2.6 230 13:23 01.09.2019
2686 Clouds 32 1014 46 10000 3.1 220 12:55 01.09.2019
2687 Clouds 32 1014 46 10000 3.1 220 12:55 01.09.2019
2688 Clear 31 1015 38 10000 4.1 230 12:36 01.09.2019
2689 Clear 31 1015 40 10000 1 20 12:18 01.09.2019
2690 Clear 30 1015 40 10000 1 210 11:39 01.09.2019
2691 Clear 29 1014 48 10000 0.5 340 11:19 01.09.2019
2692 Clear 29 1015 48 10000 1.5 320 10:57 01.09.2019
2693 Clear 27 1015 54 10000 1.5 30 10:38 01.09.2019
2694 Clear 27 1014 69 10000 1 350 10:20 01.09.2019
2695 Clear 24 1015 73 10000 1 0 09:42 01.09.2019
2696 Clear 24 1015 73 10000 0.5 0 09:23 01.09.2019
2697 Clear 22 1015 77 10000 1.5 360 08:43 01.09.2019
2698 Clear 22 1014 94 10000 1.5 80 08:22 01.09.2019
2699 Clear 22 1014 77 10000 1.5 90 07:47 01.09.2019
2700 Clear 22 1013 94 10000 0.5 0 07:23 01.09.2019
2701 Clear 22 1014 73 10000 2.6 330 06:41 01.09.2019
2702 Clear 22 1014 73 10000 2.6 330 06:18 01.09.2019
2703 Clear 22 1015 73 10000 2.1 330 05:38 01.09.2019
2704 Clear 23 1015 73 10000 1 10 04:27 01.09.2019
2705 Clear 23 1015 73 10000 1 20 03:39 01.09.2019
2706 Clear 23 1015 73 10000 1.5 10 02:57 01.09.2019
2707 Clear 23 1015 83 10000 1.71 94.26 02:25 01.09.2019
2708 Clear 23 1015 83 10000 1.71 94.26 02:25 01.09.2019
2709 Clear 24 1016 73 10000 2.1 20 01:41 01.09.2019
2710 Clear 24 1015 83 10000 1.5 30 01:22 01.09.2019
2711 Clear 25 1016 69 10000 2.1 20 00:42 01.09.2019
2712 Clear 25 1015 78 10000 4.1 60 00:21 01.09.2019
2713 Clear 25 1015 69 10000 2.1 40 23:48 31.08.2019
2714 Clear 26 1015 73 10000 2.6 70 23:21 31.08.2019
2715 Clear 26 1015 78 10000 2.1 70 22:56 31.08.2019
2716 Clear 26 1015 78 10000 2.1 70 22:56 31.08.2019
2717 Clear 26 1016 69 10000 1.5 10 22:38 31.08.2019
2718 Clear 26 1015 78 10000 2.1 70 22:20 31.08.2019
2719 Clear 27 1014 74 10000 1 140 21:55 31.08.2019
2720 Clear 27 1015 69 10000 0.5 0 21:37 31.08.2019
2721 Clear 27 1014 74 10000 2.1 160 21:18 31.08.2019
2722 Clear 28 1015 61 10000 2.1 120 20:43 31.08.2019
2723 Clear 28 1013 66 10000 1.5 150 20:23 31.08.2019
2724 Clear 30 1014 58 10000 2.1 170 19:47 31.08.2019
2725 Clear 29 1014 58 10000 2.1 170 19:23 31.08.2019
2726 Clouds 29 1013 62 10000 3.1 220 18:58 31.08.2019
2727 Clear 29 1014 58 10000 2.1 150 18:39 31.08.2019
2728 Clear 29 1014 62 10000 2.6 150 18:19 31.08.2019
2729 Clouds 29 1013 66 10000 3.6 220 17:55 31.08.2019
2730 Clear 29 1015 58 10000 3.1 170 17:37 31.08.2019
2731 Clouds 29 1014 70 10000 3.1 220 17:18 31.08.2019
2732 Thunderstorm 28 1014 62 10000 3.6 220 16:55 31.08.2019
2733 Thunderstorm 28 1014 62 10000 3.6 220 16:55 31.08.2019
2734 Thunderstorm 28 1015 61 10000 4.1 190 16:37 31.08.2019
2735 Thunderstorm 28 1014 62 10000 4.6 220 16:18 31.08.2019
2736 Thunderstorm 29 1015 55 10000 5.1 230 15:41 31.08.2019
2737 Thunderstorm 30 1015 55 10000 5.1 230 15:19 31.08.2019
2738 Thunderstorm 30 1016 51 10000 7.2 200 14:55 31.08.2019
2739 Clear 30 1016 55 10000 6.2 220 14:36 31.08.2019
2740 Clouds 30 1015 62 10000 6.2 220 14:18 31.08.2019
2741 Clear 30 1017 51 10000 5.1 210 13:40 31.08.2019
2742 Clouds 30 1016 62 10000 5.7 230 13:21 31.08.2019
2743 Clouds 29 1016 62 10000 4.1 230 12:57 31.08.2019
2744 Clear 30 1017 51 10000 4.1 200 12:38 31.08.2019
2745 Clear 29 1016 62 10000 3.6 230 12:19 31.08.2019
2746 Clear 30 1016 62 10000 3.1 230 11:46 31.08.2019
2747 Clear 30 1016 62 10000 3.1 230 11:46 31.08.2019
2748 Clear 29 1017 51 10000 2.1 0 11:28 31.08.2019
2749 Clear 28 1016 61 10000 1 0 10:58 31.08.2019
2750 Clear 28 1017 57 10000 0.5 310 10:40 31.08.2019
2751 Clear 28 1016 74 10000 0.5 0 10:19 31.08.2019
2752 Clear 26 1016 69 10000 1 20 09:54 31.08.2019
2753 Clear 25 1017 69 10000 0.5 0 09:36 31.08.2019
2754 Clear 24 1017 73 10000 1.5 360 09:18 31.08.2019
2755 Clear 22 1017 73 10000 2.1 340 08:41 31.08.2019
2756 Clear 22 1017 73 10000 2.1 340 08:41 31.08.2019
2757 Clear 21 1016 94 10000 0.5 0 08:22 31.08.2019
2758 Clear 22 1017 78 10000 1.5 350 07:40 31.08.2019
2759 Clear 22 1016 88 10000 1.65 93.053 07:20 31.08.2019
2760 Clouds 22 1015 94 10000 1.5 40 06:28 31.08.2019
2761 -273 0 0 0 0 0 05:55 31.08.2019
2762 Clear 23 1017 78 10000 1 20 05:30 31.08.2019
2763 Clear 23 1017 73 10000 1 0 04:30 31.08.2019
2764 Clear 23 1017 83 10000 1.5 20 03:44 31.08.2019
2765 Clear 24 1018 78 10000 1.5 360 02:29 31.08.2019
2766 Clear 24 1018 73 10000 1 50 01:51 31.08.2019
2767 Clear 24 1018 73 10000 1 50 01:31 31.08.2019
2768 Clear 25 1018 69 10000 1.5 20 00:48 31.08.2019
2769 Clear 25 1018 83 10000 2.21 329.116 00:28 31.08.2019
2770 Clear 25 1019 78 10000 1 0 23:51 30.08.2019
2771 Clear 25 1019 78 10000 1.5 70 23:21 30.08.2019
2772 Clear 25 1019 78 10000 1.5 70 22:59 30.08.2019
2773 Clear 26 1019 74 10000 1 0 22:40 30.08.2019
2774 Clear 26 1019 74 10000 1 0 22:40 30.08.2019
2775 Clear 26 1019 74 10000 1 0 22:40 30.08.2019
2776 Clear 26 1018 78 10000 1 100 22:21 30.08.2019
2777 Clear 26 1018 78 10000 0.5 160 21:58 30.08.2019
2778 Clear 27 1019 74 10000 2.1 180 21:37 30.08.2019
2779 Clear 27 1018 74 10000 1.5 210 21:19 30.08.2019
2780 Clear 27 1018 65 10000 2.6 200 20:58 30.08.2019
2781 Clear 28 1018 65 10000 2.6 200 20:39 30.08.2019
2782 Clear 28 1018 65 10000 3.6 210 20:20 30.08.2019
2783 Clouds 28 1017 65 10000 3.1 230 19:57 30.08.2019
2784 Clear 28 1019 58 10000 4.1 210 19:38 30.08.2019
2785 Clear 28 1019 58 10000 4.1 210 19:19 30.08.2019
2786 Clear 28 1019 65 10000 5.7 200 18:47 30.08.2019
2787 Clouds 29 1018 66 10000 5.7 230 18:25 30.08.2019
2788 Clouds 30 1018 58 10000 5.7 220 17:58 30.08.2019
2789 Clouds 30 1018 58 10000 5.7 220 17:58 30.08.2019
2790 Clear 30 1019 62 10000 5.7 200 17:40 30.08.2019
2791 Clouds 30 1018 62 10000 5.7 220 17:19 30.08.2019
2792 Clear 30 1019 62 10000 6.7 180 16:59 30.08.2019
2793 Clear 30 1019 58 10000 6.7 180 16:40 30.08.2019
2794 Clouds 30 1018 70 10000 6.7 210 16:21 30.08.2019
2795 Clear 32 1019 43 10000 5.1 210 15:43 30.08.2019
2796 Clouds 31 1019 46 10000 6.2 220 15:23 30.08.2019
2797 Clouds 31 1019 46 10000 6.2 220 15:23 30.08.2019
2798 Clouds 31 1019 48 10000 6.2 230 14:47 30.08.2019
2799 Clouds 31 1019 48 10000 5.7 230 14:29 30.08.2019
2800 Clear 31 1020 43 10000 4.6 240 13:59 30.08.2019
2801 Clear 31 1020 43 10000 5.1 220 13:40 30.08.2019
2802 Clouds 31 1019 45 10000 4.6 240 13:22 30.08.2019
2803 Clouds 30 1020 51 10000 4.1 240 12:55 30.08.2019
2804 Clear 30 1021 45 10000 5.1 210 12:36 30.08.2019
2805 Clear 30 1021 42 10000 3.6 200 12:18 30.08.2019
2806 Clear 30 1021 48 10000 2.6 170 11:41 30.08.2019
2807 Clear 29 1020 58 10000 0.64 262.986 11:23 30.08.2019
2808 Clear 28 1021 61 10000 0.5 30 10:39 30.08.2019
2809 Clear 27 1020 69 10000 0.5 10 10:20 30.08.2019
2810 Clear 25 1020 74 10000 0.64 262.986 09:57 30.08.2019
2811 Clear 25 1021 69 10000 1.5 360 09:38 30.08.2019
2812 Clear 23 1021 73 10000 2.6 340 09:18 30.08.2019
2813 Clear 23 1021 73 10000 2.1 40 08:44 30.08.2019
2814 Clear 23 1021 73 10000 2.1 40 08:44 30.08.2019
2815 Clear 23 1021 73 10000 2.1 40 08:25 30.08.2019
2816 Clouds 23 1020 94 10000 2.1 10 07:58 30.08.2019
2817 Clear 23 1020 83 10000 1 0 07:38 30.08.2019
2818 Clouds 22 1019 94 10000 1.61 39.796 07:20 30.08.2019
2819 Clear 23 1020 83 10000 0.5 320 06:43 30.08.2019
2820 Clouds 23 1019 88 10000 2.6 70 06:24 30.08.2019
2821 Clear 23 1020 83 10000 1.5 360 05:43 30.08.2019
2822 Clear 24 1020 83 10000 1.5 340 03:58 30.08.2019
2823 Clear 24 1020 78 10000 0.5 0 03:37 30.08.2019
2824 Clouds 24 1019 94 10000 1.5 60 02:49 30.08.2019
2825 Clouds 24 1019 88 10000 1 0 02:22 30.08.2019
2826 Clouds 24 1019 88 10000 1 0 00:58 30.08.2019
2827 Clouds 24 1019 83 10000 2.6 240 00:27 30.08.2019
2828 Clouds 25 1019 88 10000 2.1 240 23:57 29.08.2019
2829 Clear 25 1020 83 10000 1.5 210 23:38 29.08.2019
2830 Clouds 25 1019 83 10000 2.1 230 23:20 29.08.2019
2831 Clouds 25 1019 83 10000 2.1 230 23:20 29.08.2019
2832 Clear 25 1020 83 10000 1.5 190 22:43 29.08.2019
2833 Clear 26 1020 83 10000 1.5 190 22:24 29.08.2019
2834 Clear 26 1020 78 10000 2.6 220 21:56 29.08.2019
2835 Clear 26 1020 74 10000 2.6 200 21:38 29.08.2019
2836 Clear 26 1020 74 10000 2.6 200 21:20 29.08.2019
2837 Clear 27 1019 69 10000 2.6 190 20:43 29.08.2019
2838 Clouds 27 1018 65 10000 3.6 210 20:21 29.08.2019
2839 Clear 28 1019 54 10000 4.6 200 19:59 29.08.2019
2840 Clear 28 1019 54 10000 4.6 200 19:40 29.08.2019
2841 Clear 29 1019 54 10000 4.6 200 19:21 29.08.2019
2842 Clear 30 1019 51 10000 4.6 190 18:44 29.08.2019
2843 Clear 30 1019 51 10000 5.1 180 18:21 29.08.2019
2844 Clear 30 1019 51 10000 5.1 180 18:21 29.08.2019
2845 Clear 30 1019 51 10000 5.1 180 17:57 29.08.2019
2846 Clouds 29 1020 45 10000 5.7 190 17:39 29.08.2019
2847 Clouds 30 1019 42 10000 6.7 190 17:19 29.08.2019
2848 Clouds 30 1019 42 10000 6.7 190 16:57 29.08.2019
2849 Clouds 31 1018 43 10000 6.7 220 16:39 29.08.2019
2850 Clouds 31 1019 40 10000 4.1 190 16:21 29.08.2019
2851 Clouds 31 1019 40 10000 5.1 200 15:39 29.08.2019
2852 Clouds 31 1019 38 10000 3.6 190 15:21 29.08.2019
2853 Clouds 31 1019 38 10000 3.6 190 14:56 29.08.2019
2854 Clear 31 1020 40 10000 3.6 210 14:37 29.08.2019
2855 Clear 31 1020 40 10000 3.6 220 14:19 29.08.2019
2856 Clear 31 1020 40 10000 3.6 220 13:54 29.08.2019
2857 Clear 30 1020 45 10000 4.6 220 13:36 29.08.2019
2858 Clear 30 1020 45 10000 3.6 220 13:18 29.08.2019
2859 Clouds 30 1019 55 10000 4.1 240 12:55 29.08.2019
2860 Clear 29 1020 48 10000 3.6 220 12:36 29.08.2019
2861 Clouds 29 1019 51 10000 3.1 260 12:18 29.08.2019
2862 Clear 28 1020 51 10000 2.6 140 11:40 29.08.2019
2863 Clouds 28 1019 51 10000 0.5 190 11:20 29.08.2019
2864 Clear 28 1019 54 10000 0.5 240 10:56 29.08.2019
2865 Clear 27 1020 54 10000 0.5 290 10:38 29.08.2019
2866 Clear 27 1018 61 10000 0.8 38.604 10:19 29.08.2019
2867 Clear 25 1019 64 10000 1 0 09:41 29.08.2019
2868 Clear 22 1019 78 10000 1.5 10 09:18 29.08.2019
2869 Clear 21 1019 77 10000 1 360 08:45 29.08.2019
2870 Clear 21 1018 94 10000 1 0 08:25 29.08.2019
2871 Clear 21 1018 88 10000 1.5 40 07:54 29.08.2019
2872 Clear 21 1019 82 10000 2.1 20 07:34 29.08.2019
2873 Clouds 21 1018 94 10000 1.5 50 06:59 29.08.2019
2874 Clear 21 1019 82 10000 2.1 10 06:38 29.08.2019
2875 Clouds 21 1018 94 10000 2.1 50 05:52 29.08.2019
2876 Clear 21 1019 82 10000 1 0 05:31 29.08.2019
2877 Clear 21 1019 88 10000 2.1 100 04:48 29.08.2019
2878 Clear 21 1019 88 10000 2.1 100 04:28 29.08.2019
2879 Clear 23 1019 78 10000 2.1 340 01:55 29.08.2019
2880 Clear 23 1019 78 10000 2.1 340 01:35 29.08.2019
2881 Clear 23 1019 78 10000 2.1 340 01:35 29.08.2019
2882 Clouds 23 1017 83 10000 0.5 0 00:48 29.08.2019
2883 Clouds 24 1017 78 10000 0.5 0 00:24 29.08.2019
2884 Clear 24 1018 78 10000 0.5 0 23:59 28.08.2019
2885 Clear 24 1018 73 10000 1.5 50 23:39 28.08.2019
2886 Clouds 24 1017 78 10000 2.1 60 23:21 28.08.2019
2887 Clouds 25 1017 73 10000 2.6 30 22:56 28.08.2019
2888 Clear 25 1018 69 10000 2.1 320 22:38 28.08.2019
2889 Clouds 25 1017 65 10000 1.5 360 22:18 28.08.2019
2890 Clear 25 1017 57 10000 3.1 50 21:43 28.08.2019
2891 Clouds 26 1016 65 10000 3.1 80 21:25 28.08.2019
2892 Clouds 26 1016 61 10000 4.1 80 20:59 28.08.2019
2893 Clear 27 1017 54 10000 3.6 50 20:40 28.08.2019
2894 Clouds 27 1016 54 10000 5.7 70 20:22 28.08.2019
2895 Clear 28 1016 48 10000 4.6 340 19:44 28.08.2019
2896 Clear 28 1016 48 10000 4.6 340 19:22 28.08.2019
2897 Clouds 29 1015 48 10000 3.1 360 18:59 28.08.2019
2898 Clear 28 1016 45 10000 5.1 330 18:40 28.08.2019
2899 Clouds 29 1015 48 10000 6.2 330 18:21 28.08.2019
2900 Clear 29 1016 48 10000 5.7 340 17:39 28.08.2019
2901 Clouds 29 1015 51 10000 5.7 340 17:19 28.08.2019
2902 Clear 29 1016 48 10000 6.7 330 16:55 28.08.2019
2903 Clear 29 1016 48 10000 6.7 330 16:55 28.08.2019
2904 Clear 29 1016 48 10000 5.7 10 16:37 28.08.2019
2905 Clouds 29 1015 51 10000 6.2 340 16:18 28.08.2019
2906 Clear 28 1016 54 10000 5.1 350 15:38 28.08.2019
2907 Clouds 28 1015 51 10000 6.2 350 15:20 28.08.2019
2908 Clear 28 1017 51 10000 5.1 10 14:58 28.08.2019
2909 Clear 28 1016 51 10000 6.7 10 14:40 28.08.2019
2910 Clouds 28 1015 51 10000 7.2 350 14:21 28.08.2019
2911 Clear 29 1016 51 10000 5.7 330 13:59 28.08.2019
2912 Clear 29 1016 48 10000 6.2 330 13:39 28.08.2019
2913 Clouds 29 1015 48 10000 3.1 320 13:20 28.08.2019
2914 Clouds 28 1017 48 10000 5.7 350 12:43 28.08.2019
2915 Clouds 28 1015 51 10000 3.6 220 12:25 28.08.2019
2916 Clear 28 1016 51 10000 4.6 340 11:59 28.08.2019
2917 Clouds 27 1016 54 10000 4.6 330 11:39 28.08.2019
2918 Clouds 27 1015 65 10000 2.6 330 11:20 28.08.2019
2919 Clear 26 1016 57 10000 2.6 310 10:56 28.08.2019
2920 Clear 26 1016 65 10000 1 290 10:37 28.08.2019
2921 Clouds 25 1015 74 10000 1.5 250 10:19 28.08.2019
2922 Clear 23 1016 83 10000 0.5 0 09:42 28.08.2019
2923 Clouds 23 1015 83 10000 0.5 0 09:21 28.08.2019
2924 Clouds 21 1015 94 10000 0.5 320 08:56 28.08.2019
2925 Clear 21 1016 88 10000 1 0 08:37 28.08.2019
2926 Clouds 20 1015 94 10000 0.5 250 08:18 28.08.2019
2927 Clear 21 1016 88 10000 1.5 30 07:38 28.08.2019
2928 Clouds 21 1015 94 10000 2.1 60 07:19 28.08.2019
2929 Clear 21 1016 88 10000 2.6 70 06:49 28.08.2019
2930 Clear 22 1014 88 10000 1.99 326.852 05:59 28.08.2019
2931 Clear 22 1014 88 10000 1.99 326.852 05:59 28.08.2019
2932 Clear 22 1015 83 10000 0.5 0 04:49 28.08.2019
2933 Clear 22 1016 83 10000 3.1 350 01:58 28.08.2019
2934 Clear 22 1016 83 10000 2.1 340 01:30 28.08.2019
2935 Clear 22 1016 83 10000 0.5 0 00:50 28.08.2019
2936 Clear 22 1017 83 10000 2.1 360 00:32 28.08.2019
2937 Clear 23 1016 78 10000 1 0 23:56 27.08.2019
2938 Clear 23 1017 83 10000 2.6 340 23:38 27.08.2019
2939 Clear 23 1016 78 10000 3.1 330 23:19 27.08.2019
2940 Clear 23 1016 73 10000 1.5 350 22:41 27.08.2019
2941 Clear 24 1015 73 10000 1.5 100 22:23 27.08.2019
2942 Clear 24 1016 69 10000 1.5 340 21:57 27.08.2019
2943 Clear 24 1016 69 10000 2.1 10 21:38 27.08.2019
2944 Clear 24 1016 69 10000 2.1 10 21:38 27.08.2019
2945 Clear 24 1016 69 10000 2.1 10 21:38 27.08.2019
2946 Clear 24 1016 69 10000 2.1 10 21:38 27.08.2019
2947 Thunderstorm 25 1016 65 10000 2.6 30 21:19 27.08.2019
2948 Thunderstorm 25 1016 65 10000 2.6 30 20:58 27.08.2019
2949 Clear 25 1015 61 10000 2.6 50 20:39 27.08.2019
2950 Clear 26 1014 65 10000 2.6 360 20:19 27.08.2019
2951 Clear 25 1015 57 10000 2.1 80 19:44 27.08.2019
2952 Clear 26 1015 57 10000 2.1 80 19:26 27.08.2019
2953 Clear 26 1014 61 10000 6.2 50 18:57 27.08.2019
2954 Clear 26 1014 57 10000 3.6 50 18:39 27.08.2019
2955 Clear 26 1014 65 10000 7.2 40 18:18 27.08.2019
2956 Clear 26 1013 65 10000 6.2 60 17:55 27.08.2019
2957 Clear 25 1013 69 10000 5.7 80 17:37 27.08.2019
2958 Thunderstorm 24 1012 73 10000 7.2 70 17:18 27.08.2019
2959 Rain 23 1015 83 10000 5.7 50 16:42 27.08.2019
2960 Rain 23 1016 83 10000 4.1 40 16:23 27.08.2019
2961 Rain 22 1016 78 10000 2.6 40 15:55 27.08.2019
2962 Rain 22 1016 78 10000 2.6 40 15:37 27.08.2019
2963 Thunderstorm 22 1017 78 10000 5.1 40 15:19 27.08.2019
2964 Rain 22 1017 83 10000 4.6 70 14:42 27.08.2019
2965 Rain 22 1016 83 10000 3.6 70 14:23 27.08.2019
2966 Rain 22 1019 94 1500 7.7 270 13:43 27.08.2019
2967 Rain 22 1018 88 2000 8.7 290 13:25 27.08.2019
2968 Rain 23 1017 78 10000 6.2 310 12:59 27.08.2019
2969 Rain 24 1018 78 10000 3.1 360 12:39 27.08.2019
2970 Rain 25 1016 83 8000 3.6 60 12:20 27.08.2019
2971 Rain 25 1016 88 10000 3.6 30 11:47 27.08.2019
2972 Rain 25 1017 83 10000 3.6 30 11:27 27.08.2019
2973 Rain 25 1016 83 10000 4.1 50 10:55 27.08.2019
2974 Rain 25 1016 83 10000 4.1 50 10:37 27.08.2019
2975 Rain 25 1016 83 10000 5.7 70 10:18 27.08.2019
2976 Rain 24 1016 83 10000 3.1 80 09:41 27.08.2019
2977 Rain 24 1016 83 10000 4.6 70 09:21 27.08.2019
2978 Rain 24 1016 83 10000 4.6 70 08:59 27.08.2019
2979 Rain 24 1016 83 10000 4.6 70 08:59 27.08.2019
2980 Clear 25 1016 73 10000 1.5 70 08:40 27.08.2019
2981 Clouds 25 1015 78 10000 2.1 70 08:22 27.08.2019
2982 Rain 25 1014 73 10000 4.6 80 07:41 27.08.2019
2983 Clouds 25 1013 73 10000 4.6 60 07:20 27.08.2019
2984 Clouds 25 1013 73 10000 4.6 60 06:54 27.08.2019
2985 Clear 25 1014 69 10000 3.6 70 06:28 27.08.2019
2986 Clear 25 1014 69 10000 5.1 70 05:47 27.08.2019
2987 Clouds 25 1013 73 10000 5.1 80 05:20 27.08.2019
2988 Clouds 25 1018 73 10000 3.1 260 03:40 27.08.2019
2989 Clouds 25 1015 78 10000 0.5 0 02:26 27.08.2019
2990 Clear 24 1016 73 10000 2.6 40 01:44 27.08.2019
2991 Clouds 24 1015 83 10000 1.5 110 01:23 27.08.2019
2992 Clear 24 1016 73 10000 2.6 60 00:45 27.08.2019
2993 Clouds 25 1015 78 10000 2.6 50 00:24 27.08.2019
2994 Clear 25 1016 69 10000 3.6 70 23:40 26.08.2019
2995 Clouds 25 1015 73 10000 2.6 50 23:21 26.08.2019
2996 Clouds 26 1015 69 10000 3.1 80 22:54 26.08.2019
2997 Clear 26 1016 65 10000 4.6 70 22:36 26.08.2019
2998 Clear 26 1016 65 10000 4.6 70 22:18 26.08.2019
2999 Clear 26 1015 61 10000 4.6 60 21:38 26.08.2019
3000 Clear 26 1016 69 10000 1.5 210 21:20 26.08.2019
3001 Clear 27 1016 69 10000 1.5 210 20:57 26.08.2019
3002 Clear 27 1015 65 10000 4.1 220 20:38 26.08.2019
3003 Clear 27 1015 65 10000 3.6 210 20:19 26.08.2019
3004 Clear 28 1016 61 10000 5.7 220 19:44 26.08.2019
3005 Clear 28 1016 58 10000 6.2 220 19:20 26.08.2019
3006 Clear 29 1016 58 10000 6.2 220 18:59 26.08.2019
3007 Clear 29 1016 54 10000 6.2 230 18:38 26.08.2019
3008 Clear 29 1016 54 10000 6.2 220 18:20 26.08.2019
3009 -273 0 0 0 0 0 17:55 26.08.2019
3010 Clear 29 1016 58 10000 6.7 220 17:37 26.08.2019
3011 Clear 29 1016 51 10000 7.2 220 17:18 26.08.2019
3012 Clear 29 1016 51 10000 7.2 220 16:55 26.08.2019
3013 Clear 29 1016 55 10000 6.2 210 16:37 26.08.2019
3014 Clear 30 1017 55 10000 7.2 220 16:18 26.08.2019
3015 Clear 29 1017 52 10000 7.2 230 15:41 26.08.2019
3016 Clear 30 1017 51 10000 6.7 230 15:21 26.08.2019
3017 Clear 29 1017 51 10000 6.2 230 14:45 26.08.2019
3018 Clear 30 1017 51 10000 6.2 230 14:23 26.08.2019
3019 Clouds 30 1017 52 10000 5.1 220 13:59 26.08.2019
3020 Clouds 31 1017 40 10000 4.1 100 13:38 26.08.2019
3021 Clouds 31 1017 43 10000 3.6 120 13:19 26.08.2019
3022 Clear 31 1017 45 10000 4.1 90 12:43 26.08.2019
3023 Clear 30 1017 45 10000 4.1 90 12:43 26.08.2019
3024 Clear 30 1017 45 10000 4.1 90 12:24 26.08.2019
3025 Clouds 29 1017 48 10000 3.1 90 11:56 26.08.2019
3026 Clouds 29 1018 51 10000 3.1 70 11:36 26.08.2019
3027 Clear 28 1018 61 10000 3.6 60 11:18 26.08.2019
3028 Clear 27 1018 69 10000 2.6 70 10:42 26.08.2019
3029 Clear 27 1018 65 10000 3.1 60 10:21 26.08.2019
3030 Clear 27 1018 65 10000 3.1 60 09:57 26.08.2019
3031 Clear 26 1018 64 10000 2.1 350 09:39 26.08.2019
3032 Clear 24 1018 64 10000 1 0 09:19 26.08.2019
3033 Clear 22 1018 68 10000 2.1 20 08:42 26.08.2019
3034 Clear 22 1018 68 10000 2.1 20 08:24 26.08.2019
3035 Clear 21 1017 77 10000 2.6 10 07:59 26.08.2019
3036 Clear 21 1018 83 10000 1.5 320 07:41 26.08.2019
3037 Clear 22 1018 83 10000 1.5 320 07:22 26.08.2019
3038 Clear 22 1017 77 10000 1 340 06:45 26.08.2019
3039 Clear 22 1017 73 10000 2.1 340 06:24 26.08.2019
3040 Clear 22 1017 78 10000 2.6 20 05:49 26.08.2019
3041 Clear 23 1018 83 10000 2.1 10 04:31 26.08.2019
3042 Clear 23 1018 83 10000 3.29 70.833 02:56 26.08.2019
3043 Clear 24 1018 78 10000 1.5 60 01:40 26.08.2019
3044 Clear 24 1018 78 10000 1 0 01:21 26.08.2019
3045 Clear 24 1018 73 10000 2.1 60 00:41 26.08.2019
3046 Clear 24 1018 73 10000 2.6 60 00:22 26.08.2019
3047 Clear 24 1018 73 10000 1.5 70 23:43 25.08.2019
3048 Clear 25 1018 69 10000 0.5 180 23:19 25.08.2019
3049 Clear 25 1018 69 10000 0.5 180 22:57 25.08.2019
3050 Clear 25 1018 69 10000 1.5 170 22:38 25.08.2019
3051 Clear 26 1018 69 10000 1.5 170 22:20 25.08.2019
3052 Clear 26 1018 69 10000 1.5 170 21:57 25.08.2019
3053 Clear 26 1018 69 10000 2.1 190 21:57 25.08.2019
3054 Clear 26 1018 69 10000 2.1 190 21:37 25.08.2019
3055 Clear 26 1017 69 10000 2.6 190 21:18 25.08.2019
3056 Clear 27 1017 69 10000 2.6 190 21:18 25.08.2019
3057 Clear 27 1017 65 10000 3.6 220 20:40 25.08.2019
3058 Clear 27 1017 65 10000 4.6 220 20:20 25.08.2019
3059 Clear 28 1017 65 10000 4.6 220 19:58 25.08.2019
3060 Clear 28 1017 61 10000 4.6 210 19:39 25.08.2019
3061 Clear 29 1017 61 10000 4.6 210 19:19 25.08.2019
3062 Clear 29 1017 61 10000 4.1 210 18:58 25.08.2019
3063 Clear 29 1017 61 10000 4.1 210 18:39 25.08.2019
3064 Clear 30 1017 54 10000 5.7 210 18:21 25.08.2019
3065 Clear 30 1017 51 10000 5.7 210 17:45 25.08.2019
3066 Clear 30 1017 48 10000 5.7 220 17:25 25.08.2019
3067 Clear 29 1017 48 10000 5.7 220 16:59 25.08.2019
3068 Clear 30 1018 58 10000 5.7 200 16:37 25.08.2019
3069 Clear 30 1018 58 10000 6.2 200 16:18 25.08.2019
3070 Clear 31 1018 62 10000 6.2 210 15:43 25.08.2019
3071 Clear 30 1018 62 10000 6.2 210 15:25 25.08.2019
3072 Clear 31 1018 58 10000 6.2 210 14:43 25.08.2019
3073 Clear 30 1018 58 10000 6.2 210 14:25 25.08.2019
3074 Clear 30 1018 58 10000 5.7 210 13:57 25.08.2019
3075 Clear 30 1018 54 10000 5.7 210 13:38 25.08.2019
3076 Clear 30 1018 54 10000 4.6 210 13:19 25.08.2019
3077 Clear 30 1018 54 10000 4.1 210 12:48 25.08.2019
3078 Clear 30 1019 54 10000 3.1 220 12:26 25.08.2019
3079 Clear 29 1019 54 10000 3.1 220 11:59 25.08.2019
3080 Clear 28 1019 58 10000 2.6 160 11:41 25.08.2019
3081 Clear 28 1019 58 10000 2.6 160 11:22 25.08.2019
3082 Clear 28 1019 57 10000 2.1 190 10:59 25.08.2019
3083 Clear 28 1019 61 10000 1 0 10:40 25.08.2019
3084 Clear 27 1019 65 10000 0.5 0 10:20 25.08.2019
3085 Clear 27 1019 65 10000 0.5 0 10:20 25.08.2019
3086 Clear 26 1019 65 10000 0.5 0 09:55 25.08.2019
3087 Clear 26 1019 64 10000 1 0 09:37 25.08.2019
3088 Clear 23 1018 68 10000 1.5 10 09:18 25.08.2019
3089 Clear 22 1018 73 10000 1.5 360 08:42 25.08.2019
3090 Clear 21 1018 77 10000 1.5 350 08:21 25.08.2019
3091 Clear 20 1018 77 10000 2.6 360 07:35 25.08.2019
3092 Clear 20 1018 77 10000 2.1 350 06:51 25.08.2019
3093 Clear 21 1018 77 10000 2.1 350 05:47 25.08.2019
3094 Clear 22 1019 77 10000 2.6 340 04:41 25.08.2019
3095 Clear 22 1019 78 10000 2.1 360 03:36 25.08.2019
3096 Clear 23 1019 78 10000 2.1 350 02:39 25.08.2019
3097 Clear 24 1019 78 10000 1.5 350 01:28 25.08.2019
3098 Clear 25 1019 73 10000 2.1 60 00:40 25.08.2019
3099 Clear 25 1019 73 10000 2.1 80 00:20 25.08.2019
3100 Clear 25 1019 73 10000 1.5 90 23:51 24.08.2019
3101 Clear 25 1019 78 10000 1 170 23:22 24.08.2019
3102 Clear 25 1019 78 10000 1 170 23:22 24.08.2019
3103 Clear 25 1019 78 10000 1 170 22:56 24.08.2019
3104 Clear 25 1019 78 10000 1 190 22:38 24.08.2019
3105 Clear 26 1018 69 10000 1 200 22:19 24.08.2019
3106 Clear 26 1018 69 10000 1 200 21:56 24.08.2019
3107 Clear 26 1018 74 10000 1.5 210 21:37 24.08.2019
3108 Clear 26 1018 74 10000 2.1 200 21:19 24.08.2019
3109 Clear 26 1018 74 10000 2.1 200 20:55 24.08.2019
3110 Clear 26 1018 74 10000 2.1 200 20:55 24.08.2019
3111 Clear 27 1018 69 10000 2.6 190 20:37 24.08.2019
3112 Clear 27 1018 69 10000 3.6 200 20:18 24.08.2019
3113 Clear 27 1018 69 10000 3.6 200 19:55 24.08.2019
3114 Clear 28 1018 65 10000 4.1 200 19:37 24.08.2019
3115 Clear 28 1018 65 10000 5.1 210 19:18 24.08.2019
3116 Clear 29 1018 65 10000 5.7 210 18:41 24.08.2019
3117 Clear 29 1018 65 10000 5.7 200 18:21 24.08.2019
3118 Clear 29 1018 65 10000 5.7 210 17:45 24.08.2019
3119 Clear 29 1018 65 10000 5.7 210 17:25 24.08.2019
3120 Clear 30 1018 58 10000 6.2 190 16:51 24.08.2019
3121 Clear 30 1018 58 10000 6.2 200 16:21 24.08.2019
3122 Clear 30 1018 58 10000 6.2 200 15:59 24.08.2019
3123 Clear 30 1019 58 10000 6.2 200 15:41 24.08.2019
3124 Clear 30 1019 58 10000 6.2 200 15:41 24.08.2019
3125 Clear 30 1019 58 10000 5.7 200 15:23 24.08.2019
3126 Clear 30 1019 58 10000 6.2 210 14:44 24.08.2019
3127 Clear 30 1019 58 10000 6.2 210 14:23 24.08.2019
3128 Clear 30 1019 62 10000 6.2 210 13:59 24.08.2019
3129 Clear 31 1019 54 10000 4.1 190 13:41 24.08.2019
3130 Clear 30 1019 54 10000 4.1 190 13:22 24.08.2019
3131 Clear 31 1019 43 10000 3.6 80 12:58 24.08.2019
3132 Clear 31 1019 45 10000 2.6 60 12:39 24.08.2019
3133 Clear 30 1019 48 10000 2.6 50 12:20 24.08.2019
3134 Clear 29 1019 54 10000 1.5 0 11:45 24.08.2019
3135 Clear 29 1019 54 10000 1.5 0 11:23 24.08.2019
3136 Clear 27 1019 61 10000 1.5 50 10:53 24.08.2019
3137 Clear 27 1019 61 10000 1.5 50 10:24 24.08.2019
3138 Clear 26 1019 69 10000 1 110 09:58 24.08.2019
3139 Clear 25 1019 65 10000 1 0 09:38 24.08.2019
3140 Clear 24 1019 73 10000 1.5 340 09:18 24.08.2019
3141 Clear 23 1019 78 10000 1.5 350 08:41 24.08.2019
3142 Clear 21 1019 78 10000 1.5 350 08:23 24.08.2019
3143 Clear 21 1019 83 10000 2.6 350 07:50 24.08.2019
3144 Clear 21 1019 83 10000 2.1 360 07:28 24.08.2019
3145 Clear 21 1019 78 10000 2.1 330 06:31 24.08.2019
3146 Clear 22 1019 83 10000 1 340 05:47 24.08.2019
3147 Clear 22 1019 83 10000 1 340 05:29 24.08.2019
3148 Clear 23 1019 78 10000 2.1 340 03:39 24.08.2019
3149 Clear 24 1019 78 10000 1.5 340 02:39 24.08.2019
3150 Clear 24 1019 78 10000 2.1 60 01:52 24.08.2019
3151 Clear 24 1019 78 10000 2.1 50 01:22 24.08.2019
3152 Clear 24 1019 73 10000 1.5 60 00:44 24.08.2019
3153 Clear 25 1019 69 10000 1 90 00:21 24.08.2019
3154 Clear 24 1019 69 10000 1 0 23:43 23.08.2019
3155 Clear 25 1019 73 10000 1 170 23:19 23.08.2019
3156 Clear 25 1019 65 10000 1 0 22:44 23.08.2019
3157 Clouds 25 1018 78 10000 1 0 22:24 23.08.2019
3158 Clear 25 1019 69 10000 1.5 230 21:54 23.08.2019
3159 Clear 26 1019 69 10000 2.6 220 21:36 23.08.2019
3160 Clear 26 1019 69 10000 2.6 220 21:36 23.08.2019
3161 Clear 26 1019 69 10000 2.6 220 21:36 23.08.2019
3162 Clouds 26 1019 65 10000 3.1 210 21:18 23.08.2019
3163 Clouds 26 1019 65 10000 4.6 210 20:45 23.08.2019
3164 Clouds 26 1019 65 10000 4.6 210 20:27 23.08.2019
3165 Clouds 27 1019 61 10000 4.6 210 19:46 23.08.2019
3166 Clouds 27 1019 61 10000 4.6 210 19:46 23.08.2019
3167 Clouds 28 1019 58 10000 4.1 200 19:19 23.08.2019
3168 Clouds 28 1019 58 10000 4.1 200 19:19 23.08.2019
3169 Clouds 28 1019 58 10000 4.1 200 18:55 23.08.2019
3170 Clouds 28 1018 58 10000 5.1 220 18:36 23.08.2019
3171 Clear 29 1019 58 10000 6.2 220 18:18 23.08.2019
3172 Clear 29 1019 51 10000 6.2 210 17:41 23.08.2019
3173 Clear 30 1019 51 10000 6.2 210 17:23 23.08.2019
3174 Clear 30 1019 51 10000 5.7 210 16:49 23.08.2019
3175 Clear 30 1019 51 10000 5.7 210 16:49 23.08.2019
3176 Clear 30 1019 51 10000 5.7 210 16:30 23.08.2019
3177 Clear 30 1019 48 10000 5.7 200 15:59 23.08.2019
3178 Clear 30 1019 51 10000 6.7 200 15:40 23.08.2019
3179 Clear 30 1019 48 10000 5.7 210 15:21 23.08.2019
3180 Clear 30 1019 48 10000 5.7 210 14:56 23.08.2019
3181 Clear 30 1020 48 10000 5.7 200 14:37 23.08.2019
3182 Clear 29 1020 45 10000 5.7 200 14:19 23.08.2019
3183 Clear 29 1020 42 10000 4.6 210 13:42 23.08.2019
3184 Clear 29 1020 42 10000 4.6 210 13:23 23.08.2019
3185 Clear 29 1020 42 10000 3.6 230 12:59 23.08.2019
3186 Clear 29 1020 42 10000 3.6 230 12:41 23.08.2019
3187 Clear 29 1020 42 10000 2.6 230 12:21 23.08.2019
3188 Clear 28 1020 42 10000 2.6 230 11:57 23.08.2019
3189 Clear 28 1020 42 10000 1 210 11:39 23.08.2019
3190 Clear 28 1020 47 10000 2.1 0 11:19 23.08.2019
3191 Clear 27 1020 47 10000 2.1 0 10:56 23.08.2019
3192 Clear 27 1020 50 10000 1.5 180 10:38 23.08.2019
3193 Clear 27 1020 57 10000 2.1 130 10:18 23.08.2019
3194 Clear 25 1020 64 10000 1 0 09:43 23.08.2019
3195 Clear 24 1020 56 10000 1 0 09:20 23.08.2019
3196 Clear 22 1020 56 10000 1.5 20 08:45 23.08.2019
3197 Clear 20 1020 59 10000 0.5 80 08:22 23.08.2019
3198 Clear 20 1020 59 10000 0.5 80 07:59 23.08.2019
3199 Clear 19 1019 63 10000 1 0 07:41 23.08.2019
3200 Clear 20 1020 59 10000 1 0 07:22 23.08.2019
3201 Clear 20 1020 55 10000 2.1 360 06:41 23.08.2019
3202 Clear 20 1020 55 10000 2.1 360 06:22 23.08.2019
3203 Clear 20 1020 52 10000 0.5 0 05:45 23.08.2019
3204 Clear 20 1020 52 10000 0.5 0 05:25 23.08.2019
3205 Clear 20 1020 55 10000 1.5 60 03:57 23.08.2019
3206 Clear 21 1020 52 10000 0.5 160 02:39 23.08.2019
3207 Clear 21 1020 49 10000 2.1 50 02:20 23.08.2019
3208 Clear 21 1020 46 10000 1.5 10 01:30 23.08.2019
3209 Clear 22 1021 46 10000 1 0 00:42 23.08.2019
3210 Clear 23 1020 46 10000 2.1 350 00:18 23.08.2019
3211 Clear 23 1020 43 10000 1.5 360 23:43 22.08.2019
3212 Clear 23 1020 43 10000 1.5 360 23:22 22.08.2019
3213 Clear 25 1020 38 10000 2.1 50 22:43 22.08.2019
3214 Clear 25 1020 38 10000 2.1 50 22:43 22.08.2019
3215 Clear 25 1020 38 10000 2.1 50 22:24 22.08.2019
3216 Clear 25 1020 36 10000 2.6 40 21:59 22.08.2019
3217 Clear 25 1020 36 10000 3.6 70 21:41 22.08.2019
3218 Clear 26 1020 36 10000 3.6 70 21:23 22.08.2019
3219 Clear 27 1020 34 10000 4.1 60 20:58 22.08.2019
3220 Clear 27 1019 32 10000 5.1 60 20:40 22.08.2019
3221 Clear 28 1019 32 10000 5.7 70 20:20 22.08.2019
3222 Clear 28 1019 32 10000 5.7 70 19:57 22.08.2019
3223 Clear 28 1019 30 10000 6.7 80 19:39 22.08.2019
3224 Clear 29 1019 30 10000 6.2 80 19:20 22.08.2019
3225 Clear 29 1019 30 10000 6.2 80 18:58 22.08.2019
3226 Clear 30 1019 30 10000 6.2 80 18:39 22.08.2019
3227 Clear 30 1019 30 10000 7.2 80 18:19 22.08.2019
3228 Clear 30 1019 30 10000 7.2 80 17:56 22.08.2019
3229 Clear 30 1019 30 10000 7.7 70 17:38 22.08.2019
3230 Clear 30 1019 30 10000 7.7 70 17:19 22.08.2019
3231 Clear 30 1019 31 10000 7.2 70 16:56 22.08.2019
3232 Clear 30 1019 31 10000 7.2 70 16:37 22.08.2019
3233 Clear 30 1019 33 10000 8.2 80 16:19 22.08.2019
3234 Clear 30 1019 33 10000 8.2 80 16:18 22.08.2019
3235 Clear 30 1019 33 10000 8.2 90 15:42 22.08.2019
3236 Clear 30 1019 33 10000 8.2 90 15:42 22.08.2019
3237 Clear 30 1019 33 10000 8.2 90 15:42 22.08.2019
3238 Clear 30 1019 33 10000 7.2 80 15:23 22.08.2019
3239 Clear 30 1019 33 10000 7.2 80 14:58 22.08.2019
3240 Clear 30 1019 33 10000 7.2 80 14:58 22.08.2019
3241 Clear 30 1019 31 10000 7.7 80 14:40 22.08.2019
3242 Clear 30 1020 33 10000 7.7 80 14:21 22.08.2019
3243 Clear 30 1020 33 10000 7.7 80 13:57 22.08.2019
3244 Clear 30 1020 37 10000 6.7 70 13:39 22.08.2019
3245 Clear 30 1020 40 10000 6.7 70 13:19 22.08.2019
3246 Clear 29 1020 33 10000 3.6 70 12:56 22.08.2019
3247 Clear 29 1020 33 10000 3.6 70 12:37 22.08.2019
3248 Clear 29 1020 37 10000 1.5 340 12:19 22.08.2019
3249 Clear 28 1020 37 10000 1.5 0 11:42 22.08.2019
3250 Clear 28 1020 42 10000 2.1 20 11:20 22.08.2019
3251 Clear 28 1020 42 10000 2.1 20 10:58 22.08.2019
3252 Clear 27 1020 42 10000 1 0 10:40 22.08.2019
3253 Clear 27 1020 44 10000 1.5 230 10:21 22.08.2019
3254 Clear 26 1020 44 10000 1.5 230 09:56 22.08.2019
3255 Clear 25 1020 50 10000 0.5 0 09:38 22.08.2019
3256 Clear 23 1020 60 10000 1 340 09:20 22.08.2019
3257 Clouds 23 1019 73 10000 0.5 0 08:54 22.08.2019
3258 Clouds 22 1019 73 10000 0.5 0 08:36 22.08.2019
3259 Clear 21 1019 88 10000 0.5 0 08:18 22.08.2019
3260 Clear 19 1018 93 10000 1 0 07:39 22.08.2019
3261 Clear 19 1019 68 10000 1 0 07:19 22.08.2019
3262 Clear 19 1019 68 10000 1.5 340 06:47 22.08.2019
3263 Clear 19 1019 68 10000 1.5 10 06:22 22.08.2019
3264 Clear 20 1019 68 10000 2.1 320 05:30 22.08.2019
3265 Clear 21 1019 68 10000 1 40 04:20 22.08.2019
3266 Clear 21 1019 68 10000 2.1 350 02:38 22.08.2019
3267 Clear 22 1019 64 10000 1.5 30 01:45 22.08.2019
3268 Clear 22 1020 64 10000 2.1 30 01:21 22.08.2019
3269 Clear 22 1020 60 10000 1.5 50 00:41 22.08.2019
3270 Clear 23 1020 60 10000 0.5 0 00:22 22.08.2019
3271 Clear 23 1020 60 10000 2.1 340 23:48 21.08.2019
3272 Clear 23 1020 60 10000 2.1 340 23:29 21.08.2019
3273 Clear 23 1020 60 10000 0.5 0 22:59 21.08.2019
3274 Clear 23 1020 57 10000 2.1 100 22:41 21.08.2019
3275 Clear 23 1020 57 10000 2.1 100 22:41 21.08.2019
3276 Clear 24 1019 57 10000 2.6 90 22:21 21.08.2019
3277 Clear 24 1019 57 10000 2.6 90 21:58 21.08.2019
3278 Clear 25 1019 53 10000 3.6 90 21:38 21.08.2019
3279 Clear 25 1019 53 10000 4.6 80 21:20 21.08.2019
3280 Clear 25 1019 53 10000 4.6 80 20:58 21.08.2019
3281 Clear 26 1019 61 10000 2.6 200 20:40 21.08.2019
3282 Clear 26 1018 57 10000 3.6 210 20:22 21.08.2019
3283 Clear 27 1018 54 10000 3.1 200 19:55 21.08.2019
3284 Clear 27 1018 54 10000 3.1 200 19:36 21.08.2019
3285 Clear 27 1018 51 10000 4.6 210 19:18 21.08.2019
3286 Clear 27 1018 57 10000 5.7 210 18:41 21.08.2019
3287 Clear 27 1018 51 10000 5.7 210 18:22 21.08.2019
3288 Clear 28 1018 51 10000 6.7 220 17:54 21.08.2019
3289 Clear 28 1018 51 10000 6.7 220 17:36 21.08.2019
3290 Clear 29 1018 42 10000 6.2 210 17:18 21.08.2019
3291 Clear 29 1019 40 10000 3.6 60 16:42 21.08.2019
3292 Clear 29 1019 40 10000 3.6 60 16:23 21.08.2019
3293 Clear 29 1019 40 10000 3.6 70 15:59 21.08.2019
3294 Clear 29 1019 40 10000 3.1 70 15:41 21.08.2019
3295 Clear 29 1019 42 10000 4.6 80 15:21 21.08.2019
3296 Clear 29 1019 42 10000 4.6 80 14:57 21.08.2019
3297 Clear 29 1019 42 10000 4.6 80 14:57 21.08.2019
3298 Clear 29 1020 39 10000 4.6 80 14:39 21.08.2019
3299 Clear 29 1020 42 10000 5.7 100 14:20 21.08.2019
3300 Clear 29 1020 42 10000 5.7 100 13:55 21.08.2019
3301 Clear 28 1020 39 10000 5.7 90 13:37 21.08.2019
3302 Clear 28 1020 42 10000 5.7 80 13:18 21.08.2019
3303 Clear 28 1020 42 10000 6.2 80 12:41 21.08.2019
3304 Clear 28 1020 42 10000 6.2 80 12:41 21.08.2019
3305 Clear 28 1020 42 10000 6.2 80 12:22 21.08.2019
3306 Clear 27 1020 42 10000 6.2 80 11:59 21.08.2019
3307 Clear 27 1020 44 10000 7.2 70 11:40 21.08.2019
3308 Clear 27 1020 44 10000 7.2 70 11:22 21.08.2019
3309 Clear 26 1021 44 10000 6.7 70 10:56 21.08.2019
3310 Clear 26 1021 44 10000 6.7 70 10:38 21.08.2019
3311 Clear 26 1021 47 10000 7.2 60 10:19 21.08.2019
3312 Clear 25 1021 47 10000 7.2 60 09:55 21.08.2019
3313 Clear 25 1021 53 10000 7.2 60 09:37 21.08.2019
3314 Clear 25 1021 57 10000 4.6 50 09:18 21.08.2019
3315 Clear 23 1021 60 10000 4.1 50 08:42 21.08.2019
3316 Clear 23 1021 68 10000 2.6 10 08:23 21.08.2019
3317 Clear 22 1021 64 10000 2.6 30 07:42 21.08.2019
3318 Clear 22 1021 64 10000 2.6 30 07:23 21.08.2019
3319 Clear 22 1020 68 10000 4.1 50 06:50 21.08.2019
3320 Clear 23 1020 64 10000 5.7 50 06:24 21.08.2019
3321 Clear 23 1020 64 10000 5.1 50 05:46 21.08.2019
3322 Clear 23 1020 64 10000 5.1 50 05:23 21.08.2019
3323 Clear 23 1020 69 10000 5.7 50 03:39 21.08.2019
3324 Clear 23 1021 60 10000 4.6 60 01:51 21.08.2019
3325 Clear 23 1021 60 10000 4.6 60 01:23 21.08.2019
3326 Clear 24 1021 64 10000 3.1 30 00:38 21.08.2019
3327 Clouds 24 1021 64 10000 4.1 60 00:18 21.08.2019
3328 Clear 24 1020 69 10000 7.2 60 23:43 20.08.2019
3329 Clear 24 1020 69 10000 6.2 50 23:19 20.08.2019
3330 Clear 24 1020 69 10000 6.2 50 22:58 20.08.2019
3331 Clouds 24 1020 69 10000 6.7 50 22:39 20.08.2019
3332 Clouds 24 1020 69 10000 6.7 50 22:21 20.08.2019
3333 Clouds 24 1020 69 10000 7.7 60 21:57 20.08.2019
3334 Clouds 24 1020 69 10000 6.2 50 21:57 20.08.2019
3335 Clouds 24 1020 69 10000 7.7 60 21:38 20.08.2019
3336 Clouds 24 1020 69 10000 7.7 60 21:38 20.08.2019
3337 Rain 25 1019 65 10000 8.2 60 21:19 20.08.2019
3338 Rain 25 1019 65 10000 8.2 60 21:19 20.08.2019
3339 Rain 25 1019 65 10000 8.2 50 20:56 20.08.2019
3340 Rain 25 1019 65 10000 8.2 50 20:36 20.08.2019
3341 Rain 25 1019 65 10000 8.2 50 20:36 20.08.2019
3342 Rain 25 1019 65 10000 11.3 60 20:18 20.08.2019
3343 Rain 25 1018 65 10000 11.3 60 19:39 20.08.2019
3344 Rain 25 1018 69 10000 10.3 60 19:21 20.08.2019
3345 Rain 25 1018 69 10000 10.3 60 18:56 20.08.2019
3346 Clouds 26 1017 69 10000 12.3 70 18:38 20.08.2019
3347 Clear 26 1018 61 10000 11.8 60 18:19 20.08.2019
3348 Clouds 27 1017 65 10000 11.8 70 17:55 20.08.2019
3349 Clear 27 1018 58 10000 10.3 60 17:37 20.08.2019
3350 Clear 28 1018 61 10000 10.8 60 17:19 20.08.2019
3351 Clear 28 1018 61 10000 10.8 60 17:19 20.08.2019
3352 Clear 28 1018 58 10000 11.3 70 16:43 20.08.2019
3353 Clouds 29 1017 66 10000 12.9 70 16:24 20.08.2019
3354 Rain 29 1017 55 10000 9.8 70 15:43 20.08.2019
3355 Clouds 30 1017 55 10000 9.3 70 15:19 20.08.2019
3356 Clouds 29 1016 55 10000 9.3 60 14:59 20.08.2019
3357 Clouds 29 1017 58 10000 8.2 80 14:40 20.08.2019
3358 Clouds 30 1016 59 10000 8.7 60 14:21 20.08.2019
3359 Clouds 30 1017 55 10000 6.2 60 14:21 20.08.2019
3360 Clouds 30 1016 59 10000 7.2 50 13:56 20.08.2019
3361 Clouds 30 1017 52 10000 5.1 70 13:37 20.08.2019
3362 Clear 30 1017 52 10000 5.7 70 13:19 20.08.2019
3363 Clear 30 1017 55 10000 5.1 50 12:50 20.08.2019
3364 Clear 30 1017 55 10000 5.1 50 12:26 20.08.2019
3365 Clouds 30 1017 55 10000 3.1 80 11:58 20.08.2019
3366 Clouds 30 1016 58 10000 4.1 80 11:58 20.08.2019
3367 Clouds 30 1017 51 10000 4.1 100 11:38 20.08.2019
3368 Clouds 29 1016 58 10000 4.6 80 11:18 20.08.2019
3369 Clouds 29 1017 61 10000 4.1 70 10:57 20.08.2019
3370 Clouds 29 1016 66 10000 4.1 70 10:57 20.08.2019
3371 Clear 29 1017 61 10000 5.1 70 10:38 20.08.2019
3372 Clouds 29 1017 69 10000 4.1 70 10:19 20.08.2019
3373 Clouds 28 1017 69 10000 4.1 60 09:43 20.08.2019
3374 Clouds 26 1015 88 10000 3.6 60 09:25 20.08.2019
3375 Clear 26 1016 74 10000 2.1 30 08:57 20.08.2019
3376 Clear 25 1016 78 10000 2.1 30 08:39 20.08.2019
3377 Clouds 24 1015 100 10000 2.1 80 08:20 20.08.2019
3378 Clouds 25 1015 100 10000 2.6 80 07:56 20.08.2019
3379 Clear 24 1016 78 10000 3.1 50 07:37 20.08.2019
3380 Clouds 24 1015 100 10000 2.6 80 07:18 20.08.2019
3381 Clear 24 1016 83 10000 3.1 60 07:18 20.08.2019
3382 Clear 24 1016 83 10000 2.1 70 06:28 20.08.2019
3383 Clouds 25 1015 100 10000 2.1 100 05:58 20.08.2019
3384 Clear 25 1016 83 10000 2.1 40 05:38 20.08.2019
3385 Clouds 25 1015 100 10000 2.6 70 04:21 20.08.2019
3386 Clouds 25 1015 100 10000 2.6 60 02:47 20.08.2019
3387 Clouds 25 1016 100 10000 2.1 60 01:45 20.08.2019
3388 Clear 25 1017 83 10000 1.5 100 01:20 20.08.2019
3389 Clear 25 1017 83 10000 1 0 00:43 20.08.2019
3390 Clear 26 1016 100 10000 1.5 100 00:21 20.08.2019
3391 Clear 26 1017 78 10000 2.6 100 23:42 19.08.2019
3392 Clear 27 1017 74 10000 2.1 100 23:19 19.08.2019
3393 Clear 27 1017 74 10000 2.1 100 23:19 19.08.2019
3394 Clear 27 1017 74 10000 2.1 100 22:58 19.08.2019
3395 Clear 27 1016 78 10000 1.5 100 22:39 19.08.2019
3396 Clear 27 1015 78 10000 2.1 140 22:19 19.08.2019
3397 Clear 27 1016 78 10000 1.5 260 21:56 19.08.2019
3398 Clear 27 1016 78 10000 2.1 290 21:38 19.08.2019
3399 Clear 28 1015 74 10000 3.1 240 21:19 19.08.2019
3400 Clear 28 1015 74 10000 4.6 230 20:40 19.08.2019
3401 Clear 28 1015 70 10000 4.6 230 20:21 19.08.2019
3402 Clear 30 1015 70 10000 4.6 230 19:59 19.08.2019
3403 Clear 30 1015 66 10000 5.1 230 19:41 19.08.2019
3404 Clear 30 1015 66 10000 5.1 230 19:19 19.08.2019
3405 Clear 30 1015 66 10000 5.1 230 19:19 19.08.2019
3406 Clear 30 1015 66 10000 5.1 230 19:19 19.08.2019
3407 Clear 32 1014 55 10000 3.6 170 18:59 19.08.2019
3408 Clear 31 1015 55 10000 6.2 200 18:40 19.08.2019
3409 Clear 31 1015 58 10000 7.2 220 18:21 19.08.2019
3410 Clear 31 1014 70 10000 4.6 170 17:56 19.08.2019
3411 Clear 32 1015 62 10000 7.2 230 17:37 19.08.2019
3412 Clear 32 1014 66 10000 5.7 180 17:19 19.08.2019
3413 Clear 33 1015 62 10000 7.7 230 16:54 19.08.2019
3414 Clear 33 1015 62 10000 7.7 230 16:36 19.08.2019
3415 Clear 34 1015 62 10000 7.2 240 16:18 19.08.2019
3416 Clear 33 1015 62 10000 7.7 220 15:43 19.08.2019
3417 Clear 33 1016 59 10000 7.2 220 15:19 19.08.2019
3418 Clear 32 1016 62 10000 6.7 220 14:44 19.08.2019
3419 Clear 33 1016 62 10000 6.7 220 14:24 19.08.2019
3420 Clear 32 1016 66 10000 6.2 220 13:58 19.08.2019
3421 Clear 32 1016 66 10000 6.2 220 13:40 19.08.2019
3422 Clear 31 1016 66 10000 5.7 220 13:20 19.08.2019
3423 Clear 32 1016 58 10000 4.1 200 12:58 19.08.2019
3424 Clear 32 1016 58 10000 4.1 200 12:40 19.08.2019
3425 Clear 32 1015 46 10000 2.1 0 12:20 19.08.2019
3426 Clear 32 1015 45 10000 2.1 0 11:41 19.08.2019
3427 Clear 31 1015 55 10000 1.5 0 11:23 19.08.2019
3428 Clear 31 1015 55 10000 1.5 0 10:58 19.08.2019
3429 Clear 30 1015 51 10000 1 200 10:39 19.08.2019
3430 Clear 30 1015 51 10000 1 0 10:19 19.08.2019
3431 Clear 28 1015 51 10000 1.5 30 09:54 19.08.2019
3432 Clear 28 1015 51 10000 1.5 30 09:36 19.08.2019
3433 Clear 26 1015 47 10000 2.1 360 09:18 19.08.2019
3434 Clear 24 1015 50 10000 2.1 10 08:42 19.08.2019
3435 Clear 24 1014 49 10000 3.1 340 08:21 19.08.2019
3436 Clear 23 1014 49 10000 3.1 340 07:52 19.08.2019
3437 Clear 22 1014 53 10000 1.5 360 07:34 19.08.2019
3438 Clear 22 1014 49 10000 1 0 06:59 19.08.2019
3439 Clear 22 1014 49 10000 1 0 06:36 19.08.2019
3440 Clear 22 1014 49 10000 1 0 06:36 19.08.2019
3441 Clear 23 1014 46 10000 2.6 340 05:27 19.08.2019
3442 Clear 23 1014 49 10000 2.1 340 04:33 19.08.2019
3443 Clear 24 1014 53 10000 2.1 350 03:26 19.08.2019
3444 Clear 25 1014 57 10000 2.1 330 02:30 19.08.2019
3445 Clear 25 1015 61 10000 1 0 01:37 19.08.2019
3446 Clear 26 1014 65 10000 1.5 100 00:49 19.08.2019
3447 Clear 27 1014 57 10000 1.5 100 00:24 19.08.2019
3448 Clear 27 1014 57 10000 1.5 100 23:57 18.08.2019
3449 Clear 27 1014 54 10000 2.1 160 23:37 18.08.2019
3450 Clear 27 1014 54 10000 1 0 23:19 18.08.2019
3451 Clear 28 1013 51 10000 1 0 22:40 18.08.2019
3452 Clear 28 1013 54 10000 1 0 22:21 18.08.2019
3453 Clear 29 1013 54 10000 1 0 21:57 18.08.2019
3454 Clear 30 1013 54 10000 1.5 220 21:39 18.08.2019
3455 Clear 31 1013 51 10000 1.5 240 21:20 18.08.2019
3456 Clear 32 1013 51 10000 1.5 240 20:54 18.08.2019
3457 Clear 32 1012 48 10000 2.6 260 20:36 18.08.2019
3458 Clear 33 1012 48 10000 3.1 230 20:18 18.08.2019
3459 Clear 34 1012 46 10000 5.1 230 19:41 18.08.2019
3460 Clear 34 1012 46 10000 5.1 230 19:23 18.08.2019
3461 Clear 34 1012 49 10000 5.1 230 18:56 18.08.2019
3462 Clear 34 1012 49 10000 5.7 230 18:38 18.08.2019
3463 Clear 34 1013 49 10000 5.7 230 18:20 18.08.2019
3464 Clear 32 1013 49 10000 5.7 230 17:54 18.08.2019
3465 Clear 33 1013 43 10000 6.2 220 17:36 18.08.2019
3466 Clear 33 1013 43 10000 5.1 240 17:18 18.08.2019
3467 Clear 32 1013 41 10000 6.2 230 16:43 18.08.2019
3468 Clear 36 1013 41 10000 6.2 230 16:23 18.08.2019
3469 Clear 34 1013 41 10000 6.2 230 15:59 18.08.2019
3470 Clear 35 1013 41 10000 6.2 230 15:39 18.08.2019
3471 Clear 34 1014 41 10000 6.2 230 15:20 18.08.2019
3472 Clear 34 1014 41 10000 6.2 230 14:57 18.08.2019
3473 Clear 35 1014 38 10000 6.2 220 14:38 18.08.2019
3474 Clear 34 1014 43 10000 5.1 220 14:19 18.08.2019
3475 Clear 33 1014 43 10000 4.6 220 13:56 18.08.2019
3476 Clear 33 1014 43 10000 4.6 220 13:38 18.08.2019
3477 Clear 33 1014 38 10000 2.1 0 13:19 18.08.2019
3478 Clear 34 1014 38 10000 1.5 170 12:45 18.08.2019
3479 Clear 33 1014 36 10000 2.1 160 12:22 18.08.2019
3480 Clear 33 1014 36 10000 2.1 160 11:56 18.08.2019
3481 Clear 32 1014 35 10000 1 0 11:37 18.08.2019
3482 Clear 31 1014 43 10000 1 0 11:19 18.08.2019
3483 Clear 30 1014 43 10000 1 0 10:41 18.08.2019
3484 Clear 30 1014 43 10000 1 0 10:41 18.08.2019
3485 Clear 29 1014 58 10000 0.5 50 10:22 18.08.2019
3486 Clear 29 1014 58 10000 0.5 50 09:55 18.08.2019
3487 Clear 26 1014 57 10000 2.6 340 09:36 18.08.2019
3488 Clear 24 1014 60 10000 2.1 350 09:18 18.08.2019
3489 Clear 23 1014 60 10000 2.6 360 08:42 18.08.2019
3490 Clear 23 1014 60 10000 2.6 360 08:24 18.08.2019
3491 Clear 22 1014 68 10000 2.6 20 07:49 18.08.2019
3492 Clear 22 1014 68 10000 2.6 20 07:29 18.08.2019
3493 Clear 23 1014 83 10000 2.6 30 05:50 18.08.2019
3494 Clear 23 1015 83 10000 2.6 20 04:55 18.08.2019
3495 Clear 24 1015 78 10000 2.1 360 03:44 18.08.2019
3496 Clear 24 1016 88 10000 1 0 02:49 18.08.2019
3497 Clear 23 1016 88 10000 1 0 02:26 18.08.2019
3498 Clear 25 1016 78 10000 1 60 01:47 18.08.2019
3499 Clear 25 1015 78 10000 2.1 80 01:22 18.08.2019
3500 Clear 25 1016 78 10000 1 0 00:40 18.08.2019
3501 Clear 26 1015 74 10000 1.5 130 00:19 18.08.2019
3502 Clear 27 1015 74 10000 1.5 130 23:57 17.08.2019
3503 Clear 27 1016 74 10000 1.5 90 23:37 17.08.2019
3504 Clear 28 1015 69 10000 1.5 110 23:19 17.08.2019
3505 Clear 28 1015 69 10000 1.5 110 23:19 17.08.2019
3506 Clear 28 1015 69 10000 1.5 110 22:56 17.08.2019
3507 Clear 28 1015 69 10000 1 0 22:38 17.08.2019
3508 Clear 28 1015 74 10000 2.1 230 22:20 17.08.2019
3509 Clear 29 1015 74 10000 2.1 240 21:43 17.08.2019
3510 Clear 29 1015 69 10000 2.6 230 21:24 17.08.2019
3511 Clear 29 1015 69 10000 2.6 230 20:57 17.08.2019
3512 Clear 29 1015 74 10000 3.6 240 20:37 17.08.2019
3513 Clear 31 1015 69 10000 4.1 230 20:18 17.08.2019
3514 Clear 31 1015 66 10000 4.6 230 19:43 17.08.2019
3515 Clear 31 1015 66 10000 4.6 230 19:24 17.08.2019
3516 Clear 31 1016 66 10000 5.7 230 18:58 17.08.2019
3517 Clear 30 1016 58 10000 5.7 220 18:38 17.08.2019
3518 Clear 31 1016 66 10000 6.2 230 18:18 17.08.2019
3519 Clear 31 1016 66 10000 6.2 230 18:18 17.08.2019
3520 Clear 32 1016 62 10000 6.7 220 17:43 17.08.2019
3521 Clear 32 1016 62 10000 6.7 220 17:22 17.08.2019
3522 Clear 32 1016 62 10000 6.7 220 16:59 17.08.2019
3523 Clear 32 1016 62 10000 6.7 220 16:40 17.08.2019
3524 Clear 33 1017 55 10000 7.7 220 16:22 17.08.2019
3525 Clear 31 1017 55 10000 7.7 220 15:55 17.08.2019
3526 Clear 31 1017 48 10000 7.7 210 15:37 17.08.2019
3527 Clear 33 1017 52 10000 7.2 220 15:19 17.08.2019
3528 Clear 32 1017 55 10000 6.7 230 14:40 17.08.2019
3529 Clear 32 1017 51 10000 6.7 220 14:22 17.08.2019
3530 Clear 32 1017 58 10000 6.2 220 13:46 17.08.2019
3531 Clear 31 1017 51 10000 4.6 210 13:21 17.08.2019
3532 Clear 32 1017 51 10000 4.6 210 12:57 17.08.2019
3533 Clear 32 1017 43 10000 2.6 150 12:39 17.08.2019
3534 Clear 31 1018 40 10000 2.1 130 12:18 17.08.2019
3535 Clear 31 1018 51 10000 1 0 11:43 17.08.2019
3536 Clear 30 1018 51 10000 1 0 11:21 17.08.2019
3537 Clear 28 1018 45 10000 1.5 80 10:56 17.08.2019
3538 Clear 28 1018 58 10000 1.5 40 10:38 17.08.2019
3539 Clear 27 1018 69 10000 1.5 160 10:18 17.08.2019
3540 Clear 26 1018 69 10000 1.5 360 09:44 17.08.2019
3541 Clear 25 1018 69 10000 1.5 360 09:26 17.08.2019
3542 Clear 24 1017 68 10000 1.5 340 08:54 17.08.2019
3543 Clear 22 1017 68 10000 1.5 340 08:25 17.08.2019
3544 Clear 21 1017 68 10000 2.6 350 07:46 17.08.2019
3545 Clear 21 1017 68 10000 2.6 350 07:21 17.08.2019
3546 Clear 22 1017 73 10000 2.6 340 06:53 17.08.2019
3547 Clear 21 1017 83 10000 1.5 340 05:32 17.08.2019
3548 Clear 22 1018 78 10000 2.1 20 04:29 17.08.2019
3549 Clear 23 1018 78 10000 2.1 350 03:20 17.08.2019
3550 Clear 24 1018 78 10000 1.5 330 01:47 17.08.2019
3551 Clear 24 1018 78 10000 1.5 330 01:28 17.08.2019
3552 Clear 24 1018 78 10000 0.5 0 00:55 17.08.2019
3553 Clear 25 1018 78 10000 0.5 0 00:31 17.08.2019
3554 Clear 25 1018 83 10000 0.5 0 23:52 16.08.2019
3555 Clear 25 1018 78 10000 0.5 0 23:27 16.08.2019
3556 Clear 25 1018 78 10000 1.5 210 22:57 16.08.2019
3557 Clear 25 1018 78 10000 2.6 230 22:39 16.08.2019
3558 Clear 26 1018 78 10000 3.1 220 22:19 16.08.2019
3559 Clear 26 1018 78 10000 3.1 220 22:19 16.08.2019
3560 Clear 26 1017 74 10000 3.6 220 21:42 16.08.2019
3561 Clear 26 1017 69 10000 3.6 210 21:21 16.08.2019
3562 Clear 27 1017 65 10000 4.1 210 20:58 16.08.2019
3563 Clear 27 1017 65 10000 4.1 210 20:39 16.08.2019
3564 Clear 27 1017 61 10000 5.1 200 20:19 16.08.2019
3565 Clear 27 1017 61 10000 5.1 200 19:44 16.08.2019
3566 Clear 28 1017 61 10000 5.1 200 19:23 16.08.2019
3567 Clear 29 1017 65 10000 5.7 210 18:59 16.08.2019
3568 Clear 28 1017 61 10000 6.2 210 18:41 16.08.2019
3569 Clear 30 1018 61 10000 6.7 210 18:22 16.08.2019
3570 Clear 29 1018 58 10000 7.2 210 17:44 16.08.2019
3571 Clear 29 1018 58 10000 7.2 210 17:25 16.08.2019
3572 Clear 31 1018 54 10000 6.7 210 16:56 16.08.2019
3573 Clear 31 1018 54 10000 6.7 210 16:38 16.08.2019
3574 Clear 31 1018 51 10000 7.2 220 16:18 16.08.2019
3575 Clear 31 1018 51 10000 7.2 220 15:54 16.08.2019
3576 Clear 30 1019 54 10000 6.7 220 15:36 16.08.2019
3577 Clear 31 1019 48 10000 6.2 220 15:18 16.08.2019
3578 Clear 31 1019 51 10000 5.7 220 14:41 16.08.2019
3579 Clear 30 1019 58 10000 6.2 220 14:19 16.08.2019
3580 Clear 30 1019 58 10000 6.2 220 14:19 16.08.2019
3581 Clear 30 1019 58 10000 6.2 220 13:59 16.08.2019
3582 Clear 30 1020 58 10000 5.7 220 13:38 16.08.2019
3583 Clear 30 1020 54 10000 5.1 220 13:20 16.08.2019
3584 Clear 30 1020 51 10000 1.5 150 12:39 16.08.2019
3585 Clear 30 1020 48 10000 1.5 80 12:20 16.08.2019
3586 Clear 28 1020 54 10000 1 70 11:43 16.08.2019
3587 Clear 27 1020 54 10000 1 70 11:24 16.08.2019
3588 Clear 27 1020 54 10000 1 70 11:24 16.08.2019
3589 Clear 27 1020 61 10000 0.5 70 10:59 16.08.2019
3590 Clear 26 1020 65 10000 1.5 0 10:41 16.08.2019
3591 Clear 26 1020 65 10000 2.1 80 10:18 16.08.2019
3592 Clear 26 1020 69 10000 2.6 40 09:38 16.08.2019
3593 Clear 25 1020 73 10000 1.5 20 09:19 16.08.2019
3594 Clear 24 1020 73 10000 1.5 20 08:57 16.08.2019
3595 Clear 24 1020 78 10000 1.5 360 08:38 16.08.2019
3596 Clear 23 1019 78 10000 1.5 340 08:19 16.08.2019
3597 Clear 22 1019 78 10000 1 0 07:44 16.08.2019
3598 Clear 22 1019 78 10000 1 360 07:25 16.08.2019
3599 Clear 22 1019 78 10000 1 350 06:43 16.08.2019
3600 Clear 22 1019 78 10000 1.5 30 06:18 16.08.2019
3601 Clear 22 1019 78 10000 1.5 30 05:33 16.08.2019
3602 Clear 23 1020 69 10000 2.1 320 03:20 16.08.2019
3603 Clear 23 1020 73 10000 2.1 340 01:52 16.08.2019
3604 Clear 23 1020 73 10000 1 90 01:25 16.08.2019
3605 Clear 24 1020 69 10000 1.5 90 00:50 16.08.2019
3606 Clear 25 1020 69 10000 1 80 00:23 16.08.2019
3607 Clear 25 1020 69 10000 0.5 240 23:57 15.08.2019
3608 Clear 25 1020 69 10000 0.5 240 23:39 15.08.2019
3609 Clear 25 1020 69 10000 1 0 23:18 15.08.2019
3610 Clear 25 1019 73 10000 1.5 190 22:41 15.08.2019
3611 Clear 26 1019 73 10000 1.5 190 22:23 15.08.2019
3612 Clear 26 1019 69 10000 2.6 210 21:58 15.08.2019
3613 Clear 26 1019 69 10000 2.6 210 21:39 15.08.2019
3614 Clear 26 1019 69 10000 2.6 210 21:39 15.08.2019
3615 Clear 27 1019 65 10000 3.1 220 21:20 15.08.2019
3616 Clear 27 1019 65 10000 3.1 220 20:58 15.08.2019
3617 Clear 27 1019 61 10000 3.6 220 20:40 15.08.2019
3618 Clear 28 1019 65 10000 3.6 210 20:21 15.08.2019
3619 Clear 27 1019 65 10000 4.1 210 19:40 15.08.2019
3620 Clear 27 1019 65 10000 4.6 210 19:22 15.08.2019
3621 Clear 28 1019 65 10000 4.6 210 18:59 15.08.2019
3622 Clear 28 1019 61 10000 5.1 210 18:41 15.08.2019
3623 Clear 29 1019 61 10000 6.2 210 18:21 15.08.2019
3624 Clear 29 1019 61 10000 6.2 210 17:55 15.08.2019
3625 Clear 29 1019 61 10000 6.7 200 17:37 15.08.2019
3626 Clear 29 1019 58 10000 6.2 200 17:19 15.08.2019
3627 Clear 29 1019 61 10000 7.2 210 16:47 15.08.2019
3628 Clear 29 1019 61 10000 7.2 210 16:25 15.08.2019
3629 Clear 29 1019 58 10000 7.2 210 15:56 15.08.2019
3630 Clear 29 1019 58 10000 7.2 210 15:38 15.08.2019
3631 Clear 30 1019 51 10000 6.7 210 15:18 15.08.2019
3632 Clear 30 1020 51 10000 6.7 220 14:42 15.08.2019
3633 Clear 30 1020 51 10000 6.7 220 14:42 15.08.2019
3634 Clear 30 1020 51 10000 6.7 220 14:23 15.08.2019
3635 Clear 29 1020 54 10000 6.2 210 13:57 15.08.2019
3636 Clear 29 1020 62 10000 6.2 210 13:39 15.08.2019
3637 Clear 29 1020 61 10000 5.7 210 13:20 15.08.2019
3638 Clear 29 1020 61 10000 5.7 210 13:20 15.08.2019
3639 Clear 30 1020 61 10000 5.7 210 12:56 15.08.2019
3640 Clear 30 1020 58 10000 3.6 220 12:38 15.08.2019
3641 Clear 29 1020 58 10000 2.1 210 12:18 15.08.2019
3642 Clear 29 1020 58 10000 2.1 210 11:57 15.08.2019
3643 Clear 29 1020 61 10000 2.1 220 11:36 15.08.2019
3644 Clear 29 1020 65 10000 2.1 0 11:18 15.08.2019
3645 Clear 28 1020 65 10000 1 0 10:39 15.08.2019
3646 Clear 28 1020 65 10000 1 0 10:20 15.08.2019
3647 Clear 27 1020 69 10000 1 0 09:58 15.08.2019
3648 Clear 26 1020 73 10000 1.5 40 09:39 15.08.2019
3649 Clear 23 1020 73 10000 1 0 09:21 15.08.2019
3650 Clear 23 1020 73 10000 1.5 350 08:38 15.08.2019
3651 Fog 22 1019 82 10000 1.5 350 08:19 15.08.2019
3652 Clear 20 1019 82 10000 1 350 07:46 15.08.2019
3653 Clear 20 1019 82 10000 1 350 07:46 15.08.2019
3654 Clear 20 1019 82 10000 1 350 07:28 15.08.2019
3655 Clear 20 1019 77 10000 1.5 360 06:57 15.08.2019
3656 Clear 21 1019 77 10000 2.1 350 06:39 15.08.2019
3657 Clear 21 1019 77 10000 1.5 340 06:20 15.08.2019
3658 Clear 21 1019 77 10000 2.1 350 05:29 15.08.2019
3659 Clear 21 1019 77 10000 1 0 04:50 15.08.2019
3660 Clear 22 1019 78 10000 1.5 10 03:48 15.08.2019
3661 Clear 23 1020 78 10000 2.1 330 02:47 15.08.2019
3662 Clear 22 1020 78 10000 2.1 340 02:18 15.08.2019
3663 Clear 23 1020 73 10000 1.5 320 01:38 15.08.2019
3664 Clear 23 1019 78 10000 1 230 00:42 15.08.2019
3665 Clear 24 1019 78 10000 1 230 00:22 15.08.2019
3666 Clear 24 1019 73 10000 1.5 190 23:59 14.08.2019
3667 Clear 24 1019 69 10000 2.1 240 23:40 14.08.2019
3668 Clear 25 1019 69 10000 2.1 210 23:20 14.08.2019
3669 Clear 25 1019 69 10000 2.1 210 22:59 14.08.2019
3670 Clear 25 1019 73 10000 2.6 220 22:40 14.08.2019
3671 Clear 25 1019 69 10000 4.1 240 22:22 14.08.2019
3672 Clear 25 1019 69 10000 4.1 240 21:57 14.08.2019
3673 Clear 26 1019 65 10000 5.1 240 21:38 14.08.2019
3674 Clear 26 1018 65 10000 5.1 220 21:20 14.08.2019
3675 Clear 26 1018 65 10000 5.1 220 20:56 14.08.2019
3676 Clear 26 1018 69 10000 6.2 210 20:37 14.08.2019
3677 Clear 27 1018 65 10000 6.7 210 20:18 14.08.2019
3678 Clear 27 1018 65 10000 6.7 210 19:40 14.08.2019
3679 Clear 28 1018 65 10000 8.2 220 19:22 14.08.2019
3680 Clear 28 1018 58 10000 8.2 220 18:57 14.08.2019
3681 Clear 28 1018 58 10000 8.2 220 18:39 14.08.2019
3682 Clear 28 1018 58 10000 8.7 210 18:21 14.08.2019
3683 Clear 28 1018 58 10000 8.7 210 17:59 14.08.2019
3684 Clear 28 1018 57 10000 8.7 210 17:38 14.08.2019
3685 Clear 28 1018 57 10000 8.7 210 17:38 14.08.2019
3686 Clear 28 1019 54 10000 8.7 210 17:20 14.08.2019
3687 Clear 28 1019 54 10000 8.7 210 16:56 14.08.2019
3688 Clear 29 1019 54 10000 8.7 220 16:38 14.08.2019
3689 Clear 29 1019 54 10000 9.3 210 16:18 14.08.2019
3690 Clear 29 1019 54 10000 9.3 210 16:18 14.08.2019
3691 Clear 29 1019 54 10000 9.3 210 15:43 14.08.2019
3692 Clear 29 1019 58 10000 9.8 210 15:18 14.08.2019
3693 Clear 29 1019 58 10000 9.8 210 14:55 14.08.2019
3694 Clear 29 1019 51 10000 9.8 210 14:36 14.08.2019
3695 Clear 29 1019 51 10000 9.8 210 14:36 14.08.2019
3696 Clear 29 1019 54 10000 9.8 210 14:18 14.08.2019
3697 Clear 28 1020 61 10000 9.3 210 13:43 14.08.2019
3698 Clear 28 1020 61 10000 8.2 220 13:24 14.08.2019
3699 Clear 28 1020 61 10000 8.2 220 12:57 14.08.2019
3700 Clear 28 1020 54 10000 7.7 210 12:38 14.08.2019
3701 Clear 28 1020 54 10000 7.7 210 12:38 14.08.2019
3702 Clear 28 1020 58 10000 6.2 210 12:20 14.08.2019
3703 Clear 27 1020 61 10000 5.1 190 11:55 14.08.2019
3704 Clear 27 1020 61 10000 5.1 190 11:37 14.08.2019
3705 Clear 27 1020 61 10000 3.1 220 11:19 14.08.2019
3706 Clear 27 1020 48 0 3.79 238.741 10:42 14.08.2019
3707 Clear 27 1020 48 0 3.79 238.741 10:24 14.08.2019
3708 Clear 25 1020 65 10000 2.1 210 09:57 14.08.2019
3709 Clear 25 1020 64 10000 1 0 09:38 14.08.2019
3710 Clear 22 1020 73 10000 1.5 350 09:19 14.08.2019
3711 Clear 21 1020 77 10000 2.1 340 08:39 14.08.2019
3712 Clear 20 1020 77 10000 2.1 340 08:21 14.08.2019
3713 Clear 20 1020 77 10000 1.5 350 07:51 14.08.2019
3714 Clear 20 1020 77 10000 1.5 350 07:32 14.08.2019
3715 Clear 20 1020 77 10000 2.1 340 06:46 14.08.2019
3716 Clear 20 1020 77 10000 1.5 20 05:54 14.08.2019
3717 Clear 20 1020 77 10000 1.5 20 05:24 14.08.2019
3718 Clear 21 1020 73 10000 1 0 03:38 14.08.2019
3719 Clear 22 1020 68 10000 1.5 320 02:34 14.08.2019
3720 Clear 23 1020 69 10000 1 0 01:49 14.08.2019
3721 Clear 24 1020 69 10000 1.5 40 01:18 14.08.2019
3722 Clear 24 1019 64 10000 1.5 260 23:55 13.08.2019
3723 Clear 24 1019 69 10000 2.6 230 23:37 13.08.2019
3724 Clear 24 1019 69 10000 2.6 230 23:18 13.08.2019
3725 Clear 24 1019 65 10000 3.1 220 22:42 13.08.2019
3726 Clear 25 1019 65 10000 3.1 220 22:24 13.08.2019
3727 Clear 25 1019 65 10000 3.6 220 21:59 13.08.2019
3728 Clear 25 1019 65 10000 4.1 230 21:39 13.08.2019
3729 Clear 25 1018 65 10000 3.6 210 21:19 13.08.2019
3730 Clear 25 1018 65 10000 3.6 210 20:58 13.08.2019
3731 Clouds 26 1018 61 10000 4.6 200 20:39 13.08.2019
3732 Clouds 26 1018 57 10000 5.7 190 20:19 13.08.2019
3733 Clouds 26 1018 57 10000 5.7 190 19:55 13.08.2019
3734 Clear 27 1018 54 10000 6.7 190 19:37 13.08.2019
3735 Clouds 27 1018 51 10000 6.7 190 19:18 13.08.2019
3736 Clouds 28 1018 48 10000 3.6 210 18:41 13.08.2019
3737 Clouds 28 1018 40 10000 3.1 190 18:21 13.08.2019
3738 Clouds 29 1018 37 10000 4.1 210 17:43 13.08.2019
3739 Clear 29 1018 42 10000 3.1 50 17:23 13.08.2019
3740 Clear 29 1018 42 10000 3.1 50 16:59 13.08.2019
3741 Clear 29 1018 42 10000 3.1 50 16:59 13.08.2019
3742 Clouds 29 1018 40 10000 3.6 80 16:40 13.08.2019
3743 Clear 29 1018 42 10000 2.6 30 16:21 13.08.2019
3744 Clear 29 1018 42 10000 2.6 30 15:59 13.08.2019
3745 Clear 29 1018 42 10000 4.1 60 15:38 13.08.2019
3746 Clear 28 1018 45 10000 4.1 90 15:19 13.08.2019
3747 Clear 27 1019 47 10000 4.6 0 14:45 13.08.2019
3748 Clear 28 1019 45 10000 5.1 70 14:20 13.08.2019
3749 Clear 27 1019 45 10000 5.1 70 13:59 13.08.2019
3750 Clear 27 1019 45 10000 5.1 70 13:59 13.08.2019
3751 Clear 27 1019 47 10000 6.2 70 13:40 13.08.2019
3752 Clear 27 1020 50 10000 6.7 70 13:20 13.08.2019
3753 Clear 27 1020 50 10000 6.7 70 12:57 13.08.2019
3754 Clear 27 1019 47 10000 6.7 70 12:39 13.08.2019
3755 Clear 26 1019 50 10000 7.7 70 12:21 13.08.2019
3756 Clear 26 1020 53 10000 7.2 50 11:43 13.08.2019
3757 Clear 26 1020 53 10000 7.2 50 11:23 13.08.2019
3758 Clear 26 1019 50 10000 7.2 60 10:59 13.08.2019
3759 Clear 26 1019 50 10000 8.2 60 10:39 13.08.2019
3760 Clear 25 1019 50 10000 6.2 50 10:20 13.08.2019
3761 Clear 24 1019 50 10000 6.2 50 09:59 13.08.2019
3762 Clear 24 1019 53 10000 5.1 60 09:40 13.08.2019
3763 Clear 24 1018 57 10000 5.7 50 09:22 13.08.2019
3764 Clear 23 1018 60 10000 5.1 50 08:42 13.08.2019
3765 Clear 23 1019 60 10000 4.1 50 08:22 13.08.2019
3766 Clear 23 1018 60 10000 5.1 50 08:22 13.08.2019
3767 Clear 23 1019 60 10000 4.1 50 07:56 13.08.2019
3768 Clear 23 1018 60 10000 5.1 60 07:32 13.08.2019
3769 Clear 23 1019 60 10000 4.6 50 06:46 13.08.2019
3770 Clear 23 1018 56 10000 5.7 60 06:23 13.08.2019
3771 Clear 23 1019 60 10000 5.7 60 05:34 13.08.2019
3772 Clear 24 1019 64 10000 4.1 60 02:38 13.08.2019
3773 Clear 24 1019 61 10000 3.6 60 01:58 13.08.2019
3774 Clear 25 1018 57 10000 5.1 60 00:56 13.08.2019
3775 Clear 25 1018 57 10000 5.7 50 00:37 13.08.2019
3776 Clear 25 1018 61 10000 6.2 50 23:49 12.08.2019
3777 Clear 25 1018 61 10000 6.2 50 23:25 12.08.2019
3778 Clear 25 1017 61 10000 7.2 50 22:58 12.08.2019
3779 Clear 25 1017 61 10000 7.2 50 22:39 12.08.2019
3780 Clear 25 1016 65 10000 6.7 60 22:19 12.08.2019
3781 Clear 25 1016 65 10000 6.7 60 21:55 12.08.2019
3782 Clouds 25 1016 65 10000 8.2 60 21:55 12.08.2019
3783 Clouds 25 1016 65 10000 8.2 60 21:37 12.08.2019
3784 Clouds 25 1015 65 10000 8.7 60 21:18 12.08.2019
3785 Clouds 25 1015 65 10000 8.7 60 20:56 12.08.2019
3786 Clouds 25 1015 65 10000 8.7 60 20:55 12.08.2019
3787 Clear 26 1015 65 10000 7.2 60 20:36 12.08.2019
3788 Clear 26 1015 61 10000 6.2 70 20:18 12.08.2019
3789 Clear 27 1015 61 10000 6.2 70 19:55 12.08.2019
3790 Clear 27 1015 61 10000 6.2 70 19:55 12.08.2019
3791 Clear 26 1015 61 10000 6.2 50 19:36 12.08.2019
3792 Clouds 27 1015 58 10000 7.7 60 19:18 12.08.2019
3793 Clouds 27 1015 58 10000 7.7 60 18:54 12.08.2019
3794 Clear 27 1015 58 10000 8.2 60 18:36 12.08.2019
3795 Clouds 28 1014 58 10000 7.7 70 18:18 12.08.2019
3796 Clear 28 1014 58 10000 8.2 70 17:46 12.08.2019
3797 Clear 28 1014 58 10000 8.2 70 17:27 12.08.2019
3798 Clear 28 1015 55 10000 8.7 70 16:56 12.08.2019
3799 Clouds 28 1015 61 10000 9.8 70 16:38 12.08.2019
3800 Clouds 28 1015 58 10000 9.3 60 16:19 12.08.2019
3801 Clouds 28 1015 58 10000 9.3 60 16:19 12.08.2019
3802 Clouds 28 1015 58 10000 9.3 60 15:57 12.08.2019
3803 -273 0 0 0 0 0 15:57 12.08.2019
3804 Clouds 28 1015 61 10000 9.3 60 15:38 12.08.2019
3805 Clear 29 1015 58 10000 9.3 70 15:20 12.08.2019
3806 Rain 29 1015 58 10000 8.2 70 14:43 12.08.2019
3807 Rain 28 1015 58 10000 7.7 80 14:23 12.08.2019
3808 Rain 28 1015 58 10000 7.7 80 13:59 12.08.2019
3809 Clear 29 1015 58 10000 7.7 80 13:41 12.08.2019
3810 Clear 29 1015 58 10000 7.7 70 13:23 12.08.2019
3811 Clear 29 1015 58 10000 7.7 60 12:43 12.08.2019
3812 Clear 29 1014 62 10000 7.2 70 12:22 12.08.2019
3813 Clear 28 1014 62 10000 7.2 70 11:56 12.08.2019
3814 Clear 28 1014 61 10000 7.2 70 11:38 12.08.2019
3815 Clear 27 1014 69 10000 7.2 60 11:19 12.08.2019
3816 Clear 27 1014 74 10000 7.2 60 10:40 12.08.2019
3817 Clouds 27 1014 74 10000 6.7 60 10:22 12.08.2019
3818 Clouds 27 1014 74 10000 6.7 50 09:56 12.08.2019
3819 Clouds 27 1014 74 10000 6.7 50 09:37 12.08.2019
3820 Clouds 27 1014 74 10000 6.7 50 09:37 12.08.2019
3821 Clouds 26 1014 74 10000 5.1 70 09:18 12.08.2019
3822 Clouds 26 1013 78 10000 5.7 70 08:42 12.08.2019
3823 Clouds 26 1013 78 10000 6.7 60 08:24 12.08.2019
3824 Clouds 26 1013 78 10000 6.7 60 07:57 12.08.2019
3825 Clear 26 1012 83 10000 5.7 70 07:39 12.08.2019
3826 Clear 26 1012 83 10000 5.1 60 07:19 12.08.2019
3827 Clear 26 1012 83 10000 2.6 40 06:42 12.08.2019
3828 Clouds 27 1013 78 10000 1 20 04:40 12.08.2019
3829 Clouds 28 1014 74 10000 1 0 02:44 12.08.2019
3830 Clouds 27 1015 78 10000 1.5 170 01:52 12.08.2019
3831 Clear 28 1014 78 10000 2.1 190 01:20 12.08.2019
3832 Clear 27 1014 78 10000 2.1 190 00:56 12.08.2019
3833 Clear 27 1014 78 10000 1.5 120 00:38 12.08.2019
3834 Clear 27 1014 78 10000 1.5 100 00:19 12.08.2019
3835 Clear 27 1014 83 10000 1 0 23:41 11.08.2019
3836 Clear 28 1013 83 10000 1 0 23:20 11.08.2019
3837 Clear 28 1013 83 10000 1 0 22:58 11.08.2019
3838 Clear 28 1013 83 10000 1 0 22:39 11.08.2019
3839 Clear 28 1013 78 10000 1.5 150 22:19 11.08.2019
3840 Clear 28 1013 78 10000 1.5 150 21:58 11.08.2019
3841 Clear 28 1012 78 10000 2.6 140 21:39 11.08.2019
3842 Clear 28 1012 78 10000 2.1 160 21:20 11.08.2019
3843 -273 0 0 0 0 0 20:56 11.08.2019
3844 Clear 29 1012 78 10000 3.6 190 20:38 11.08.2019
3845 Clear 29 1012 70 10000 3.1 180 20:19 11.08.2019
3846 Clear 30 1012 66 10000 3.6 170 19:42 11.08.2019
3847 Clear 30 1012 62 10000 4.1 190 19:18 11.08.2019
3848 Clear 30 1012 66 10000 4.6 200 18:41 11.08.2019
3849 Clear 31 1012 70 10000 5.1 200 18:21 11.08.2019
3850 Clear 31 1012 70 10000 5.1 200 17:57 11.08.2019
3851 Clear 31 1012 66 10000 5.7 200 17:39 11.08.2019
3852 Clear 31 1013 66 10000 5.7 200 17:20 11.08.2019
3853 Clear 31 1013 66 10000 5.7 200 17:20 11.08.2019
3854 Clear 32 1013 66 10000 5.7 200 16:56 11.08.2019
3855 Clear 31 1013 70 10000 4.6 200 16:37 11.08.2019
3856 Clear 32 1013 70 10000 4.6 210 16:18 11.08.2019
3857 Clear 32 1013 70 10000 7.2 210 15:43 11.08.2019
3858 Clear 32 1013 70 10000 7.2 210 15:24 11.08.2019
3859 Clear 30 1013 70 10000 5.1 210 14:58 11.08.2019
3860 Clear 31 1013 66 10000 4.6 200 14:39 11.08.2019
3861 Clear 31 1014 66 10000 4.6 210 14:19 11.08.2019
3862 Clear 31 1014 70 10000 4.6 210 13:44 11.08.2019
3863 Clear 32 1014 70 10000 4.6 210 13:25 11.08.2019
3864 Clear 32 1014 66 10000 4.6 220 12:56 11.08.2019
3865 Clear 32 1014 66 10000 4.6 220 12:36 11.08.2019
3866 Clear 31 1014 62 10000 1.5 0 12:18 11.08.2019
3867 Clear 31 1014 70 10000 1.5 160 11:39 11.08.2019
3868 Clear 30 1014 70 10000 1.5 160 11:20 11.08.2019
3869 Clear 29 1014 74 10000 1 0 10:55 11.08.2019
3870 Clear 29 1014 74 10000 1.5 0 10:37 11.08.2019
3871 Clear 28 1014 74 10000 2.1 60 10:18 11.08.2019
3872 Clear 28 1014 78 10000 2.6 80 09:40 11.08.2019
3873 Clouds 26 1014 78 10000 2.6 80 09:22 11.08.2019
3874 Clear 26 1014 83 10000 2.1 60 08:48 11.08.2019
3875 Clear 26 1014 83 10000 2.1 60 08:29 11.08.2019
3876 Clear 26 1014 83 10000 2.1 50 07:57 11.08.2019
3877 Clear 26 1014 83 10000 2.1 50 07:30 11.08.2019
3878 Clear 26 1014 83 10000 2.1 40 06:46 11.08.2019
3879 Clouds 26 1014 83 10000 2.1 80 06:26 11.08.2019
3880 Clouds 26 1014 88 10000 3.1 70 04:38 11.08.2019
3881 Clear 26 1015 88 10000 1 80 02:50 11.08.2019
3882 Clear 27 1015 88 10000 1.5 70 01:53 11.08.2019
3883 Clear 26 1015 88 10000 1.5 70 01:28 11.08.2019
3884 Clear 27 1016 83 10000 2.6 70 00:55 11.08.2019
3885 Clear 28 1016 83 10000 2.6 60 00:34 11.08.2019
3886 Clear 28 1016 78 10000 2.1 70 23:49 10.08.2019
3887 Clear 28 1016 78 10000 2.1 70 23:29 10.08.2019
3888 Clear 28 1016 78 10000 1 190 22:54 10.08.2019
3889 Clear 28 1016 78 10000 1.5 200 22:36 10.08.2019
3890 Clear 28 1015 78 10000 1.5 200 22:18 10.08.2019
3891 Clear 29 1015 74 10000 1.5 180 21:40 10.08.2019
3892 Clear 29 1015 74 10000 1 200 21:21 10.08.2019
3893 Clear 29 1015 74 10000 1 200 20:58 10.08.2019
3894 Clear 29 1015 74 10000 2.1 210 20:39 10.08.2019
3895 Clear 30 1015 74 10000 2.1 210 20:20 10.08.2019
3896 Clear 30 1015 74 10000 2.1 210 19:54 10.08.2019
3897 Clear 30 1015 70 10000 3.1 180 19:36 10.08.2019
3898 Clear 31 1015 70 10000 4.1 200 19:18 10.08.2019
3899 Clear 31 1015 70 10000 6.2 200 18:38 10.08.2019
3900 Clear 31 1015 66 10000 5.1 200 18:20 10.08.2019
3901 Clear 31 1015 66 10000 5.1 210 17:40 10.08.2019
3902 Clear 32 1015 62 10000 4.6 210 17:21 10.08.2019
3903 Clear 32 1015 62 10000 3.6 210 16:43 10.08.2019
3904 Clear 32 1015 62 10000 3.6 210 16:25 10.08.2019
3905 Clear 32 1016 66 10000 5.1 220 15:51 10.08.2019
3906 Clear 32 1016 70 10000 6.2 210 15:23 10.08.2019
3907 Clear 32 1016 62 10000 5.7 200 14:44 10.08.2019
3908 Clear 32 1016 59 10000 5.1 210 14:21 10.08.2019
3909 Clear 32 1016 66 10000 4.1 210 13:42 10.08.2019
3910 Clear 32 1016 66 10000 4.6 220 13:21 10.08.2019
3911 Clear 32 1016 66 10000 4.6 220 12:58 10.08.2019
3912 Clear 32 1016 62 10000 5.1 200 12:39 10.08.2019
3913 Clear 33 1016 49 10000 1.5 90 12:21 10.08.2019
3914 Clear 33 1016 52 10000 2.6 70 11:42 10.08.2019
3915 Clear 32 1016 52 10000 2.6 70 11:23 10.08.2019
3916 Clear 32 1016 52 10000 2.6 70 11:23 10.08.2019
3917 Clear 31 1016 62 10000 3.6 90 10:59 10.08.2019
3918 Clear 31 1016 62 10000 3.6 90 10:38 10.08.2019
3919 Clear 30 1016 66 10000 3.1 60 10:19 10.08.2019
3920 Clear 28 1016 83 10000 2.1 40 09:43 10.08.2019
3921 Clear 27 1016 83 10000 2.1 40 09:24 10.08.2019
3922 Clear 26 1015 88 10000 2.1 60 08:56 10.08.2019
3923 Clear 25 1015 88 10000 2.1 60 08:38 10.08.2019
3924 Clear 25 1015 88 10000 2.1 30 08:18 10.08.2019
3925 Clear 24 1015 94 10000 1 330 07:46 10.08.2019
3926 Clear 24 1015 94 10000 1 330 07:24 10.08.2019
3927 Clear 24 1014 88 10000 1.5 340 06:47 10.08.2019
3928 Clear 25 1014 88 10000 2.1 330 05:52 10.08.2019
3929 Clear 25 1014 88 10000 1 0 05:20 10.08.2019
3930 Clear 25 1014 88 10000 1 340 03:55 10.08.2019
3931 Clear 25 1014 88 10000 1 0 02:50 10.08.2019
3932 Clear 25 1014 94 10000 1 350 01:57 10.08.2019
3933 Clear 25 1014 94 6000 1.5 200 01:37 10.08.2019
3934 Clear 26 1014 88 8000 2.1 190 01:19 10.08.2019
3935 Clear 26 1014 88 10000 1.5 180 00:42 10.08.2019
3936 Clear 26 1014 88 10000 1 200 00:19 10.08.2019
3937 Clear 26 1014 88 10000 1.5 210 23:41 09.08.2019
3938 Clear 26 1014 88 10000 1.5 200 23:21 09.08.2019
3939 Clear 26 1014 88 10000 1.5 200 23:21 09.08.2019
3940 Clear 27 1014 88 10000 1.5 200 22:56 09.08.2019
3941 Clear 27 1014 88 10000 2.1 200 22:37 09.08.2019
3942 Clear 27 1014 83 10000 2.1 200 22:19 09.08.2019
3943 Clear 28 1013 83 10000 2.6 200 21:41 09.08.2019
3944 Clear 28 1013 78 10000 2.6 200 21:22 09.08.2019
3945 Clear 29 1013 78 10000 2.6 200 20:58 09.08.2019
3946 Clear 30 1013 78 10000 3.1 210 20:39 09.08.2019
3947 Clear 30 1013 78 10000 3.1 210 20:39 09.08.2019
3948 Clear 30 1013 70 10000 3.1 190 20:20 09.08.2019
3949 Clear 31 1013 70 10000 5.1 200 19:44 09.08.2019
3950 Clear 32 1013 70 10000 4.6 200 19:23 09.08.2019
3951 Clear 32 1013 70 10000 4.6 200 18:59 09.08.2019
3952 Clear 31 1013 70 10000 5.1 210 18:39 09.08.2019
3953 Clear 30 1013 70 10000 6.7 200 18:21 09.08.2019
3954 Clear 30 1013 70 10000 6.7 200 18:21 09.08.2019
3955 Clear 31 1013 62 10000 6.2 210 17:45 09.08.2019
3956 Clear 32 1013 62 10000 6.2 210 17:25 09.08.2019
3957 Clear 32 1014 66 10000 6.2 190 16:58 09.08.2019
3958 Clear 32 1014 66 10000 6.2 190 16:38 09.08.2019
3959 Clear 33 1014 62 10000 6.7 200 16:20 09.08.2019
3960 Clear 33 1014 62 10000 6.7 200 15:55 09.08.2019
3961 Clear 32 1014 70 10000 6.2 200 15:36 09.08.2019
3962 Clear 33 1014 62 10000 4.6 190 15:18 09.08.2019
3963 Clear 33 1015 62 10000 5.1 210 14:43 09.08.2019
3964 Clear 32 1015 66 10000 5.7 210 14:22 09.08.2019
3965 Clear 32 1015 66 10000 5.7 210 14:22 09.08.2019
3966 Clear 33 1015 66 10000 5.7 210 13:56 09.08.2019
3967 Clear 33 1015 66 10000 5.7 210 13:38 09.08.2019
3968 Clear 31 1015 70 10000 6.2 210 13:18 09.08.2019
3969 Clear 33 1015 66 10000 5.1 210 12:43 09.08.2019
3970 Clear 32 1015 70 10000 5.1 210 12:22 09.08.2019
3971 Clear 32 1015 70 10000 4.1 200 11:42 09.08.2019
3972 Clear 31 1014 70 10000 4.6 220 11:21 09.08.2019
3973 Clear 32 1014 70 10000 4.6 220 10:59 09.08.2019
3974 Clear 31 1014 69 10000 1.5 200 10:39 09.08.2019
3975 Clear 29 1014 78 10000 1 220 10:21 09.08.2019
3976 Clear 28 1014 69 10000 1 0 09:42 09.08.2019
3977 Fog 27 1014 69 10000 1.5 40 09:19 09.08.2019
3978 Fog 25 1014 69 10000 1.5 40 08:55 09.08.2019
3979 Fog 25 1014 69 10000 1 0 08:37 09.08.2019
3980 Clear 24 1014 78 10000 1.5 350 08:18 09.08.2019
3981 Clear 24 1014 78 10000 1.5 340 07:43 09.08.2019
3982 Clear 24 1014 83 10000 1.5 330 07:21 09.08.2019
3983 Clear 24 1014 83 10000 2.1 340 06:52 09.08.2019
3984 Clear 24 1014 83 10000 1.5 340 06:27 09.08.2019
3985 Clear 24 1014 83 10000 1.5 340 05:46 09.08.2019
3986 Clear 24 1014 83 10000 1.5 330 02:33 09.08.2019
3987 Clear 25 1014 88 10000 1.5 90 01:41 09.08.2019
3988 Clear 25 1014 83 10000 1.5 140 00:44 09.08.2019
3989 Clear 26 1014 83 10000 1.5 140 00:25 09.08.2019
3990 Clear 26 1014 88 10000 1.5 150 23:59 08.08.2019
3991 Clear 26 1013 88 10000 1.5 160 23:38 08.08.2019
3992 Clear 27 1013 83 10000 1 0 23:19 08.08.2019
3993 Clear 27 1013 83 10000 0.5 160 22:57 08.08.2019
3994 Clear 27 1013 83 10000 0.5 160 22:36 08.08.2019
3995 Clear 28 1013 83 10000 1.5 190 22:18 08.08.2019
3996 Clear 28 1013 78 10000 2.1 210 21:55 08.08.2019
3997 Clear 28 1013 78 10000 2.1 210 21:37 08.08.2019
3998 Clear 29 1013 69 10000 2.6 200 21:18 08.08.2019
3999 Clear 29 1012 62 10000 3.1 200 20:42 08.08.2019
4000 Clear 30 1012 62 10000 3.1 200 20:22 08.08.2019
4001 Clear 30 1012 55 10000 4.1 190 19:57 08.08.2019
4002 Clear 29 1012 70 10000 4.1 210 19:38 08.08.2019
4003 Clear 32 1013 62 10000 5.7 200 19:19 08.08.2019
4004 Clear 32 1013 62 10000 5.7 200 19:19 08.08.2019
4005 Clear 32 1013 66 10000 5.7 200 18:41 08.08.2019
4006 Clear 32 1013 66 10000 5.7 200 18:41 08.08.2019
4007 Clear 30 1013 66 10000 5.7 200 18:22 08.08.2019
4008 Clear 31 1013 66 10000 5.7 200 17:55 08.08.2019
4009 Clear 31 1013 66 10000 5.7 190 17:36 08.08.2019
4010 Clear 31 1013 66 10000 5.7 200 17:18 08.08.2019
4011 Clear 31 1013 66 10000 5.7 210 16:42 08.08.2019
4012 Clear 31 1013 66 10000 5.7 210 16:24 08.08.2019
4013 Clear 32 1014 74 10000 6.7 200 15:58 08.08.2019
4014 Clear 31 1014 74 10000 6.7 200 15:39 08.08.2019
4015 Clear 33 1014 62 10000 6.7 220 15:20 08.08.2019
4016 Clear 33 1014 58 10000 6.7 220 14:41 08.08.2019
4017 Clear 33 1014 66 10000 6.2 220 14:23 08.08.2019
4018 Clear 32 1014 66 10000 6.2 220 13:58 08.08.2019
4019 Clear 32 1014 66 10000 5.7 210 13:38 08.08.2019
4020 Clear 31 1014 66 10000 4.1 210 13:18 08.08.2019
4021 Clear 31 1014 66 10000 4.1 210 13:18 08.08.2019
4022 Clear 30 1014 66 10000 3.6 220 12:40 08.08.2019
4023 Clear 32 1014 66 10000 3.6 210 12:20 08.08.2019
4024 Clear 31 1014 66 10000 2.1 230 11:55 08.08.2019
4025 Clear 31 1014 66 10000 2.1 230 11:37 08.08.2019
4026 Clear 30 1014 74 10000 2.1 170 11:18 08.08.2019
4027 Clear 29 1014 74 10000 1.5 210 10:41 08.08.2019
4028 Clear 29 1014 74 10000 1.5 210 10:41 08.08.2019
4029 Clear 28 1014 74 10000 1.5 210 10:21 08.08.2019
4030 Clear 27 1014 78 10000 1 150 09:45 08.08.2019
4031 -273 0 0 0 0 0 09:27 08.08.2019
4032 Clear 27 1013 78 10000 1.5 100 08:56 08.08.2019
4033 Clear 26 1013 83 10000 0.5 0 08:36 08.08.2019
4034 Clear 26 1013 83 10000 0.5 0 08:18 08.08.2019
4035 Clear 26 1012 83 10000 1 90 07:40 08.08.2019
4036 Clear 25 1012 83 10000 1 30 07:19 08.08.2019
4037 Clear 25 1012 88 10000 0.5 0 06:47 08.08.2019
4038 Clear 26 1012 83 10000 1 0 06:23 08.08.2019
4039 Clear 26 1012 83 10000 0.5 0 05:51 08.08.2019
4040 Clouds 26 1012 83 10000 1 0 04:48 08.08.2019
4041 Clouds 26 1012 83 10000 1 20 03:51 08.08.2019
4042 Clear 26 1013 83 10000 0.5 20 02:21 08.08.2019
4043 Clear 26 1013 83 10000 1.5 70 01:35 08.08.2019
4044 Clear 27 1013 83 10000 2.1 90 00:26 08.08.2019
4045 Clear 27 1013 78 10000 2.6 90 23:46 07.08.2019
4046 Clear 27 1012 78 10000 2.6 70 23:19 07.08.2019
4047 Clear 28 1012 78 10000 2.6 70 22:56 07.08.2019
4048 Clear 28 1012 74 10000 1.5 90 22:38 07.08.2019
4049 Clear 28 1011 78 10000 1 100 22:19 07.08.2019
4050 Clear 28 1011 78 10000 1 100 21:55 07.08.2019
4051 Clear 28 1011 78 10000 1.5 150 21:36 07.08.2019
4052 Clear 28 1011 78 10000 1.5 130 21:18 07.08.2019
4053 Clear 29 1011 74 10000 1.5 140 20:42 07.08.2019
4054 Clear 29 1011 74 10000 2.6 190 20:23 07.08.2019
4055 Clear 29 1011 74 10000 2.6 190 19:57 07.08.2019
4056 Clear 30 1011 74 10000 4.1 190 19:39 07.08.2019
4057 Clear 31 1011 70 10000 4.6 200 19:21 07.08.2019
4058 Clear 31 1011 70 10000 5.1 200 18:43 07.08.2019
4059 Clear 31 1011 62 10000 4.6 200 18:21 07.08.2019
4060 Clear 32 1011 62 10000 4.6 200 17:59 07.08.2019
4061 Clear 32 1011 66 10000 5.7 190 17:40 07.08.2019
4062 Clear 31 1011 66 10000 4.1 190 17:21 07.08.2019
4063 Clear 31 1011 66 10000 4.1 190 16:57 07.08.2019
4064 Clear 31 1011 70 10000 5.1 200 16:39 07.08.2019
4065 Clear 31 1011 66 10000 5.7 220 16:20 07.08.2019
4066 Clear 32 1011 66 10000 5.7 220 15:56 07.08.2019
4067 Clear 32 1011 70 10000 5.7 200 15:37 07.08.2019
4068 Clear 32 1012 66 10000 6.2 200 15:19 07.08.2019
4069 Clear 32 1012 66 10000 5.7 200 14:46 07.08.2019
4070 Clear 32 1012 66 10000 5.7 210 14:27 07.08.2019
4071 Clear 31 1012 66 10000 5.7 200 13:55 07.08.2019
4072 Clear 31 1012 66 10000 5.7 200 13:36 07.08.2019
4073 Clouds 31 1012 70 10000 4.1 190 13:18 07.08.2019
4074 Clear 30 1012 70 10000 5.1 200 12:55 07.08.2019
4075 Clear 30 1012 70 10000 5.1 200 12:36 07.08.2019
4076 Clouds 29 1012 70 10000 5.1 190 12:18 07.08.2019
4077 Clouds 29 1011 74 10000 4.6 200 11:42 07.08.2019
4078 Clouds 28 1011 78 10000 5.1 200 11:20 07.08.2019
4079 Clouds 28 1011 78 10000 5.1 200 10:57 07.08.2019
4080 Clouds 27 1011 78 10000 3.6 210 10:39 07.08.2019
4081 Clear 28 1011 78 10000 1 120 10:18 07.08.2019
4082 Clear 28 1011 78 10000 1.5 350 09:45 07.08.2019
4083 Clear 26 1010 88 10000 0.5 0 09:22 07.08.2019
4084 Clear 25 1010 88 10000 0.5 0 08:57 07.08.2019
4085 Clear 25 1010 88 10000 0.5 0 08:38 07.08.2019
4086 Clear 25 1010 88 10000 0.5 0 08:38 07.08.2019
4087 Clear 25 1010 94 10000 1 0 08:20 07.08.2019
4088 Clear 24 1010 88 10000 0.5 0 07:41 07.08.2019
4089 Clear 24 1010 94 10000 1 0 07:20 07.08.2019
4090 Clear 24 1010 94 10000 2.1 20 06:31 07.08.2019
4091 Clear 25 1010 88 10000 0.5 0 05:56 07.08.2019
4092 Clear 25 1011 88 10000 1.5 220 04:57 07.08.2019
4093 Clouds 25 1011 88 10000 1.5 340 03:21 07.08.2019
4094 Clouds 25 1012 88 10000 0.5 140 02:50 07.08.2019
4095 Clouds 25 1012 83 10000 1 100 02:20 07.08.2019
4096 Clouds 26 1012 88 10000 1 0 01:42 07.08.2019
4097 Clear 26 1012 83 10000 1.5 190 00:51 07.08.2019
4098 Clear 26 1012 88 10000 1.5 180 00:22 07.08.2019
4099 Clear 26 1012 88 10000 1 0 23:44 06.08.2019
4100 Clear 27 1011 83 10000 1 200 23:22 06.08.2019
4101 Clear 27 1011 83 10000 1 200 22:58 06.08.2019
4102 Clear 27 1011 78 10000 1 0 22:38 06.08.2019
4103 Clear 27 1011 78 10000 2.1 150 22:20 06.08.2019
4104 Clear 27 1011 78 10000 2.1 150 22:20 06.08.2019
4105 Clear 27 1011 78 10000 1.5 130 21:43 06.08.2019
4106 Clear 28 1011 78 10000 1.5 130 21:25 06.08.2019
4107 Clear 29 1011 74 10000 3.1 180 20:59 06.08.2019
4108 Clear 28 1011 78 10000 2.6 170 20:41 06.08.2019
4109 Clear 29 1011 78 10000 2.6 170 20:22 06.08.2019
4110 Clear 30 1011 78 10000 5.7 200 19:45 06.08.2019
4111 Clear 30 1011 78 10000 5.7 200 19:26 06.08.2019
4112 Clear 30 1011 74 10000 5.1 190 18:55 06.08.2019
4113 Clear 31 1011 66 10000 5.1 180 18:36 06.08.2019
4114 Clear 31 1011 66 10000 5.1 190 18:18 06.08.2019
4115 Clear 31 1011 66 10000 5.1 190 17:55 06.08.2019
4116 Clear 31 1011 66 10000 7.7 210 17:36 06.08.2019
4117 Clear 32 1012 62 10000 7.2 200 17:18 06.08.2019
4118 Clear 32 1012 66 10000 7.2 190 16:42 06.08.2019
4119 Clear 33 1012 62 10000 7.2 190 16:21 06.08.2019
4120 Clear 32 1012 62 10000 7.2 190 15:57 06.08.2019
4121 Clear 32 1012 66 10000 6.7 190 15:39 06.08.2019
4122 Clear 31 1013 58 10000 7.2 210 15:20 06.08.2019
4123 Clear 31 1013 58 10000 6.7 210 14:45 06.08.2019
4124 Clear 31 1013 58 10000 6.7 210 14:26 06.08.2019
4125 Clear 31 1013 62 10000 6.2 210 13:58 06.08.2019
4126 Clear 32 1013 70 10000 6.7 210 13:40 06.08.2019
4127 Clear 31 1014 70 10000 6.7 210 13:22 06.08.2019
4128 Clear 31 1014 70 10000 6.7 210 12:58 06.08.2019
4129 Clear 31 1014 58 10000 5.1 210 12:39 06.08.2019
4130 Clear 31 1014 58 10000 5.1 210 12:39 06.08.2019
4131 Clear 33 1014 55 10000 2.6 190 12:21 06.08.2019
4132 Clear 31 1014 62 10000 1.5 0 11:43 06.08.2019
4133 Clear 30 1014 65 10000 1.5 150 11:19 06.08.2019
4134 Clear 29 1014 65 10000 1.5 150 10:56 06.08.2019
4135 Clear 29 1014 65 10000 1.5 80 10:38 06.08.2019
4136 Clear 27 1014 74 10000 1.5 50 10:19 06.08.2019
4137 Clear 27 1014 78 10000 2.1 60 09:41 06.08.2019
4138 Fog 26 1014 78 10000 2.1 60 09:20 06.08.2019
4139 Fog 25 1013 100 7000 3.6 60 08:49 06.08.2019
4140 Fog 24 1013 100 7000 3.6 60 08:27 06.08.2019
4141 Clear 24 1013 88 10000 2.6 70 07:56 06.08.2019
4142 Clear 23 1013 83 10000 1.5 50 07:23 06.08.2019
4143 Clear 23 1013 83 10000 1 0 06:43 06.08.2019
4144 Clear 24 1013 73 10000 0.5 0 06:21 06.08.2019
4145 Clear 24 1013 73 10000 2.6 350 05:21 06.08.2019
4146 Clear 25 1015 69 10000 1 0 02:00 06.08.2019
4147 Clear 25 1015 73 10000 0.5 0 01:25 06.08.2019
4148 Clear 26 1014 78 10000 0.5 0 00:51 06.08.2019
4149 Clear 26 1014 78 10000 1 0 23:59 05.08.2019
4150 Clear 27 1014 78 10000 1 0 23:20 05.08.2019
4151 Clear 27 1014 78 10000 1.5 230 22:42 05.08.2019
4152 Clear 27 1014 78 10000 1.5 230 22:23 05.08.2019
4153 Clear 28 1013 74 10000 1.5 210 21:59 05.08.2019
4154 Clear 28 1013 69 10000 1.5 220 21:41 05.08.2019
4155 Clear 28 1013 65 10000 1.5 230 21:20 05.08.2019
4156 Clear 29 1013 61 10000 3.1 220 20:57 05.08.2019
4157 Clear 29 1013 61 10000 3.1 220 20:39 05.08.2019
4158 Clear 29 1013 62 10000 3.1 240 20:21 05.08.2019
4159 Clear 29 1013 62 10000 3.1 240 20:21 05.08.2019
4160 Clear 29 1013 62 10000 3.1 240 19:55 05.08.2019
4161 Clear 29 1014 62 10000 3.6 220 19:37 05.08.2019
4162 Clear 29 1014 69 10000 5.1 240 19:18 05.08.2019
4163 Clear 29 1014 66 10000 5.1 220 18:41 05.08.2019
4164 Clear 31 1014 58 10000 6.7 230 18:20 05.08.2019
4165 Clear 31 1014 55 10000 7.2 220 17:48 05.08.2019
4166 Clear 32 1014 58 10000 7.2 220 17:29 05.08.2019
4167 Clear 32 1014 58 10000 7.2 220 16:59 05.08.2019
4168 Clear 32 1014 62 10000 6.2 220 16:41 05.08.2019
4169 Clear 32 1014 62 10000 6.7 210 16:22 05.08.2019
4170 Clear 32 1015 58 10000 6.2 220 15:41 05.08.2019
4171 Clear 32 1015 48 10000 6.2 220 15:20 05.08.2019
4172 Clear 34 1015 52 10000 5.7 210 14:42 05.08.2019
4173 Clear 33 1015 52 10000 5.7 210 14:22 05.08.2019
4174 Clear 33 1015 55 10000 4.6 210 13:49 05.08.2019
4175 Clear 33 1016 52 10000 4.1 220 13:24 05.08.2019
4176 Clear 31 1016 52 10000 4.1 220 12:59 05.08.2019
4177 Clear 31 1016 45 10000 4.6 210 12:41 05.08.2019
4178 Clear 32 1016 38 10000 2.6 150 12:18 05.08.2019
4179 Clear 31 1015 43 10000 2.6 0 11:43 05.08.2019
4180 Clear 31 1016 48 10000 1 0 11:25 05.08.2019
4181 Clear 30 1016 51 10000 1 100 10:47 05.08.2019
4182 Clear 29 1016 58 10000 1.5 50 10:28 05.08.2019
4183 Clear 27 1016 61 10000 2.1 50 09:56 05.08.2019
4184 -273 0 0 0 0 0 09:56 05.08.2019
4185 Clear 28 1016 58 10000 1.5 50 09:56 05.08.2019
4186 Clear 27 1016 61 10000 2.1 50 09:37 05.08.2019
4187 Clear 26 1016 57 10000 1 0 09:19 05.08.2019
4188 Clear 25 1016 57 10000 1.5 340 08:43 05.08.2019
4189 Clear 24 1016 57 10000 1.5 340 08:24 05.08.2019
4190 Clear 23 1015 60 10000 1.5 300 07:47 05.08.2019
4191 Clear 22 1015 60 10000 1.5 300 07:28 05.08.2019
4192 Clear 22 1015 60 10000 2.1 350 06:53 05.08.2019
4193 Clear 22 1015 56 10000 1 10 06:19 05.08.2019
4194 Clear 23 1015 60 10000 2.6 360 05:28 05.08.2019
4195 Clear 23 1016 60 10000 1.5 360 04:50 05.08.2019
4196 Clear 24 1016 57 10000 1 0 03:50 05.08.2019
4197 Clear 24 1016 60 10000 0.5 330 02:46 05.08.2019
4198 Clear 25 1016 57 10000 1.5 20 01:55 05.08.2019
4199 Clear 25 1016 61 10000 0.5 0 01:22 05.08.2019
4200 Clear 26 1016 57 10000 1.5 180 00:40 05.08.2019
4201 Clear 26 1016 65 10000 1.5 230 00:20 05.08.2019
4202 Clear 26 1015 54 10000 2.94 114.924 23:43 04.08.2019
4203 Clear 27 1015 54 10000 2.94 114.924 23:23 04.08.2019
4204 Clear 27 1015 54 10000 2.94 114.924 23:23 04.08.2019
4205 Clear 27 1015 51 10000 1 320 22:57 04.08.2019
4206 Clear 27 1015 54 10000 1 290 22:38 04.08.2019
4207 Clear 28 1015 58 10000 1.5 300 22:20 04.08.2019
4208 Clear 28 1015 58 10000 1.5 300 21:56 04.08.2019
4209 Clear 28 1014 58 10000 1.5 250 21:37 04.08.2019
4210 Clear 29 1014 54 10000 3.1 240 21:19 04.08.2019
4211 Clear 29 1014 51 10000 3.6 240 20:41 04.08.2019
4212 Clear 30 1014 42 10000 4.6 220 20:19 04.08.2019
4213 Clear 30 1014 42 10000 4.6 220 19:54 04.08.2019
4214 Clear 31 1014 48 10000 5.1 210 19:36 04.08.2019
4215 Clear 32 1014 40 10000 5.1 220 19:18 04.08.2019
4216 Clear 31 1014 40 10000 5.1 230 18:41 04.08.2019
4217 Clear 33 1015 33 10000 5.1 220 18:20 04.08.2019
4218 Clear 33 1015 35 10000 5.7 220 17:44 04.08.2019
4219 Clear 33 1015 31 10000 6.7 210 17:24 04.08.2019
4220 Clear 33 1015 38 10000 7.2 210 16:46 04.08.2019
4221 Clear 33 1015 38 10000 7.2 210 16:28 04.08.2019
4222 Clear 33 1015 40 10000 6.7 210 15:58 04.08.2019
4223 Clear 33 1015 33 10000 7.2 220 15:38 04.08.2019
4224 Clear 33 1016 38 10000 7.7 220 15:19 04.08.2019
4225 Clear 33 1016 33 10000 7.2 230 14:43 04.08.2019
4226 Clear 32 1016 33 10000 7.2 230 14:25 04.08.2019
4227 Clear 33 1016 31 10000 5.7 210 13:47 04.08.2019
4228 Clear 33 1016 31 10000 5.7 210 13:27 04.08.2019
4229 Clear 34 1016 29 10000 4.6 220 12:57 04.08.2019
4230 Clear 33 1016 29 10000 4.6 220 12:39 04.08.2019
4231 Clear 32 1016 27 10000 2.6 200 12:21 04.08.2019
4232 Clear 32 1016 31 10000 2.1 170 11:49 04.08.2019
4233 Clear 31 1016 31 10000 2.1 170 11:23 04.08.2019
4234 Clear 31 1015 35 10000 2.6 80 10:51 04.08.2019
4235 Clear 30 1015 39 10000 2.1 40 10:23 04.08.2019
4236 Clear 30 1015 39 10000 2.1 40 09:55 04.08.2019
4237 Clear 29 1015 42 10000 1.5 10 09:37 04.08.2019
4238 Clear 27 1015 44 10000 1.5 360 09:18 04.08.2019
4239 Clear 25 1015 50 10000 1.5 20 08:38 04.08.2019
4240 Clear 24 1015 49 10000 1.5 40 08:18 04.08.2019
4241 Clear 22 1014 49 10000 1.5 340 07:44 04.08.2019
4242 Clear 22 1014 49 10000 2.6 350 06:46 04.08.2019
4243 Clear 22 1014 53 10000 2.6 330 06:24 04.08.2019
4244 Clear 23 1015 60 10000 1.5 360 03:44 04.08.2019
4245 Clear 24 1015 53 10000 1.5 360 02:20 04.08.2019
4246 Clear 24 1015 53 10000 1.5 360 01:33 04.08.2019
4247 Clear 25 1015 53 10000 1.5 340 00:44 04.08.2019
4248 -273 0 0 0 0 0 00:26 04.08.2019
4249 Clear 26 1015 54 10000 1.5 330 23:56 03.08.2019
4250 Clear 26 1015 54 10000 1 350 23:38 03.08.2019
4251 Clear 26 1015 57 10000 2.33 113.502 23:18 03.08.2019
4252 Clear 27 1014 54 10000 1 0 22:42 03.08.2019
4253 Clear 27 1014 54 10000 3.1 230 22:20 03.08.2019
4254 Clear 28 1014 48 10000 3.1 230 21:40 03.08.2019
4255 Clear 28 1014 48 10000 3.6 230 21:22 03.08.2019
4256 Clear 29 1014 45 10000 4.6 230 20:46 03.08.2019
4257 Clear 29 1014 48 10000 5.7 230 20:26 03.08.2019
4258 Clear 29 1014 48 10000 5.7 230 19:58 03.08.2019
4259 Clear 29 1014 51 10000 6.7 220 19:40 03.08.2019
4260 Clear 30 1014 54 10000 5.7 220 19:21 03.08.2019
4261 Clear 31 1014 54 10000 5.7 220 18:46 03.08.2019
4262 Clear 31 1015 51 10000 5.7 210 18:26 03.08.2019
4263 Clear 31 1015 45 10000 5.7 220 17:46 03.08.2019
4264 Clear 32 1015 48 10000 6.7 210 17:20 03.08.2019
4265 Clear 32 1015 48 10000 6.7 210 16:55 03.08.2019
4266 Clear 32 1015 51 10000 7.2 210 16:37 03.08.2019
4267 Clear 32 1016 51 10000 7.7 220 16:18 03.08.2019
4268 Clear 31 1016 45 10000 6.7 220 15:42 03.08.2019
4269 Clear 32 1016 45 10000 6.7 220 15:20 03.08.2019
4270 Clear 32 1016 45 10000 6.7 210 14:38 03.08.2019
4271 Clear 31 1016 45 10000 7.2 220 14:19 03.08.2019
4272 Clear 32 1016 45 10000 6.7 210 13:50 03.08.2019
4273 Clear 32 1016 31 10000 1.5 0 13:24 03.08.2019
4274 Clear 33 1016 31 10000 1.5 0 12:57 03.08.2019
4275 Clear 32 1016 33 10000 3.6 120 12:38 03.08.2019
4276 Clear 32 1016 33 10000 2.6 0 12:20 03.08.2019
4277 Clear 32 1016 35 10000 4.6 60 11:47 03.08.2019
4278 Clear 31 1016 33 10000 4.6 80 11:25 03.08.2019
4279 Clear 30 1016 37 10000 4.6 70 10:40 03.08.2019
4280 Clear 29 1016 39 10000 1.5 160 10:21 03.08.2019
4281 Clear 28 1016 37 10000 1 0 09:39 03.08.2019
4282 Clear 26 1016 41 10000 1.5 10 09:19 03.08.2019
4283 Clear 25 1016 46 10000 1.5 340 08:46 03.08.2019
4284 Clear 22 1015 56 10000 2.6 360 07:49 03.08.2019
4285 Clear 21 1015 56 10000 2.6 360 07:30 03.08.2019
4286 Clear 22 1015 56 10000 2.1 350 06:23 03.08.2019
4287 Clear 22 1016 64 10000 1.5 20 03:58 03.08.2019
4288 Clear 23 1016 60 10000 1 340 02:36 03.08.2019
4289 Clear 24 1016 64 10000 1 0 01:36 03.08.2019
4290 Clear 25 1016 57 10000 1 0 00:49 03.08.2019
4291 Clear 25 1016 57 10000 2.1 30 23:58 02.08.2019
4292 Clear 25 1016 57 10000 2.1 80 23:40 02.08.2019
4293 Clear 25 1015 50 10000 3.6 80 23:18 02.08.2019
4294 Clear 25 1015 50 10000 3.6 80 22:56 02.08.2019
4295 Clear 26 1015 47 10000 2.6 100 22:38 02.08.2019
4296 Clear 26 1015 47 10000 2.6 100 22:38 02.08.2019
4297 Clear 27 1015 47 10000 2.6 100 22:18 02.08.2019
4298 Clear 27 1014 45 10000 3.1 80 21:43 02.08.2019
4299 Clear 28 1014 42 10000 5.1 80 21:23 02.08.2019
4300 Clear 28 1014 42 10000 5.1 80 20:57 02.08.2019
4301 Clear 28 1014 45 10000 5.1 70 20:39 02.08.2019
4302 Clear 29 1014 42 10000 5.7 70 20:20 02.08.2019
4303 Clear 29 1014 42 10000 3.6 190 19:45 02.08.2019
4304 Clear 29 1014 42 10000 3.6 190 19:25 02.08.2019
4305 Clear 30 1014 40 10000 3.6 210 18:44 02.08.2019
4306 Clear 30 1014 40 10000 3.6 210 18:25 02.08.2019
4307 Clear 30 1015 48 10000 5.7 210 17:48 02.08.2019
4308 Clear 30 1015 48 10000 5.7 210 17:25 02.08.2019
4309 Clear 31 1015 48 10000 5.7 200 16:58 02.08.2019
4310 Clear 31 1015 51 10000 5.7 210 16:38 02.08.2019
4311 Clear 31 1015 51 10000 6.7 210 16:19 02.08.2019
4312 Clear 31 1015 48 10000 6.7 210 15:39 02.08.2019
4313 Clear 31 1015 38 10000 4.1 70 15:19 02.08.2019
4314 Clear 31 1015 38 10000 6.2 90 14:46 02.08.2019
4315 Clear 31 1015 35 10000 6.2 70 14:19 02.08.2019
4316 Clear 31 1015 35 10000 6.7 70 13:49 02.08.2019
4317 Clear 31 1015 35 10000 6.7 70 13:27 02.08.2019
4318 Clear 31 1015 38 10000 6.2 90 12:46 02.08.2019
4319 Clear 31 1014 35 10000 7.7 70 12:23 02.08.2019
4320 Clear 30 1014 35 10000 7.7 70 11:56 02.08.2019
4321 Clear 30 1014 40 10000 7.7 70 11:37 02.08.2019
4322 Clear 30 1014 40 10000 7.2 60 11:18 02.08.2019
4323 Clear 29 1014 39 10000 6.7 60 10:42 02.08.2019
4324 Clear 29 1014 39 10000 6.7 60 10:23 02.08.2019
4325 Clear 28 1014 39 10000 7.2 60 09:52 02.08.2019
4326 Clear 28 1014 37 10000 4.1 40 09:28 02.08.2019
4327 Clear 26 1013 61 10000 2.6 20 08:52 02.08.2019
4328 Clear 25 1013 61 10000 2.6 20 08:23 02.08.2019
4329 Clear 25 1012 88 10000 4.6 50 07:52 02.08.2019
4330 Clear 25 1012 88 10000 4.6 50 07:32 02.08.2019
4331 Clear 25 1012 88 10000 3.1 40 06:55 02.08.2019
4332 Clear 25 1012 83 10000 2.6 30 06:26 02.08.2019
4333 Clear 25 1013 88 10000 2.6 20 05:38 02.08.2019
4334 Clear 25 1013 83 10000 3.6 40 03:31 02.08.2019
4335 Clear 26 1013 83 10000 2.1 30 02:37 02.08.2019
4336 Clear 26 1013 78 10000 0.5 0 00:54 02.08.2019
4337 Clear 26 1012 78 10000 1.5 50 00:22 02.08.2019
4338 Clear 27 1012 69 10000 2.6 40 23:44 01.08.2019
4339 Clear 27 1011 69 10000 2.6 40 23:23 01.08.2019
4340 Clear 27 1012 69 10000 2.1 60 22:42 01.08.2019
4341 Clear 27 1012 69 10000 2.6 60 22:22 01.08.2019
4342 Clear 27 1012 69 10000 2.6 60 21:55 01.08.2019
4343 Clear 27 1011 69 10000 3.6 70 21:37 01.08.2019
4344 Clear 28 1011 65 10000 5.1 70 21:18 01.08.2019
4345 Clear 28 1010 65 10000 6.7 60 20:43 01.08.2019
4346 Clear 29 1010 65 10000 6.7 60 20:22 01.08.2019
4347 Clear 29 1011 51 10000 3.6 120 19:45 01.08.2019
4348 Clear 29 1011 51 10000 3.6 120 19:23 01.08.2019
4349 Clear 29 1011 51 10000 2.6 0 18:58 01.08.2019
4350 Clouds 29 1011 54 10000 4.6 180 18:40 01.08.2019
4351 Clear 30 1011 51 10000 1.5 0 18:21 01.08.2019
4352 Clouds 30 1012 58 10000 3.6 220 17:45 01.08.2019
4353 Clouds 30 1012 58 10000 3.6 220 17:26 01.08.2019
4354 Clear 32 1011 48 10000 5.1 190 16:44 01.08.2019
4355 Clear 32 1011 48 10000 5.1 190 16:22 01.08.2019
4356 Clear 32 1012 49 10000 7.2 210 15:46 01.08.2019
4357 Clear 32 1012 43 10000 6.2 200 15:21 01.08.2019
4358 Clear 33 1012 43 10000 6.2 200 14:58 01.08.2019
4359 Clear 33 1011 36 10000 4.1 50 14:40 01.08.2019
4360 Clear 33 1012 38 10000 2.6 40 14:18 01.08.2019
4361 Clear 33 1012 41 10000 2.6 0 13:41 01.08.2019
4362 Clear 33 1012 41 10000 2.6 0 13:41 01.08.2019
4363 Clear 32 1012 43 10000 1.5 310 13:22 01.08.2019
4364 Clear 32 1012 43 10000 1.5 310 12:59 01.08.2019
4365 Clear 33 1013 43 10000 2.1 120 12:41 01.08.2019
4366 Clear 32 1013 45 10000 3.6 0 12:22 01.08.2019
4367 Clear 31 1013 51 10000 3.6 90 11:42 01.08.2019
4368 Clear 30 1012 54 10000 6.2 60 11:23 01.08.2019
4369 Clear 30 1012 54 10000 6.2 60 11:23 01.08.2019
4370 Clear 29 1012 58 10000 5.7 70 10:46 01.08.2019
4371 Clear 29 1012 58 10000 5.7 70 10:28 01.08.2019
4372 Clear 29 1013 54 10000 5.7 80 09:59 01.08.2019
4373 Clear 28 1013 57 10000 5.1 70 09:40 01.08.2019
4374 Clear 27 1012 54 10000 4.6 70 09:22 01.08.2019
4375 Clear 26 1012 57 10000 3.6 60 08:44 01.08.2019
4376 Clear 26 1013 61 10000 4.1 40 08:20 01.08.2019
4377 Clear 25 1013 61 10000 3.6 60 07:49 01.08.2019
4378 Clear 25 1013 61 10000 3.6 60 07:25 01.08.2019
4379 Clear 25 1013 65 10000 5.7 50 06:48 01.08.2019
4380 Clear 24 1013 65 10000 8.2 60 05:51 01.08.2019
4381 Clear 25 1013 57 10000 6.7 50 04:24 01.08.2019
4382 Clear 24 1016 64 10000 3.6 80 02:33 01.08.2019
4383 Clear 24 1016 69 10000 6.2 40 00:43 01.08.2019
4384 Clear 24 1015 69 10000 6.2 50 00:24 01.08.2019
4385 Clear 24 1015 69 10000 6.2 50 00:24 01.08.2019
4386 Clear 25 1015 69 10000 7.2 60 23:43 31.07.2019
4387 Clear 25 1015 61 10000 8.2 60 23:21 31.07.2019
4388 Clear 25 1015 61 10000 8.2 60 22:58 31.07.2019
4389 Clear 25 1015 61 10000 6.2 60 22:39 31.07.2019
4390 Clear 25 1015 61 10000 7.2 70 22:21 31.07.2019
4391 Clear 26 1016 57 10000 6.2 60 21:38 31.07.2019
4392 Clear 26 1015 57 10000 6.7 70 21:19 31.07.2019
4393 Clear 27 1015 51 10000 7.7 70 20:43 31.07.2019
4394 Clear 28 1015 51 10000 7.7 70 20:22 31.07.2019
4395 Clear 28 1015 45 10000 8.2 70 19:43 31.07.2019
4396 Clear 29 1016 42 10000 7.7 60 19:24 31.07.2019
4397 Clear 28 1016 42 10000 6.7 70 18:53 31.07.2019
4398 Clear 29 1016 42 10000 6.7 70 18:29 31.07.2019
4399 Clear 29 1017 42 10000 6.2 70 17:59 31.07.2019
4400 Clear 29 1016 40 10000 8.2 60 17:40 31.07.2019
4401 Clear 29 1016 42 10000 8.2 80 17:20 31.07.2019
4402 Clear 29 1017 45 10000 7.2 90 16:46 31.07.2019
4403 Clear 29 1017 45 10000 7.7 60 16:20 31.07.2019
4404 Clear 29 1016 45 10000 7.7 60 15:45 31.07.2019
4405 Clear 30 1016 45 10000 7.7 60 15:26 31.07.2019
4406 Clear 29 1016 45 10000 9.3 70 14:55 31.07.2019
4407 Clear 29 1016 48 10000 9.8 70 14:36 31.07.2019
4408 Clear 28 1017 45 10000 9.3 60 14:18 31.07.2019
4409 Clear 27 1019 47 10000 7.2 70 13:44 31.07.2019
4410 Clear 27 1018 54 10000 9.8 70 13:25 31.07.2019
4411 Clear 27 1018 47 10000 7.7 80 12:57 31.07.2019
4412 Clear 27 1018 47 10000 7.7 80 12:38 31.07.2019
4413 Clear 27 1017 47 10000 9.3 70 12:18 31.07.2019
4414 Clear 28 1018 48 10000 8.7 70 11:39 31.07.2019
4415 Clear 28 1016 54 10000 10.3 70 11:20 31.07.2019
4416 Clear 27 1018 54 10000 9.8 70 10:42 31.07.2019
4417 Clear 27 1018 57 10000 8.2 60 10:21 31.07.2019
4418 Clear 27 1018 61 10000 7.2 60 09:56 31.07.2019
4419 Clear 26 1018 61 10000 7.2 60 09:38 31.07.2019
4420 Clear 26 1018 65 10000 7.7 50 09:18 31.07.2019
4421 Clear 25 1017 69 10000 6.2 50 08:41 31.07.2019
4422 Clear 24 1017 69 10000 6.7 50 08:21 31.07.2019
4423 Clear 24 1017 69 10000 4.1 50 07:35 31.07.2019
4424 Clear 24 1017 69 10000 5.7 60 06:35 31.07.2019
4425 Clear 24 1017 69 10000 4.6 50 04:52 31.07.2019
4426 Clear 24 1017 73 10000 4.6 60 03:25 31.07.2019
4427 Clouds 26 1017 74 10000 3.1 90 00:20 31.07.2019
4428 Clouds 26 1016 74 10000 3.6 90 23:40 30.07.2019
4429 Clear 26 1016 74 10000 5.1 70 23:19 30.07.2019
4430 Clouds 26 1016 69 10000 5.1 60 22:46 30.07.2019
4431 Clouds 26 1016 69 10000 5.1 60 22:46 30.07.2019
4432 Clouds 26 1016 69 10000 5.1 60 22:25 30.07.2019
4433 Clouds 27 1016 69 10000 1.5 0 21:57 30.07.2019
4434 Clear 27 1015 74 10000 2.1 190 21:36 30.07.2019
4435 Clear 27 1015 69 10000 3.1 210 21:18 30.07.2019
4436 Clear 28 1015 69 10000 3.6 210 20:43 30.07.2019
4437 Clear 28 1015 69 10000 3.6 210 20:24 30.07.2019
4438 Clear 28 1015 61 10000 4.1 210 19:59 30.07.2019
4439 Clear 29 1015 61 10000 4.6 210 19:39 30.07.2019
4440 Clear 29 1015 58 10000 4.6 220 19:18 30.07.2019
4441 Clear 29 1015 54 10000 4.1 220 18:43 30.07.2019
4442 Clouds 30 1014 58 10000 4.1 230 18:19 30.07.2019
4443 Clear 30 1015 48 10000 5.7 210 17:42 30.07.2019
4444 Clear 31 1015 43 10000 5.1 220 17:20 30.07.2019
4445 Clear 31 1015 43 10000 5.1 220 16:53 30.07.2019
4446 Clear 31 1015 43 10000 5.7 210 16:22 30.07.2019
4447 Clear 31 1015 43 10000 5.7 210 16:22 30.07.2019
4448 Clear 31 1015 51 10000 6.7 210 15:59 30.07.2019
4449 Clear 31 1015 51 10000 6.7 210 15:38 30.07.2019
4450 Clear 31 1015 55 10000 7.2 220 15:19 30.07.2019
4451 Clear 30 1015 55 10000 7.7 220 14:43 30.07.2019
4452 Clear 30 1015 55 10000 6.7 210 14:22 30.07.2019
4453 Clear 29 1015 58 10000 6.2 210 13:48 30.07.2019
4454 Clear 29 1015 58 10000 6.2 210 13:29 30.07.2019
4455 Clear 30 1015 51 10000 6.2 210 12:59 30.07.2019
4456 Clear 30 1015 29 10000 1.5 0 12:41 30.07.2019
4457 Clear 31 1015 29 10000 1.5 0 12:23 30.07.2019
4458 Clear 31 1015 33 10000 1.5 0 11:44 30.07.2019
4459 Clear 31 1015 45 10000 1.5 100 11:21 30.07.2019
4460 Clear 31 1015 45 10000 1.5 100 11:21 30.07.2019
4461 Clear 30 1015 45 10000 1.5 100 10:55 30.07.2019
4462 Clear 29 1015 51 10000 1.5 40 10:37 30.07.2019
4463 Clear 28 1015 65 10000 1.5 0 10:19 30.07.2019
4464 Clear 26 1015 69 10000 2.1 350 09:45 30.07.2019
4465 Clear 25 1015 69 10000 2.1 350 09:24 30.07.2019
4466 Clear 23 1015 68 10000 2.1 340 08:32 30.07.2019
4467 Clear 22 1014 82 10000 2.1 340 07:52 30.07.2019
4468 Clear 22 1014 82 10000 2.1 340 07:34 30.07.2019
4469 Clear 22 1013 77 10000 1.5 330 06:52 30.07.2019
4470 Clear 21 1013 77 10000 1.5 330 06:32 30.07.2019
4471 Clear 22 1013 77 10000 2.1 340 05:35 30.07.2019
4472 Clear 23 1013 73 10000 2.1 340 03:29 30.07.2019
4473 Clear 24 1013 69 10000 1.5 310 01:22 30.07.2019
4474 Clear 25 1013 78 10000 1 0 00:27 30.07.2019
4475 Clear 25 1013 73 10000 1 0 23:57 29.07.2019
4476 Clear 25 1013 73 10000 1 0 23:38 29.07.2019
4477 Clear 25 1013 73 10000 2.6 180 23:20 29.07.2019
4478 Clear 25 1012 73 10000 1.5 180 22:54 29.07.2019
4479 Clear 26 1012 73 10000 1.5 180 22:36 29.07.2019
4480 Clear 26 1012 73 10000 2.1 190 22:18 29.07.2019
4481 Clear 26 1012 69 10000 3.1 200 21:41 29.07.2019
4482 Clear 27 1012 69 10000 4.6 210 21:23 29.07.2019
4483 Clear 27 1012 69 10000 4.6 210 20:57 29.07.2019
4484 Clear 28 1011 61 10000 5.1 210 20:38 29.07.2019
4485 Clear 28 1011 61 10000 5.7 210 20:19 29.07.2019
4486 Clear 28 1011 61 10000 6.7 210 19:43 29.07.2019
4487 Clear 28 1012 61 10000 6.7 210 19:23 29.07.2019
4488 Clear 28 1012 61 10000 6.7 210 18:55 29.07.2019
4489 Clear 28 1012 61 10000 6.7 200 18:37 29.07.2019
4490 Clear 28 1012 61 10000 7.2 200 18:18 29.07.2019
4491 Clear 29 1012 54 10000 6.7 200 17:47 29.07.2019
4492 Clear 29 1012 54 10000 6.7 200 17:27 29.07.2019
4493 Clear 29 1012 48 10000 8.7 210 16:47 29.07.2019
4494 Clear 29 1012 48 10000 8.7 210 16:29 29.07.2019
4495 Clear 29 1012 48 10000 8.2 200 15:54 29.07.2019
4496 Clear 29 1012 51 10000 6.7 200 15:36 29.07.2019
4497 Clear 29 1012 48 10000 6.2 210 14:59 29.07.2019
4498 Clear 29 1012 48 10000 5.7 200 14:40 29.07.2019
4499 Clear 29 1012 51 10000 6.2 210 14:21 29.07.2019
4500 Clear 30 1013 54 10000 6.7 220 13:46 29.07.2019
4501 Clear 30 1013 54 10000 6.7 200 13:24 29.07.2019
4502 Clear 29 1013 54 10000 6.7 200 12:57 29.07.2019
4503 Clear 29 1013 58 10000 5.1 200 12:38 29.07.2019
4504 Clear 28 1013 65 10000 5.7 210 12:19 29.07.2019
4505 Clear 28 1013 65 10000 6.7 210 11:40 29.07.2019
4506 Clear 28 1013 65 10000 5.7 210 11:19 29.07.2019
4507 Clear 27 1013 65 10000 4.6 220 10:42 29.07.2019
4508 Clear 26 1013 65 10000 2.1 220 10:21 29.07.2019
4509 Clear 26 1013 65 10000 2.1 220 10:21 29.07.2019
4510 Clear 26 1013 53 10000 0.5 40 09:44 29.07.2019
4511 Clear 25 1012 49 10000 0.5 0 09:21 29.07.2019
4512 Clear 23 1012 53 10000 0.5 0 08:43 29.07.2019
4513 Clear 22 1012 53 10000 0.5 0 08:24 29.07.2019
4514 Clear 20 1012 59 10000 2.1 340 07:46 29.07.2019
4515 Clear 19 1012 63 10000 1.5 350 07:27 29.07.2019
4516 Clear 20 1012 68 10000 2.1 360 06:40 29.07.2019
4517 Clear 20 1011 68 10000 1 360 05:36 29.07.2019
4518 Clear 22 1012 52 10000 2.1 340 02:54 29.07.2019
4519 Clear 22 1012 53 10000 1.5 330 01:50 29.07.2019
4520 Clear 22 1012 53 10000 1.5 330 01:31 29.07.2019
4521 Clear 23 1012 46 10000 2.1 330 00:57 29.07.2019
4522 Clear 23 1012 53 10000 1.5 310 00:24 29.07.2019
4523 Clear 24 1012 60 10000 1.5 360 23:43 28.07.2019
4524 Clear 24 1012 60 10000 1.5 60 23:24 28.07.2019
4525 Clear 25 1011 57 10000 2.6 40 22:44 28.07.2019
4526 Clear 25 1011 57 10000 2.6 40 22:44 28.07.2019
4527 Clear 25 1011 57 10000 2.6 40 22:26 28.07.2019
4528 Clear 25 1011 57 10000 2.6 40 21:54 28.07.2019
4529 Clear 26 1010 44 10000 3.1 300 21:36 28.07.2019
4530 Clear 26 1010 37 10000 4.1 270 21:18 28.07.2019
4531 Clear 27 1010 35 10000 3.1 0 20:42 28.07.2019
4532 Clear 27 1010 35 10000 3.1 0 20:23 28.07.2019
4533 Clear 28 1009 33 10000 3.1 310 19:40 28.07.2019
4534 Clear 29 1010 33 10000 4.1 320 19:21 28.07.2019
4535 Clear 29 1010 33 10000 4.1 320 18:46 28.07.2019
4536 Clear 29 1010 33 10000 4.1 320 18:27 28.07.2019
4537 Clear 29 1009 45 10000 4.6 330 17:56 28.07.2019
4538 Clear 30 1010 45 10000 5.1 360 17:38 28.07.2019
4539 Clear 30 1010 29 10000 5.1 0 17:19 28.07.2019
4540 Clear 29 1010 25 10000 2.6 0 16:42 28.07.2019
4541 Clear 29 1010 25 10000 2.6 0 16:24 28.07.2019
4542 Clear 29 1010 37 10000 5.1 330 15:48 28.07.2019
4543 Clear 29 1010 37 10000 5.1 330 15:27 28.07.2019
4544 Clear 29 1010 42 10000 4.6 310 14:56 28.07.2019
4545 Clear 29 1010 40 10000 4.6 280 14:36 28.07.2019
4546 Clear 28 1010 42 10000 3.6 280 14:18 28.07.2019
4547 Clear 28 1010 42 10000 3.6 280 14:18 28.07.2019
4548 Clear 28 1010 45 10000 5.1 310 13:40 28.07.2019
4549 Clear 28 1010 42 10000 1.5 0 13:21 28.07.2019
4550 Clear 27 1010 47 10000 2.6 0 12:46 28.07.2019
4551 Clear 27 1010 47 10000 2.6 0 12:28 28.07.2019
4552 Clear 27 1010 51 10000 3.1 270 11:51 28.07.2019
4553 Clear 27 1010 51 10000 3.1 270 11:31 28.07.2019
4554 Clear 26 1010 54 10000 3.1 300 10:59 28.07.2019
4555 Clear 26 1010 54 10000 3.1 290 10:39 28.07.2019
4556 Clear 26 1010 54 10000 3.1 300 10:19 28.07.2019
4557 Clear 26 1009 57 10000 3.1 320 09:40 28.07.2019
4558 Clear 25 1009 53 10000 2.6 50 09:22 28.07.2019
4559 Clear 24 1009 57 10000 3.6 10 08:44 28.07.2019
4560 Clear 24 1009 57 10000 3.6 10 08:26 28.07.2019
4561 Clear 24 1008 60 10000 1.5 270 07:44 28.07.2019
4562 Clear 23 1008 60 10000 1.5 270 07:26 28.07.2019
4563 Clear 23 1007 56 10000 5.7 320 06:38 28.07.2019
4564 Clear 24 1007 57 10000 4.6 320 05:23 28.07.2019
4565 Clear 26 1007 50 10000 5.1 320 03:23 28.07.2019
4566 Clear 27 1007 54 10000 4.1 320 02:19 28.07.2019
4567 Clear 27 1006 51 10000 2.6 300 01:18 28.07.2019
4568 Clear 27 1006 51 10000 1.5 330 00:44 28.07.2019
4569 Clear 27 1006 54 10000 1.5 0 00:18 28.07.2019
4570 Clear 27 1006 54 10000 1 0 23:44 27.07.2019
4571 Clear 27 1006 57 10000 3.1 280 23:18 27.07.2019
4572 Clear 27 1005 51 10000 2.6 270 22:40 27.07.2019
4573 Clear 27 1005 61 10000 2.1 310 22:19 27.07.2019
4574 Clear 27 1005 61 10000 3.6 280 21:39 27.07.2019
4575 Clear 28 1004 61 10000 4.1 320 21:20 27.07.2019
4576 Clear 28 1004 58 10000 5.1 320 20:50 27.07.2019
4577 Clear 29 1004 58 10000 4.6 300 20:23 27.07.2019
4578 Clear 29 1004 58 10000 6.2 320 19:46 27.07.2019
4579 Clouds 28 1003 54 10000 5.7 310 19:26 27.07.2019
4580 Clouds 28 1003 54 10000 5.7 310 18:52 27.07.2019
4581 Clear 29 1003 42 10000 6.2 290 18:34 27.07.2019
4582 Clear 29 1003 42 10000 6.2 290 18:34 27.07.2019
4583 Clear 29 1004 37 10000 8.2 240 17:57 27.07.2019
4584 Clear 30 1004 35 10000 9.3 230 17:36 27.07.2019
4585 Clear 30 1004 37 10000 7.7 240 17:18 27.07.2019
4586 Clear 31 1004 37 10000 8.2 250 16:42 27.07.2019
4587 Clear 31 1004 37 10000 8.2 250 16:23 27.07.2019
4588 Clear 30 1004 54 10000 8.7 220 15:52 27.07.2019
4589 Clouds 31 1004 55 10000 9.8 210 15:21 27.07.2019
4590 Clouds 31 1005 62 10000 8.7 220 14:51 27.07.2019
4591 Clouds 31 1005 62 10000 8.7 220 14:32 27.07.2019
4592 Clear 30 1005 51 10000 8.2 210 13:56 27.07.2019
4593 Clouds 30 1006 62 10000 8.2 210 13:38 27.07.2019
4594 Clear 29 1006 62 10000 7.2 210 13:19 27.07.2019
4595 Clouds 30 1006 66 10000 6.7 220 12:41 27.07.2019
4596 Clouds 29 1006 69 10000 4.6 210 12:22 27.07.2019
4597 Clear 29 1006 65 10000 4.6 210 11:44 27.07.2019
4598 Clear 28 1006 65 10000 4.6 210 11:25 27.07.2019
4599 Clear 27 1006 69 10000 2.1 0 10:43 27.07.2019
4600 Clear 27 1006 69 10000 2.1 0 10:24 27.07.2019
4601 Clear 27 1006 74 10000 1.5 230 09:59 27.07.2019
4602 Clear 26 1007 74 10000 1 170 09:39 27.07.2019
4603 Clear 25 1007 78 10000 1 0 09:20 27.07.2019
4604 Clouds 25 1007 83 10000 1 20 08:42 27.07.2019
4605 Clouds 25 1007 83 10000 1 20 08:23 27.07.2019
4606 Clear 24 1007 88 10000 2.1 30 07:42 27.07.2019
4607 Clear 24 1007 83 10000 1.5 40 07:22 27.07.2019
4608 Clear 24 1007 88 10000 1 0 06:52 27.07.2019
4609 Clear 24 1006 88 10000 1.5 110 06:25 27.07.2019
4610 Clear 24 1007 83 10000 0.87 355.802 05:37 27.07.2019
4611 Clear 25 1007 83 10000 1.5 210 04:52 27.07.2019
4612 Clear 25 1007 78 10000 1.5 210 03:55 27.07.2019
4613 Clouds 25 1008 78 10000 2.1 210 02:43 27.07.2019
4614 Clouds 26 1007 83 10000 0.5 210 02:20 27.07.2019
4615 Clouds 26 1009 74 10000 2.1 200 01:38 27.07.2019
4616 Clouds 26 1009 78 10000 1.5 210 00:51 27.07.2019
4617 Clouds 26 1009 78 10000 1.5 210 00:31 27.07.2019
4618 Clouds 26 1009 78 10000 2.6 180 23:49 26.07.2019
4619 Clouds 26 1009 78 10000 2.6 180 23:26 26.07.2019
4620 Clouds 27 1009 78 10000 2.1 190 22:45 26.07.2019
4621 Clouds 27 1009 78 10000 2.1 190 22:45 26.07.2019
4622 Clear 27 1009 78 10000 2.1 180 22:26 26.07.2019
4623 Clear 27 1009 78 10000 2.1 180 21:58 26.07.2019
4624 Clear 27 1009 78 10000 3.1 200 21:37 26.07.2019
4625 Clear 27 1008 74 10000 4.6 200 21:18 26.07.2019
4626 Clear 28 1009 74 10000 6.7 210 20:41 26.07.2019
4627 Clear 27 1009 74 10000 6.7 210 20:21 26.07.2019
4628 Clear 29 1009 58 10000 3.6 220 19:42 26.07.2019
4629 Clear 30 1009 54 10000 1 0 19:23 26.07.2019
4630 Clear 29 1009 58 10000 2.6 210 18:47 26.07.2019
4631 Clear 30 1010 65 10000 4.6 220 18:23 26.07.2019
4632 Clear 29 1010 65 10000 4.6 220 17:58 26.07.2019
4633 Clouds 29 1010 66 10000 5.1 220 17:40 26.07.2019
4634 Clouds 29 1011 66 10000 5.7 220 17:18 26.07.2019
4635 Clouds 29 1011 66 10000 5.7 220 16:56 26.07.2019
4636 Clear 29 1011 66 10000 6.2 220 16:37 26.07.2019
4637 Clouds 31 1010 74 10000 7.7 230 16:18 26.07.2019
4638 -273 0 0 0 0 0 15:45 26.07.2019
4639 Clear 30 1011 66 10000 6.7 220 15:26 26.07.2019
4640 Clear 29 1011 66 10000 6.7 220 14:59 26.07.2019
4641 Clear 30 1011 70 10000 7.7 220 14:40 26.07.2019
4642 Clear 30 1011 62 10000 8.2 220 14:21 26.07.2019
4643 Clear 31 1012 55 10000 6.7 220 13:40 26.07.2019
4644 Clear 32 1012 49 10000 6.7 220 13:22 26.07.2019
4645 Clear 32 1012 45 10000 5.1 230 12:47 26.07.2019
4646 Clear 32 1012 45 10000 5.1 220 12:20 26.07.2019
4647 Clear 32 1012 33 10000 2.6 130 11:40 26.07.2019
4648 Clear 33 1012 35 10000 2.6 140 11:20 26.07.2019
4649 Clear 32 1012 35 10000 2.6 140 10:56 26.07.2019
4650 Clear 31 1012 33 10000 2.1 130 10:38 26.07.2019
4651 Clear 31 1013 35 10000 1 0 09:55 26.07.2019
4652 Clear 29 1013 39 10000 0.5 0 09:37 26.07.2019
4653 Clear 26 1013 41 10000 2.1 340 08:57 26.07.2019
4654 Clear 26 1013 41 10000 2.1 340 08:57 26.07.2019
4655 Clear 26 1013 44 10000 2.1 330 08:39 26.07.2019
4656 Clear 24 1013 47 10000 2.6 10 08:20 26.07.2019
4657 Clear 23 1013 49 10000 2.1 350 07:33 26.07.2019
4658 Clear 23 1013 46 10000 2.6 350 06:56 26.07.2019
4659 Clear 24 1013 44 10000 1.5 360 05:23 26.07.2019
4660 Clear 24 1013 50 10000 2.1 340 04:29 26.07.2019
4661 Clear 24 1014 50 10000 1.5 340 03:44 26.07.2019
4662 Clear 25 1014 53 10000 1.5 340 01:45 26.07.2019
4663 Clear 26 1015 54 10000 1 60 00:49 26.07.2019
4664 Clear 27 1015 51 10000 1.5 30 00:25 26.07.2019
4665 Clear 27 1015 54 10000 1.5 360 23:26 25.07.2019
4666 Clear 27 1015 54 10000 1.5 360 23:26 25.07.2019
4667 Clear 27 1015 58 10000 0.5 260 22:59 25.07.2019
4668 Clear 28 1015 61 10000 0.5 0 22:41 25.07.2019
4669 Clear 28 1014 61 10000 3.1 240 22:21 25.07.2019
4670 Clear 28 1015 61 10000 0.5 0 22:21 25.07.2019
4671 Clear 28 1014 61 10000 3.1 230 21:47 25.07.2019
4672 Clear 29 1014 61 10000 3.1 230 21:23 25.07.2019
4673 Clear 29 1014 51 10000 5.7 230 20:49 25.07.2019
4674 Clear 30 1014 51 10000 5.7 230 20:31 25.07.2019
4675 Clear 30 1014 48 10000 5.1 230 19:57 25.07.2019
4676 Clear 31 1014 43 10000 5.7 230 19:39 25.07.2019
4677 Clear 32 1014 35 10000 4.6 240 19:21 25.07.2019
4678 Clear 32 1014 29 10000 5.1 220 18:41 25.07.2019
4679 Clear 33 1014 38 10000 5.1 220 18:22 25.07.2019
4680 Clear 33 1015 40 10000 5.1 220 17:48 25.07.2019
4681 Clear 33 1015 40 10000 5.1 220 17:30 25.07.2019
4682 Clear 34 1015 38 10000 7.2 210 16:56 25.07.2019
4683 Clear 33 1015 38 10000 7.2 210 16:37 25.07.2019
4684 Clear 34 1015 33 10000 7.7 210 16:18 25.07.2019
4685 Clear 32 1015 29 10000 7.2 220 15:42 25.07.2019
4686 Clear 32 1015 35 10000 7.2 210 15:19 25.07.2019
4687 Clear 32 1015 55 10000 7.7 210 14:42 25.07.2019
4688 Clear 30 1015 55 10000 7.7 210 14:23 25.07.2019
4689 Clear 33 1015 46 10000 6.7 210 13:45 25.07.2019
4690 Clear 33 1015 38 10000 5.1 210 13:26 25.07.2019
4691 Clear 33 1015 46 10000 6.7 210 13:26 25.07.2019
4692 Clear 33 1015 38 10000 5.1 210 12:58 25.07.2019
4693 Clear 33 1015 36 10000 2.6 140 12:29 25.07.2019
4694 Clear 32 1015 40 10000 2.6 70 11:47 25.07.2019
4695 Clear 31 1015 40 10000 2.6 70 11:25 25.07.2019
4696 Clear 32 1015 45 10000 2.6 70 10:59 25.07.2019
4697 Clear 31 1016 51 10000 2.6 70 10:37 25.07.2019
4698 Clear 30 1016 58 10000 2.1 60 10:18 25.07.2019
4699 Clear 28 1016 65 10000 3.1 50 09:44 25.07.2019
4700 Clear 27 1016 65 10000 3.1 50 09:25 25.07.2019
4701 Clear 26 1016 74 10000 2.1 50 08:44 25.07.2019
4702 Clear 25 1016 78 10000 1.5 360 08:19 25.07.2019
4703 Clear 24 1015 73 10000 1 0 07:36 25.07.2019
4704 Clear 24 1015 69 10000 1 0 06:43 25.07.2019
4705 Clear 24 1015 69 10000 1.5 360 05:48 25.07.2019
4706 Clear 24 1015 69 10000 1.5 360 05:30 25.07.2019
4707 Clear 25 1016 64 10000 1.5 330 04:38 25.07.2019
4708 Clear 26 1016 50 10000 1.5 330 01:48 25.07.2019
4709 Clear 27 1016 47 10000 1.5 20 01:20 25.07.2019
4710 Clear 27 1016 47 10000 1.5 10 00:20 25.07.2019
4711 Clear 27 1016 69 10000 0.5 0 23:50 24.07.2019
4712 Clear 27 1016 69 10000 0.5 0 23:31 24.07.2019
4713 Clear 27 1016 69 10000 1 200 22:58 24.07.2019
4714 Clear 27 1016 65 10000 1 190 22:39 24.07.2019
4715 Clear 28 1016 58 10000 2.1 210 22:20 24.07.2019
4716 Clear 28 1016 51 10000 2.6 200 21:43 24.07.2019
4717 Clear 29 1016 45 10000 2.6 200 21:22 24.07.2019
4718 Clear 29 1016 45 10000 2.6 200 20:58 24.07.2019
4719 Clear 29 1015 45 10000 3.6 210 20:38 24.07.2019
4720 Clear 30 1015 48 10000 3.1 210 20:20 24.07.2019
4721 Clear 30 1015 48 10000 3.1 210 19:54 24.07.2019
4722 Clear 31 1015 51 10000 4.1 210 19:36 24.07.2019
4723 Clear 31 1015 52 10000 4.6 210 19:18 24.07.2019
4724 Clear 30 1016 51 10000 4.6 220 18:40 24.07.2019
4725 Clear 32 1016 52 10000 4.6 210 18:22 24.07.2019
4726 Clear 32 1016 48 10000 6.2 220 17:42 24.07.2019
4727 Clear 31 1016 45 10000 7.2 210 17:20 24.07.2019
4728 Clear 31 1016 48 10000 7.7 210 16:41 24.07.2019
4729 Clear 32 1016 43 10000 7.7 220 16:22 24.07.2019
4730 Clear 33 1016 29 10000 6.7 200 15:41 24.07.2019
4731 Clear 35 1016 24 10000 6.7 210 15:23 24.07.2019
4732 Clear 35 1016 24 10000 6.7 210 14:57 24.07.2019
4733 Clear 35 1016 24 10000 6.2 210 14:38 24.07.2019
4734 Clear 35 1016 24 10000 6.2 210 14:38 24.07.2019
4735 Clear 35 1016 28 10000 5.7 200 14:19 24.07.2019
4736 Clear 35 1016 23 10000 3.1 220 13:37 24.07.2019
4737 Clear 35 1017 23 10000 2.6 200 13:18 24.07.2019
4738 Clear 34 1017 24 10000 3.1 220 12:50 24.07.2019
4739 Clear 34 1017 24 10000 3.1 220 12:30 24.07.2019
4740 Clear 33 1017 27 10000 1.5 0 11:40 24.07.2019
4741 Clear 32 1017 27 10000 1 0 11:20 24.07.2019
4742 Clear 32 1017 27 10000 1.5 20 10:44 24.07.2019
4743 Clear 31 1017 30 10000 1 360 10:25 24.07.2019
4744 Clear 30 1017 42 10000 1.5 340 09:48 24.07.2019
4745 Clear 27 1017 42 10000 1.5 340 09:25 24.07.2019
4746 Clear 27 1017 47 10000 1.5 340 08:58 24.07.2019
4747 Clear 26 1017 50 10000 1.5 350 08:30 24.07.2019
4748 Clear 23 1017 56 10000 2.6 350 07:52 24.07.2019
4749 Clear 23 1017 56 10000 2.6 350 07:24 24.07.2019
4750 Clear 23 1017 56 10000 2.1 330 06:33 24.07.2019
4751 Clear 23 1017 56 10000 1.5 330 05:56 24.07.2019
4752 Clear 25 1017 69 10000 1 0 02:54 24.07.2019
4753 Clear 26 1017 50 10000 2.1 350 01:31 24.07.2019
4754 Clear 26 1017 54 10000 1.5 320 00:57 24.07.2019
4755 Clear 26 1017 50 10000 1.5 340 00:24 24.07.2019
4756 Clear 27 1017 48 10000 2.6 40 23:45 23.07.2019
4757 Clear 27 1017 48 10000 2.6 40 23:25 23.07.2019
4758 Clear 27 1017 58 10000 1.5 70 22:56 23.07.2019
4759 Clear 27 1017 54 10000 2.29 82.763 22:36 23.07.2019
4760 Clear 28 1017 51 10000 1 170 22:18 23.07.2019
4761 Clear 28 1017 51 10000 1 170 22:18 23.07.2019
4762 Clear 28 1017 54 10000 2.1 190 21:43 23.07.2019
4763 Clear 29 1017 54 10000 2.1 190 21:25 23.07.2019
4764 Clear 29 1017 37 10000 3.6 210 20:48 23.07.2019
4765 Clear 30 1017 37 10000 3.6 210 20:29 23.07.2019
4766 Clear 31 1017 40 10000 3.6 200 19:43 23.07.2019
4767 Clear 31 1017 40 10000 3.6 200 19:24 23.07.2019
4768 Clear 31 1017 40 10000 3.6 210 18:56 23.07.2019
4769 Clear 33 1017 33 10000 4.1 200 18:38 23.07.2019
4770 Clear 33 1017 35 10000 4.6 210 18:19 23.07.2019
4771 Clear 33 1018 27 10000 5.7 200 17:42 23.07.2019
4772 Clear 34 1018 22 10000 6.2 210 17:20 23.07.2019
4773 Clear 34 1018 18 10000 6.7 220 16:42 23.07.2019
4774 Clear 34 1018 18 10000 6.7 220 16:24 23.07.2019
4775 Clear 34 1018 29 10000 7.2 210 15:48 23.07.2019
4776 Clear 34 1018 29 10000 7.2 210 15:48 23.07.2019
4777 Clear 34 1018 33 10000 6.7 220 15:29 23.07.2019
4778 Clear 34 1018 33 10000 6.7 220 14:55 23.07.2019
4779 Clear 33 1018 38 10000 6.7 220 14:36 23.07.2019
4780 Clear 32 1018 46 10000 6.2 220 14:18 23.07.2019
4781 Clear 34 1018 32 10000 4.1 220 13:42 23.07.2019
4782 Clear 34 1018 26 10000 3.6 210 13:23 23.07.2019
4783 Clear 34 1018 26 10000 3.6 210 12:59 23.07.2019
4784 Clear 35 1019 23 10000 2.1 140 12:41 23.07.2019
4785 Clear 33 1019 24 10000 2.1 0 12:21 23.07.2019
4786 Clear 34 1019 26 10000 2.1 110 11:41 23.07.2019
4787 Clear 32 1019 26 10000 2.1 110 11:21 23.07.2019
4788 Clear 32 1019 31 10000 1.5 0 10:49 23.07.2019
4789 Clear 30 1019 37 10000 0.5 220 10:22 23.07.2019
4790 Clear 30 1019 42 10000 1 0 09:43 23.07.2019
4791 Clear 28 1019 47 10000 1.5 330 09:22 23.07.2019
4792 Clear 27 1019 47 10000 1.5 330 08:54 23.07.2019
4793 Clear 26 1019 53 10000 1.5 340 08:36 23.07.2019
4794 Clear 25 1019 56 10000 2.6 360 08:18 23.07.2019
4795 Clear 23 1019 56 10000 2.6 350 07:38 23.07.2019
4796 Clear 23 1019 60 10000 1 340 06:57 23.07.2019
4797 Clear 23 1019 60 10000 1 340 06:36 23.07.2019
4798 Clear 25 1020 64 10000 1 360 04:27 23.07.2019
4799 Clear 26 1020 47 10000 1.5 10 01:40 23.07.2019
4800 Clear 26 1020 54 10000 0.5 0 00:41 23.07.2019
4801 Clear 26 1021 54 10000 1 80 00:19 23.07.2019
4802 Clear 27 1021 54 10000 1 180 23:39 22.07.2019
4803 Clear 27 1021 48 10000 1 140 23:20 22.07.2019
4804 Clear 28 1021 45 10000 1.5 170 22:45 22.07.2019
4805 Clear 28 1021 45 10000 1.5 170 22:23 22.07.2019
4806 Clear 29 1020 39 10000 3.1 200 21:54 22.07.2019
4807 Clear 29 1020 39 10000 3.1 210 21:36 22.07.2019
4808 Clear 30 1020 37 10000 3.6 220 21:18 22.07.2019
4809 Clear 30 1020 37 10000 3.6 220 21:18 22.07.2019
4810 Clear 31 1020 40 10000 4.6 230 20:41 22.07.2019
4811 Clear 32 1020 40 10000 4.1 230 20:22 22.07.2019
4812 Clear 32 1020 38 10000 5.1 230 19:42 22.07.2019
4813 Clear 33 1020 38 10000 6.2 230 19:23 22.07.2019
4814 Clear 34 1020 38 10000 5.7 230 18:48 22.07.2019
4815 Clear 34 1020 38 10000 5.7 230 18:28 22.07.2019
4816 Clear 35 1021 38 10000 8.2 220 17:59 22.07.2019
4817 Clear 35 1021 38 10000 6.7 230 17:38 22.07.2019
4818 Clear 36 1021 38 10000 6.7 230 17:20 22.07.2019
4819 Clear 35 1021 36 10000 6.7 220 16:41 22.07.2019
4820 Clear 35 1021 36 10000 6.7 220 16:21 22.07.2019
4821 Clear 36 1021 38 10000 6.2 230 15:55 22.07.2019
4822 Clear 35 1021 34 10000 6.2 230 15:36 22.07.2019
4823 Clear 34 1021 34 10000 5.7 220 15:18 22.07.2019
4824 Clear 34 1021 36 10000 6.7 220 14:42 22.07.2019
4825 Clear 35 1022 38 10000 7.2 230 14:19 22.07.2019
4826 Clear 36 1022 25 10000 3.6 130 13:45 22.07.2019
4827 Clear 36 1022 26 10000 3.6 70 13:22 22.07.2019
4828 Clear 35 1022 28 10000 3.6 110 12:44 22.07.2019
4829 Clear 35 1022 31 10000 4.6 70 12:24 22.07.2019
4830 Clear 34 1022 33 10000 5.1 70 11:44 22.07.2019
4831 Clear 33 1022 33 10000 4.6 70 11:20 22.07.2019
4832 Clear 31 1022 33 10000 4.1 60 10:48 22.07.2019
4833 Clear 31 1022 33 10000 4.1 60 10:27 22.07.2019
4834 Clear 29 1022 48 10000 2.1 60 09:44 22.07.2019
4835 Clear 28 1022 48 10000 2.1 60 09:24 22.07.2019
4836 Clear 25 1022 57 10000 2.1 50 08:45 22.07.2019
4837 Clear 25 1022 57 10000 2.1 50 08:25 22.07.2019
4838 Clear 25 1022 53 10000 1.5 350 07:58 22.07.2019
4839 Clear 23 1022 53 10000 1.5 360 07:40 22.07.2019
4840 Clear 23 1022 53 10000 1.5 350 07:21 22.07.2019
4841 Clear 25 1022 69 10000 2.1 60 03:57 22.07.2019
4842 Clear 26 1022 61 10000 2.1 20 02:43 22.07.2019
4843 Clear 26 1022 50 10000 2.1 70 00:57 22.07.2019
4844 Clear 27 1022 42 10000 0.5 0 00:28 22.07.2019
4845 Clear 27 1022 42 10000 0.5 0 23:56 21.07.2019
4846 Clear 27 1022 42 10000 1 70 23:36 21.07.2019
4847 Clear 28 1022 39 10000 2.1 80 22:55 21.07.2019
4848 Clear 28 1021 37 10000 2.1 60 22:36 21.07.2019
4849 Clear 29 1020 37 10000 2.1 100 22:18 21.07.2019
4850 Clear 30 1020 35 10000 3.6 110 21:44 21.07.2019
4851 Clear 30 1020 35 10000 3.6 110 21:24 21.07.2019
4852 Clear 31 1020 31 10000 4.1 90 20:55 21.07.2019
4853 Clear 33 1020 29 10000 4.1 120 20:37 21.07.2019
4854 Clear 33 1020 29 10000 4.1 110 20:19 21.07.2019
4855 Clear 34 1020 24 10000 4.6 120 19:47 21.07.2019
4856 Clear 34 1020 26 10000 4.6 120 19:24 21.07.2019
4857 Clear 35 1020 24 10000 4.1 110 18:48 21.07.2019
4858 Clear 35 1020 24 10000 4.1 110 18:48 21.07.2019
4859 Clear 35 1020 23 10000 4.1 110 18:26 21.07.2019
4860 Clear 35 1020 24 10000 4.6 90 17:44 21.07.2019
4861 Clear 35 1020 24 10000 4.6 90 17:44 21.07.2019
4862 Clear 35 1020 24 10000 4.6 100 17:21 21.07.2019
4863 Clear 36 1020 24 10000 4.6 100 16:59 21.07.2019
4864 Clear 35 1020 21 10000 5.7 80 16:40 21.07.2019
4865 Clear 36 1020 21 10000 5.1 100 16:20 21.07.2019
4866 Clear 36 1020 21 10000 5.7 90 15:39 21.07.2019
4867 Clear 36 1020 21 10000 4.6 120 15:19 21.07.2019
4868 Clear 35 1021 26 10000 5.1 130 14:42 21.07.2019
4869 Clear 35 1021 30 10000 5.7 100 14:23 21.07.2019
4870 Clear 34 1021 26 10000 5.1 130 13:53 21.07.2019
4871 Clear 34 1021 26 10000 5.1 130 13:32 21.07.2019
4872 Clear 33 1020 33 10000 4.1 80 12:46 21.07.2019
4873 Clear 33 1020 46 10000 4.6 60 12:28 21.07.2019
4874 Clear 33 1020 46 10000 4.6 60 11:55 21.07.2019
4875 Clear 32 1020 48 10000 5.1 80 11:37 21.07.2019
4876 Clear 31 1020 51 10000 5.7 70 11:18 21.07.2019
4877 Clear 30 1020 54 10000 5.7 70 10:41 21.07.2019
4878 Clear 29 1020 61 10000 5.7 60 10:22 21.07.2019
4879 Clear 28 1020 69 10000 5.7 80 09:45 21.07.2019
4880 Clear 27 1020 69 10000 5.7 80 09:25 21.07.2019
4881 Clear 26 1019 78 10000 4.6 70 08:45 21.07.2019
4882 Clear 26 1019 78 10000 4.6 70 08:27 21.07.2019
4883 Clear 25 1019 73 10000 4.6 60 07:39 21.07.2019
4884 Clear 24 1019 47 10000 2.6 10 06:52 21.07.2019
4885 Clear 24 1018 47 10000 2.1 360 05:45 21.07.2019
4886 Clear 24 1019 47 10000 2.1 340 02:58 21.07.2019
4887 Clear 25 1019 36 10000 2.6 70 01:24 21.07.2019
4888 Clear 26 1019 42 10000 2.6 40 00:42 21.07.2019
4889 Clear 26 1019 47 10000 2.6 60 00:19 21.07.2019
4890 Clear 26 1018 51 10000 3.1 60 23:42 20.07.2019
4891 Clear 27 1018 48 10000 3.1 60 23:21 20.07.2019
4892 Clear 27 1018 45 10000 3.6 60 22:46 20.07.2019
4893 Clear 28 1017 42 10000 3.6 70 22:22 20.07.2019
4894 Clear 28 1017 42 10000 3.6 70 21:57 20.07.2019
4895 Clear 29 1017 37 10000 4.6 90 21:39 20.07.2019
4896 Clear 30 1017 38 10000 4.6 90 21:20 20.07.2019
4897 Clear 32 1016 35 10000 5.1 100 20:41 20.07.2019
4898 Clear 32 1016 35 10000 5.1 110 20:21 20.07.2019
4899 Clear 33 1016 33 10000 5.1 110 19:46 20.07.2019
4900 Clear 33 1016 33 10000 5.7 110 19:23 20.07.2019
4901 Clear 34 1016 32 10000 5.7 120 18:44 20.07.2019
4902 Clear 34 1016 28 10000 5.1 100 18:22 20.07.2019
4903 Clear 35 1016 30 10000 5.7 90 17:55 20.07.2019
4904 Clear 35 1016 30 10000 5.7 90 17:26 20.07.2019
4905 Clear 35 1016 28 10000 4.1 120 16:45 20.07.2019
4906 Clear 36 1016 28 10000 4.1 120 16:27 20.07.2019
4907 Clear 34 1016 41 10000 4.1 250 15:58 20.07.2019
4908 Clear 34 1017 46 10000 5.1 240 15:40 20.07.2019
4909 Clear 33 1017 43 10000 6.7 230 15:20 20.07.2019
4910 Clear 33 1017 41 10000 5.7 220 14:49 20.07.2019
4911 Clear 34 1017 41 10000 5.7 220 14:29 20.07.2019
4912 Clear 33 1017 46 10000 6.2 210 13:56 20.07.2019
4913 Clear 35 1017 32 10000 4.1 130 13:37 20.07.2019
4914 Clear 34 1016 36 10000 3.6 100 13:18 20.07.2019
4915 Clear 33 1016 36 10000 3.6 60 12:40 20.07.2019
4916 Clear 33 1016 40 10000 3.6 100 12:18 20.07.2019
4917 Clear 31 1016 43 10000 3.6 110 11:41 20.07.2019
4918 Clear 31 1016 45 10000 4.1 80 11:20 20.07.2019
4919 Clear 30 1016 51 10000 4.1 90 10:41 20.07.2019
4920 Clear 29 1016 48 10000 4.6 90 10:22 20.07.2019
4921 Clear 28 1015 51 10000 5.7 60 09:48 20.07.2019
4922 Clear 28 1015 51 10000 5.7 60 09:25 20.07.2019
4923 Clear 26 1016 61 10000 2.1 30 08:49 20.07.2019
4924 Clear 25 1016 64 10000 1.5 10 08:23 20.07.2019
4925 Clear 24 1016 64 10000 2.1 350 07:35 20.07.2019
4926 Clear 23 1016 68 10000 2.6 330 06:46 20.07.2019
4927 Clear 23 1016 73 10000 1.5 50 05:24 20.07.2019
4928 Clear 24 1016 78 10000 1.5 70 04:31 20.07.2019
4929 Clear 24 1016 73 10000 2.6 70 01:55 20.07.2019
4930 Clear 25 1016 69 10000 1.5 60 00:53 20.07.2019
4931 Clear 26 1016 69 10000 1.5 60 00:33 20.07.2019
4932 Clear 26 1016 61 10000 2.1 70 23:59 19.07.2019
4933 Clear 26 1016 61 10000 2.1 120 23:39 19.07.2019
4934 Clear 27 1016 57 10000 2.1 160 23:20 19.07.2019
4935 Clear 27 1016 54 10000 2.1 90 22:41 19.07.2019
4936 Clear 28 1015 48 10000 2.1 130 22:22 19.07.2019
4937 Clear 28 1015 58 10000 1.5 260 21:44 19.07.2019
4938 Clear 28 1015 58 10000 1.5 260 21:26 19.07.2019
4939 Clear 28 1015 54 10000 4.1 230 20:44 19.07.2019
4940 Clear 28 1015 54 10000 4.1 230 20:26 19.07.2019
4941 Clear 28 1015 54 10000 4.1 230 20:26 19.07.2019
4942 Clear 30 1016 51 10000 5.1 230 19:45 19.07.2019
4943 Clear 31 1016 45 10000 4.1 230 19:20 19.07.2019
4944 Clear 30 1016 45 10000 6.2 230 18:42 19.07.2019
4945 Clear 31 1016 42 10000 6.7 230 18:21 19.07.2019
4946 Clear 31 1016 42 10000 6.7 230 18:21 19.07.2019
4947 Clear 31 1016 48 10000 6.7 220 17:52 19.07.2019
4948 Clear 30 1016 45 10000 6.7 220 17:27 19.07.2019
4949 Clear 30 1017 42 10000 6.2 210 16:49 19.07.2019
4950 Clear 31 1017 48 10000 6.7 230 16:26 19.07.2019
4951 Clear 30 1017 45 10000 7.2 220 15:52 19.07.2019
4952 Clear 31 1017 45 10000 7.2 220 15:31 19.07.2019
4953 Clear 31 1017 45 10000 7.2 220 14:57 19.07.2019
4954 Clear 31 1017 42 10000 6.7 220 14:39 19.07.2019
4955 Clear 30 1018 48 10000 6.2 230 14:21 19.07.2019
4956 Clear 31 1018 48 10000 6.7 220 13:44 19.07.2019
4957 Clear 31 1018 48 10000 6.7 220 13:44 19.07.2019
4958 Clear 31 1018 48 10000 6.7 220 13:44 19.07.2019
4959 Clear 30 1018 48 10000 6.7 220 13:26 19.07.2019
4960 Clear 30 1018 51 10000 6.2 210 12:55 19.07.2019
4961 Clear 30 1018 51 10000 6.2 210 12:31 19.07.2019
4962 Clear 30 1018 51 10000 6.2 210 12:31 19.07.2019
4963 Clear 30 1018 42 10000 3.1 170 11:59 19.07.2019
4964 Clear 30 1018 37 10000 1.5 0 11:41 19.07.2019
4965 Clear 30 1018 42 10000 1.5 0 11:18 19.07.2019
4966 Clear 30 1018 45 10000 1.5 160 10:47 19.07.2019
4967 Clear 29 1018 51 10000 1 120 10:22 19.07.2019
4968 Clear 29 1018 51 10000 1 120 09:58 19.07.2019
4969 Clear 28 1017 47 10000 0.5 0 09:40 19.07.2019
4970 Clear 25 1017 50 10000 1 0 09:21 19.07.2019
4971 Clear 24 1017 53 10000 1 0 08:48 19.07.2019
4972 Clear 22 1017 56 10000 2.1 350 07:55 19.07.2019
4973 Clear 21 1017 64 10000 1.5 340 07:29 19.07.2019
4974 Clear 22 1017 56 10000 2.1 350 05:57 19.07.2019
4975 Clear 23 1017 56 10000 2.1 340 02:43 19.07.2019
4976 Clear 24 1017 57 10000 2.1 340 01:20 19.07.2019
4977 Clear 24 1017 57 10000 1.5 360 00:45 19.07.2019
4978 Clear 25 1017 61 10000 0.5 0 23:58 18.07.2019
4979 Clear 25 1017 69 10000 0.5 0 23:39 18.07.2019
4980 Clear 25 1016 69 10000 1.67 125.102 23:21 18.07.2019
4981 Clear 26 1016 69 10000 1 170 22:40 18.07.2019
4982 Clear 26 1016 65 10000 1.5 200 22:20 18.07.2019
4983 Clear 26 1016 65 10000 2.6 210 21:44 18.07.2019
4984 Clear 27 1016 65 10000 2.6 210 21:26 18.07.2019
4985 Clear 27 1016 57 10000 4.1 210 20:54 18.07.2019
4986 Clear 27 1016 57 10000 4.1 210 20:36 18.07.2019
4987 Clear 28 1016 48 10000 4.6 210 20:18 18.07.2019
4988 Clear 28 1015 45 10000 5.1 220 19:43 18.07.2019
4989 Clear 29 1015 45 10000 5.1 210 19:20 18.07.2019
4990 Clear 29 1016 39 10000 5.1 210 18:43 18.07.2019
4991 Clear 30 1016 32 10000 5.7 230 18:21 18.07.2019
4992 Clear 30 1016 33 10000 6.2 220 17:44 18.07.2019
4993 Clear 30 1016 28 10000 6.7 210 17:25 18.07.2019
4994 Clear 30 1016 28 10000 6.7 210 16:57 18.07.2019
4995 Clear 31 1016 28 10000 7.2 220 16:39 18.07.2019
4996 Clear 30 1016 37 10000 7.2 200 16:19 18.07.2019
4997 Clear 30 1016 35 10000 7.2 210 15:51 18.07.2019
4998 Clear 30 1016 35 10000 7.2 210 15:33 18.07.2019
4999 Clear 30 1016 42 10000 8.2 210 14:53 18.07.2019
5000 Clear 30 1016 42 10000 8.2 210 14:33 18.07.2019
5001 Clear 31 1016 40 10000 7.7 210 13:50 18.07.2019
5002 Clear 31 1016 35 10000 7.2 210 13:27 18.07.2019
5003 Clear 31 1016 38 10000 6.7 220 12:57 18.07.2019
5004 Clear 31 1015 43 10000 5.1 230 12:37 18.07.2019
5005 Clear 31 1015 35 10000 2.6 210 12:18 18.07.2019
5006 Clear 30 1015 37 10000 1.5 210 11:47 18.07.2019
5007 Clear 29 1015 39 10000 1.5 160 11:26 18.07.2019
5008 Clear 30 1015 42 10000 1.5 100 10:51 18.07.2019
5009 Clear 28 1015 47 10000 3.1 50 09:52 18.07.2019
5010 Clear 26 1014 61 10000 1 0 09:27 18.07.2019
5011 Clear 25 1015 60 10000 1 0 08:59 18.07.2019
5012 Clear 25 1015 60 10000 1 0 08:41 18.07.2019
5013 Clear 24 1015 60 10000 1 0 08:18 18.07.2019
5014 Clear 22 1015 64 10000 1 30 07:37 18.07.2019
5015 Clear 22 1015 64 10000 0.5 0 06:58 18.07.2019
5016 Clear 23 1015 64 10000 1 0 06:33 18.07.2019
5017 Clear 23 1014 60 10000 1.5 320 03:56 18.07.2019
5018 Clear 23 1015 64 10000 2.6 340 02:52 18.07.2019
5019 Clear 24 1015 60 10000 1.5 50 01:37 18.07.2019
5020 Clear 25 1015 57 10000 1.5 60 00:24 18.07.2019
5021 Clear 26 1015 57 10000 0.5 0 23:45 17.07.2019
5022 Clear 26 1015 57 10000 1.5 270 23:18 17.07.2019
5023 Clear 26 1015 57 10000 2.6 220 22:42 17.07.2019
5024 Clear 26 1014 54 10000 2.1 210 22:23 17.07.2019
5025 Clear 26 1014 54 10000 2.1 210 21:58 17.07.2019
5026 Clear 27 1014 51 10000 2.6 240 21:39 17.07.2019
5027 Clear 27 1014 51 10000 3.1 240 21:20 17.07.2019
5028 Clear 27 1013 47 10000 4.6 230 20:57 17.07.2019
5029 Clear 27 1013 47 10000 4.6 230 20:39 17.07.2019
5030 Clear 28 1013 47 10000 4.6 230 20:20 17.07.2019
5031 Clear 28 1013 45 10000 5.7 230 19:43 17.07.2019
5032 Clear 28 1013 51 10000 6.2 220 19:21 17.07.2019
5033 Clear 28 1013 42 10000 5.1 220 18:56 17.07.2019
5034 Clouds 30 1012 54 10000 7.2 250 18:38 17.07.2019
5035 Clouds 30 1013 51 10000 7.2 250 18:18 17.07.2019
5036 Thunderstorm 30 1014 42 10000 6.2 230 17:43 17.07.2019
5037 Thunderstorm 31 1013 40 10000 6.7 240 17:23 17.07.2019
5038 Clear 31 1015 40 10000 6.7 220 16:42 17.07.2019
5039 Clouds 30 1013 43 10000 6.7 220 16:22 17.07.2019
5040 Clouds 31 1014 40 10000 6.7 230 15:51 17.07.2019
5041 Clear 30 1015 42 10000 7.2 220 15:32 17.07.2019
5042 Clouds 30 1014 43 10000 7.7 240 14:58 17.07.2019
5043 Clear 31 1015 40 10000 6.7 210 14:40 17.07.2019
5044 Clear 30 1015 48 10000 6.7 210 14:21 17.07.2019
5045 Clouds 30 1014 48 10000 6.7 230 13:57 17.07.2019
5046 Clear 30 1015 42 10000 5.7 220 13:37 17.07.2019
5047 Clear 29 1015 40 10000 5.1 210 13:18 17.07.2019
5048 Clear 29 1015 37 10000 3.6 200 12:39 17.07.2019
5049 Clouds 29 1015 51 10000 4.1 230 12:20 17.07.2019
5050 Clear 30 1016 35 10000 2.1 260 11:44 17.07.2019
5051 Clear 30 1015 40 10000 0.5 340 11:21 17.07.2019
5052 Clear 29 1015 39 10000 1.5 310 10:50 17.07.2019
5053 Clear 29 1016 32 10000 1.5 0 10:29 17.07.2019
5054 Clear 28 1015 44 10000 1.5 360 09:55 17.07.2019
5055 Clear 27 1016 41 10000 1 0 09:37 17.07.2019
5056 Clear 26 1015 54 10000 1 0 09:18 17.07.2019
5057 Clear 24 1016 53 10000 1.5 350 08:41 17.07.2019
5058 Clear 23 1015 68 10000 2.49 82.772 08:21 17.07.2019
5059 Clear 21 1016 60 10000 2.1 340 07:47 17.07.2019
5060 Clouds 20 1015 82 10000 1 0 07:23 17.07.2019
5061 Clouds 20 1015 82 10000 1 0 07:23 17.07.2019
5062 Clear 20 1015 60 10000 2.6 350 06:49 17.07.2019
5063 Clear 20 1015 60 10000 2.6 350 06:29 17.07.2019
5064 Clear 21 1015 68 10000 2.1 360 05:47 17.07.2019
5065 Clear 21 1015 68 10000 2.1 360 05:25 17.07.2019
5066 Clear 21 1015 64 10000 1 330 04:32 17.07.2019
5067 Clear 23 1016 73 10000 1.5 350 02:56 17.07.2019
5068 Clear 23 1017 69 10000 0.5 0 01:59 17.07.2019
5069 Clouds 24 1016 78 10000 1 0 01:25 17.07.2019
5070 Clear 24 1017 61 10000 1 0 00:48 17.07.2019
5071 Clear 24 1017 61 10000 1 0 00:24 17.07.2019
5072 Clear 25 1017 61 10000 1 0 23:57 16.07.2019
5073 Clear 25 1017 65 10000 0.5 0 23:30 16.07.2019
5074 Clear 26 1017 65 10000 1 200 22:59 16.07.2019
5075 Clear 26 1017 61 10000 2.1 200 22:40 16.07.2019
5076 Clouds 26 1015 61 10000 1.5 220 22:20 16.07.2019
5077 Clear 26 1017 61 10000 3.6 220 21:45 16.07.2019
5078 Clear 27 1016 61 10000 4.1 220 21:21 16.07.2019
5079 Clear 27 1016 61 10000 4.1 220 20:58 16.07.2019
5080 Clear 27 1016 57 10000 4.6 220 20:39 16.07.2019
5081 Clouds 28 1015 61 10000 4.6 230 20:20 16.07.2019
5082 Clouds 28 1015 58 10000 5.1 230 19:50 16.07.2019
5083 Clear 28 1016 51 10000 5.7 220 19:27 16.07.2019
5084 Clear 29 1016 48 10000 5.7 220 18:56 16.07.2019
5085 Clear 29 1016 48 10000 6.2 210 18:37 16.07.2019
5086 Clouds 29 1015 58 10000 6.2 240 18:19 16.07.2019
5087 Clear 30 1017 48 10000 6.7 210 17:40 16.07.2019
5088 Clouds 29 1016 58 10000 6.2 230 17:21 16.07.2019
5089 Clear 30 1017 40 10000 6.7 200 16:44 16.07.2019
5090 Clouds 30 1016 54 10000 7.2 230 16:21 16.07.2019
5091 Clear 30 1017 37 10000 7.7 200 15:42 16.07.2019
5092 Clear 30 1017 40 10000 7.2 210 15:21 16.07.2019
5093 Clouds 30 1016 51 10000 6.7 230 14:59 16.07.2019
5094 Clear 30 1017 35 10000 4.6 210 14:41 16.07.2019
5095 Clouds 30 1016 51 10000 6.7 230 14:23 16.07.2019
5096 Clouds 30 1016 55 10000 5.7 230 13:45 16.07.2019
5097 Clouds 30 1016 43 10000 6.2 220 13:26 16.07.2019
5098 Clouds 30 1016 35 10000 2.1 140 12:55 16.07.2019
5099 Clear 30 1017 33 10000 1.5 160 12:37 16.07.2019
5100 Clouds 30 1016 35 10000 2.1 90 12:19 16.07.2019
5101 Clear 29 1017 35 10000 1.5 10 11:43 16.07.2019
5102 Clouds 30 1016 37 10000 3.1 70 11:23 16.07.2019
5103 Clear 29 1017 37 10000 3.1 140 10:57 16.07.2019
5104 Clear 29 1017 39 10000 1.5 160 10:38 16.07.2019
5105 Clear 28 1017 51 10000 1 0 10:18 16.07.2019
5106 Clear 27 1017 47 10000 1 0 09:42 16.07.2019
5107 Clouds 26 1016 54 10000 1.78 50.586 09:20 16.07.2019
5108 Clear 23 1016 49 10000 1.5 350 08:46 16.07.2019
5109 Clouds 24 1015 77 10000 0.5 0 08:23 16.07.2019
5110 Clouds 21 1015 93 10000 0.5 0 07:50 16.07.2019
5111 Clear 21 1016 64 10000 2.6 350 07:32 16.07.2019
5112 Clear 20 1016 64 10000 1.5 360 06:57 16.07.2019
5113 Clear 20 1016 68 10000 2.1 360 06:35 16.07.2019
5114 Clear 20 1016 68 10000 2.6 360 05:45 16.07.2019
5115 Clear 20 1016 68 10000 2.6 360 05:24 16.07.2019
5116 Clear 21 1016 68 10000 2.6 350 04:26 16.07.2019
5117 Clear 22 1016 64 10000 2.6 340 03:34 16.07.2019
5118 Clear 22 1016 68 10000 2.1 350 02:41 16.07.2019
5119 Clear 22 1015 77 10000 2.39 99.596 02:18 16.07.2019
5120 Clouds 24 1015 69 10000 1.5 70 01:23 16.07.2019
5121 Clouds 24 1014 69 10000 2.1 50 00:22 16.07.2019
5122 Clear 25 1015 57 10000 2.6 50 23:58 15.07.2019
5123 Clear 25 1015 57 10000 2.6 80 23:37 15.07.2019
5124 Clear 25 1015 57 10000 3.1 90 22:59 15.07.2019
5125 Clear 26 1014 57 10000 4.6 80 22:38 15.07.2019
5126 Clouds 26 1013 57 10000 4.1 100 22:19 15.07.2019
5127 Clear 26 1014 61 10000 4.6 90 21:57 15.07.2019
5128 Clear 27 1013 57 10000 5.1 90 21:38 15.07.2019
5129 Clouds 28 1012 61 10000 4.6 100 21:19 15.07.2019
5130 Clear 28 1012 48 10000 5.7 60 20:42 15.07.2019
5131 Clear 29 1012 45 10000 5.1 70 20:22 15.07.2019
5132 Clouds 29 1010 51 10000 3.6 100 19:56 15.07.2019
5133 Clear 29 1011 42 10000 4.6 60 19:38 15.07.2019
5134 Clear 29 1011 45 10000 5.7 70 19:18 15.07.2019
5135 Clear 30 1011 40 10000 3.1 180 18:44 15.07.2019
5136 Clouds 30 1010 43 10000 3.1 210 18:20 15.07.2019
5137 Clouds 30 1010 40 10000 4.1 220 17:56 15.07.2019
5138 Clear 30 1011 40 10000 5.1 210 17:37 15.07.2019
5139 Clear 30 1011 40 10000 4.6 220 17:19 15.07.2019
5140 Clear 31 1011 40 10000 4.6 220 16:57 15.07.2019
5141 Clear 31 1011 43 10000 5.1 220 16:36 15.07.2019
5142 Clear 30 1011 45 10000 4.1 200 16:18 15.07.2019
5143 Clear 30 1011 43 10000 4.6 210 15:38 15.07.2019
5144 Clear 30 1011 43 10000 4.6 210 15:38 15.07.2019
5145 Clouds 29 1011 58 10000 3.1 240 15:20 15.07.2019
5146 Clear 29 1012 42 10000 3.1 180 14:55 15.07.2019
5147 Clear 29 1012 45 10000 2.1 160 14:37 15.07.2019
5148 Clouds 29 1011 45 10000 3.1 210 14:19 15.07.2019
5149 Clear 28 1012 51 10000 2.1 200 13:45 15.07.2019
5150 Clear 28 1012 65 10000 3.6 210 13:18 15.07.2019
5151 Clear 28 1012 61 10000 4.1 210 12:43 15.07.2019
5152 Clouds 28 1011 78 10000 4.6 220 12:24 15.07.2019
5153 Clear 27 1012 54 10000 3.1 200 11:44 15.07.2019
5154 Clear 28 1012 54 10000 3.1 200 11:26 15.07.2019
5155 Clouds 28 1011 61 10000 2.1 230 10:54 15.07.2019
5156 Clear 28 1012 47 10000 1.5 210 10:36 15.07.2019
5157 Clouds 28 1011 61 10000 2.6 210 10:18 15.07.2019
5158 Clear 27 1012 57 10000 1.5 190 09:41 15.07.2019
5159 Clear 26 1011 73 10000 1.5 200 09:19 15.07.2019
5160 Clear 25 1011 60 10000 1 0 08:43 15.07.2019
5161 Clear 23 1010 83 10000 2.57 328.141 08:24 15.07.2019
5162 Clear 23 1011 64 10000 1 0 07:43 15.07.2019
5163 Clear 23 1011 60 10000 0.5 0 07:21 15.07.2019
5164 Clear 23 1011 60 10000 0.5 210 06:40 15.07.2019
5165 Clear 24 1011 56 10000 1 320 06:20 15.07.2019
5166 Clear 23 1011 60 10000 1 340 05:42 15.07.2019
5167 Clear 23 1012 56 10000 1.5 350 04:45 15.07.2019
5168 Clear 23 1012 56 10000 1.5 350 04:26 15.07.2019
5169 Clear 23 1010 88 10000 1.5 140 03:23 15.07.2019
5170 Clear 24 1012 64 10000 2.1 330 02:18 15.07.2019
5171 Clear 24 1012 57 10000 1.5 360 01:34 15.07.2019
5172 Clear 24 1011 73 10000 1 0 00:53 15.07.2019
5173 Clear 24 1011 69 10000 2.6 360 00:28 15.07.2019
5174 Clear 24 1011 69 10000 2.6 360 00:28 15.07.2019
5175 Clear 25 1012 50 10000 0.5 290 23:59 14.07.2019
5176 Clear 25 1012 44 10000 0.5 0 23:40 14.07.2019
5177 Clear 25 1012 44 10000 2.1 30 23:20 14.07.2019
5178 Clear 25 1011 57 10000 1.5 90 23:20 14.07.2019
5179 Clear 25 1012 44 10000 2.1 30 22:57 14.07.2019
5180 Clear 26 1012 39 10000 3.6 50 22:38 14.07.2019
5181 Clear 26 1011 42 10000 4.1 60 22:20 14.07.2019
5182 Clear 27 1011 39 10000 4.6 70 21:43 14.07.2019
5183 Clear 28 1011 39 10000 6.2 70 21:19 14.07.2019
5184 Clear 28 1011 39 10000 6.2 70 21:19 14.07.2019
5185 Clouds 28 1009 48 10000 4.6 60 20:58 14.07.2019
5186 Clear 28 1010 35 10000 7.7 70 20:38 14.07.2019
5187 Clouds 28 1009 39 10000 6.7 60 20:20 14.07.2019
5188 Clear 29 1010 45 10000 8.2 70 19:55 14.07.2019
5189 Clear 29 1010 45 10000 8.2 70 19:36 14.07.2019
5190 Clouds 29 1009 48 10000 7.2 60 19:18 14.07.2019
5191 Clear 29 1009 48 10000 6.2 80 18:40 14.07.2019
5192 Rain 29 1009 54 10000 4.1 110 18:22 14.07.2019
5193 Clouds 29 1008 83 10000 1.5 140 17:58 14.07.2019
5194 Rain 28 1009 62 10000 2.1 150 17:23 14.07.2019
5195 Thunderstorm 28 1008 100 10000 5.7 230 16:54 14.07.2019
5196 Rain 30 1009 58 10000 5.1 210 16:26 14.07.2019
5197 Rain 30 1009 58 10000 5.1 210 15:58 14.07.2019
5198 Rain 30 1009 58 10000 5.1 220 15:40 14.07.2019
5199 Clouds 30 1008 62 10000 5.1 230 15:22 14.07.2019
5200 Clear 30 1010 62 10000 4.1 210 14:45 14.07.2019
5201 Clouds 30 1009 70 10000 3.6 240 14:20 14.07.2019
5202 Clouds 30 1010 66 10000 5.7 220 13:46 14.07.2019
5203 Clouds 30 1010 66 10000 5.7 220 13:24 14.07.2019
5204 Clouds 30 1010 65 10000 5.7 230 12:57 14.07.2019
5205 Clouds 29 1010 69 10000 4.1 210 12:38 14.07.2019
5206 Clouds 29 1009 74 10000 3.6 230 12:18 14.07.2019
5207 Clouds 29 1010 65 10000 2.6 160 11:45 14.07.2019
5208 Clouds 28 1010 69 10000 3.1 190 11:20 14.07.2019
5209 Clouds 28 1009 74 10000 1.5 0 11:20 14.07.2019
5210 Clouds 27 1010 61 10000 3.1 70 10:45 14.07.2019
5211 Clouds 27 1011 65 10000 3.1 70 10:21 14.07.2019
5212 Clouds 27 1009 69 10000 2.6 80 09:48 14.07.2019
5213 Clouds 27 1010 65 10000 3.1 80 09:30 14.07.2019
5214 Clouds 26 1009 74 10000 2.1 70 08:47 14.07.2019
5215 Clouds 26 1010 69 10000 3.6 340 08:29 14.07.2019
5216 Clear 25 1011 57 10000 2.1 80 07:43 14.07.2019
5217 Clouds 25 1010 61 10000 3.1 80 07:20 14.07.2019
5218 Clear 25 1011 54 10000 2.6 20 05:46 14.07.2019
5219 Clear 25 1011 54 10000 2.6 20 05:46 14.07.2019
5220 Clear 25 1013 61 10000 2.1 170 03:58 14.07.2019
5221 Clear 25 1012 61 10000 2.1 0 03:39 14.07.2019
5222 Clear 26 1012 69 10000 2.6 300 03:21 14.07.2019
5223 Clear 25 1013 65 10000 2.6 70 02:23 14.07.2019
5224 Clear 26 1012 73 10000 1.5 80 01:53 14.07.2019
5225 Clear 26 1014 61 10000 2.1 60 01:27 14.07.2019
5226 Clear 26 1013 61 10000 3.1 80 00:41 14.07.2019
5227 Clear 27 1013 57 10000 3.1 60 00:20 14.07.2019
5228 Clear 27 1013 57 10000 3.6 70 23:57 13.07.2019
5229 Clear 27 1014 51 10000 3.1 80 23:38 13.07.2019
5230 Clear 27 1013 57 10000 2.6 50 23:20 13.07.2019
5231 Clear 28 1013 48 10000 3.1 90 22:41 13.07.2019
5232 Clear 28 1012 51 10000 2.6 80 22:21 13.07.2019
5233 Clear 29 1013 51 10000 4.6 70 21:48 13.07.2019
5234 Clear 29 1013 54 10000 2.6 250 21:21 13.07.2019
5235 Clear 29 1012 58 10000 1 300 20:51 13.07.2019
5236 Clear 29 1013 51 10000 3.1 230 20:33 13.07.2019
5237 Clear 31 1012 52 10000 3.6 20 19:50 13.07.2019
5238 Clear 32 1014 43 10000 3.6 230 19:30 13.07.2019
5239 Clear 31 1012 43 10000 4.1 210 18:47 13.07.2019
5240 Clear 30 1014 55 10000 5.7 230 18:28 13.07.2019
5241 Clear 29 1013 65 10000 3.1 170 17:58 13.07.2019
5242 Clear 30 1015 58 10000 7.2 210 17:37 13.07.2019
5243 Clear 32 1015 49 10000 7.7 220 17:18 13.07.2019
5244 Clear 35 1015 32 10000 2.1 140 16:42 13.07.2019
5245 Clear 35 1015 32 10000 2.1 140 16:24 13.07.2019
5246 Clear 33 1013 38 10000 4.6 60 15:46 13.07.2019
5247 Clear 34 1013 36 10000 7.7 40 15:24 13.07.2019
5248 Clear 34 1014 32 10000 7.7 60 14:47 13.07.2019
5249 Clear 34 1013 34 10000 6.7 60 14:28 13.07.2019
5250 Clear 34 1014 33 10000 7.2 70 13:58 13.07.2019
5251 Clear 34 1015 31 10000 7.7 60 13:40 13.07.2019
5252 Clear 34 1013 36 10000 7.7 60 13:19 13.07.2019
5253 Clear 33 1015 28 10000 6.7 60 12:40 13.07.2019
5254 Clear 34 1014 34 10000 6.7 50 12:22 13.07.2019
5255 Clear 33 1015 32 10000 4.6 60 11:57 13.07.2019
5256 Clear 33 1014 36 10000 5.7 60 11:20 13.07.2019
5257 Clear 32 1015 27 10000 6.7 80 11:20 13.07.2019
5258 Clear 32 1014 38 10000 5.1 70 10:58 13.07.2019
5259 Clear 32 1015 33 10000 6.2 70 10:39 13.07.2019
5260 Clear 31 1014 40 10000 6.2 60 10:20 13.07.2019
5261 Clear 30 1016 37 10000 1 0 09:41 13.07.2019
5262 Clear 29 1015 48 10000 1.5 10 09:23 13.07.2019
5263 Clear 27 1016 44 10000 1.5 20 08:47 13.07.2019
5264 Clear 27 1016 44 10000 1.5 20 08:26 13.07.2019
5265 Clear 24 1016 53 10000 2.6 340 07:31 13.07.2019
5266 Clouds 24 1014 83 10000 2.1 50 06:55 13.07.2019
5267 Clear 24 1015 50 10000 2.6 10 06:29 13.07.2019
5268 Clear 24 1015 53 10000 1.5 340 05:43 13.07.2019
5269 Clear 24 1015 57 10000 2.1 340 04:39 13.07.2019
5270 Clear 24 1014 83 10000 1.5 30 04:18 13.07.2019
5271 Clear 24 1015 60 10000 1.5 340 03:40 13.07.2019
5272 Clear 25 1015 50 10000 1 350 02:41 13.07.2019
5273 Clear 25 1016 50 10000 1 0 01:46 13.07.2019
5274 Clear 25 1015 83 10000 1.5 70 01:21 13.07.2019
5275 Clear 26 1015 83 10000 1.99 87.086 00:58 13.07.2019
5276 Clear 26 1015 83 10000 1.99 87.086 00:58 13.07.2019
5277 Clear 26 1015 78 10000 0.5 180 00:20 13.07.2019
5278 Clear 27 1015 78 10000 0.5 0 23:49 12.07.2019
5279 Clear 27 1016 65 10000 1 200 23:30 12.07.2019
5280 Clear 27 1016 61 10000 1.5 210 22:57 12.07.2019
5281 Clear 27 1015 61 10000 2.1 200 22:38 12.07.2019
5282 Clear 27 1014 78 10000 2.6 240 22:20 12.07.2019
5283 Clear 28 1015 54 10000 1.5 220 21:41 12.07.2019
5284 Clear 28 1015 58 10000 3.1 230 21:19 12.07.2019
5285 Clear 29 1015 61 10000 4.6 220 20:44 12.07.2019
5286 Clear 29 1014 70 10000 5.1 250 20:22 12.07.2019
5287 Clear 31 1015 40 10000 5.7 210 19:43 12.07.2019
5288 Clear 31 1014 66 10000 5.7 250 19:25 12.07.2019
5289 Clear 32 1015 31 10000 5.1 210 18:56 12.07.2019
5290 Clear 32 1015 35 10000 5.1 210 18:36 12.07.2019
5291 Clear 32 1014 35 10000 4.6 230 18:18 12.07.2019
5292 Clear 33 1016 31 10000 4.6 210 17:42 12.07.2019
5293 Clear 33 1015 38 10000 4.1 230 17:23 12.07.2019
5294 Clear 33 1016 27 10000 5.1 210 16:37 12.07.2019
5295 Clear 33 1016 27 10000 5.1 210 16:37 12.07.2019
5296 Clear 33 1015 38 10000 5.1 220 16:18 12.07.2019
5297 Clear 33 1016 29 10000 6.2 210 15:39 12.07.2019
5298 Clear 33 1016 31 10000 5.7 230 15:20 12.07.2019
5299 Clear 33 1016 29 10000 4.1 230 14:45 12.07.2019
5300 Clear 32 1016 35 10000 4.1 240 14:21 12.07.2019
5301 Clear 32 1016 31 10000 4.1 230 13:54 12.07.2019
5302 Clear 33 1017 29 10000 4.1 210 13:34 12.07.2019
5303 Clear 32 1017 33 10000 4.1 220 12:44 12.07.2019
5304 Clear 31 1016 40 10000 4.1 240 12:24 12.07.2019
5305 Clear 31 1017 33 10000 3.1 210 11:59 12.07.2019
5306 Clear 30 1017 40 10000 3.1 210 11:40 12.07.2019
5307 Clear 30 1016 40 10000 2.6 230 11:19 12.07.2019
5308 Clear 30 1017 35 10000 1 140 10:41 12.07.2019
5309 Clear 30 1016 42 10000 0.5 210 10:23 12.07.2019
5310 Clear 30 1017 44 10000 1 320 09:53 12.07.2019
5311 Clear 27 1016 61 10000 0.5 0 09:29 12.07.2019
5312 Clear 26 1017 47 10000 2.1 360 08:56 12.07.2019
5313 Clear 24 1016 53 10000 1.5 350 08:26 12.07.2019
5314 Clear 23 1016 64 10000 1.5 360 07:55 12.07.2019
5315 Clear 22 1016 68 10000 1.5 310 07:32 12.07.2019
5316 Clear 22 1015 100 10000 1.5 80 06:59 12.07.2019
5317 Clear 22 1016 68 10000 2.6 10 06:28 12.07.2019
5318 Clear 22 1016 73 10000 1.5 350 05:42 12.07.2019
5319 Clear 24 1015 100 10000 1.5 50 03:21 12.07.2019
5320 Clear 24 1016 78 10000 2.1 340 01:41 12.07.2019
5321 Clear 25 1016 78 10000 1 180 00:58 12.07.2019
5322 Clear 26 1016 78 10000 2.1 220 00:20 12.07.2019
5323 Clear 25 1015 94 10000 0.5 0 00:20 12.07.2019
5324 Clear 25 1016 78 10000 2.6 210 23:49 11.07.2019
5325 Clear 25 1015 83 10000 2.1 210 23:26 11.07.2019
5326 Clear 25 1015 83 10000 2.1 210 23:26 11.07.2019
5327 Clear 26 1015 83 10000 2.1 220 22:55 11.07.2019
5328 Clear 26 1016 74 10000 4.1 190 22:37 11.07.2019
5329 Clear 26 1015 78 10000 2.6 210 22:19 11.07.2019
5330 Clear 27 1015 69 10000 5.1 200 21:40 11.07.2019
5331 Clear 27 1014 69 10000 3.1 210 21:18 11.07.2019
5332 Clear 28 1014 65 10000 4.1 210 20:54 11.07.2019
5333 Clear 28 1015 61 10000 5.1 180 20:36 11.07.2019
5334 Clear 29 1014 54 10000 5.7 200 20:18 11.07.2019
5335 Clear 29 1014 54 10000 6.2 200 19:43 11.07.2019
5336 Clear 29 1013 62 10000 6.2 220 19:22 11.07.2019
5337 Clear 31 1014 40 10000 6.2 200 18:44 11.07.2019
5338 Clear 31 1014 40 10000 6.2 200 18:26 11.07.2019
5339 Clear 31 1014 43 10000 5.7 220 17:54 11.07.2019
5340 Clear 31 1015 40 10000 7.7 210 17:36 11.07.2019
5341 Clear 31 1015 43 10000 7.7 210 17:18 11.07.2019
5342 Clear 31 1015 40 10000 7.7 200 16:42 11.07.2019
5343 Clear 31 1015 40 10000 7.7 200 16:42 11.07.2019
5344 Clear 31 1015 40 10000 7.2 210 16:21 11.07.2019
5345 Clear 32 1015 43 10000 8.2 200 15:44 11.07.2019
5346 Clear 32 1015 43 10000 8.2 200 15:25 11.07.2019
5347 Clear 32 1015 40 10000 7.7 200 14:59 11.07.2019
5348 Clear 33 1015 40 10000 7.7 210 14:39 11.07.2019
5349 Clouds 31 1014 48 10000 6.2 230 14:20 11.07.2019
5350 Clear 30 1016 45 10000 7.2 210 13:45 11.07.2019
5351 Clouds 30 1015 58 10000 6.2 220 13:26 11.07.2019
5352 Clear 31 1016 58 10000 5.1 210 12:42 11.07.2019
5353 Clear 30 1015 66 10000 4.1 210 12:23 11.07.2019
5354 Clear 28 1015 74 10000 4.1 210 11:52 11.07.2019
5355 Clear 28 1016 51 10000 3.6 190 11:30 11.07.2019
5356 Clear 28 1015 62 10000 1.5 210 10:55 11.07.2019
5357 Clear 29 1015 61 10000 0.5 230 10:21 11.07.2019
5358 Clear 28 1016 57 10000 1.5 200 09:59 11.07.2019
5359 Clear 27 1016 57 10000 0.5 260 09:41 11.07.2019
5360 Clear 26 1015 69 10000 0.5 0 09:22 11.07.2019
5361 Clear 25 1014 78 10000 1 0 08:50 11.07.2019
5362 Clear 24 1014 100 10000 1 0 08:24 11.07.2019
5363 Clear 23 1014 100 10000 0.83 327.177 07:48 11.07.2019
5364 Clear 23 1015 73 10000 1.5 50 07:29 11.07.2019
5365 Clouds 22 1014 100 10000 0.5 20 06:27 11.07.2019
5366 Clear 22 1015 83 10000 2.1 330 05:45 11.07.2019
5367 Clear 22 1015 83 10000 2.1 330 05:26 11.07.2019
5368 Clear 23 1015 73 10000 1.5 10 03:59 11.07.2019
5369 Clear 24 1016 78 10000 0.5 0 02:37 11.07.2019
5370 Clouds 25 1015 88 10000 0.43 63.257 00:50 11.07.2019
5371 Clouds 25 1015 83 10000 1 0 23:56 10.07.2019
5372 Clear 25 1016 78 10000 1.5 200 23:31 10.07.2019
5373 Clear 25 1016 78 10000 1.5 180 22:59 10.07.2019
5374 Clear 25 1015 78 10000 2.6 180 22:41 10.07.2019
5375 Clouds 26 1014 78 10000 2.6 220 22:19 10.07.2019
5376 Clear 26 1015 69 10000 3.6 200 21:44 10.07.2019
5377 Clouds 26 1014 83 10000 3.1 230 21:26 10.07.2019
5378 Clouds 27 1014 74 10000 4.6 230 20:54 10.07.2019
5379 Clear 27 1015 61 10000 4.6 170 20:36 10.07.2019
5380 Clouds 28 1014 65 10000 4.6 220 20:18 10.07.2019
5381 Clear 28 1014 61 10000 6.7 160 19:42 10.07.2019
5382 Clouds 28 1013 65 10000 5.7 190 19:21 10.07.2019
5383 Clouds 30 1013 58 10000 7.2 190 18:48 10.07.2019
5384 Clouds 32 1013 55 10000 7.2 190 18:25 10.07.2019
5385 Clear 32 1014 27 10000 5.7 300 17:59 10.07.2019
5386 Clear 32 1014 27 10000 5.7 300 17:59 10.07.2019
5387 Clear 31 1014 33 10000 5.1 260 17:40 10.07.2019
5388 Clouds 31 1013 46 10000 6.2 230 17:19 10.07.2019
5389 Clouds 32 1014 46 10000 6.2 230 16:22 10.07.2019
5390 Clear 31 1014 35 10000 6.2 210 15:59 10.07.2019
5391 Clear 31 1015 38 10000 6.7 220 15:40 10.07.2019
5392 Clouds 31 1014 45 10000 6.7 230 15:18 10.07.2019
5393 Clear 30 1015 43 10000 5.7 210 14:39 10.07.2019
5394 Clouds 31 1015 62 10000 6.7 230 14:21 10.07.2019
5395 Clear 30 1016 45 10000 6.2 190 13:44 10.07.2019
5396 Clouds 31 1015 58 10000 5.7 230 13:19 10.07.2019
5397 Clouds 31 1015 58 10000 5.7 230 13:19 10.07.2019
5398 Clear 29 1016 48 10000 6.2 210 12:55 10.07.2019
5399 Clear 29 1016 58 10000 4.1 260 12:37 10.07.2019
5400 Clouds 29 1015 65 10000 5.1 220 12:18 10.07.2019
5401 Clear 29 1016 51 10000 2.6 260 11:43 10.07.2019
5402 Clouds 28 1015 61 10000 3.1 210 11:21 10.07.2019
5403 Clear 28 1015 61 10000 2.6 220 10:44 10.07.2019
5404 Clouds 28 1015 65 10000 0.5 230 10:20 10.07.2019
5405 Clear 27 1016 65 10000 2.1 280 09:44 10.07.2019
5406 Clouds 26 1015 78 10000 1 0 09:21 10.07.2019
5407 Clear 24 1015 73 10000 0.5 130 08:50 10.07.2019
5408 Clear 24 1015 73 10000 0.5 130 08:29 10.07.2019
5409 Clouds 22 1014 100 10000 0.5 0 07:54 10.07.2019
5410 Clear 22 1015 83 10000 1 0 07:32 10.07.2019
5411 Clear 22 1015 83 10000 1 0 06:44 10.07.2019
5412 Clear 22 1015 83 10000 0.5 0 05:59 10.07.2019
5413 Clear 23 1015 78 10000 1 0 04:38 10.07.2019
5414 Clear 24 1015 73 10000 0.5 0 03:40 10.07.2019
5415 Clear 24 1014 69 10000 1 0 00:47 10.07.2019
5416 Clear 25 1015 64 10000 1 100 00:28 10.07.2019
5417 Clear 25 1014 57 10000 2.6 310 23:41 09.07.2019
5418 Clear 25 1013 65 10000 1.5 350 23:21 09.07.2019
5419 Clear 25 1013 54 10000 3.1 300 22:42 09.07.2019
5420 Clear 26 1012 57 10000 3.1 300 22:22 09.07.2019
5421 Clear 26 1013 54 10000 2.6 300 21:58 09.07.2019
5422 Clear 27 1013 47 10000 3.6 290 21:39 09.07.2019
5423 Clouds 28 1011 45 10000 4.6 310 21:20 09.07.2019
5424 Clear 29 1012 39 10000 5.1 310 20:43 09.07.2019
5425 Clouds 30 1011 37 10000 5.7 310 20:24 09.07.2019
5426 Clear 29 1012 39 10000 5.7 310 19:42 09.07.2019
5427 Clouds 29 1011 45 10000 6.2 310 19:23 09.07.2019
5428 Clear 30 1012 48 10000 6.2 310 18:47 09.07.2019
5429 Clouds 30 1010 45 10000 6.7 320 18:25 09.07.2019
5430 Clear 30 1011 45 10000 6.7 300 17:57 09.07.2019
5431 Clear 30 1012 48 10000 6.2 290 17:38 09.07.2019
5432 Clouds 31 1010 45 10000 7.7 320 17:19 09.07.2019
5433 Clouds 30 1010 48 10000 8.2 330 16:50 09.07.2019
5434 Clouds 30 1010 52 10000 7.7 320 16:25 09.07.2019
5435 Clouds 31 1010 52 10000 8.7 340 15:50 09.07.2019
5436 Clear 31 1011 48 10000 8.2 320 15:32 09.07.2019
5437 Clear 33 1011 45 10000 7.7 320 14:58 09.07.2019
5438 Clear 31 1011 43 10000 7.7 320 14:39 09.07.2019
5439 Clear 32 1011 38 10000 5.7 320 14:19 09.07.2019
5440 Clear 33 1011 46 10000 4.6 200 13:45 09.07.2019
5441 Clear 32 1011 46 10000 4.6 200 13:27 09.07.2019
5442 Clear 32 1011 46 10000 4.6 200 13:27 09.07.2019
5443 Clear 31 1011 62 10000 4.6 200 12:41 09.07.2019
5444 Clouds 31 1010 70 10000 5.7 210 12:22 09.07.2019
5445 Clouds 31 1010 70 10000 5.7 210 12:22 09.07.2019
5446 Clear 30 1011 54 10000 4.6 210 11:58 09.07.2019
5447 Clear 30 1011 58 10000 2.1 0 11:39 09.07.2019
5448 Clouds 29 1010 88 10000 3.1 210 11:21 09.07.2019
5449 Clouds 28 1010 83 10000 3.6 210 10:54 09.07.2019
5450 Clear 28 1011 65 10000 4.1 310 10:33 09.07.2019
5451 Clear 27 1011 83 10000 5.7 210 09:42 09.07.2019
5452 Clouds 26 1010 100 10000 5.1 220 09:22 09.07.2019
5453 Clouds 26 1011 88 10000 5.7 210 08:55 09.07.2019
5454 Clouds 25 1011 88 10000 5.1 220 08:37 09.07.2019
5455 Clear 24 1016 100 10000 0.5 0 04:18 05.07.2019
5456 Clear 24 1018 73 10000 2.1 360 03:38 05.07.2019
5457 Clear 25 1018 69 10000 2.1 30 03:19 05.07.2019
5458 Clear 25 1018 73 10000 0.5 60 02:46 05.07.2019
5459 Clear 25 1018 73 10000 2.1 70 01:44 05.07.2019
5460 Clouds 25 1017 88 10000 2.1 60 01:25 05.07.2019
5461 Clouds 26 1017 83 10000 2.1 50 00:47 05.07.2019
5462 Clouds 26 1017 78 10000 2.1 70 00:25 05.07.2019
5463 Clouds 27 1016 78 10000 3.1 60 23:23 04.07.2019
5464 Clear 27 1017 74 10000 2.1 100 22:59 04.07.2019
5465 Clear 27 1017 74 10000 1.5 140 22:40 04.07.2019
5466 Clouds 27 1015 83 10000 1 180 22:19 04.07.2019
5467 Clear 28 1016 69 10000 1.5 190 21:41 04.07.2019
5468 Clear 28 1016 69 10000 3.1 200 21:22 04.07.2019
5469 Clear 28 1016 69 10000 3.1 200 20:58 04.07.2019
5470 Clear 29 1016 62 10000 2.1 190 20:37 04.07.2019
5471 Clear 29 1015 74 10000 2.1 230 20:18 04.07.2019
5472 Clear 29 1016 62 10000 5.1 220 19:41 04.07.2019
5473 Clear 29 1015 74 10000 4.1 250 19:21 04.07.2019
5474 Clear 29 1016 58 10000 6.7 220 18:46 04.07.2019
5475 Clear 31 1016 58 10000 6.7 220 18:28 04.07.2019
5476 Clear 30 1015 66 10000 6.7 250 17:58 04.07.2019
5477 Clear 30 1016 58 10000 8.2 230 17:40 04.07.2019
5478 Clear 30 1015 70 10000 7.7 260 17:18 04.07.2019
5479 Clear 30 1016 58 10000 6.7 220 17:18 04.07.2019
5480 Clear 30 1015 70 10000 7.7 260 17:18 04.07.2019
5481 Clear 32 1016 58 10000 6.7 210 15:45 04.07.2019
5482 Clouds 32 1015 66 10000 6.2 240 15:24 04.07.2019
5483 Clear 32 1016 49 10000 7.7 210 14:59 04.07.2019
5484 Clear 33 1016 32 10000 5.7 60 14:39 04.07.2019
5485 Clear 34 1015 52 10000 5.7 230 14:19 04.07.2019
5486 Clear 35 1016 32 10000 5.7 70 13:56 04.07.2019
5487 Clear 34 1016 30 10000 5.1 70 13:38 04.07.2019
5488 Clear 34 1015 41 10000 4.1 100 13:19 04.07.2019
5489 Clear 32 1017 38 10000 3.1 70 12:39 04.07.2019
5490 Clouds 32 1016 49 10000 2.1 90 12:19 04.07.2019
5491 Clear 32 1016 49 10000 2.6 100 11:55 04.07.2019
5492 Clear 31 1017 45 10000 4.6 70 11:36 04.07.2019
5493 Clear 31 1016 55 10000 3.6 90 11:18 04.07.2019
5494 Clear 30 1017 42 10000 3.1 100 10:39 04.07.2019
5495 Clear 30 1016 62 10000 1.5 80 10:18 04.07.2019
5496 Clear 29 1016 45 10000 4.1 60 09:39 04.07.2019
5497 Clear 28 1015 65 10000 4.1 70 09:19 04.07.2019
5498 Clear 26 1016 57 10000 2.1 30 08:53 04.07.2019
5499 Clear 25 1015 83 10000 4.6 60 08:19 04.07.2019
5500 Clear 24 1015 64 10000 2.1 350 07:42 04.07.2019
5501 Clear 23 1015 69 10000 3.1 20 07:19 04.07.2019
5502 Clear 23 1015 68 10000 1.5 10 06:33 04.07.2019
5503 Clear 23 1015 64 10000 1 0 05:47 04.07.2019
5504 Clear 23 1014 83 10000 2.1 40 05:29 04.07.2019
5505 Clear 24 1016 73 10000 2.1 40 02:36 04.07.2019
5506 Clear 25 1015 83 10000 1.5 50 01:27 04.07.2019
5507 Clear 25 1016 69 10000 1 0 00:52 04.07.2019
5508 Clear 25 1016 65 10000 1 0 23:55 03.07.2019
5509 Clear 25 1014 78 10000 1 90 23:55 03.07.2019
5510 Clear 26 1014 78 10000 0.5 0 23:21 03.07.2019
5511 Clear 26 1015 65 10000 0.5 0 22:58 03.07.2019
5512 Clear 26 1015 61 10000 1 130 22:39 03.07.2019
5513 Clear 27 1014 74 10000 1 360 22:21 03.07.2019
5514 Clear 27 1015 57 10000 1.5 190 21:56 03.07.2019
5515 Clear 27 1015 57 10000 2.6 210 21:37 03.07.2019
5516 Clear 28 1013 65 10000 3.6 240 20:57 03.07.2019
5517 Clear 28 1014 54 10000 4.1 210 20:39 03.07.2019
5518 Clear 29 1014 48 10000 3.6 190 20:19 03.07.2019
5519 Clear 29 1013 62 10000 3.1 240 19:48 03.07.2019
5520 Clear 29 1014 45 10000 3.1 220 19:29 03.07.2019
5521 Clear 29 1014 42 10000 5.1 220 18:46 03.07.2019
5522 Clouds 30 1013 58 10000 5.7 240 18:24 03.07.2019
5523 Clouds 30 1013 58 10000 6.2 250 17:55 03.07.2019
5524 Clear 30 1015 48 10000 5.1 220 17:36 03.07.2019
5525 Clouds 30 1013 62 10000 6.7 240 17:18 03.07.2019
5526 Clear 30 1015 51 10000 6.7 210 16:43 03.07.2019
5527 Clouds 30 1014 58 10000 7.2 240 16:20 03.07.2019
5528 Clouds 30 1014 62 10000 8.2 220 15:47 03.07.2019
5529 Clear 30 1015 51 10000 7.2 220 15:29 03.07.2019
5530 Clouds 31 1014 70 10000 6.2 220 14:52 03.07.2019
5531 Clear 31 1016 51 10000 5.1 210 14:24 03.07.2019
5532 Clear 30 1015 66 10000 6.2 250 13:57 03.07.2019
5533 Clear 30 1016 51 10000 5.7 220 13:32 03.07.2019
5534 Clear 29 1015 58 10000 6.7 240 12:54 03.07.2019
5535 Clear 30 1016 40 10000 6.7 210 12:21 03.07.2019
5536 Clear 30 1015 45 10000 6.2 230 11:58 03.07.2019
5537 Clear 30 1015 35 10000 4.6 170 11:39 03.07.2019
5538 Clear 30 1014 42 10000 6.2 230 11:20 03.07.2019
5539 Clear 31 1015 27 10000 3.6 80 10:41 03.07.2019
5540 Clear 31 1014 31 10000 3.6 70 10:22 03.07.2019
5541 Clear 30 1015 27 10000 2.6 60 09:43 03.07.2019
5542 Clear 28 1014 35 10000 3.1 50 09:21 03.07.2019
5543 Clear 27 1014 44 10000 2.6 50 08:53 03.07.2019
5544 Clear 25 1015 41 10000 2.1 360 08:32 03.07.2019
5545 Clear 24 1015 46 10000 2.1 340 07:57 03.07.2019
5546 Clear 22 1015 46 10000 2.6 350 07:37 03.07.2019
5547 Clear 21 1014 77 10000 2.1 40 06:55 03.07.2019
5548 Clear 21 1015 49 10000 1.5 350 05:56 03.07.2019
5549 Clear 22 1015 49 10000 2.6 10 05:24 03.07.2019
5550 Clear 22 1014 72 10000 1.5 30 03:55 03.07.2019
5551 Clear 23 1015 49 10000 1.5 350 02:47 03.07.2019
5552 Clear 24 1016 47 10000 2.1 340 01:39 03.07.2019
5553 Clear 24 1016 47 10000 1 340 01:20 03.07.2019
5554 Clear 25 1016 47 10000 0.5 70 00:40 03.07.2019
5555 Clear 26 1015 57 10000 1 90 23:55 02.07.2019
5556 Clear 26 1016 47 10000 1 90 23:37 02.07.2019
5557 Clear 26 1016 44 10000 1 180 23:18 02.07.2019
5558 Clear 27 1016 44 10000 1 180 22:41 02.07.2019
5559 Clear 27 1015 42 10000 1.5 180 22:23 02.07.2019
5560 Clear 28 1015 42 10000 1 160 21:58 02.07.2019
5561 Clear 28 1015 39 10000 2.1 180 21:39 02.07.2019
5562 Clear 29 1015 39 10000 2.1 180 21:20 02.07.2019
5563 Clear 30 1015 37 10000 2.6 190 20:57 02.07.2019
5564 Clear 30 1014 32 10000 2.6 200 20:38 02.07.2019
5565 Clear 29 1014 32 10000 2.6 200 20:19 02.07.2019
5566 Clear 30 1014 30 10000 3.1 220 19:41 02.07.2019
5567 Clear 30 1014 30 10000 4.1 200 19:22 02.07.2019
5568 Clear 31 1015 27 10000 5.1 220 18:46 02.07.2019
5569 Clear 31 1014 40 10000 5.7 230 18:18 02.07.2019
5570 Clear 31 1015 29 10000 7.2 220 17:41 02.07.2019
5571 Clear 31 1014 45 10000 6.7 230 17:22 02.07.2019
5572 Clear 31 1015 27 10000 6.7 210 16:49 02.07.2019
5573 Clear 31 1015 27 10000 6.7 210 16:31 02.07.2019
5574 Clear 31 1016 29 10000 7.2 210 15:46 02.07.2019
5575 -273 0 0 0 0 0 15:26 02.07.2019
5576 Clear 31 1015 38 10000 7.2 230 14:57 02.07.2019
5577 Clear 31 1016 38 10000 7.2 210 14:38 02.07.2019
5578 Clear 31 1015 40 10000 7.2 220 14:19 02.07.2019
5579 Clear 31 1016 38 10000 7.2 210 13:38 02.07.2019
5580 Clear 31 1016 33 10000 4.6 210 13:18 02.07.2019
5581 Clear 32 1016 31 10000 4.6 210 12:44 02.07.2019
5582 Clear 31 1016 29 10000 2.6 230 12:22 02.07.2019
5583 Clear 30 1016 25 10000 2.6 0 11:44 02.07.2019
5584 Clear 30 1015 35 10000 2.1 220 11:23 02.07.2019
5585 Clear 31 1015 33 10000 1.5 360 10:54 02.07.2019
5586 Clear 31 1015 37 10000 0.5 350 10:27 02.07.2019
5587 Clear 31 1016 30 10000 2.1 130 09:57 02.07.2019
5588 Clear 28 1016 39 10000 2.1 80 09:22 02.07.2019
5589 Clear 26 1015 47 10000 2.6 30 08:57 02.07.2019
5590 Clear 26 1016 44 10000 1.5 350 08:37 02.07.2019
5591 Clear 25 1016 44 10000 2.1 300 07:59 02.07.2019
5592 Clear 23 1016 44 10000 2.1 20 07:21 02.07.2019
5593 Clear 23 1016 46 10000 2.6 350 06:59 02.07.2019
5594 Clear 23 1016 46 10000 2.6 360 06:36 02.07.2019
5595 Clear 23 1015 56 10000 1.5 40 05:27 02.07.2019
5596 Clear 24 1017 41 10000 2.1 350 02:38 02.07.2019
5597 Clear 27 1017 36 10000 1.5 90 00:28 02.07.2019
5598 Clear 28 1017 32 10000 1 0 23:38 01.07.2019
5599 Clear 28 1017 30 10000 1.5 110 23:18 01.07.2019
5600 Clear 28 1016 28 10000 2.6 130 22:42 01.07.2019
5601 Clear 29 1015 33 10000 1 0 22:23 01.07.2019
5602 Clear 32 1016 27 10000 3.1 160 21:44 01.07.2019
5603 Clear 31 1015 27 10000 3.1 140 21:25 01.07.2019
5604 Clear 32 1016 29 10000 3.6 210 20:47 01.07.2019
5605 Clear 32 1015 31 10000 4.1 160 20:21 01.07.2019
5606 Clear 32 1015 31 10000 4.1 160 20:21 01.07.2019
5607 Clear 33 1015 30 10000 3.6 150 19:55 01.07.2019
5608 Clear 34 1016 26 10000 6.2 210 19:37 01.07.2019
5609 Clear 34 1016 26 10000 6.2 210 19:18 01.07.2019
5610 Clear 34 1016 31 10000 7.2 220 18:44 01.07.2019
5611 Clear 33 1016 27 10000 6.7 210 18:26 01.07.2019
5612 Clear 34 1016 27 10000 7.2 230 17:47 01.07.2019
5613 Clear 34 1016 27 10000 7.2 230 17:27 01.07.2019
5614 Clear 36 1017 24 10000 7.2 220 16:58 01.07.2019
5615 Clear 36 1017 26 10000 7.2 220 16:40 01.07.2019
5616 Clear 36 1017 21 10000 6.7 200 16:22 01.07.2019
5617 Clear 36 1017 21 10000 6.7 210 15:44 01.07.2019
5618 Clear 36 1017 21 10000 7.2 210 15:26 01.07.2019
5619 Clear 36 1017 21 10000 6.7 220 14:45 01.07.2019
5620 Clear 37 1018 23 10000 5.7 220 14:24 01.07.2019
5621 Clear 35 1018 24 10000 4.1 220 13:49 01.07.2019
5622 Clear 35 1018 23 10000 3.6 220 13:24 01.07.2019
5623 Clear 35 1018 23 10000 3.6 220 12:58 01.07.2019
5624 Clear 34 1018 26 10000 4.1 220 12:38 01.07.2019
5625 Clear 34 1018 28 10000 4.6 220 12:20 01.07.2019
5626 Clear 34 1018 27 10000 3.1 170 11:48 01.07.2019
5627 Clear 33 1018 27 10000 2.6 170 11:28 01.07.2019
5628 Clear 33 1018 27 10000 2.6 170 10:59 01.07.2019
5629 Clear 33 1018 27 10000 2.6 100 10:41 01.07.2019
5630 Clear 32 1018 27 10000 2.1 0 10:20 01.07.2019
5631 Clear 31 1018 29 10000 1 0 09:41 01.07.2019
5632 Clear 28 1018 37 10000 1 0 09:22 01.07.2019
5633 Clear 26 1017 41 10000 1.5 350 08:39 01.07.2019
5634 Clear 24 1017 47 10000 1 0 08:21 01.07.2019
5635 Clear 23 1017 49 10000 2.6 350 07:34 01.07.2019
5636 Clear 23 1017 49 10000 2.1 20 06:48 01.07.2019
5637 Clear 23 1017 60 10000 1.5 350 04:39 01.07.2019
5638 Clear 26 1018 51 10000 1.5 20 01:20 01.07.2019
5639 Clear 26 1018 57 10000 2.1 60 00:41 01.07.2019
5640 Clear 26 1018 57 10000 0.5 0 00:20 01.07.2019
5641 Clear 27 1018 54 10000 1.5 160 23:25 30.06.2019
5642 Clear 27 1017 54 10000 1 0 22:56 30.06.2019
5643 Clear 27 1017 54 10000 1 0 22:37 30.06.2019
5644 Clear 28 1017 54 10000 1.5 190 22:18 30.06.2019
5645 Clear 29 1017 51 10000 3.1 200 21:41 30.06.2019
5646 Clear 30 1017 40 10000 2.6 190 21:18 30.06.2019
5647 Clear 31 1017 40 10000 2.6 190 20:42 30.06.2019
5648 Clear 31 1017 33 10000 2.6 210 20:23 30.06.2019
5649 Clear 32 1017 33 10000 4.6 210 19:52 30.06.2019
5650 Clear 33 1017 29 10000 5.1 210 19:26 30.06.2019
5651 Clear 33 1017 29 10000 4.6 210 18:55 30.06.2019
5652 Clear 34 1017 30 10000 5.1 210 18:25 30.06.2019
5653 Clear 34 1017 24 10000 5.1 210 17:56 30.06.2019
5654 Clear 34 1017 24 10000 5.1 210 17:37 30.06.2019
5655 Clear 34 1017 26 10000 5.1 210 17:18 30.06.2019
5656 Clear 34 1017 24 10000 5.7 220 16:44 30.06.2019
5657 Clear 34 1017 24 10000 6.7 210 16:25 30.06.2019
5658 Clear 34 1017 28 10000 6.2 210 15:37 30.06.2019
5659 Clear 34 1017 26 10000 5.7 210 15:18 30.06.2019
5660 Clear 34 1017 26 10000 5.7 200 14:50 30.06.2019
5661 Clear 34 1017 26 10000 5.7 200 14:50 30.06.2019
5662 Clear 35 1017 26 10000 5.1 200 14:29 30.06.2019
5663 Clear 35 1017 19 10000 3.6 120 13:47 30.06.2019
5664 Clear 35 1017 17 5000 2.1 80 13:25 30.06.2019
5665 Clear 35 1018 16 10000 2.6 0 12:52 30.06.2019
5666 Clear 35 1018 16 10000 2.6 0 12:27 30.06.2019
5667 Clear 34 1018 23 10000 1.5 0 11:57 30.06.2019
5668 Clear 34 1017 24 10000 2.1 0 11:38 30.06.2019
5669 Clear 33 1017 29 10000 1.5 0 11:19 30.06.2019
5670 Clear 33 1017 31 10000 1.5 140 10:44 30.06.2019
5671 Clear 32 1017 33 10000 1.5 80 10:20 30.06.2019
5672 Clear 31 1017 33 10000 1.5 80 09:57 30.06.2019
5673 Clear 31 1017 35 10000 2.1 30 09:37 30.06.2019
5674 Clear 27 1017 42 10000 2.6 30 09:19 30.06.2019
5675 Clear 25 1017 50 10000 2.1 350 08:40 30.06.2019
5676 Clear 24 1017 53 10000 1.5 350 08:20 30.06.2019
5677 Clear 22 1017 56 10000 2.6 350 07:41 30.06.2019
5678 Clear 23 1017 53 10000 2.1 360 07:22 30.06.2019
5679 Clear 22 1016 56 10000 2.6 360 06:33 30.06.2019
5680 Clear 24 1016 50 10000 2.1 350 03:32 30.06.2019
5681 Clear 25 1016 44 10000 0.5 0 01:52 30.06.2019
5682 Clear 26 1016 44 10000 1 0 00:46 30.06.2019
5683 Clear 26 1016 47 10000 2.1 350 00:24 30.06.2019
5684 Clear 26 1016 57 10000 1 70 23:48 29.06.2019
5685 Clear 27 1016 65 10000 0.5 0 23:23 29.06.2019
5686 Clear 27 1016 61 10000 0.5 200 22:48 29.06.2019
5687 Clear 28 1015 58 10000 1 0 22:24 29.06.2019
5688 Clear 29 1015 58 10000 1 180 21:55 29.06.2019
5689 Clear 29 1015 58 10000 1 180 21:25 29.06.2019
5690 Clear 31 1015 52 10000 3.1 200 20:56 29.06.2019
5691 Clear 31 1015 52 10000 3.1 200 20:36 29.06.2019
5692 Clear 33 1015 40 10000 3.1 210 20:18 29.06.2019
5693 Clear 32 1015 40 10000 3.6 210 19:41 29.06.2019
5694 Clear 33 1015 36 10000 3.6 210 19:21 29.06.2019
5695 Clear 34 1015 36 10000 4.1 210 18:47 29.06.2019
5696 Clear 34 1015 36 10000 3.6 200 18:24 29.06.2019
5697 Clear 34 1015 34 10000 4.1 220 17:39 29.06.2019
5698 Clear 34 1015 41 10000 4.6 200 17:20 29.06.2019
5699 Clear 34 1015 26 10000 4.6 210 16:44 29.06.2019
5700 Clear 34 1015 32 10000 5.1 210 16:25 29.06.2019
5701 Clear 34 1015 32 10000 5.1 200 15:33 29.06.2019
5702 Clear 32 1016 36 10000 4.1 190 14:59 29.06.2019
5703 Clear 32 1016 38 10000 4.6 210 14:41 29.06.2019
5704 Clear 33 1016 43 10000 4.6 210 14:22 29.06.2019
5705 Clear 33 1016 40 10000 4.1 210 13:44 29.06.2019
5706 Clear 32 1016 45 10000 4.1 220 13:25 29.06.2019
5707 Clear 33 1016 45 10000 3.6 210 12:43 29.06.2019
5708 Clear 30 1016 48 10000 3.1 200 12:24 29.06.2019
5709 Clear 30 1016 48 10000 3.1 200 11:48 29.06.2019
5710 Clear 29 1016 48 10000 3.1 200 11:29 29.06.2019
5711 Clear 31 1016 58 10000 2.1 170 10:52 29.06.2019
5712 Clear 30 1016 58 10000 2.1 170 10:29 29.06.2019
5713 Clear 29 1016 69 10000 1.5 150 09:58 29.06.2019
5714 Clear 28 1016 65 10000 0.5 220 09:31 29.06.2019
5715 Fog 25 1015 83 10000 1 0 08:41 29.06.2019
5716 Fog 23 1014 100 10000 0.9 330.594 07:46 29.06.2019
5717 Fog 22 1014 100 10000 0.9 330.594 07:21 29.06.2019
5718 Clear 22 1015 77 10000 1 340 06:43 29.06.2019
5719 Clear 22 1015 78 10000 1.5 320 06:21 29.06.2019
5720 Clear 24 1016 83 10000 1 0 02:30 29.06.2019
5721 Clear 25 1016 65 10000 0.5 0 00:57 29.06.2019
5722 Clear 26 1016 65 10000 0.5 0 00:23 29.06.2019
5723 Clear 26 1016 65 10000 0.5 0 23:27 28.06.2019
5724 Clear 27 1015 61 10000 0.78 242.612 22:57 28.06.2019
5725 Clear 27 1016 61 10000 1.5 200 22:36 28.06.2019
5726 Clear 28 1016 51 10000 2.6 140 21:48 28.06.2019
5727 Clear 30 1016 43 10000 2.6 140 21:24 28.06.2019
5728 Clear 31 1015 43 10000 2.6 160 20:48 28.06.2019
5729 Clear 32 1015 36 10000 3.1 170 20:27 28.06.2019
5730 Clear 32 1015 28 10000 3.6 190 19:53 28.06.2019
5731 Clear 33 1015 26 10000 4.6 200 19:28 28.06.2019
5732 Clear 33 1014 52 10000 3.6 210 18:59 28.06.2019
5733 Clear 32 1016 30 10000 4.6 200 18:38 28.06.2019
5734 Clear 33 1016 34 10000 5.1 200 18:20 28.06.2019
5735 Clear 34 1016 34 10000 5.7 200 17:30 28.06.2019
5736 Clear 34 1016 30 10000 6.2 210 16:51 28.06.2019
5737 Clear 32 1017 30 10000 5.7 200 16:27 28.06.2019
5738 Clear 33 1017 31 10000 6.2 200 15:48 28.06.2019
5739 Clear 33 1017 28 10000 6.2 210 15:26 28.06.2019
5740 Clear 32 1017 28 10000 5.7 210 14:57 28.06.2019
5741 Clear 32 1017 28 10000 5.7 210 14:38 28.06.2019
5742 Clear 32 1017 29 10000 5.7 190 14:20 28.06.2019
5743 Clear 31 1018 35 10000 5.1 210 13:44 28.06.2019
5744 Clear 34 1018 38 10000 5.1 210 13:22 28.06.2019
5745 Clear 34 1018 35 10000 4.6 210 12:49 28.06.2019
5746 Clear 32 1018 33 10000 4.1 200 12:24 28.06.2019
5747 Clear 31 1018 35 10000 3.1 220 11:28 28.06.2019
5748 Clear 32 1018 33 10000 1.5 0 10:47 28.06.2019
5749 Clear 31 1018 37 10000 0.5 0 10:23 28.06.2019
5750 Clear 31 1018 37 10000 0.5 0 09:59 28.06.2019
5751 Clear 30 1018 39 10000 0.5 0 09:41 28.06.2019
5752 Clear 25 1018 44 10000 1 0 09:22 28.06.2019
5753 Clear 25 1018 47 10000 1.5 350 08:41 28.06.2019
5754 Clear 24 1018 49 10000 1.5 350 08:23 28.06.2019
5755 Clear 22 1018 53 10000 1.5 360 07:41 28.06.2019
5756 Clear 21 1017 53 10000 2.1 10 06:40 28.06.2019
5757 Clear 24 1018 56 10000 1 0 03:35 28.06.2019
5758 Clear 25 1019 57 10000 0.5 0 00:46 28.06.2019
5759 Clear 26 1019 57 10000 0.5 0 23:59 27.06.2019
5760 Clear 26 1019 57 10000 0.5 0 23:41 27.06.2019
5761 Clear 26 1019 57 10000 1.5 170 23:22 27.06.2019
5762 Clear 26 1019 57 10000 1.5 190 22:43 27.06.2019
5763 Clear 27 1018 51 10000 1.5 190 22:24 27.06.2019
5764 Clear 27 1018 51 10000 1.5 190 21:57 27.06.2019
5765 Clear 28 1018 51 10000 1.5 190 21:38 27.06.2019
5766 Clear 29 1018 48 10000 1 200 21:19 27.06.2019
5767 Clear 29 1018 48 10000 3.1 200 20:45 27.06.2019
5768 Clear 29 1018 48 10000 3.1 200 20:27 27.06.2019
5769 Clear 30 1018 42 10000 4.1 210 19:48 27.06.2019
5770 Clear 30 1018 42 10000 5.1 220 19:29 27.06.2019
5771 Clear 30 1018 40 10000 6.2 220 18:52 27.06.2019
5772 Clear 30 1018 40 10000 6.2 220 18:30 27.06.2019
5773 Clear 32 1018 38 10000 6.2 220 17:47 27.06.2019
5774 Clear 33 1019 36 10000 5.1 220 17:24 27.06.2019
5775 Clear 33 1019 36 10000 5.1 220 16:59 27.06.2019
5776 Clear 34 1019 36 10000 5.1 220 16:37 27.06.2019
5777 Clear 33 1019 36 10000 6.2 220 16:18 27.06.2019
5778 Clear 34 1019 36 10000 6.2 220 16:18 27.06.2019
5779 Clear 34 1019 34 10000 6.7 230 15:45 27.06.2019
5780 Clear 34 1019 34 10000 5.7 220 15:22 27.06.2019
5781 Clear 35 1019 30 10000 5.1 220 14:46 27.06.2019
5782 Clear 36 1019 30 10000 5.1 220 14:28 27.06.2019
5783 Clear 36 1020 26 10000 3.6 90 13:49 27.06.2019
5784 Clear 36 1020 26 10000 3.6 90 13:31 27.06.2019
5785 Clear 36 1020 25 10000 3.1 100 12:57 27.06.2019
5786 Clear 35 1020 25 10000 3.1 100 12:38 27.06.2019
5787 Clear 35 1020 30 10000 4.1 90 12:18 27.06.2019
5788 Clear 34 1020 30 10000 5.7 70 11:42 27.06.2019
5789 Clear 33 1020 31 10000 5.7 70 11:21 27.06.2019
5790 Clear 32 1020 31 10000 5.1 80 10:46 27.06.2019
5791 Clear 32 1020 31 10000 4.6 70 10:22 27.06.2019
5792 Clear 32 1020 31 10000 4.6 70 09:56 27.06.2019
5793 Clear 31 1020 35 10000 3.6 70 09:36 27.06.2019
5794 Clear 30 1020 39 10000 2.6 50 09:18 27.06.2019
5795 Clear 28 1020 42 10000 1.5 0 08:40 27.06.2019
5796 Clear 26 1020 44 10000 1.5 350 08:19 27.06.2019
5797 Clear 26 1020 50 10000 1 0 07:38 27.06.2019
5798 Clear 25 1019 47 10000 3.1 60 06:54 27.06.2019
5799 Clear 24 1019 47 10000 3.1 60 06:28 27.06.2019
5800 Clear 25 1020 42 10000 5.1 80 03:22 27.06.2019
5801 Clear 25 1020 50 10000 4.1 70 02:39 27.06.2019
5802 Clear 25 1020 44 10000 3.1 90 01:18 27.06.2019
5803 Clear 26 1020 47 10000 3.6 90 00:45 27.06.2019
5804 Clear 27 1020 42 10000 4.6 80 00:24 27.06.2019
5805 Clear 27 1020 45 10000 4.6 70 23:42 26.06.2019
5806 Clear 27 1020 37 10000 5.7 70 23:22 26.06.2019
5807 Clear 27 1019 39 10000 4.6 70 22:55 26.06.2019
5808 Clear 28 1019 39 10000 4.6 70 22:37 26.06.2019
5809 Clear 28 1019 37 10000 4.6 80 22:18 26.06.2019
5810 Clear 29 1019 35 10000 4.6 70 21:39 26.06.2019
5811 Clear 29 1019 35 10000 4.6 70 21:39 26.06.2019
5812 Clear 31 1019 29 10000 5.7 70 21:19 26.06.2019
5813 Clear 33 1019 26 10000 5.7 70 20:50 26.06.2019
5814 Clear 33 1019 26 10000 5.7 70 20:30 26.06.2019
5815 Clear 35 1018 23 10000 4.6 110 19:57 26.06.2019
5816 Clear 35 1018 23 10000 4.6 110 19:38 26.06.2019
5817 Clear 36 1018 23 10000 4.6 130 19:19 26.06.2019
5818 Clear 37 1018 17 10000 5.7 150 18:44 26.06.2019
5819 Clear 36 1018 17 10000 6.2 140 18:22 26.06.2019
5820 Clear 37 1018 17 10000 4.6 160 17:47 26.06.2019
5821 Clear 37 1018 17 10000 4.6 160 17:27 26.06.2019
5822 Clear 38 1019 18 10000 3.6 150 16:52 26.06.2019
5823 Clear 38 1019 18 10000 3.6 150 16:30 26.06.2019
5824 Clear 38 1019 18 10000 4.1 130 16:30 26.06.2019
5825 Clear 38 1019 18 10000 4.1 130 15:58 26.06.2019
5826 Clear 37 1019 20 10000 5.1 110 15:29 26.06.2019
5827 Clear 37 1019 20 10000 5.1 110 14:58 26.06.2019
5828 Clear 37 1019 27 10000 5.7 100 14:37 26.06.2019
5829 Clear 37 1019 28 10000 4.6 100 14:18 26.06.2019
5830 Clear 35 1019 30 10000 4.1 110 13:39 26.06.2019
5831 Clear 35 1019 30 10000 4.1 100 13:19 26.06.2019
5832 Clear 34 1019 34 10000 4.1 80 12:40 26.06.2019
5833 Clear 34 1019 36 10000 4.6 80 12:21 26.06.2019
5834 Clear 33 1019 40 10000 6.2 70 11:42 26.06.2019
5835 Clear 31 1019 43 10000 6.2 70 11:19 26.06.2019
5836 Clear 31 1019 45 10000 5.1 70 10:41 26.06.2019
5837 Clear 30 1019 45 10000 6.2 80 10:21 26.06.2019
5838 Clear 29 1017 58 10000 6.2 70 09:37 26.06.2019
5839 Clear 28 1018 42 10000 4.1 60 09:18 26.06.2019
5840 Clear 28 1018 45 10000 3.6 80 08:39 26.06.2019
5841 Clear 27 1018 47 10000 2.6 70 08:19 26.06.2019
5842 Clear 25 1018 50 10000 3.1 80 07:45 26.06.2019
5843 Clear 24 1017 53 10000 2.1 60 06:34 26.06.2019
5844 Clear 24 1017 53 10000 3.1 60 05:55 26.06.2019
5845 Clear 25 1018 57 10000 2.6 110 00:57 26.06.2019
5846 Clear 25 1018 61 10000 3.6 70 00:19 26.06.2019
5847 Clear 25 1018 65 10000 3.6 80 23:43 25.06.2019
5848 Clear 24 1017 78 10000 1 120 23:24 25.06.2019
5849 Clear 24 1017 78 10000 1 0 22:56 25.06.2019
5850 Clear 24 1017 78 10000 1 0 22:37 25.06.2019
5851 Clear 24 1017 78 10000 1 190 22:19 25.06.2019
5852 Clear 25 1017 78 10000 1.5 190 21:40 25.06.2019
5853 Clear 25 1017 73 10000 2.1 200 21:21 25.06.2019
5854 Clear 25 1017 73 10000 2.1 200 20:43 25.06.2019
5855 Clouds 27 1017 73 10000 3.6 190 20:21 25.06.2019
5856 Clear 27 1017 69 10000 3.6 200 19:45 25.06.2019
5857 Clouds 28 1017 69 10000 3.6 0 19:23 25.06.2019
5858 Clear 27 1017 69 10000 3.1 210 18:44 25.06.2019
5859 Clear 27 1017 65 10000 3.6 210 18:26 25.06.2019
5860 -273 0 0 0 0 0 17:57 25.06.2019
5861 -273 0 0 0 0 0 17:57 25.06.2019
5862 -273 0 0 0 0 0 17:29 25.06.2019
5863 Clear 28 1017 69 10000 3.6 190 17:29 25.06.2019
5864 Clear 28 1017 69 10000 3.6 190 17:29 25.06.2019
5865 Clear 28 1017 69 10000 3.6 190 16:57 25.06.2019
5866 Clear 26 1017 69 10000 4.1 210 16:38 25.06.2019
5867 Clear 26 1017 69 10000 4.6 220 16:19 25.06.2019
5868 Clear 29 1017 65 10000 5.1 220 15:41 25.06.2019
5869 Clear 26 1017 65 10000 5.1 210 15:21 25.06.2019
5870 Clear 27 1017 65 10000 5.7 220 14:54 25.06.2019
5871 Clear 28 1017 65 10000 5.7 220 14:35 25.06.2019
5872 Clear 28 1017 65 10000 5.1 210 13:46 25.06.2019
5873 Clear 29 1017 65 10000 5.1 210 13:27 25.06.2019
5874 Clouds 28 1017 61 10000 2.6 250 12:44 25.06.2019
5875 Clouds 28 1017 61 10000 2.6 250 12:44 25.06.2019
5876 Clear 29 1017 61 10000 1.5 110 12:25 25.06.2019
5877 Clouds 28 1017 65 10000 1 280 11:55 25.06.2019
5878 Clouds 27 1017 65 10000 1 280 11:37 25.06.2019
5879 Clouds 26 1017 73 10000 1.5 0 11:18 25.06.2019
5880 Clouds 24 1017 73 10000 1.5 0 10:42 25.06.2019
5881 Clouds 24 1017 78 10000 1 150 10:22 25.06.2019
5882 Clouds 23 1017 78 10000 1 0 09:55 25.06.2019
5883 Clouds 23 1017 78 10000 1 0 09:37 25.06.2019
5884 Clouds 23 1016 83 10000 2.1 140 09:18 25.06.2019
5885 Clouds 23 1016 83 10000 2.1 70 08:37 25.06.2019
5886 Clouds 23 1016 83 10000 2.1 70 08:19 25.06.2019
5887 Clouds 23 1016 83 10000 2.1 90 07:39 25.06.2019
5888 Clouds 22 1015 83 10000 3.1 60 06:54 25.06.2019
5889 Clouds 22 1015 83 10000 3.1 70 06:36 25.06.2019
5890 Clear 22 1015 83 10000 2.1 90 02:46 25.06.2019
5891 Clouds 23 1015 88 10000 2.1 90 01:41 25.06.2019
5892 Clouds 23 1015 88 10000 2.6 100 00:37 25.06.2019
5893 Clear 23 1015 83 10000 2.6 80 23:56 24.06.2019
5894 Clear 23 1015 83 10000 2.1 90 23:38 24.06.2019
5895 Clear 24 1015 88 10000 1 150 23:20 24.06.2019
5896 Clear 24 1014 88 10000 1.5 170 22:41 24.06.2019
5897 Clear 24 1014 88 10000 2.1 220 22:19 24.06.2019
5898 Clear 24 1014 83 10000 3.6 220 21:39 24.06.2019
5899 Clear 24 1013 83 10000 3.6 220 21:19 24.06.2019
5900 Clear 24 1013 83 10000 3.6 220 20:56 24.06.2019
5901 Clear 25 1013 78 10000 3.6 220 20:38 24.06.2019
5902 Clear 25 1013 78 10000 4.6 210 20:20 24.06.2019
5903 Clear 25 1013 74 10000 4.6 220 19:44 24.06.2019
5904 Clear 25 1013 74 10000 5.7 210 19:21 24.06.2019
5905 Clear 25 1013 74 10000 6.2 230 18:47 24.06.2019
5906 Clear 26 1013 69 10000 6.2 230 18:27 24.06.2019
5907 Clear 26 1013 69 10000 6.2 220 17:47 24.06.2019
5908 Clear 27 1013 69 10000 6.2 220 17:27 24.06.2019
5909 Clear 26 1013 69 10000 6.2 220 16:48 24.06.2019
5910 Clear 29 1013 65 10000 6.2 230 16:21 24.06.2019
5911 Clear 32 1013 65 10000 6.2 230 15:59 24.06.2019
5912 Clear 31 1013 58 10000 5.7 240 15:38 24.06.2019
5913 Clear 32 1014 46 10000 3.1 140 15:19 24.06.2019
5914 Clear 31 1014 46 10000 4.1 100 14:34 24.06.2019
5915 Clear 31 1014 45 10000 5.1 70 13:50 24.06.2019
5916 Clear 30 1014 45 10000 5.1 70 13:29 24.06.2019
5917 Clear 31 1014 40 10000 5.1 90 12:44 24.06.2019
5918 Clear 31 1015 42 10000 5.1 90 12:22 24.06.2019
5919 Clear 30 1015 42 10000 5.7 80 11:56 24.06.2019
5920 Clear 29 1015 42 10000 5.7 80 11:37 24.06.2019
5921 Clear 29 1015 45 10000 6.2 80 11:18 24.06.2019
5922 Clear 28 1015 42 10000 5.7 70 10:42 24.06.2019
5923 Clear 28 1015 42 10000 6.2 80 10:20 24.06.2019
5924 Clear 27 1014 36 10000 5.1 80 09:48 24.06.2019
5925 Clear 26 1014 34 10000 6.2 70 09:20 24.06.2019
5926 Clear 26 1014 34 10000 4.1 70 08:51 24.06.2019
5927 Clear 25 1014 33 10000 5.7 60 08:25 24.06.2019
5928 Clear 25 1014 33 10000 5.7 60 08:25 24.06.2019
5929 Clear 24 1014 36 10000 3.1 80 07:44 24.06.2019
5930 Clear 23 1014 36 10000 3.6 70 07:25 24.06.2019
5931 Clear 23 1014 33 10000 4.1 80 06:39 24.06.2019
5932 Clear 23 1013 27 10000 4.1 70 06:19 24.06.2019
5933 Clear 23 1014 23 10000 3.6 40 04:59 24.06.2019
5934 Clear 22 1014 29 10000 2.6 40 04:23 24.06.2019
5935 Clear 22 1015 38 10000 4.6 60 02:55 24.06.2019
5936 Clear 23 1016 38 10000 2.6 80 02:20 24.06.2019
5937 Clear 23 1016 44 10000 3.1 60 01:49 24.06.2019
5938 Clear 23 1016 47 10000 3.6 50 01:21 24.06.2019
5939 Clear 23 1016 53 10000 3.6 60 00:39 24.06.2019
5940 Clear 23 1016 47 10000 4.1 60 00:19 24.06.2019
5941 Clear 23 1016 47 10000 4.6 70 23:44 23.06.2019
5942 Clear 24 1016 47 10000 2.1 90 23:22 23.06.2019
5943 Clear 25 1015 44 10000 3.6 100 22:43 23.06.2019
5944 Clear 25 1015 39 10000 3.1 120 22:20 23.06.2019
5945 Clear 27 1014 32 10000 4.6 110 21:56 23.06.2019
5946 Clear 27 1014 32 10000 4.6 110 21:36 23.06.2019
5947 Clear 27 1014 30 10000 4.6 120 21:18 23.06.2019
5948 Clear 28 1014 37 10000 6.2 70 20:40 23.06.2019
5949 Clear 29 1014 33 10000 4.1 90 20:22 23.06.2019
5950 Clear 28 1014 45 10000 3.1 190 19:44 23.06.2019
5951 Clear 28 1014 45 10000 3.1 220 19:21 23.06.2019
5952 Clear 28 1014 45 10000 4.1 210 18:54 23.06.2019
5953 Clear 28 1014 45 10000 4.1 210 18:54 23.06.2019
5954 Clear 28 1014 45 10000 5.1 220 18:24 23.06.2019
5955 Clear 28 1015 45 10000 5.7 220 17:50 23.06.2019
5956 Clear 28 1015 45 10000 5.7 220 17:26 23.06.2019
5957 Clear 28 1015 45 10000 6.2 220 16:55 23.06.2019
5958 Clear 28 1015 45 10000 6.7 230 16:37 23.06.2019
5959 Clear 28 1015 40 10000 6.2 240 16:18 23.06.2019
5960 Clear 28 1015 45 10000 6.2 220 15:40 23.06.2019
5961 Clear 27 1015 51 10000 7.7 230 15:21 23.06.2019
5962 Clear 27 1015 51 10000 7.2 220 14:41 23.06.2019
5963 Clear 27 1015 51 10000 6.7 210 14:22 23.06.2019
5964 Clear 27 1015 51 10000 6.7 210 13:58 23.06.2019
5965 Clear 27 1015 51 10000 6.7 220 13:39 23.06.2019
5966 Clear 30 1015 40 10000 4.1 0 13:19 23.06.2019
5967 Clear 31 1016 31 10000 3.1 130 12:43 23.06.2019
5968 Clear 30 1016 37 10000 2.6 70 12:22 23.06.2019
5969 Clear 30 1016 37 10000 2.6 70 12:22 23.06.2019
5970 Clear 29 1016 37 10000 2.6 70 11:55 23.06.2019
5971 Clear 29 1016 37 10000 3.1 60 11:37 23.06.2019
5972 Clear 28 1016 42 10000 2.6 20 11:19 23.06.2019
5973 Clear 27 1016 47 10000 2.1 60 10:43 23.06.2019
5974 Clear 27 1016 53 10000 2.6 130 10:18 23.06.2019
5975 Clear 26 1016 53 10000 2.6 130 09:39 23.06.2019
5976 Clear 25 1016 53 10000 1.5 120 09:20 23.06.2019
5977 Clear 23 1016 56 10000 1.5 20 08:44 23.06.2019
5978 Clear 21 1015 73 10000 2.6 40 08:26 23.06.2019
5979 Clear 21 1014 82 10000 2.1 20 07:53 23.06.2019
5980 Clear 20 1015 72 10000 2.1 350 07:21 23.06.2019
5981 Clear 19 1014 88 10000 2.1 30 06:54 23.06.2019
5982 Clear 18 1016 77 10000 1 0 05:55 23.06.2019
5983 Clear 20 1016 72 10000 1 360 04:30 23.06.2019
5984 Clear 20 1016 72 10000 2.1 360 01:57 23.06.2019
5985 Clear 20 1016 73 10000 2.1 20 01:36 23.06.2019
5986 Clear 21 1016 77 10000 1.5 360 00:36 23.06.2019
5987 Clear 22 1016 83 10000 1.5 170 23:55 22.06.2019
5988 Clear 22 1016 83 10000 1.5 170 23:37 22.06.2019
5989 Clear 22 1016 73 10000 0.5 120 23:18 22.06.2019
5990 Clear 23 1016 78 10000 0.5 0 22:38 22.06.2019
5991 Clouds 22 1016 78 10000 1 190 22:19 22.06.2019
5992 Clear 23 1016 73 10000 1 190 21:37 22.06.2019
5993 Clear 23 1016 73 10000 2.1 200 21:19 22.06.2019
5994 Clear 24 1016 69 10000 3.1 210 20:50 22.06.2019
5995 Clear 24 1016 69 10000 3.1 210 20:25 22.06.2019
5996 Clear 24 1016 69 10000 4.1 210 19:47 22.06.2019
5997 Clear 24 1016 65 10000 3.6 220 19:23 22.06.2019
5998 Clear 25 1016 65 10000 4.1 210 18:50 22.06.2019
5999 Clear 25 1016 65 10000 4.1 210 18:32 22.06.2019
6000 Clear 25 1016 69 10000 4.6 200 17:57 22.06.2019
6001 Clear 25 1017 69 10000 5.7 220 17:36 22.06.2019
6002 Clear 25 1017 69 10000 6.2 210 17:18 22.06.2019
6003 Clear 25 1017 69 10000 5.7 210 16:39 22.06.2019
6004 Clear 25 1017 65 10000 5.1 220 16:20 22.06.2019
6005 Clouds 26 1017 65 10000 6.2 220 15:40 22.06.2019
6006 Clear 26 1017 42 10000 4.1 0 15:22 22.06.2019
6007 Clear 26 1017 44 10000 4.6 90 14:37 22.06.2019
6008 Clear 28 1017 42 10000 5.7 80 14:18 22.06.2019
6009 Clear 27 1017 44 10000 6.7 80 13:42 22.06.2019
6010 Clear 27 1017 44 10000 6.7 70 13:23 22.06.2019
6011 Clear 27 1017 44 10000 6.2 80 12:53 22.06.2019
6012 Clear 27 1017 44 10000 6.2 80 12:34 22.06.2019
6013 Clear 27 1017 47 10000 7.2 60 11:59 22.06.2019
6014 Clear 26 1017 47 10000 6.7 80 11:34 22.06.2019
6015 Clear 25 1017 57 10000 7.2 70 10:54 22.06.2019
6016 Clear 24 1017 60 10000 7.2 60 10:22 22.06.2019
6017 Clear 24 1017 60 10000 6.7 60 09:55 22.06.2019
6018 Clear 22 1017 64 10000 5.1 60 09:27 22.06.2019
6019 Clear 21 1017 68 10000 4.6 60 08:44 22.06.2019
6020 Clear 21 1017 68 10000 4.6 60 08:25 22.06.2019
6021 Clear 21 1016 82 10000 1.5 0 07:43 22.06.2019
6022 Clear 20 1016 88 10000 1.5 350 06:58 22.06.2019
6023 Clear 20 1016 88 10000 1.5 350 06:31 22.06.2019
6024 Clear 21 1017 82 10000 2.1 70 02:38 22.06.2019
6025 Clear 21 1016 82 10000 1.5 70 02:18 22.06.2019
6026 Clear 21 1016 83 10000 1 0 00:47 22.06.2019
6027 Clear 22 1016 78 10000 1 0 00:23 22.06.2019
6028 Clear 22 1016 78 10000 2.6 90 23:49 21.06.2019
6029 Clouds 22 1015 73 10000 2.1 100 23:22 21.06.2019
6030 Clouds 23 1015 73 10000 2.6 90 22:54 21.06.2019
6031 Clouds 23 1015 73 10000 3.1 90 22:27 21.06.2019
6032 Clouds 23 1015 73 10000 3.1 90 21:57 21.06.2019
6033 Clouds 24 1014 69 10000 5.1 60 21:38 21.06.2019
6034 Clear 24 1014 73 10000 6.2 70 21:19 21.06.2019
6035 Clear 25 1013 69 10000 6.7 70 20:47 21.06.2019
6036 Clouds 25 1013 65 10000 6.2 70 20:22 21.06.2019
6037 Clouds 25 1013 61 10000 3.1 100 19:38 21.06.2019
6038 Clear 25 1013 61 10000 3.1 190 18:56 21.06.2019
6039 Clear 26 1013 61 10000 3.1 190 18:35 21.06.2019
6040 Clear 27 1013 57 10000 4.1 210 17:58 21.06.2019
6041 Clear 27 1013 57 10000 4.1 210 17:30 21.06.2019
6042 Clear 27 1014 61 10000 5.1 200 16:43 21.06.2019
6043 Clear 26 1014 65 10000 6.7 200 16:23 21.06.2019
6044 Clear 26 1014 65 10000 6.7 200 15:58 21.06.2019
6045 Clear 25 1014 65 10000 6.2 200 15:36 21.06.2019
6046 Clear 26 1014 61 10000 6.2 210 14:56 21.06.2019
6047 Clear 25 1014 61 10000 6.2 210 14:37 21.06.2019
6048 Clear 27 1014 54 10000 4.6 210 14:19 21.06.2019
6049 Clouds 27 1014 57 10000 2.6 0 13:39 21.06.2019
6050 Clouds 25 1015 61 10000 2.1 260 13:21 21.06.2019
6051 Clouds 26 1015 61 10000 2.6 260 12:44 21.06.2019
6052 Clouds 26 1015 61 10000 2.1 330 12:22 21.06.2019
6053 Clouds 25 1015 73 10000 2.1 320 11:48 21.06.2019
6054 Clouds 23 1013 78 10000 4.1 80 11:28 21.06.2019
6055 Clouds 22 1015 83 10000 1.5 60 10:58 21.06.2019
6056 Clouds 22 1015 83 10000 1.5 60 10:39 21.06.2019
6057 Thunderstorm 22 1014 78 10000 4.6 100 10:20 21.06.2019
6058 Clouds 22 1015 83 10000 2.1 140 09:42 21.06.2019
6059 Clouds 21 1014 83 10000 2.1 120 09:21 21.06.2019
6060 Clouds 21 1014 88 10000 1.5 0 08:55 21.06.2019
6061 Clear 21 1014 88 10000 1.5 0 08:37 21.06.2019
6062 Clear 20 1014 88 10000 2.1 70 08:18 21.06.2019
6063 Clear 20 1014 88 10000 2.6 50 07:40 21.06.2019
6064 Clear 19 1013 88 10000 1.5 50 06:59 21.06.2019
6065 Clear 19 1013 88 10000 1 0 06:25 21.06.2019
6066 Clear 20 1013 88 10000 1 360 05:33 21.06.2019
6067 Clear 20 1013 82 10000 1.5 30 04:36 21.06.2019
6068 Clear 21 1014 88 10000 1.5 360 03:41 21.06.2019
6069 Clouds 21 1014 88 10000 1 0 03:23 21.06.2019
6070 Clouds 22 1014 83 10000 1 0 02:21 21.06.2019
6071 Clear 22 1014 88 10000 2.6 200 01:30 21.06.2019
6072 Clear 22 1014 83 10000 0.87 117.78 00:35 21.06.2019
6073 Clear 22 1014 83 10000 0.5 0 23:56 20.06.2019
6074 Clear 22 1014 83 10000 0.5 0 23:37 20.06.2019
6075 Clear 22 1014 83 10000 1.5 190 23:19 20.06.2019
6076 Clear 22 1013 83 10000 1.5 180 22:41 20.06.2019
6077 Clear 23 1013 78 10000 1.5 200 22:23 20.06.2019
6078 Clear 23 1013 78 10000 1.5 200 22:23 20.06.2019
6079 Clear 23 1013 73 10000 2.1 210 21:56 20.06.2019
6080 Clear 23 1013 73 10000 2.1 210 21:37 20.06.2019
6081 Clear 24 1012 73 10000 2.6 200 21:19 20.06.2019
6082 Clear 24 1012 69 10000 3.1 190 20:41 20.06.2019
6083 Clear 25 1012 65 10000 3.6 210 20:23 20.06.2019
6084 Clear 24 1012 53 10000 4.1 220 19:45 20.06.2019
6085 Clear 26 1012 61 10000 3.6 220 19:19 20.06.2019
6086 Clear 25 1012 61 10000 3.6 220 18:58 20.06.2019
6087 Clear 25 1012 54 10000 4.1 210 18:40 20.06.2019
6088 Clear 25 1013 57 10000 4.1 210 18:21 20.06.2019
6089 Clear 26 1013 54 10000 4.1 200 17:47 20.06.2019
6090 Clear 26 1013 61 10000 3.6 190 17:29 20.06.2019
6091 Clear 25 1013 65 10000 4.1 230 16:44 20.06.2019
6092 Clear 25 1014 65 10000 5.1 220 16:20 20.06.2019
6093 Clear 25 1014 65 10000 5.1 220 15:57 20.06.2019
6094 Clear 25 1014 69 10000 5.1 230 15:38 20.06.2019
6095 Clear 25 1014 69 10000 6.2 220 15:19 20.06.2019
6096 Clear 25 1014 69 10000 7.2 220 14:44 20.06.2019
6097 Clear 26 1014 69 10000 7.7 220 14:22 20.06.2019
6098 Clear 25 1014 65 10000 8.2 220 13:40 20.06.2019
6099 Clear 24 1014 65 10000 7.7 210 13:19 20.06.2019
6100 Clear 24 1014 65 10000 6.2 220 12:46 20.06.2019
6101 Clear 25 1014 65 10000 5.7 230 12:23 20.06.2019
6102 Clear 25 1014 65 10000 6.2 220 11:46 20.06.2019
6103 -273 0 0 0 0 0 11:27 20.06.2019
6104 Clear 27 1013 47 10000 5.1 80 10:57 20.06.2019
6105 Clear 27 1013 47 10000 5.1 80 10:39 20.06.2019
6106 Clear 26 1013 57 10000 2.6 100 10:20 20.06.2019
6107 Clear 24 1013 60 10000 2.1 20 09:40 20.06.2019
6108 Clear 22 1013 73 10000 3.6 10 09:21 20.06.2019
6109 Clear 21 1013 77 10000 2.6 10 08:46 20.06.2019
6110 Clear 21 1013 77 10000 2.6 10 08:27 20.06.2019
6111 Clear 20 1013 77 10000 1.5 340 07:53 20.06.2019
6112 Clear 20 1013 82 10000 1 340 07:28 20.06.2019
6113 Clear 20 1014 82 10000 2.1 340 06:28 20.06.2019
6114 Clear 20 1014 77 10000 1.5 350 05:41 20.06.2019
6115 Clear 20 1014 77 10000 1 0 03:32 20.06.2019
6116 Clear 20 1014 88 9000 1 200 00:34 20.06.2019
6117 Clear 21 1014 88 10000 1 0 23:58 19.06.2019
6118 Clear 21 1014 88 10000 1 0 23:39 19.06.2019
6119 Clear 21 1014 88 10000 0.5 0 23:21 19.06.2019
6120 Clear 21 1014 88 10000 2.23 124.88 22:47 19.06.2019
6121 Clear 22 1014 88 10000 1.5 200 22:20 19.06.2019
6122 Clear 22 1014 83 10000 2.6 210 21:47 19.06.2019
6123 Clear 22 1014 83 10000 2.6 210 21:26 19.06.2019
6124 Clear 23 1014 78 10000 4.6 210 20:57 19.06.2019
6125 Clear 23 1014 78 10000 4.6 210 20:37 19.06.2019
6126 Clear 23 1013 78 10000 4.6 210 20:19 19.06.2019
6127 Clear 24 1013 73 10000 4.6 210 19:41 19.06.2019
6128 Clear 24 1013 69 10000 4.6 210 19:21 19.06.2019
6129 Clear 24 1014 69 10000 4.1 210 18:49 19.06.2019
6130 Clear 24 1014 69 10000 3.6 210 18:21 19.06.2019
6131 Clear 24 1014 65 10000 5.7 210 17:41 19.06.2019
6132 Clear 24 1014 65 10000 6.2 210 17:22 19.06.2019
6133 Clear 26 1015 65 10000 5.7 200 16:40 19.06.2019
6134 Clear 25 1015 65 10000 5.7 220 16:21 19.06.2019
6135 Clear 24 1015 65 10000 5.1 210 15:55 19.06.2019
6136 Clear 24 1015 65 10000 5.1 210 15:31 19.06.2019
6137 Clear 24 1015 65 10000 5.1 220 14:57 19.06.2019
6138 Clear 27 1015 65 10000 4.6 190 14:39 19.06.2019
6139 Clear 26 1015 65 10000 5.1 200 14:21 19.06.2019
6140 Clear 27 1015 69 10000 5.7 210 13:43 19.06.2019
6141 Clear 26 1015 69 10000 6.2 200 13:24 19.06.2019
6142 Clear 26 1015 73 10000 6.7 210 12:44 19.06.2019
6143 Clear 24 1015 69 10000 7.7 220 12:22 19.06.2019
6144 Clear 26 1015 60 10000 6.2 220 11:57 19.06.2019
6145 Clear 25 1015 60 10000 6.2 220 11:38 19.06.2019
6146 Clear 24 1015 50 10000 3.6 220 11:20 19.06.2019
6147 Clear 25 1015 53 10000 1.5 140 10:45 19.06.2019
6148 Clear 26 1015 53 10000 1 0 10:27 19.06.2019
6149 Clear 25 1015 53 10000 1.5 170 09:50 19.06.2019
6150 Clear 22 1015 52 10000 1 0 09:22 19.06.2019
6151 Clouds 20 1015 42 10000 1 0 08:51 19.06.2019
6152 Clear 20 1015 48 10000 0.5 0 08:29 19.06.2019
6153 Clear 18 1015 51 10000 1 360 07:52 19.06.2019
6154 Clear 17 1015 51 10000 1 0 07:34 19.06.2019
6155 Clear 17 1015 51 10000 1 330 06:59 19.06.2019
6156 Clear 17 1015 48 10000 1.5 360 06:35 19.06.2019
6157 Clear 17 1014 48 10000 1 360 05:50 19.06.2019
6158 Clear 18 1014 48 10000 1.5 10 05:20 19.06.2019
6159 Clear 18 1015 42 10000 1.5 350 03:51 19.06.2019
6160 Clear 19 1015 45 10000 1.5 350 02:35 19.06.2019
6161 Clear 19 1015 48 10000 1.5 10 01:36 19.06.2019
6162 Clear 19 1016 49 10000 1.5 360 00:53 19.06.2019
6163 Clear 20 1016 49 10000 1.5 360 00:35 19.06.2019
6164 Clear 20 1016 49 10000 2.1 340 23:58 18.06.2019
6165 Clear 21 1016 49 10000 1 350 23:31 18.06.2019
6166 Clear 21 1015 53 10000 1 180 22:56 18.06.2019
6167 Clear 22 1015 53 10000 1 180 22:37 18.06.2019
6168 Clear 22 1015 49 10000 0.5 0 22:19 18.06.2019
6169 Clear 23 1016 49 10000 2.1 220 21:44 18.06.2019
6170 Clear 24 1016 47 10000 4.1 220 21:21 18.06.2019
6171 Clear 24 1016 50 10000 5.1 220 20:58 18.06.2019
6172 Clear 24 1016 50 10000 5.1 220 20:38 18.06.2019
6173 Clear 25 1015 41 10000 5.7 220 20:18 18.06.2019
6174 Clear 25 1015 36 10000 5.1 220 19:39 18.06.2019
6175 Clear 25 1015 36 10000 5.7 220 19:20 18.06.2019
6176 Clear 25 1015 39 10000 5.1 220 18:48 18.06.2019
6177 Clear 26 1016 44 10000 6.2 230 18:25 18.06.2019
6178 Clear 26 1016 39 10000 6.2 220 17:46 18.06.2019
6179 Clear 25 1016 39 10000 6.7 220 17:21 18.06.2019
6180 Clear 25 1016 44 10000 7.2 230 16:57 18.06.2019
6181 Clear 25 1016 44 10000 7.2 230 16:39 18.06.2019
6182 Clear 26 1016 36 10000 7.2 220 16:20 18.06.2019
6183 Clear 26 1016 42 10000 6.7 220 15:38 18.06.2019
6184 Clear 26 1017 36 10000 7.7 230 15:20 18.06.2019
6185 Clear 26 1017 36 10000 7.7 230 14:56 18.06.2019
6186 Clear 26 1017 32 10000 6.2 220 14:37 18.06.2019
6187 Clear 28 1017 30 10000 6.2 220 14:18 18.06.2019
6188 Clear 26 1017 32 10000 5.7 220 13:43 18.06.2019
6189 Clear 27 1017 32 10000 5.1 220 13:22 18.06.2019
6190 Clear 28 1017 32 10000 3.6 210 12:45 18.06.2019
6191 Clear 27 1017 32 10000 2.6 230 12:27 18.06.2019
6192 Clear 27 1017 30 10000 2.1 210 11:49 18.06.2019
6193 Clear 26 1017 31 10000 2.6 220 11:23 18.06.2019
6194 Clear 26 1017 31 10000 2.6 220 11:23 18.06.2019
6195 Clear 27 1017 31 10000 2.6 220 10:58 18.06.2019
6196 Clear 26 1017 36 10000 1.5 160 10:38 18.06.2019
6197 Clear 26 1017 41 10000 1 0 10:20 18.06.2019
6198 Clear 25 1017 46 10000 1 0 09:51 18.06.2019
6199 Clear 22 1017 52 10000 1 0 09:24 18.06.2019
6200 Clear 21 1017 52 10000 0.5 340 08:47 18.06.2019
6201 Clear 19 1017 59 10000 1.5 340 08:22 18.06.2019
6202 Clear 18 1017 59 10000 2.1 350 07:45 18.06.2019
6203 Clear 17 1016 63 10000 2.6 360 07:24 18.06.2019
6204 Clear 17 1016 63 10000 1.5 330 06:48 18.06.2019
6205 Clear 17 1017 59 10000 1.5 360 05:24 18.06.2019
6206 Clear 18 1017 63 10000 1.5 360 03:59 18.06.2019
6207 Clear 18 1017 59 10000 2.1 350 02:45 18.06.2019
6208 Clear 19 1018 59 10000 2.1 340 01:26 18.06.2019
6209 Clear 19 1017 77 10000 2.1 70 00:57 18.06.2019
6210 Clear 20 1018 72 10000 0.5 60 00:30 18.06.2019
6211 Clear 20 1018 68 10000 0.5 0 23:42 17.06.2019
6212 Clear 20 1018 68 10000 0.5 0 23:42 17.06.2019
6213 Clear 21 1017 68 10000 1.5 160 23:24 17.06.2019
6214 Clear 21 1017 64 10000 2.1 180 22:58 17.06.2019
6215 Clear 21 1017 64 10000 2.1 180 22:39 17.06.2019
6216 Clear 22 1017 68 10000 2.1 190 22:20 17.06.2019
6217 Clear 22 1017 64 10000 3.6 210 21:45 17.06.2019
6218 Clear 23 1017 53 10000 4.1 210 21:23 17.06.2019
6219 Clear 23 1017 53 10000 4.1 210 21:23 17.06.2019
6220 Clear 23 1017 49 10000 4.6 210 20:43 17.06.2019
6221 Clear 24 1017 47 10000 4.6 210 20:24 17.06.2019
6222 Clear 24 1017 47 10000 4.6 210 19:57 17.06.2019
6223 Clear 24 1017 41 10000 3.1 210 19:39 17.06.2019
6224 Clear 24 1017 41 10000 4.6 210 19:21 17.06.2019
6225 Clear 25 1017 41 10000 4.6 210 18:39 17.06.2019
6226 Clear 26 1016 60 10000 5.1 230 18:18 17.06.2019
6227 Clear 27 1017 39 10000 5.7 210 17:58 17.06.2019
6228 Clear 27 1017 39 10000 5.7 210 17:39 17.06.2019
6229 Clear 27 1016 57 10000 4.6 210 17:20 17.06.2019
6230 Clear 27 1018 36 10000 7.2 200 16:42 17.06.2019
6231 Clouds 27 1017 50 10000 5.7 230 16:24 17.06.2019
6232 Clear 28 1018 39 10000 7.7 200 16:24 17.06.2019
6233 Clouds 28 1017 47 10000 6.7 220 15:55 17.06.2019
6234 Clear 26 1018 41 10000 7.7 200 15:36 17.06.2019
6235 Clouds 27 1017 57 10000 6.2 220 15:18 17.06.2019
6236 Clouds 25 1017 57 10000 6.7 220 14:42 17.06.2019
6237 Clouds 27 1017 57 10000 6.7 220 14:22 17.06.2019
6238 Clouds 26 1017 54 10000 6.2 220 13:47 17.06.2019
6239 Clouds 30 1017 54 10000 6.2 220 13:22 17.06.2019
6240 Clear 28 1018 42 10000 5.1 210 12:48 17.06.2019
6241 Clear 26 1018 42 10000 5.1 210 12:30 17.06.2019
6242 Clear 27 1017 53 10000 4.6 230 11:48 17.06.2019
6243 Clear 27 1017 57 10000 4.1 230 11:26 17.06.2019
6244 Clear 27 1017 60 10000 2.6 230 10:58 17.06.2019
6245 Clear 27 1018 41 10000 1 0 10:40 17.06.2019
6246 Clear 26 1017 54 10000 0.5 320 10:21 17.06.2019
6247 Clear 25 1018 56 10000 1 0 09:45 17.06.2019
6248 Clear 22 1017 64 10000 2.6 40 09:27 17.06.2019
6249 Clear 22 1018 64 10000 1 0 08:41 17.06.2019
6250 Clear 20 1017 72 10000 2.1 60 08:23 17.06.2019
6251 Clear 18 1018 82 10000 1.5 350 07:42 17.06.2019
6252 Clear 18 1017 87 10000 2.61 7.764 07:23 17.06.2019
6253 Clear 18 1018 82 10000 2.1 10 06:35 17.06.2019
6254 Clear 18 1018 77 10000 1 0 05:45 17.06.2019
6255 Clear 19 1018 77 10000 1 0 04:41 17.06.2019
6256 Clear 19 1018 77 10000 0.5 0 03:47 17.06.2019
6257 Clear 20 1017 82 10000 2.1 50 02:59 17.06.2019
6258 Clear 20 1019 77 10000 1 0 02:40 17.06.2019
6259 Clear 20 1018 77 10000 1.5 190 01:55 17.06.2019
6260 Clear 20 1019 77 10000 2.1 180 01:33 17.06.2019
6261 Clear 20 1018 77 10000 1 0 00:44 17.06.2019
6262 Clear 20 1019 77 10000 1.5 180 00:22 17.06.2019
6263 Clear 20 1019 77 10000 1 0 23:43 16.06.2019
6264 Clear 21 1018 83 10000 0.5 240 23:23 16.06.2019
6265 Clear 21 1019 77 10000 1.5 180 22:57 16.06.2019
6266 Clear 21 1019 73 10000 3.1 200 22:39 16.06.2019
6267 Clear 21 1018 77 10000 2.6 220 22:19 16.06.2019
6268 -273 0 0 0 0 0 21:55 16.06.2019
6269 Clear 22 1018 68 10000 3.1 180 21:37 16.06.2019
6270 Clouds 22 1017 73 10000 2.6 220 21:19 16.06.2019
6271 Clear 22 1019 64 10000 2.6 200 20:37 16.06.2019
6272 Clear 23 1018 68 10000 2.6 210 20:19 16.06.2019
6273 Clear 23 1018 68 10000 2.6 210 20:19 16.06.2019
6274 Clear 23 1017 73 10000 2.6 230 19:55 16.06.2019
6275 Clear 23 1019 68 10000 4.6 210 19:37 16.06.2019
6276 Clear 23 1018 73 10000 4.6 220 19:19 16.06.2019
6277 Clear 25 1018 57 10000 4.1 210 18:41 16.06.2019
6278 Clouds 25 1018 64 10000 3.6 220 18:21 16.06.2019
6279 Clouds 25 1018 64 10000 3.6 220 18:21 16.06.2019
6280 Clouds 25 1018 69 10000 4.1 230 17:49 16.06.2019
6281 Clouds 25 1018 64 10000 6.2 230 17:24 16.06.2019
6282 Clouds 26 1019 64 10000 8.2 230 16:58 16.06.2019
6283 Clear 26 1020 60 10000 7.2 210 16:39 16.06.2019
6284 Clear 26 1019 61 10000 6.7 240 16:21 16.06.2019
6285 Clear 26 1020 57 10000 5.1 210 15:45 16.06.2019
6286 Clear 25 1020 57 10000 4.1 160 15:26 16.06.2019
6287 Clear 25 1020 57 10000 4.1 160 14:56 16.06.2019
6288 Clear 27 1020 39 10000 4.6 80 14:37 16.06.2019
6289 Clear 27 1020 39 10000 5.7 80 14:19 16.06.2019
6290 Clear 26 1020 41 10000 6.2 70 13:45 16.06.2019
6291 Clear 26 1020 39 10000 6.7 60 13:25 16.06.2019
6292 Clear 25 1020 44 10000 7.2 70 12:44 16.06.2019
6293 Clear 25 1020 47 10000 8.2 70 12:22 16.06.2019
6294 Clear 25 1019 47 10000 8.2 50 11:56 16.06.2019
6295 Clear 24 1020 50 10000 7.2 80 11:37 16.06.2019
6296 Clear 24 1020 50 10000 6.2 60 11:18 16.06.2019
6297 Clear 23 1020 53 10000 6.2 70 10:44 16.06.2019
6298 Clear 23 1019 56 10000 10.3 60 10:19 16.06.2019
6299 Clear 22 1020 53 10000 6.7 50 09:42 16.06.2019
6300 Clear 21 1019 64 10000 10.8 60 09:23 16.06.2019
6301 Clear 21 1019 64 10000 10.8 60 09:23 16.06.2019
6302 Clear 21 1019 64 10000 8.7 60 08:46 16.06.2019
6303 Clear 20 1019 68 10000 5.7 60 08:21 16.06.2019
6304 Clear 19 1020 68 10000 1.5 0 07:46 16.06.2019
6305 Clear 19 1020 68 10000 1.5 0 07:27 16.06.2019
6306 Clear 18 1020 77 10000 3.6 70 06:53 16.06.2019
6307 Clear 18 1019 82 10000 4.6 60 05:56 16.06.2019
6308 Clear 19 1019 88 10000 5.1 60 05:22 16.06.2019
6309 Clouds 18 1019 82 10000 6.2 60 04:21 16.06.2019
6310 Clear 19 1020 72 10000 4.1 50 03:42 16.06.2019
6311 Clear 19 1020 72 10000 4.1 60 03:22 16.06.2019
6312 Clouds 20 1019 77 10000 8.2 60 01:49 16.06.2019
6313 Clear 20 1020 77 10000 4.1 60 01:30 16.06.2019
6314 Clear 21 1020 82 10000 5.1 60 00:44 16.06.2019
6315 Clouds 21 1019 83 10000 6.7 70 00:25 16.06.2019
6316 Clouds 21 1019 83 10000 4.1 70 23:58 15.06.2019
6317 Clear 21 1019 82 10000 3.1 70 23:39 15.06.2019
6318 Clouds 21 1018 83 10000 4.6 70 23:20 15.06.2019
6319 Clear 22 1018 73 10000 5.7 60 22:44 15.06.2019
6320 Clouds 23 1017 73 10000 4.6 60 22:25 15.06.2019
6321 Clear 23 1017 64 10000 6.2 70 21:45 15.06.2019
6322 Clouds 24 1016 61 10000 5.1 70 21:21 15.06.2019
6323 Clear 26 1017 57 10000 6.2 70 20:46 15.06.2019
6324 Clouds 26 1016 54 10000 5.7 80 20:23 15.06.2019
6325 Clouds 28 1015 48 10000 6.2 60 19:50 15.06.2019
6326 Clouds 28 1015 45 10000 4.1 60 19:28 15.06.2019
6327 Clear 28 1016 45 10000 3.1 190 18:45 15.06.2019
6328 Clouds 28 1015 51 10000 2.6 240 18:26 15.06.2019
6329 Clouds 28 1015 51 10000 3.1 230 17:58 15.06.2019
6330 Clear 28 1016 45 10000 3.1 210 17:40 15.06.2019
6331 Clouds 28 1015 57 10000 2.6 230 17:21 15.06.2019
6332 Clear 26 1016 57 10000 3.6 210 16:43 15.06.2019
6333 Clouds 27 1015 69 10000 4.1 230 16:18 15.06.2019
6334 Clear 26 1016 54 10000 4.6 200 15:41 15.06.2019
6335 Clouds 26 1016 69 10000 6.2 230 15:21 15.06.2019
6336 Clouds 26 1016 69 10000 6.2 230 15:21 15.06.2019
6337 Clear 26 1017 54 10000 4.6 210 14:38 15.06.2019
6338 Clouds 26 1016 65 10000 5.1 230 14:18 15.06.2019
6339 Clear 26 1017 64 10000 4.6 200 13:44 15.06.2019
6340 Clear 26 1017 57 10000 4.6 200 13:21 15.06.2019
6341 Clear 26 1016 69 10000 3.6 210 12:59 15.06.2019
6342 Clear 26 1017 64 10000 3.6 220 12:40 15.06.2019
6343 Clear 25 1017 69 10000 3.1 220 12:21 15.06.2019
6344 Clear 25 1017 69 10000 2.1 210 11:45 15.06.2019
6345 Clear 25 1017 69 10000 2.1 210 11:45 15.06.2019
6346 Clouds 24 1016 73 10000 3.6 210 11:27 15.06.2019
6347 Clouds 22 1017 73 10000 3.6 210 10:43 15.06.2019
6348 Clouds 23 1016 73 10000 4.1 230 10:25 15.06.2019
6349 Clouds 22 1017 73 10000 4.1 210 09:48 15.06.2019
6350 Clouds 22 1016 78 10000 4.1 220 09:26 15.06.2019
6351 Clouds 22 1016 78 10000 4.1 220 09:26 15.06.2019
6352 Clouds 21 1015 77 10000 4.6 220 08:54 15.06.2019
6353 Clouds 21 1016 73 10000 3.1 220 08:36 15.06.2019
6354 Clouds 21 1016 77 10000 4.1 220 08:18 15.06.2019
6355 Clouds 20 1015 77 10000 4.6 220 07:25 15.06.2019
6356 Clouds 20 1016 77 10000 4.1 220 06:48 15.06.2019
6357 Clouds 20 1015 73 10000 4.1 230 06:22 15.06.2019
6358 Clouds 20 1015 88 10000 1 0 05:39 15.06.2019
6359 Clouds 19 1014 77 10000 1 0 04:51 15.06.2019
6360 Clouds 19 1014 82 10000 4.38 187.945 03:51 15.06.2019
6361 Clouds 19 1015 82 10000 0.5 0 03:22 15.06.2019
6362 Clear 19 1016 88 10000 1 0 02:31 15.06.2019
6363 Clear 20 1016 88 10000 1 0 01:57 15.06.2019
6364 Clouds 20 1015 88 10000 0.5 170 01:20 15.06.2019
6365 Clear 20 1016 82 10000 2.1 210 00:42 15.06.2019
6366 Clouds 21 1015 83 10000 2.6 220 00:23 15.06.2019
6367 Clear 21 1016 88 10000 2.1 210 23:46 14.06.2019
6368 Clouds 21 1015 88 10000 2.6 220 23:19 14.06.2019
6369 Clear 21 1015 83 10000 3.6 200 22:41 14.06.2019
6370 Clouds 21 1014 88 10000 3.1 220 22:21 14.06.2019
6371 Clouds 22 1014 83 10000 4.6 220 21:48 14.06.2019
6372 Clouds 22 1014 83 10000 4.6 220 21:28 14.06.2019
6373 Clouds 22 1014 83 10000 4.6 220 21:28 14.06.2019
6374 Clear 23 1014 73 10000 3.1 210 20:55 14.06.2019
6375 Clear 23 1014 68 10000 5.7 190 20:36 14.06.2019
6376 Clear 23 1014 64 10000 5.7 200 20:18 14.06.2019
6377 Clear 24 1013 53 10000 6.2 200 19:39 14.06.2019
6378 Clear 24 1012 60 10000 4.6 230 19:21 14.06.2019
6379 Clear 24 1012 57 10000 6.2 220 18:54 14.06.2019
6380 Clear 24 1013 50 10000 7.2 200 18:54 14.06.2019
6381 Clear 24 1013 50 10000 7.2 200 18:36 14.06.2019
6382 Clear 25 1013 47 10000 7.7 210 18:18 14.06.2019
6383 Clear 26 1013 41 10000 6.7 250 17:44 14.06.2019
6384 Clouds 26 1012 53 10000 8.7 220 17:23 14.06.2019
6385 Clouds 25 1012 50 10000 10.3 260 16:49 14.06.2019
6386 Clouds 25 1011 53 10000 10.3 240 16:24 14.06.2019
6387 Clouds 25 1011 53 10000 10.3 240 16:24 14.06.2019
6388 Clouds 25 1011 53 10000 10.3 240 16:24 14.06.2019
6389 Clear 25 1012 50 10000 7.7 230 15:59 14.06.2019
6390 Clear 26 1012 53 10000 3.1 330 15:39 14.06.2019
6391 Clouds 25 1011 57 10000 9.3 240 15:20 14.06.2019
6392 Clouds 24 1011 57 10000 8.7 250 14:47 14.06.2019
6393 Rain 24 1012 60 10000 6.2 290 14:29 14.06.2019
6394 Rain 23 1012 64 10000 6.7 280 13:47 14.06.2019
6395 Rain 23 1012 64 10000 6.7 280 13:29 14.06.2019
6396 Rain 22 1011 64 10000 6.7 270 12:59 14.06.2019
6397 Rain 22 1011 68 10000 5.7 270 12:39 14.06.2019
6398 Clouds 21 1010 73 10000 9.3 260 12:21 14.06.2019
6399 Rain 22 1010 68 10000 6.2 260 11:43 14.06.2019
6400 Clouds 22 1009 77 10000 9.8 260 11:24 14.06.2019
6401 Rain 22 1009 69 10000 3.1 290 10:50 14.06.2019
6402 Clouds 22 1008 83 10000 10.3 250 10:22 14.06.2019
6403 Rain 22 1008 73 10000 4.6 300 09:56 14.06.2019
6404 Clear 22 1006 73 10000 5.1 320 09:37 14.06.2019
6405 Clear 22 1008 78 10000 3.6 310 09:19 14.06.2019
6406 Clear 23 1006 69 10000 3.1 260 08:41 14.06.2019
6407 Clear 22 1006 68 10000 2.6 250 08:18 14.06.2019
6408 Clear 22 1006 77 10000 1.5 330 07:45 14.06.2019
6409 Clouds 22 1005 78 10000 1.5 340 07:19 14.06.2019
6410 Clouds 22 1005 78 10000 1.5 70 06:27 14.06.2019
6411 Clouds 22 1004 73 10000 4.6 60 05:54 14.06.2019
6412 Clouds 22 1004 73 10000 5.7 60 04:56 14.06.2019
6413 Clouds 22 1006 68 10000 5.1 60 04:36 14.06.2019
6414 Clear 22 1007 68 10000 5.1 60 03:49 14.06.2019
6415 Clouds 22 1006 68 10000 6.2 50 03:24 14.06.2019
6416 Clear 22 1007 68 10000 5.7 50 02:47 14.06.2019
6417 -273 0 0 0 0 0 01:58 14.06.2019
6418 Clouds 21 1008 73 10000 6.7 50 00:49 14.06.2019
6419 Clouds 22 1008 73 10000 6.7 50 00:22 14.06.2019
6420 Clouds 22 1009 73 10000 7.2 60 23:56 13.06.2019
6421 Clouds 22 1009 73 10000 7.2 60 23:27 13.06.2019
6422 Clear 22 1011 73 10000 4.6 50 22:59 13.06.2019
6423 Clear 21 1011 73 10000 6.7 60 22:39 13.06.2019
6424 Clouds 22 1010 73 10000 6.2 60 22:20 13.06.2019
6425 Clear 22 1010 68 10000 6.2 50 21:39 13.06.2019
6426 Clouds 23 1009 69 10000 6.2 50 21:20 13.06.2019
6427 Clouds 23 1009 69 10000 6.2 50 21:20 13.06.2019
6428 Clouds 23 1009 69 10000 6.2 50 21:20 13.06.2019
6429 Clouds 23 1008 60 10000 7.7 70 20:55 13.06.2019
6430 Clear 24 1010 57 10000 6.2 60 20:36 13.06.2019
6431 Clear 24 1009 57 10000 7.2 70 20:18 13.06.2019
6432 Clear 24 1009 53 10000 7.7 60 20:18 13.06.2019
6433 Clear 24 1009 53 10000 8.2 60 19:41 13.06.2019
6434 Clear 25 1008 51 10000 6.7 80 19:22 13.06.2019
6435 Clear 26 1009 47 10000 7.2 90 18:57 13.06.2019
6436 Clear 26 1010 41 10000 8.2 60 18:39 13.06.2019
6437 Clear 26 1010 41 10000 8.7 60 18:21 13.06.2019
6438 Clear 27 1010 39 10000 8.2 60 17:42 13.06.2019
6439 Clear 27 1011 39 10000 8.7 60 17:20 13.06.2019
6440 Clear 27 1010 37 10000 7.2 70 16:50 13.06.2019
6441 Clear 27 1010 37 10000 8.2 60 16:22 13.06.2019
6442 Clear 27 1010 35 10000 8.2 50 15:57 13.06.2019
6443 Clear 27 1012 36 10000 7.7 60 15:39 13.06.2019
6444 Clear 27 1012 39 10000 8.7 60 15:19 13.06.2019
6445 Clear 27 1012 41 10000 8.2 60 14:46 13.06.2019
6446 -273 0 0 0 0 0 14:27 13.06.2019
6447 Clear 26 1013 41 10000 7.7 80 13:47 13.06.2019
6448 Clear 26 1013 42 10000 6.7 60 13:22 13.06.2019
6449 Clouds 25 1013 44 10000 7.2 70 12:58 13.06.2019
6450 Clear 25 1014 41 10000 8.7 60 12:38 13.06.2019
6451 Clouds 25 1013 47 10000 8.2 70 12:19 13.06.2019
6452 Clear 23 1014 46 10000 7.7 70 11:43 13.06.2019
6453 Clouds 23 1013 50 10000 9.3 50 11:24 13.06.2019
6454 Clear 22 1013 56 10000 7.7 70 10:47 13.06.2019
6455 Clouds 22 1012 56 10000 8.7 60 10:28 13.06.2019
6456 Clouds 22 1013 64 10000 9.3 60 09:52 13.06.2019
6457 -273 0 0 0 0 0 09:28 13.06.2019
6458 Clouds 20 1013 77 10000 7.2 60 08:55 13.06.2019
6459 Clear 20 1013 72 10000 6.7 60 08:55 13.06.2019
6460 Clear 19 1014 55 10000 4.1 50 08:37 13.06.2019
6461 Clear 19 1014 68 10000 2.1 30 08:19 13.06.2019
6462 Clear 17 1014 77 10000 1.5 340 07:37 13.06.2019
6463 Clear 17 1014 82 10000 2.1 70 07:18 13.06.2019
6464 Clear 17 1014 82 10000 1.5 40 06:38 13.06.2019
6465 Clear 17 1013 87 10000 1.5 90 06:20 13.06.2019
6466 Clouds 16 1013 82 10000 1.5 50 05:39 13.06.2019
6467 Clouds 16 1013 82 10000 1.5 50 05:18 13.06.2019
6468 Clear 16 1015 77 10000 2.6 10 03:45 13.06.2019
6469 Clouds 18 1014 77 10000 2.1 70 01:55 13.06.2019
6470 Clear 18 1016 72 10000 3.1 50 00:32 13.06.2019
6471 Clear 18 1016 72 10000 3.1 50 00:32 13.06.2019
6472 Clear 18 1016 68 10000 3.1 70 23:38 12.06.2019
6473 Clouds 19 1015 72 10000 3.6 50 23:19 12.06.2019
6474 Clear 19 1016 63 10000 3.6 80 22:41 12.06.2019
6475 Clouds 20 1015 64 10000 2.1 60 22:21 12.06.2019
6476 Clear 21 1015 56 10000 4.6 100 21:46 12.06.2019
6477 Rain 21 1014 56 10000 3.1 100 21:28 12.06.2019
6478 Rain 21 1015 64 10000 5.1 240 20:49 12.06.2019
6479 Rain 22 1015 56 10000 5.1 240 20:30 12.06.2019
6480 Rain 22 1015 56 10000 5.1 240 19:59 12.06.2019
6481 Rain 22 1015 56 10000 5.1 240 19:40 12.06.2019
6482 Clouds 22 1014 53 10000 1.5 50 19:22 12.06.2019
6483 Clouds 23 1014 60 10000 3.6 300 18:49 12.06.2019
6484 Clouds 23 1014 57 10000 4.1 280 18:28 12.06.2019
6485 Clouds 23 1014 60 10000 4.6 250 17:51 12.06.2019
6486 Clouds 23 1014 60 10000 4.6 240 17:23 12.06.2019
6487 Clouds 23 1015 60 10000 6.2 220 16:59 12.06.2019
6488 Clouds 23 1015 53 10000 4.1 190 16:39 12.06.2019
6489 Clouds 23 1015 49 10000 3.1 180 16:20 12.06.2019
6490 Clouds 23 1015 53 10000 3.1 0 15:46 12.06.2019
6491 Clouds 23 1015 53 10000 1 320 15:28 12.06.2019
6492 Clouds 22 1016 49 10000 2.1 130 14:39 12.06.2019
6493 Clouds 22 1015 53 10000 4.1 60 14:20 12.06.2019
6494 Clouds 22 1016 46 10000 1.5 260 13:42 12.06.2019
6495 Clouds 22 1016 49 10000 2.1 100 13:20 12.06.2019
6496 Clouds 22 1015 46 10000 2.6 20 12:56 12.06.2019
6497 Clouds 22 1016 49 10000 2.6 70 12:38 12.06.2019
6498 Clouds 22 1015 49 10000 2.6 70 12:19 12.06.2019
6499 Clouds 21 1016 52 10000 3.1 50 11:45 12.06.2019
6500 Clouds 21 1016 52 10000 3.1 50 11:27 12.06.2019
6501 Clouds 20 1015 60 10000 3.6 60 10:50 12.06.2019
6502 Clouds 20 1016 59 10000 3.1 80 10:25 12.06.2019
6503 Clouds 20 1016 63 10000 4.1 80 09:45 12.06.2019
6504 Clouds 18 1015 68 10000 3.6 50 09:23 12.06.2019
6505 Clouds 18 1015 72 10000 3.1 60 08:55 12.06.2019
6506 Clouds 18 1014 72 10000 4.1 60 08:21 12.06.2019
6507 Clouds 18 1015 72 10000 3.6 50 07:45 12.06.2019
6508 Clouds 17 1013 77 10000 4.6 60 06:54 12.06.2019
6509 Clouds 17 1013 72 10000 4.6 60 05:27 12.06.2019
6510 Clouds 17 1013 72 10000 3.6 60 04:54 12.06.2019
6511 Clouds 17 1013 77 10000 7.2 60 01:58 12.06.2019
6512 Rain 17 1014 77 10000 4.6 50 00:40 12.06.2019
6513 Clouds 18 1014 72 10000 2.6 10 23:50 11.06.2019
6514 Clouds 18 1013 72 10000 7.2 60 23:31 11.06.2019
6515 Clear 19 1013 68 10000 3.6 360 22:44 11.06.2019
6516 Clouds 19 1012 72 10000 7.7 60 22:21 11.06.2019
6517 Clear 19 1012 72 10000 4.1 340 21:58 11.06.2019
6518 Clear 20 1012 68 10000 6.2 350 21:39 11.06.2019
6519 Clouds 20 1011 72 10000 5.7 330 21:20 11.06.2019
6520 Clear 20 1011 68 10000 5.1 320 21:20 11.06.2019
6521 Clouds 20 1011 72 10000 5.7 330 21:20 11.06.2019
6522 Clouds 20 1010 68 10000 6.2 320 20:49 11.06.2019
6523 Clouds 21 1010 64 10000 4.1 310 20:26 11.06.2019
6524 Clouds 22 1010 68 10000 5.7 290 19:57 11.06.2019
6525 Clouds 22 1010 64 10000 4.1 250 19:39 11.06.2019
6526 Clear 22 1010 60 10000 4.6 230 19:18 11.06.2019
6527 Clear 23 1011 56 10000 4.6 210 18:40 11.06.2019
6528 Clear 23 1011 60 10000 5.1 220 18:18 11.06.2019
6529 Clear 23 1011 60 10000 5.7 210 17:41 11.06.2019
6530 -273 0 0 0 0 0 17:19 11.06.2019
6531 Clear 24 1011 53 10000 5.1 230 16:42 11.06.2019
6532 Clouds 24 1010 64 10000 6.2 230 16:23 11.06.2019
6533 Clouds 24 1010 64 10000 6.2 230 16:23 11.06.2019
6534 Clear 24 1011 50 10000 6.7 220 15:43 11.06.2019
6535 Clouds 24 1010 69 10000 5.7 230 15:25 11.06.2019
6536 Clouds 24 1010 64 10000 5.1 190 14:54 11.06.2019
6537 Clouds 24 1010 60 10000 4.6 190 14:23 11.06.2019
6538 Clouds 23 1010 60 10000 4.1 170 13:58 11.06.2019
6539 Clouds 23 1011 64 10000 6.7 200 13:37 11.06.2019
6540 Clouds 23 1011 60 10000 5.7 190 13:19 11.06.2019
6541 Clouds 23 1012 64 10000 5.1 210 12:41 11.06.2019
6542 Clouds 22 1010 64 10000 4.1 180 12:21 11.06.2019
6543 Clouds 22 1010 64 10000 4.1 180 12:21 11.06.2019
6544 Clouds 22 1011 60 10000 1 130 11:54 11.06.2019
6545 Clouds 22 1011 60 10000 1 130 11:32 11.06.2019
6546 Clouds 23 1010 56 10000 2.1 160 10:51 11.06.2019
6547 Clouds 22 1012 60 10000 2.1 0 10:27 11.06.2019
6548 Clouds 22 1011 73 10000 2.6 60 09:51 11.06.2019
6549 Clouds 21 1011 68 10000 3.1 70 09:26 11.06.2019
6550 Clouds 20 1012 72 10000 3.6 90 08:58 11.06.2019
6551 Clouds 20 1012 77 10000 3.1 80 08:40 11.06.2019
6552 Clouds 19 1011 77 10000 2.6 60 08:19 11.06.2019
6553 Clear 17 1012 77 10000 1 360 07:33 11.06.2019
6554 Clouds 17 1011 82 10000 1 0 06:53 11.06.2019
6555 Clouds 18 1011 77 10000 0.5 0 05:21 11.06.2019
6556 Clouds 18 1012 77 10000 1.5 340 04:38 11.06.2019
6557 Clouds 20 1013 68 10000 0.5 230 02:27 11.06.2019
6558 Clouds 21 1014 64 10000 1 200 00:53 11.06.2019
6559 Clouds 21 1015 64 10000 2.6 210 00:31 11.06.2019
6560 Clouds 21 1014 68 10000 2.1 200 23:46 10.06.2019
6561 Clouds 21 1014 68 10000 2.1 210 23:21 10.06.2019
6562 Clouds 21 1014 73 10000 3.1 180 22:45 10.06.2019
6563 Clouds 21 1014 73 10000 3.1 180 22:27 10.06.2019
6564 Clouds 21 1014 77 10000 3.1 200 21:56 10.06.2019
6565 Clouds 21 1014 77 10000 3.1 200 21:38 10.06.2019
6566 Clouds 21 1013 73 10000 3.1 240 21:20 10.06.2019
6567 Clear 22 1013 77 10000 5.1 210 20:42 10.06.2019
6568 Clouds 22 1012 78 10000 4.1 220 20:21 10.06.2019
6569 Clear 22 1013 68 10000 6.7 210 19:46 10.06.2019
6570 Clouds 23 1012 69 10000 5.7 230 19:23 10.06.2019
6571 Clouds 24 1012 69 10000 6.2 220 18:58 10.06.2019
6572 Clear 24 1013 64 10000 6.7 200 18:40 10.06.2019
6573 Clouds 24 1012 64 10000 6.2 220 18:20 10.06.2019
6574 Clear 25 1013 60 10000 6.7 190 17:44 10.06.2019
6575 Clouds 26 1012 61 10000 5.7 210 17:24 10.06.2019
6576 Clear 25 1013 57 10000 7.2 210 16:56 10.06.2019
6577 Clear 26 1013 57 10000 6.7 200 16:37 10.06.2019
6578 Clouds 26 1012 61 10000 6.7 220 16:18 10.06.2019
6579 Clear 25 1013 57 10000 7.2 210 15:41 10.06.2019
6580 Clouds 25 1012 64 10000 7.2 240 15:23 10.06.2019
6581 Clouds 26 1013 61 10000 7.7 210 14:46 10.06.2019
6582 Clouds 26 1013 61 10000 7.7 210 14:28 10.06.2019
6583 Clouds 26 1013 65 10000 7.7 230 13:56 10.06.2019
6584 Clouds 26 1013 53 10000 4.6 210 13:38 10.06.2019
6585 Clouds 26 1013 57 10000 3.1 0 13:19 10.06.2019
6586 Clear 25 1014 50 10000 4.6 80 12:40 10.06.2019
6587 Clouds 25 1013 54 10000 6.7 60 12:22 10.06.2019
6588 Clear 25 1014 53 10000 5.1 80 11:43 10.06.2019
6589 Clear 24 1014 53 10000 6.7 70 11:19 10.06.2019
6590 Clear 24 1014 53 10000 5.7 70 10:42 10.06.2019
6591 Clouds 24 1013 53 10000 8.2 60 10:20 10.06.2019
6592 Clear 24 1014 53 10000 6.2 60 09:55 10.06.2019
6593 Clouds 22 1012 60 10000 8.7 70 09:32 10.06.2019
6594 Clear 21 1013 64 10000 6.2 60 08:50 10.06.2019
6595 Clouds 20 1012 68 10000 6.2 60 08:27 10.06.2019
6596 Clouds 19 1012 72 10000 5.7 60 07:59 10.06.2019
6597 Clear 18 1013 82 10000 1.5 20 06:33 10.06.2019
6598 Clear 19 1013 77 10000 1 0 03:59 10.06.2019
6599 Clear 20 1013 72 10000 1 0 01:57 10.06.2019
6600 Clear 20 1013 72 10000 2.55 314.206 01:23 10.06.2019
6601 Clear 20 1013 73 10000 1.5 180 00:54 10.06.2019
6602 Clear 21 1014 68 10000 2.6 320 23:59 09.06.2019
6603 Clear 21 1014 68 10000 2.1 320 23:40 09.06.2019
6604 Clear 22 1013 78 10000 1.5 160 23:18 09.06.2019
6605 Clear 23 1013 64 10000 1.5 210 22:42 09.06.2019
6606 Clear 23 1012 78 10000 0.5 0 22:24 09.06.2019
6607 Clear 24 1013 57 10000 1.5 140 21:41 09.06.2019
6608 Clear 23 1012 73 10000 1.5 250 21:22 09.06.2019
6609 Clear 24 1012 53 10000 1 0 20:42 09.06.2019
6610 Clear 25 1011 69 10000 2.1 180 20:23 09.06.2019
6611 Clear 25 1011 61 10000 2.1 180 19:46 09.06.2019
6612 Clear 25 1011 64 10000 3.1 200 19:19 09.06.2019
6613 Clear 25 1011 64 10000 3.1 200 19:19 09.06.2019
6614 Clear 26 1011 61 10000 3.6 200 18:58 09.06.2019
6615 Clear 26 1012 44 10000 4.6 210 18:40 09.06.2019
6616 Clear 27 1011 57 10000 5.1 210 18:22 09.06.2019
6617 Clear 27 1012 37 10000 2.1 240 17:46 09.06.2019
6618 Clear 28 1012 37 10000 2.1 240 17:27 09.06.2019
6619 Clear 27 1011 51 10000 3.6 230 16:54 09.06.2019
6620 Clear 27 1011 51 10000 3.6 230 16:54 09.06.2019
6621 Clear 27 1013 42 10000 4.1 210 16:36 09.06.2019
6622 Clear 27 1012 57 10000 3.1 220 16:18 09.06.2019
6623 Clear 27 1013 35 10000 3.6 270 15:44 09.06.2019
6624 Clear 28 1012 48 10000 4.6 220 15:24 09.06.2019
6625 Clear 26 1013 42 10000 4.1 310 14:45 09.06.2019
6626 Clear 26 1013 50 10000 4.1 240 14:22 09.06.2019
6627 Clear 25 1014 47 10000 4.1 220 13:52 09.06.2019
6628 Clear 25 1013 60 10000 5.7 230 13:26 09.06.2019
6629 Clear 24 1014 53 10000 5.7 220 12:42 09.06.2019
6630 Clear 24 1013 60 10000 4.6 230 12:23 09.06.2019
6631 Clear 24 1014 60 10000 4.1 230 11:40 09.06.2019
6632 Clear 24 1013 69 10000 4.6 250 11:22 09.06.2019
6633 Clear 24 1013 64 10000 2.1 230 10:46 09.06.2019
6634 Clear 24 1013 64 10000 1 150 10:23 09.06.2019
6635 Clear 24 1015 56 10000 0.5 100 09:41 09.06.2019
6636 Clear 22 1014 64 10000 1 20 09:23 09.06.2019
6637 Clouds 22 1014 64 10000 1 0 08:55 09.06.2019
6638 Clear 21 1015 64 10000 2.6 60 08:36 09.06.2019
6639 Clear 20 1015 68 10000 1.5 70 07:46 09.06.2019
6640 Clear 20 1015 60 10000 2.1 80 06:30 09.06.2019
6641 Clear 20 1015 60 10000 4.1 60 05:34 09.06.2019
6642 Clear 20 1018 46 10000 7.2 70 01:58 09.06.2019
6643 Clear 20 1018 40 10000 5.1 60 01:36 09.06.2019
6644 Clear 20 1018 40 10000 5.1 60 01:36 09.06.2019
6645 Clear 20 1017 49 10000 6.7 70 01:18 09.06.2019
6646 Clear 21 1018 52 10000 6.7 70 00:21 09.06.2019
6647 Clear 21 1020 46 10000 4.6 40 23:38 08.06.2019
6648 Clear 21 1020 46 10000 5.7 50 23:20 08.06.2019
6649 Clear 21 1020 46 10000 5.1 40 22:43 08.06.2019
6650 Clear 21 1018 52 10000 4.6 70 22:25 08.06.2019
6651 Clear 22 1018 52 10000 5.1 70 21:53 08.06.2019
6652 Clear 23 1019 40 10000 4.6 60 21:35 08.06.2019
6653 Clear 23 1018 49 10000 6.2 70 21:34 08.06.2019
6654 Clear 23 1020 38 10000 6.2 60 20:59 08.06.2019
6655 Clouds 24 1020 40 10000 6.2 60 20:40 08.06.2019
6656 Clear 24 1019 41 10000 8.2 60 20:21 08.06.2019
6657 Clear 24 1019 38 10000 7.7 60 19:42 08.06.2019
6658 Clear 25 1018 38 10000 8.2 60 19:23 08.06.2019
6659 Clear 25 1020 36 10000 7.7 60 18:58 08.06.2019
6660 Clear 25 1020 36 10000 8.2 60 18:39 08.06.2019
6661 Clear 25 1020 33 10000 8.7 60 18:18 08.06.2019
6662 Clear 25 1020 33 10000 8.2 70 17:42 08.06.2019
6663 Clear 25 1019 36 10000 8.7 60 17:19 08.06.2019
6664 Clear 26 1021 31 10000 8.2 70 16:45 08.06.2019
6665 Clear 26 1020 36 10000 8.7 60 16:26 08.06.2019
6666 Clear 26 1020 36 10000 8.7 60 15:49 08.06.2019
6667 Clear 25 1022 36 10000 8.7 80 15:30 08.06.2019
6668 Clear 25 1022 36 10000 10.3 70 14:47 08.06.2019
6669 Clear 24 1022 36 10000 10.3 70 14:28 08.06.2019
6670 Clear 24 1023 36 10000 10.8 70 13:44 08.06.2019
6671 Clear 24 1022 38 10000 9.8 80 12:52 08.06.2019
6672 Clear 24 1022 38 10000 9.8 80 12:33 08.06.2019
6673 Clear 23 1021 38 10000 11.3 70 11:44 08.06.2019
6674 Clear 23 1020 46 10000 12.9 60 11:26 08.06.2019
6675 Clear 22 1021 46 10000 10.3 50 10:47 08.06.2019
6676 Clear 22 1021 49 10000 12.3 50 10:24 08.06.2019
6677 Clear 21 1021 49 10000 10.8 60 09:54 08.06.2019
6678 Clear 21 1022 52 10000 9.8 60 09:33 08.06.2019
6679 Clear 20 1021 52 10000 9.8 60 08:44 08.06.2019
6680 Clear 20 1020 60 10000 8.7 70 08:19 08.06.2019
6681 Clear 19 1020 59 10000 7.7 60 06:53 08.06.2019
6682 Clear 20 1020 59 10000 7.7 60 06:34 08.06.2019
6683 Clear 20 1021 72 10000 5.7 60 03:35 08.06.2019
6684 Clear 20 1020 72 10000 3.6 50 02:20 08.06.2019
6685 Clear 21 1020 56 10000 2.1 20 00:30 08.06.2019
6686 Clear 21 1019 72 10000 2.1 30 23:58 07.06.2019
6687 Clear 22 1019 64 10000 3.1 110 23:21 07.06.2019
6688 Clear 22 1018 68 10000 1 0 22:51 07.06.2019
6689 Clear 22 1018 64 10000 2.6 110 22:32 07.06.2019
6690 Clear 23 1017 73 10000 2.1 130 21:55 07.06.2019
6691 Clear 24 1017 36 10000 2.6 340 21:37 07.06.2019
6692 Clear 25 1016 69 10000 3.1 230 21:18 07.06.2019
6693 Clear 25 1016 30 10000 2.6